# Wetter Temperatur Luftdruck Luftfeuchtigkeit Sichtweite Windgeschwindigkeit Windrichtung Zeit
1 Clear 10 1016 76 10000 2.6 0 20:56 17.10.2019
2 Clear 11 1016 76 10000 1.5 0 20:38 17.10.2019
3 Clear 11 1016 71 10000 1.5 270 20:18 17.10.2019
4 Clear 10 1016 71 10000 1.5 270 19:55 17.10.2019
5 Clear 11 1015 76 10000 1 0 19:37 17.10.2019
6 Clear 12 1015 66 10000 0.5 0 19:18 17.10.2019
7 Clear 12 1015 66 10000 0.5 0 19:18 17.10.2019
8 Clear 14 1015 62 10000 1 0 18:42 17.10.2019
9 Clear 15 1014 55 10000 1.5 0 18:21 17.10.2019
10 Clouds 16 1014 51 10000 2.1 180 17:55 17.10.2019
11 Clouds 17 1014 51 10000 2.1 180 17:37 17.10.2019
12 Clouds 17 1015 48 10000 2.1 120 17:19 17.10.2019
13 Clouds 18 1015 45 10000 2.6 70 16:42 17.10.2019
14 Clouds 18 1015 45 10000 2.6 70 16:42 17.10.2019
15 Clouds 17 1015 48 10000 2.1 130 16:19 17.10.2019
16 Clouds 17 1015 48 10000 2.1 130 15:59 17.10.2019
17 Clouds 17 1015 48 10000 2.1 100 15:41 17.10.2019
18 Clouds 17 1015 52 10000 2.6 100 15:20 17.10.2019
19 Clouds 17 1015 52 10000 2.6 100 14:58 17.10.2019
20 Clouds 17 1016 52 10000 1.5 130 14:39 17.10.2019
21 Clouds 16 1016 52 10000 0.5 0 14:20 17.10.2019
22 Clouds 16 1017 59 10000 0.5 0 13:41 17.10.2019
23 Clouds 16 1017 55 10000 0.5 0 13:21 17.10.2019
24 Clouds 15 1017 55 10000 0.5 0 12:58 17.10.2019
25 Clouds 15 1018 62 10000 0.5 0 12:39 17.10.2019
26 Clouds 13 1018 66 10000 1.5 240 12:20 17.10.2019
27 Clouds 13 1019 62 10000 0.5 0 11:56 17.10.2019
28 Clouds 12 1019 62 10000 0.5 0 11:38 17.10.2019
29 Clouds 11 1019 76 10000 1.5 230 11:18 17.10.2019
30 -273 0 0 0 0 0 10:42 17.10.2019
31 Clouds 10 1019 81 10000 0.5 0 10:20 17.10.2019
32 Clouds 10 1019 81 10000 0.5 0 09:58 17.10.2019
33 Clouds 10 1019 81 10000 1 0 09:39 17.10.2019
34 Clouds 6 1020 93 10000 1 0 09:20 17.10.2019
35 Clouds 7 1020 93 10000 1 0 08:57 17.10.2019
36 -273 0 0 0 0 0 08:57 17.10.2019
37 Clouds 6 1019 93 10000 0.5 0 08:38 17.10.2019
38 Clouds 6 1019 93 10000 0.5 0 08:18 17.10.2019
39 Clouds 6 1019 93 10000 0.5 0 07:48 17.10.2019
40 Clouds 6 1019 93 10000 0.5 0 07:21 17.10.2019
41 Clouds 6 1019 93 10000 0.5 0 07:21 17.10.2019
42 Clouds 6 1019 93 10000 0.5 0 06:56 17.10.2019
43 Clouds 6 1018 87 10000 0.5 0 06:38 17.10.2019
44 Clouds 6 1019 93 10000 0.5 0 06:19 17.10.2019
45 Clouds 6 1018 93 10000 1 0 05:41 17.10.2019
46 Clouds 7 1018 87 10000 0.5 0 05:20 17.10.2019
47 Clouds 7 1018 93 10000 0.5 0 04:48 17.10.2019
48 Clouds 7 1018 93 10000 0.5 0 03:49 17.10.2019
49 Clouds 7 1018 93 10000 0.5 0 03:49 17.10.2019
50 Clear 7 1019 93 10000 1.5 340 02:32 17.10.2019
51 Clear 6 1018 87 10000 1 0 00:43 17.10.2019
52 Clear 7 1018 93 10000 1.5 290 00:21 17.10.2019
53 Clear 7 1018 93 10000 1.5 290 23:59 16.10.2019
54 Clear 7 1018 87 10000 2.1 240 23:41 16.10.2019
55 Clear 7 1018 87 10000 2.1 240 23:41 16.10.2019
56 Clear 7 1018 87 10000 1.5 270 23:19 16.10.2019
57 Clear 6 1018 87 10000 1.5 270 22:54 16.10.2019
58 Clear 6 1018 87 10000 1.5 270 22:36 16.10.2019
59 Clear 7 1018 81 10000 1.5 240 22:18 16.10.2019
60 Clear 7 1018 81 10000 1.5 240 21:54 16.10.2019
61 Clear 7 1018 81 10000 2.1 250 21:36 16.10.2019
62 Clear 8 1018 81 10000 2.1 250 21:18 16.10.2019
63 Clear 9 1018 81 10000 2.1 250 20:56 16.10.2019
64 Clear 9 1017 81 10000 2.6 260 20:37 16.10.2019
65 Clear 9 1017 81 10000 2.6 260 20:37 16.10.2019
66 Clear 9 1017 81 10000 2.1 280 20:19 16.10.2019
67 Clear 10 1017 76 10000 2.1 100 19:40 16.10.2019
68 Clear 10 1017 76 10000 2.1 100 19:40 16.10.2019
69 Clear 10 1017 76 10000 0.5 0 19:21 16.10.2019
70 Clear 11 1017 76 10000 0.5 0 18:58 16.10.2019
71 Clear 13 1016 71 10000 0.5 0 18:38 16.10.2019
72 Clear 13 1016 67 10000 1.5 170 18:19 16.10.2019
73 Clear 13 1016 67 10000 1.5 170 18:19 16.10.2019
74 Clear 14 1016 67 10000 1.5 170 17:56 16.10.2019
75 Clear 15 1016 63 10000 1.5 190 17:37 16.10.2019
76 Clear 15 1016 55 10000 1.5 200 17:19 16.10.2019
77 Clear 15 1016 55 10000 1.5 200 16:57 16.10.2019
78 Clear 15 1016 55 10000 1.5 140 16:38 16.10.2019
79 Clear 15 1016 55 10000 1.5 130 16:20 16.10.2019
80 Clouds 15 1016 55 10000 0.5 0 15:41 16.10.2019
81 Clouds 15 1016 55 10000 0.5 0 15:41 16.10.2019
82 Clouds 15 1017 59 10000 1.5 260 15:19 16.10.2019
83 Clouds 15 1017 59 10000 1.5 260 14:59 16.10.2019
84 -273 0 0 0 0 0 14:40 16.10.2019
85 Clouds 14 1017 62 10000 1 0 14:21 16.10.2019
86 Clouds 14 1017 62 10000 1 0 13:59 16.10.2019
87 Clouds 14 1018 58 10000 2.6 180 13:41 16.10.2019
88 Clouds 14 1018 62 10000 2.1 110 13:22 16.10.2019
89 Clouds 13 1018 62 10000 1 0 12:44 16.10.2019
90 Clouds 13 1018 62 10000 1 0 12:44 16.10.2019
91 Clouds 11 1019 66 10000 1.5 190 12:20 16.10.2019
92 Clouds 11 1019 66 10000 1.5 190 11:58 16.10.2019
93 Clouds 11 1018 66 10000 1.5 230 11:40 16.10.2019
94 Clouds 10 1019 71 10000 2.6 270 11:18 16.10.2019
95 Clouds 10 1019 81 10000 2.1 260 10:37 16.10.2019
96 Clouds 10 1019 81 10000 1.5 180 10:19 16.10.2019
97 Clouds 9 1019 93 10000 2.6 260 09:41 16.10.2019
98 Clouds 8 1018 93 10000 2.6 280 09:22 16.10.2019
99 Clouds 8 1018 93 10000 2.6 280 08:58 16.10.2019
100 Clouds 8 1018 93 10000 1.5 290 08:40 16.10.2019
101 Clouds 8 1018 100 10000 1 0 08:20 16.10.2019
102 Clouds 8 1017 100 10000 0.5 0 07:43 16.10.2019
103 Clouds 8 1017 100 10000 0.5 0 07:24 16.10.2019
104 Clouds 8 1017 100 10000 0.5 0 06:56 16.10.2019
105 Clouds 8 1017 93 10000 0.5 0 06:35 16.10.2019
106 Rain 8 1016 87 10000 1 0 05:23 16.10.2019
107 Rain 9 1015 76 10000 8.7 230 02:57 16.10.2019
108 Clouds 10 1012 82 10000 2.1 230 01:39 16.10.2019
109 Clouds 11 1011 71 10000 1.5 0 01:18 16.10.2019
110 Clouds 12 1011 67 10000 3.6 100 00:45 16.10.2019
111 Rain 11 1011 72 10000 4.6 0 23:59 15.10.2019
112 Rain 12 1010 55 10000 5.1 130 23:39 15.10.2019
113 Clouds 13 1010 52 10000 3.6 0 23:21 15.10.2019
114 Clouds 14 1010 52 10000 3.6 0 22:55 15.10.2019
115 -273 0 0 0 0 0 22:55 15.10.2019
116 Clouds 18 1009 52 10000 4.6 150 22:37 15.10.2019
117 Clouds 18 1009 55 10000 4.6 0 22:19 15.10.2019
118 Clouds 18 1009 55 10000 4.6 0 21:55 15.10.2019
119 Clouds 18 1009 55 10000 4.1 140 21:37 15.10.2019
120 Clouds 14 1005 72 0 2.68 135 21:19 15.10.2019
121 Clouds 14 1005 72 0 2.68 135 21:19 15.10.2019
122 Clouds 14 1006 71 0 3.13 181 20:56 15.10.2019
123 Clouds 14 1006 71 0 3.13 144 20:37 15.10.2019
124 Clouds 15 1007 74 0 3.58 39 20:19 15.10.2019
125 Clouds 16 1007 45 10000 6.2 50 19:56 15.10.2019
126 Clouds 16 1007 45 10000 6.2 50 19:56 15.10.2019
127 Clouds 20 1007 45 10000 5.1 0 19:37 15.10.2019
128 Clouds 20 1007 45 10000 5.1 0 19:37 15.10.2019
129 Clouds 18 1007 43 10000 5.7 130 19:19 15.10.2019
130 Clouds 21 1007 40 10000 5.7 130 18:44 15.10.2019
131 Clouds 18 1007 40 10000 5.7 130 18:26 15.10.2019
132 Clouds 18 1003 52 0 4.47 144 17:56 15.10.2019
133 Clouds 19 1007 43 10000 7.7 130 17:38 15.10.2019
134 Clouds 20 1006 40 10000 9.3 140 17:19 15.10.2019
135 Clouds 22 1007 40 10000 9.3 130 16:45 15.10.2019
136 Clouds 21 1007 43 10000 8.7 130 16:22 15.10.2019
137 Clouds 21 1008 43 10000 9.8 130 15:58 15.10.2019
138 Clouds 22 1007 43 10000 8.7 130 15:58 15.10.2019
139 Clouds 21 1008 43 10000 9.8 130 15:40 15.10.2019
140 Clouds 21 1008 43 10000 9.8 130 15:40 15.10.2019
141 Clouds 19 1008 43 10000 9.3 130 15:20 15.10.2019
142 Clouds 19 1008 43 10000 9.3 130 14:56 15.10.2019
143 Clouds 20 1008 40 10000 10.3 130 14:37 15.10.2019
144 Clouds 20 1009 43 10000 9.3 130 14:19 15.10.2019
145 Clouds 22 1009 43 10000 7.7 130 13:44 15.10.2019
146 Clouds 21 1010 43 10000 9.8 150 13:21 15.10.2019
147 Clouds 21 1010 43 10000 7.7 120 12:59 15.10.2019
148 Clouds 20 1010 43 10000 7.7 120 12:39 15.10.2019
149 Clouds 19 1010 46 10000 8.2 20 12:20 15.10.2019
150 Clouds 17 1011 59 10000 5.1 340 11:44 15.10.2019
151 Clouds 16 1012 63 10000 4.1 250 11:21 15.10.2019
152 Clouds 15 1012 71 10000 4.1 270 10:58 15.10.2019
153 Clouds 15 1012 71 10000 4.1 270 10:39 15.10.2019
154 Clouds 13 1012 71 10000 5.1 280 10:19 15.10.2019
155 Clouds 14 1012 71 10000 5.1 280 09:57 15.10.2019
156 Clouds 14 1012 81 10000 5.1 270 09:37 15.10.2019
157 Clouds 8 1013 87 10000 4.6 260 09:19 15.10.2019
158 Clouds 9 1013 81 10000 3.6 290 08:42 15.10.2019
159 Clouds 9 1013 81 10000 4.6 260 08:21 15.10.2019
160 Clouds 9 1013 87 10000 5.7 270 07:56 15.10.2019
161 Clouds 9 1013 81 10000 4.6 260 07:56 15.10.2019
162 Clouds 9 1013 81 10000 4.6 260 07:56 15.10.2019
163 Clouds 9 1013 87 10000 5.7 270 07:38 15.10.2019
164 Clouds 8 1013 87 10000 5.7 270 07:18 15.10.2019
165 Clouds 9 1013 81 10000 5.7 260 06:43 15.10.2019
166 Clouds 9 1014 87 10000 4.6 270 06:24 15.10.2019
167 Clear 9 1014 87 10000 3.1 0 05:41 15.10.2019
168 Clear 9 1014 87 10000 4.6 260 05:22 15.10.2019
169 Clear 8 1015 81 10000 4.6 260 04:23 15.10.2019
170 Clear 9 1015 81 10000 3.1 250 03:36 15.10.2019
171 Clear 11 1015 87 10000 3.1 250 02:23 15.10.2019
172 Clouds 10 1015 87 10000 3.1 280 01:47 15.10.2019
173 Clouds 10 1015 81 10000 3.6 250 01:19 15.10.2019
174 Clouds 11 1015 81 10000 1.5 250 00:48 15.10.2019
175 Clouds 12 1015 76 10000 3.6 230 00:21 15.10.2019
176 Clear 13 1015 76 10000 3.6 260 23:43 14.10.2019
177 Clear 11 1015 81 10000 2.6 250 23:20 14.10.2019
178 Clear 11 1015 81 10000 2.6 250 22:55 14.10.2019
179 Clear 11 1015 76 10000 4.1 250 22:37 14.10.2019
180 Clear 11 1015 76 10000 4.6 260 22:18 14.10.2019
181 Clear 12 1014 71 10000 3.6 260 21:41 14.10.2019
182 Clear 13 1014 67 10000 3.1 0 21:22 14.10.2019
183 Clear 14 1014 67 10000 3.1 0 20:59 14.10.2019
184 Clear 14 1014 63 10000 3.1 260 20:39 14.10.2019
185 Clear 14 1014 55 10000 3.1 0 20:21 14.10.2019
186 Clear 14 1014 55 10000 3.1 0 19:59 14.10.2019
187 Clouds 15 1014 52 10000 5.1 50 19:40 14.10.2019
188 Clear 16 1014 63 10000 6.2 50 19:22 14.10.2019
189 Clear 16 1014 63 10000 6.2 50 18:58 14.10.2019
190 Clear 19 1014 52 10000 5.7 80 18:38 14.10.2019
191 Clear 17 1010 100 0 2.24 158 18:19 14.10.2019
192 Clear 18 1009 100 0 2.24 90 17:44 14.10.2019
193 Clear 19 1009 100 0 2.24 113 17:26 14.10.2019
194 Clear 19 1013 54 0 1.79 26 16:59 14.10.2019
195 Clear 19 1013 55 0 2.68 48 16:40 14.10.2019
196 Clear 20 1014 53 10000 1.5 0 16:20 14.10.2019
197 Clear 20 1014 53 10000 1.5 0 16:20 14.10.2019
198 Clear 20 1014 46 10000 2.1 260 15:42 14.10.2019
199 Clear 20 1015 46 10000 3.6 260 15:22 14.10.2019
200 Clear 19 1015 46 10000 3.6 260 14:56 14.10.2019
201 Clear 19 1015 46 10000 3.6 260 14:56 14.10.2019
202 Clear 19 1016 49 10000 2.6 270 14:38 14.10.2019
203 Clear 19 1016 59 10000 1 0 14:18 14.10.2019
204 Clear 19 1012 100 0 1.34 158 13:42 14.10.2019
205 Clear 18 1012 100 0 1.34 158 13:21 14.10.2019
206 Clear 17 1018 76 10000 1.5 90 12:55 14.10.2019
207 Clear 17 1018 76 10000 1.5 90 12:36 14.10.2019
208 Clear 15 1019 76 10000 0.5 0 12:18 14.10.2019
209 Clear 16 1019 76 10000 1 0 11:44 14.10.2019
210 Clear 14 1020 76 10000 0.5 0 11:24 14.10.2019
211 Clear 14 1020 76 10000 0.5 0 10:55 14.10.2019
212 Clear 14 1020 76 10000 0.5 0 10:37 14.10.2019
213 Clear 13 1015 100 0 1.5 183.288 10:18 14.10.2019
214 Clear 13 1015 100 0 1.5 183.288 10:18 14.10.2019
215 Clear 11 1020 81 10000 1 0 09:42 14.10.2019
216 Clear 11 1020 81 10000 1 0 09:41 14.10.2019
217 Clear 9 1021 93 10000 1 0 09:21 14.10.2019
218 Clear 9 1021 100 10000 0.5 0 08:51 14.10.2019
219 Clear 8 1021 100 10000 0.5 0 08:23 14.10.2019
220 Clear 8 1021 93 10000 0.5 0 07:47 14.10.2019
221 Clear 8 1021 93 10000 0.5 0 07:47 14.10.2019
222 -273 0 0 0 0 0 07:25 14.10.2019
223 Clear 8 1021 100 10000 1.5 270 06:59 14.10.2019
224 Clear 8 1021 93 10000 1 260 06:28 14.10.2019
225 Clear 8 1021 100 10000 1 0 05:57 14.10.2019
226 Clear 8 1021 93 10000 0.5 0 05:27 14.10.2019
227 Clear 8 1021 93 10000 1 0 03:51 14.10.2019
228 Clear 9 1021 93 10000 1 0 03:26 14.10.2019
229 Clear 9 1021 93 10000 1 0 02:32 14.10.2019
230 Clear 10 1021 93 10000 2.1 240 01:21 14.10.2019
231 Clear 10 1021 93 10000 1.5 300 00:44 14.10.2019
232 Clear 10 1021 87 10000 1.5 300 00:19 14.10.2019
233 Clear 11 1021 87 10000 1 0 23:43 13.10.2019
234 Clear 11 1021 81 10000 1 0 23:20 13.10.2019
235 Clear 12 1021 81 10000 1 0 22:57 13.10.2019
236 Clear 12 1020 87 10000 1.5 330 22:39 13.10.2019
237 Clear 12 1020 87 10000 2.1 280 22:20 13.10.2019
238 Clear 12 1020 87 10000 2.1 280 21:57 13.10.2019
239 Clear 12 1020 87 10000 1 0 21:36 13.10.2019
240 Clear 12 1020 87 10000 1 0 21:36 13.10.2019
241 Clear 13 1020 81 10000 1 0 21:18 13.10.2019
242 Clear 13 1020 81 10000 1 0 20:57 13.10.2019
243 Clear 13 1020 76 10000 1.5 230 20:37 13.10.2019
244 Clear 14 1019 76 10000 2.1 220 20:19 13.10.2019
245 -273 0 0 0 0 0 19:55 13.10.2019
246 -273 0 0 0 0 0 19:55 13.10.2019
247 Clear 14 1019 76 10000 2.1 220 19:55 13.10.2019
248 Clear 15 1019 76 10000 1.5 270 19:37 13.10.2019
249 Clear 15 1019 77 10000 1 0 19:19 13.10.2019
250 -273 0 0 0 0 0 18:55 13.10.2019
251 Clear 16 1018 72 10000 0.5 0 18:55 13.10.2019
252 Clear 16 1018 72 10000 0.5 0 18:36 13.10.2019
253 Clear 17 1018 63 10000 1 0 18:18 13.10.2019
254 Clear 17 1018 63 10000 1 0 18:18 13.10.2019
255 Clear 20 1018 60 10000 1 0 17:42 13.10.2019
256 Clear 21 1018 52 10000 1.5 210 17:24 13.10.2019
257 -273 0 0 0 0 0 16:54 13.10.2019
258 Clear 21 1018 49 10000 1.5 0 16:36 13.10.2019
259 Clear 20 1018 49 10000 4.1 260 16:18 13.10.2019
260 Clear 20 1018 49 10000 4.6 260 15:40 13.10.2019
261 Clear 20 1018 52 10000 4.1 270 15:22 13.10.2019
262 Clear 20 1018 52 10000 4.1 270 14:59 13.10.2019
263 Clear 19 1018 49 10000 3.6 280 14:40 13.10.2019
264 Clear 19 1019 52 10000 3.6 250 14:22 13.10.2019
265 Clear 19 1019 52 10000 3.6 250 13:59 13.10.2019
266 Clear 18 1019 55 10000 4.1 270 13:38 13.10.2019
267 Clear 18 1019 55 10000 4.1 270 13:38 13.10.2019
268 Clear 18 1019 55 10000 4.1 270 13:38 13.10.2019
269 Clear 18 1019 52 10000 3.6 270 13:20 13.10.2019
270 Clear 19 1020 59 10000 3.1 260 12:56 13.10.2019
271 Clear 18 1020 59 10000 3.1 260 12:38 13.10.2019
272 Clear 16 1020 63 10000 3.6 270 12:19 13.10.2019
273 Clear 17 1020 63 10000 3.6 270 11:56 13.10.2019
274 Clear 15 1021 67 10000 2.6 250 11:38 13.10.2019
275 Clear 15 1021 71 10000 2.1 280 11:18 13.10.2019
276 Clear 14 1022 76 10000 1.5 280 10:42 13.10.2019
277 Clear 12 1022 81 10000 1 0 10:23 13.10.2019
278 Clear 10 1022 81 10000 1 0 09:56 13.10.2019
279 Clear 10 1022 87 10000 1.5 230 09:37 13.10.2019
280 Clear 9 1022 87 10000 2.1 260 09:19 13.10.2019
281 Clear 8 1022 93 10000 2.6 250 08:42 13.10.2019
282 Clear 7 1022 93 10000 1.5 240 08:21 13.10.2019
283 Clear 7 1022 93 10000 2.6 250 07:46 13.10.2019
284 Clear 7 1022 93 10000 3.6 270 07:21 13.10.2019
285 Clear 8 1022 93 10000 2.1 250 06:42 13.10.2019
286 Clear 8 1022 93 10000 2.1 250 05:49 13.10.2019
287 Clear 8 1022 93 10000 2.1 240 04:49 13.10.2019
288 Clear 7 1022 93 10000 2.1 240 04:29 13.10.2019
289 Clouds 8 1022 87 10000 2.6 250 02:42 13.10.2019
290 Clouds 8 1022 87 10000 2.6 250 02:42 13.10.2019
291 Clouds 8 1022 93 10000 4.1 260 01:59 13.10.2019
292 Clouds 9 1022 87 10000 2.6 250 01:30 13.10.2019
293 Clouds 9 1022 87 10000 2.1 240 00:49 13.10.2019
294 Clouds 9 1022 87 10000 2.1 270 00:22 13.10.2019
295 Clouds 9 1022 87 10000 2.1 270 23:57 12.10.2019
296 Clouds 10 1022 87 10000 2.6 270 23:39 12.10.2019
297 Clear 10 1021 87 10000 2.6 260 23:19 12.10.2019
298 Clear 10 1021 87 10000 2.6 260 22:57 12.10.2019
299 Clear 10 1021 87 10000 2.1 270 22:38 12.10.2019
300 Clouds 10 1021 81 10000 0.5 0 22:20 12.10.2019
301 Clouds 10 1021 81 10000 0.5 0 21:55 12.10.2019
302 Clear 11 1021 81 10000 1 0 21:37 12.10.2019
303 Clear 11 1021 87 10000 2.1 290 21:18 12.10.2019
304 Clear 11 1021 87 10000 2.1 290 21:18 12.10.2019
305 Clear 12 1020 87 10000 1 0 20:40 12.10.2019
306 Clear 12 1020 81 10000 1 0 20:22 12.10.2019
307 Clear 13 1020 82 10000 1 0 19:39 12.10.2019
308 Clear 13 1020 82 10000 1 0 19:39 12.10.2019
309 Clear 14 1019 76 10000 1.5 270 19:20 12.10.2019
310 Clear 14 1019 76 10000 1.5 270 18:59 12.10.2019
311 Clear 15 1019 72 10000 1 0 18:40 12.10.2019
312 Clear 15 1019 72 10000 1 0 18:40 12.10.2019
313 Clear 15 1019 72 10000 0.5 0 18:22 12.10.2019
314 Clear 17 1018 48 10000 1.5 250 17:43 12.10.2019
315 Clear 18 1018 55 10000 1.5 230 17:19 12.10.2019
316 Clear 19 1018 55 10000 1.5 230 16:55 12.10.2019
317 Clear 19 1018 52 10000 1.5 180 16:36 12.10.2019
318 Clear 19 1018 52 10000 1.5 180 16:36 12.10.2019
319 Clear 20 1018 42 10000 1 0 16:18 12.10.2019
320 Clear 20 1019 45 10000 1 0 15:44 12.10.2019
321 Clear 19 1019 40 10000 1 0 15:25 12.10.2019
322 Clear 19 1019 39 10000 1 0 14:43 12.10.2019
323 Clear 18 1019 48 10000 0.5 0 14:22 12.10.2019
324 Clear 18 1019 48 10000 0.5 0 13:59 12.10.2019
325 Clear 17 1020 45 10000 1 0 13:40 12.10.2019
326 Clear 17 1021 48 10000 1.5 260 13:21 12.10.2019
327 Clear 17 1021 55 10000 1 0 12:40 12.10.2019
328 Clear 15 1021 58 10000 1 0 12:21 12.10.2019
329 Clear 15 1021 58 10000 1 0 11:59 12.10.2019
330 Clear 13 1022 54 10000 1 0 11:39 12.10.2019
331 Clear 13 1022 66 10000 2.1 260 11:20 12.10.2019
332 Clear 13 1022 71 10000 2.6 280 10:44 12.10.2019
333 Clear 10 1022 76 10000 1 0 10:24 12.10.2019
334 Clear 10 1022 81 10000 0.5 0 09:58 12.10.2019
335 Clear 10 1022 81 10000 0.5 0 09:58 12.10.2019
336 Clear 9 1022 81 10000 0.5 0 09:40 12.10.2019
337 Clear 8 1022 93 10000 0.5 0 09:22 12.10.2019
338 Clear 6 1022 93 10000 1 0 08:58 12.10.2019
339 Clear 6 1022 93 10000 1 0 08:38 12.10.2019
340 Clear 5 1022 93 10000 1.5 250 08:20 12.10.2019
341 Clear 5 1022 93 10000 1.5 250 08:20 12.10.2019
342 Clear 5 1022 93 10000 1 0 07:35 12.10.2019
343 Clear 5 1022 93 10000 1 0 06:57 12.10.2019
344 Clear 6 1022 86 10000 2.1 270 05:48 12.10.2019
345 Clear 6 1022 87 10000 1.5 0 05:23 12.10.2019
346 Clear 6 1022 93 10000 3.1 270 04:24 12.10.2019
347 Clear 7 1022 93 10000 2.1 280 03:33 12.10.2019
348 Clear 7 1022 87 10000 2.1 280 01:50 12.10.2019
349 Clear 8 1022 87 10000 2.1 260 01:24 12.10.2019
350 Clear 8 1022 87 10000 2.6 240 00:42 12.10.2019
351 Clear 8 1022 87 10000 4.6 270 00:19 12.10.2019
352 Clear 9 1022 87 10000 4.1 290 23:40 11.10.2019
353 Clear 9 1021 87 10000 4.6 280 23:20 11.10.2019
354 Clear 7 1021 81 10000 4.1 260 22:41 11.10.2019
355 Clear 8 1021 81 10000 3.1 290 22:22 11.10.2019
356 Clear 8 1021 81 10000 3.1 290 21:58 11.10.2019
357 Clear 7 1021 81 10000 3.6 270 21:39 11.10.2019
358 Clear 10 1021 81 10000 3.6 270 21:21 11.10.2019
359 Clear 10 1020 76 10000 3.6 280 20:45 11.10.2019
360 Clear 10 1020 76 10000 3.6 280 20:27 11.10.2019
361 Clear 10 1020 76 10000 2.1 260 20:27 11.10.2019
362 Clear 10 1020 76 10000 2.1 260 19:59 11.10.2019
363 Clear 10 1020 71 10000 2.6 220 19:39 11.10.2019
364 Clear 11 1019 71 10000 2.6 270 19:18 11.10.2019
365 Clear 11 1019 71 10000 2.6 270 19:18 11.10.2019
366 Clear 11 1019 71 10000 2.6 270 19:18 11.10.2019
367 Clear 11 1019 71 10000 2.6 270 18:59 11.10.2019
368 Clear 11 1019 71 10000 2.6 270 18:59 11.10.2019
369 Clear 12 1019 66 10000 2.6 270 18:38 11.10.2019
370 Clear 15 1019 63 10000 1.5 0 18:19 11.10.2019
371 Clear 16 1019 51 10000 3.1 250 17:59 11.10.2019
372 Clear 17 1019 51 10000 3.1 250 17:38 11.10.2019
373 Clear 17 1019 48 10000 3.6 260 17:19 11.10.2019
374 Clear 17 1019 48 10000 3.6 260 16:58 11.10.2019
375 Clear 17 1019 45 10000 2.6 260 16:39 11.10.2019
376 Clear 17 1019 45 10000 2.6 250 16:19 11.10.2019
377 Clear 17 1020 42 10000 2.6 250 15:42 11.10.2019
378 Clear 17 1020 45 10000 1 0 15:21 11.10.2019
379 Clear 17 1020 45 10000 1 0 14:59 11.10.2019
380 Clear 16 1021 48 10000 1 0 14:40 11.10.2019
381 Clear 15 1022 51 10000 1 0 14:20 11.10.2019
382 Clear 15 1022 51 10000 1 0 13:45 11.10.2019
383 Clear 15 1023 58 10000 1 0 13:25 11.10.2019
384 Clear 14 1023 58 10000 1 0 12:57 11.10.2019
385 Clear 14 1023 58 10000 2.6 290 12:39 11.10.2019
386 Clear 14 1023 58 10000 2.6 290 12:39 11.10.2019
387 Clear 12 1024 62 10000 4.6 270 12:20 11.10.2019
388 Clear 11 1024 62 10000 4.6 270 11:58 11.10.2019
389 Clear 10 1024 71 10000 5.7 280 11:38 11.10.2019
390 Clear 10 1024 71 10000 5.7 280 11:38 11.10.2019
391 Clouds 10 1024 76 10000 5.7 270 11:20 11.10.2019
392 Clouds 10 1024 76 10000 5.7 270 10:55 11.10.2019
393 Clouds 11 1025 81 10000 3.6 270 10:36 11.10.2019
394 Clouds 8 1025 87 10000 2.6 270 10:18 11.10.2019
395 Clouds 7 1025 93 10000 1.5 270 09:41 11.10.2019
396 Clouds 5 1025 100 10000 0.5 0 09:21 11.10.2019
397 Clouds 5 1025 100 10000 0.5 0 08:57 11.10.2019
398 Mist 5 1025 100 10000 0.5 0 08:38 11.10.2019
399 Mist 4 1025 93 5000 0.5 0 08:20 11.10.2019
400 Mist 4 1025 93 5000 1 0 07:52 11.10.2019
401 Mist 4 1025 100 7000 0.5 0 07:33 11.10.2019
402 Fog 4 1025 100 7000 0.5 0 06:50 11.10.2019
403 Fog 2 1025 100 7000 1 0 06:25 11.10.2019
404 Mist 3 1025 100 2000 2.1 280 05:47 11.10.2019
405 Mist 2 1025 100 2000 2.1 280 05:29 11.10.2019
406 Clouds 3 1025 93 10000 1.5 240 04:50 11.10.2019
407 Clear 4 1025 93 10000 1 290 03:21 11.10.2019
408 Clear 3 1024 93 10000 1 270 01:18 11.10.2019
409 Clear 3 1024 93 10000 1 270 01:18 11.10.2019
410 Clear 4 1025 93 10000 2.32 186.706 00:31 11.10.2019
411 Clear 5 1025 93 10000 0.5 0 23:58 10.10.2019
412 Clear 5 1025 93 10000 0.5 0 23:40 10.10.2019
413 Clouds 5 1024 93 10000 2.1 260 23:19 10.10.2019
414 Clouds 6 1024 87 10000 1 0 22:55 10.10.2019
415 Clouds 6 1024 87 10000 1 0 22:36 10.10.2019
416 Clouds 6 1023 93 10000 1 0 22:18 10.10.2019
417 Clouds 6 1023 93 10000 1 0 21:42 10.10.2019
418 Clouds 7 1022 87 10000 1 0 21:22 10.10.2019
419 Clouds 7 1022 87 10000 1 0 20:58 10.10.2019
420 Clouds 8 1022 81 10000 1.5 150 20:39 10.10.2019
421 Clouds 8 1022 81 10000 0.5 0 20:19 10.10.2019
422 Clouds 10 1021 81 10000 0.5 0 19:56 10.10.2019
423 Clouds 10 1021 81 10000 0.5 0 19:38 10.10.2019
424 Clouds 11 1020 76 10000 1 0 19:19 10.10.2019
425 Clouds 12 1020 71 10000 2.1 220 18:42 10.10.2019
426 Clouds 11 1019 66 10000 2.6 330 18:21 10.10.2019
427 Clouds 11 1019 66 10000 2.6 330 17:58 10.10.2019
428 Clouds 12 1019 58 10000 2.1 0 17:39 10.10.2019
429 Clouds 12 1019 58 10000 3.6 230 17:18 10.10.2019
430 Clouds 12 1019 58 10000 3.6 230 17:18 10.10.2019
431 Clouds 12 1019 58 10000 3.6 230 16:55 10.10.2019
432 Clouds 12 1019 62 10000 4.6 260 16:37 10.10.2019
433 Clouds 12 1018 58 10000 4.6 270 16:18 10.10.2019
434 Clouds 12 1018 71 10000 3.6 270 15:39 10.10.2019
435 Clouds 12 1018 71 10000 4.1 260 15:21 10.10.2019
436 Clouds 12 1018 71 10000 4.1 260 14:56 10.10.2019
437 Clouds 12 1018 67 10000 2.6 280 14:37 10.10.2019
438 Clouds 12 1019 71 10000 3.6 260 14:19 10.10.2019
439 Clouds 12 1019 71 10000 3.6 260 13:55 10.10.2019
440 Clouds 11 1019 71 10000 4.1 270 13:37 10.10.2019
441 Clouds 11 1019 76 10000 2.6 270 13:18 10.10.2019
442 Clouds 11 1019 76 10000 3.1 280 12:42 10.10.2019
443 Clouds 11 1019 71 10000 2.6 260 12:20 10.10.2019
444 Rain 10 1018 75 0 2.57 275.884 11:58 10.10.2019
445 Rain 10 1018 80 0 2.57 275.884 11:39 10.10.2019
446 Clouds 9 1019 81 10000 1 0 11:19 10.10.2019
447 Clouds 10 1019 81 10000 1.5 100 10:46 10.10.2019
448 Clouds 10 1019 81 10000 1.5 100 10:27 10.10.2019
449 Clouds 8 1019 81 10000 1.5 130 09:58 10.10.2019
450 Clouds 8 1019 87 10000 1 0 09:40 10.10.2019
451 Clouds 7 1018 87 10000 0.5 0 09:22 10.10.2019
452 Clouds 7 1018 87 10000 0.5 0 08:58 10.10.2019
453 Clouds 7 1018 87 10000 1 0 08:38 10.10.2019
454 Clouds 7 1018 87 10000 1 0 08:38 10.10.2019
455 Clouds 7 1017 81 6000 1 0 08:19 10.10.2019
456 Clouds 6 1017 87 6000 1 0 07:46 10.10.2019
457 Clouds 6 1017 87 6000 2.1 80 07:23 10.10.2019
458 Clouds 6 1017 93 6000 1.5 80 06:49 10.10.2019
459 Clouds 6 1017 93 6000 1.5 80 06:29 10.10.2019
460 Clouds 6 1017 93 10000 0.5 0 05:28 10.10.2019
461 Clouds 7 1017 93 10000 2.1 130 04:55 10.10.2019
462 Clouds 7 1017 93 10000 2.1 130 04:33 10.10.2019
463 Clouds 6 1016 100 10000 1.5 40 02:19 10.10.2019
464 Clouds 6 1016 100 10000 1 0 01:36 10.10.2019
465 Clouds 7 1017 93 10000 1.5 260 01:18 10.10.2019
466 Clouds 7 1016 93 10000 0.5 0 00:24 10.10.2019
467 Clouds 7 1017 93 7000 1 0 23:41 09.10.2019
468 Clouds 7 1016 93 10000 0.5 0 23:23 09.10.2019
469 Clouds 7 1016 93 10000 0.5 0 22:59 09.10.2019
470 Clouds 7 1016 93 10000 0.5 0 22:59 09.10.2019
471 Clouds 7 1017 93 10000 1 0 22:40 09.10.2019
472 Clouds 8 1017 93 10000 0.5 0 22:22 09.10.2019
473 Rain 8 1017 93 10000 0.5 0 21:41 09.10.2019
474 Rain 9 1017 100 10000 1.5 80 21:21 09.10.2019
475 Rain 8 1016 87 10000 2.6 70 20:56 09.10.2019
476 Rain 8 1016 87 10000 2.6 70 20:38 09.10.2019
477 Rain 8 1016 93 10000 2.6 90 20:19 09.10.2019
478 Rain 10 1016 93 10000 2.6 90 19:59 09.10.2019
479 Rain 10 1016 93 10000 2.6 90 19:59 09.10.2019
480 Rain 10 1016 93 10000 1 0 19:40 09.10.2019
481 Rain 10 1015 93 10000 0.5 0 19:22 09.10.2019
482 Rain 9 1015 87 10000 2.1 340 18:39 09.10.2019
483 Rain 9 1015 87 8000 4.6 260 18:20 09.10.2019
484 Rain 10 1014 81 10000 3.6 250 17:58 09.10.2019
485 Rain 10 1014 81 10000 3.6 250 17:39 09.10.2019
486 Rain 10 1012 82 8000 5.7 250 17:21 09.10.2019
487 Rain 10 1012 82 8000 5.7 250 16:56 09.10.2019
488 Rain 10 1012 82 8000 5.7 250 16:56 09.10.2019
489 Rain 10 1012 82 8000 5.7 250 16:56 09.10.2019
490 Rain 14 1011 76 10000 4.1 100 16:37 09.10.2019
491 Rain 12 1011 72 10000 4.1 80 16:19 09.10.2019
492 Rain 11 1011 72 10000 4.1 80 15:55 09.10.2019
493 Rain 11 1011 72 10000 4.1 80 15:55 09.10.2019
494 Clouds 15 1011 63 10000 4.6 0 15:37 09.10.2019
495 Clouds 13 1011 51 10000 5.7 0 15:18 09.10.2019
496 Clouds 13 1011 55 10000 3.6 90 14:44 09.10.2019
497 Clouds 13 1011 55 10000 3.6 90 14:44 09.10.2019
498 Clouds 14 1011 45 10000 4.1 0 14:19 09.10.2019
499 Clouds 14 1011 45 10000 4.1 0 13:59 09.10.2019
500 Clouds 14 1010 48 10000 6.7 120 13:37 09.10.2019
501 Clouds 15 1011 55 10000 3.6 0 13:18 09.10.2019
502 Clouds 14 1011 72 10000 4.1 100 12:43 09.10.2019
503 Clouds 13 1012 59 10000 3.1 70 12:23 09.10.2019
504 Clouds 12 1012 59 10000 3.1 70 11:58 09.10.2019
505 Clouds 12 1012 76 10000 2.1 270 11:39 09.10.2019
506 Clouds 12 1013 82 10000 2.1 220 11:20 09.10.2019
507 Clouds 12 1013 82 10000 2.1 220 10:58 09.10.2019
508 Clouds 12 1014 87 10000 3.1 260 10:40 09.10.2019
509 Clouds 12 1014 87 10000 5.7 280 10:18 09.10.2019
510 Clouds 11 1014 93 10000 5.7 270 09:43 09.10.2019
511 Clouds 10 1014 93 10000 1.5 0 09:20 09.10.2019
512 Clouds 10 1014 93 10000 1.5 0 08:57 09.10.2019
513 Clouds 10 1015 100 10000 1.5 110 08:37 09.10.2019
514 Rain 10 1012 73 0 0.89 311 08:19 09.10.2019
515 Clouds 10 1015 100 10000 1.5 270 07:47 09.10.2019
516 Clouds 10 1015 93 10000 1 0 07:24 09.10.2019
517 Rain 10 1013 71 0 0.89 235 06:56 09.10.2019
518 Rain 10 1012 71 0 1.9 175.8 06:34 09.10.2019
519 Clouds 10 1014 93 10000 1 0 05:51 09.10.2019
520 Clouds 9 1013 93 10000 1.5 0 04:41 09.10.2019
521 Clouds 9 1013 93 10000 2.6 240 03:43 09.10.2019
522 Clouds 9 1014 93 10000 2.1 230 02:27 09.10.2019
523 Clouds 9 1014 93 10000 3.1 270 01:22 09.10.2019
524 Clouds 9 1014 93 10000 3.1 270 00:59 09.10.2019
525 Clouds 9 1014 93 10000 2.1 290 00:40 09.10.2019
526 Clouds 10 1014 93 10000 2.1 200 00:22 09.10.2019
527 Clouds 9 1014 93 10000 2.1 200 23:58 08.10.2019
528 Clouds 10 1014 87 10000 1 0 23:38 08.10.2019
529 Clouds 10 1014 87 10000 1 0 23:18 08.10.2019
530 Clouds 10 1014 87 10000 1 0 22:41 08.10.2019
531 Clouds 10 1014 93 10000 3.1 280 22:22 08.10.2019
532 Clouds 11 1014 81 10000 2.1 250 21:58 08.10.2019
533 Clouds 11 1014 81 10000 2.1 250 21:39 08.10.2019
534 Clouds 11 1014 87 10000 1.5 250 21:20 08.10.2019
535 Clouds 11 1014 87 10000 1.5 250 20:58 08.10.2019
536 Clouds 11 1014 81 10000 1 0 20:39 08.10.2019
537 Clouds 12 1014 81 10000 2.1 280 20:21 08.10.2019
538 Clouds 12 1014 81 10000 2.1 280 19:59 08.10.2019
539 Clouds 15 1014 76 10000 1.5 280 19:41 08.10.2019
540 Clouds 14 1013 71 10000 0.5 0 19:23 08.10.2019
541 Clouds 15 1014 67 10000 1.5 160 18:57 08.10.2019
542 Clouds 15 1014 67 10000 1.5 160 18:39 08.10.2019
543 Clouds 14 1014 58 10000 1.5 240 18:19 08.10.2019
544 Clouds 14 1013 59 10000 2.1 260 17:55 08.10.2019
545 Clouds 14 1013 59 10000 2.1 260 17:55 08.10.2019
546 Clouds 14 1013 59 10000 2.1 260 17:36 08.10.2019
547 Clouds 15 1013 58 10000 1.5 260 17:18 08.10.2019
548 Clouds 15 1014 54 10000 3.6 260 16:41 08.10.2019
549 Clouds 15 1014 51 10000 2.1 280 16:22 08.10.2019
550 Clouds 16 1014 51 10000 2.1 280 15:57 08.10.2019
551 Clouds 15 1014 58 10000 2.6 280 15:37 08.10.2019
552 Clouds 15 1015 62 10000 6.2 260 15:19 08.10.2019
553 Clouds 15 1015 62 10000 6.2 260 15:19 08.10.2019
554 Clouds 14 1015 62 10000 4.6 270 14:42 08.10.2019
555 Clouds 14 1016 66 10000 5.1 270 14:21 08.10.2019
556 Clouds 13 1016 66 10000 5.1 270 13:58 08.10.2019
557 Clouds 12 1016 62 10000 4.6 270 13:39 08.10.2019
558 Clouds 12 1016 62 10000 4.6 270 13:39 08.10.2019
559 Clouds 12 1017 66 10000 5.1 270 13:20 08.10.2019
560 Clouds 11 1017 66 10000 5.1 270 12:59 08.10.2019
561 Rain 11 1018 71 10000 5.7 270 12:39 08.10.2019
562 Clouds 10 1018 71 10000 5.7 260 12:19 08.10.2019
563 Clouds 9 1018 76 10000 4.6 280 11:43 08.10.2019
564 Clouds 9 1018 76 10000 3.6 280 11:24 08.10.2019
565 Clouds 10 1018 76 10000 3.6 280 10:59 08.10.2019
566 Clouds 9 1019 76 10000 1.5 290 10:40 08.10.2019
567 Clouds 9 1019 81 10000 3.1 270 10:21 08.10.2019
568 Clouds 8 1019 81 10000 3.1 270 09:58 08.10.2019
569 Clouds 7 1019 81 10000 1.5 270 09:39 08.10.2019
570 Clouds 6 1019 87 10000 2.1 270 09:20 08.10.2019
571 Clouds 5 1019 93 10000 2.1 270 08:43 08.10.2019
572 Clouds 5 1019 93 10000 2.1 290 08:25 08.10.2019
573 Clouds 5 1019 86 10000 2.1 280 07:46 08.10.2019
574 Clouds 5 1019 93 10000 2.1 260 07:22 08.10.2019
575 Clouds 3 1020 93 10000 2.6 270 06:56 08.10.2019
576 Clouds 3 1020 93 10000 2.6 270 06:34 08.10.2019
577 Clouds 4 1020 93 10000 2.6 280 05:57 08.10.2019
578 Clouds 4 1020 93 10000 1 0 05:57 08.10.2019
579 Clouds 4 1020 93 10000 1 0 05:36 08.10.2019
580 Clouds 4 1020 93 10000 1.5 270 04:36 08.10.2019
581 Clouds 4 1020 93 10000 3.1 260 03:29 08.10.2019
582 Clouds 4 1021 93 10000 1 0 02:39 08.10.2019
583 Clouds 3 1021 93 10000 2.6 260 01:49 08.10.2019
584 Clouds 3 1021 93 10000 2.6 260 01:31 08.10.2019
585 Clouds 4 1021 87 10000 2.1 260 00:50 08.10.2019
586 Clouds 4 1021 93 10000 1 0 00:21 08.10.2019
587 Clouds 5 1021 87 10000 1 0 23:41 07.10.2019
588 Clouds 6 1021 87 10000 0.5 0 23:20 07.10.2019
589 Clouds 6 1021 87 10000 0.5 0 22:58 07.10.2019
590 Clouds 6 1020 87 10000 1.5 250 22:40 07.10.2019
591 Clouds 6 1020 87 10000 1.5 250 22:40 07.10.2019
592 Clouds 6 1020 87 10000 1 300 22:20 07.10.2019
593 Clouds 6 1020 87 10000 1 300 21:57 07.10.2019
594 Clouds 6 1020 87 10000 1.5 260 21:39 07.10.2019
595 Clouds 7 1020 81 10000 1 0 21:20 07.10.2019
596 Clouds 8 1020 81 10000 1 0 20:58 07.10.2019
597 Clouds 7 1019 87 10000 0.5 0 20:39 07.10.2019
598 Clouds 7 1019 81 10000 0.5 0 20:20 07.10.2019
599 Clouds 8 1019 81 10000 0.5 0 19:58 07.10.2019
600 Clouds 8 1019 76 10000 1.5 60 19:40 07.10.2019
601 Clouds 9 1019 71 10000 2.1 80 19:19 07.10.2019
602 Clouds 12 1019 71 10000 2.1 80 18:57 07.10.2019
603 Clouds 12 1018 71 10000 2.6 30 18:38 07.10.2019
604 Clouds 10 1018 71 10000 1 0 18:18 07.10.2019
605 Clouds 11 1018 66 10000 1.5 170 17:43 07.10.2019
606 Clouds 11 1018 54 10000 1 0 17:22 07.10.2019
607 Clouds 11 1018 54 10000 1 0 16:58 07.10.2019
608 Rain 11 1017 72 0 1.79 315 16:39 07.10.2019
609 Rain 11 1017 72 0 1.79 315 16:39 07.10.2019
610 Rain 10 1017 69 0 0.89 304 16:20 07.10.2019
611 Clouds 11 1018 58 10000 2.6 50 15:45 07.10.2019
612 Rain 10 1017 72 0 1.34 344 15:26 07.10.2019
613 Clouds 10 1018 66 10000 3.1 70 14:55 07.10.2019
614 Rain 10 1017 74 0 0.89 349 14:37 07.10.2019
615 Clouds 10 1018 62 10000 4.6 60 14:19 07.10.2019
616 Clouds 10 1018 71 10000 4.6 60 13:43 07.10.2019
617 Clouds 10 1018 71 10000 3.6 60 13:20 07.10.2019
618 Rain 9 1017 75 0 1.34 310 12:56 07.10.2019
619 Rain 9 1017 74 0 1.34 320 12:38 07.10.2019
620 Clouds 9 1017 74 0 2.24 343 12:19 07.10.2019
621 Clouds 9 1016 77 0 0.45 39 11:57 07.10.2019
622 Clouds 9 1016 82 0 0.45 350 11:37 07.10.2019
623 Clouds 9 1017 81 10000 1.5 100 11:18 07.10.2019
624 Clouds 9 1017 87 10000 1 0 10:41 07.10.2019
625 Clouds 9 1017 87 10000 1 0 10:41 07.10.2019
626 Clouds 9 1017 93 10000 0.5 0 10:20 07.10.2019
627 Clouds 9 1017 93 10000 0.5 0 10:20 07.10.2019
628 Clouds 9 1017 87 10000 1 0 09:42 07.10.2019
629 Clouds 9 1017 87 10000 1 0 09:42 07.10.2019
630 Clouds 8 1016 100 10000 0.5 0 09:23 07.10.2019
631 Clouds 8 1016 100 10000 0.5 0 08:56 07.10.2019
632 Clouds 8 1015 93 10000 1 0 08:38 07.10.2019
633 Clouds 8 1015 93 10000 1 0 08:19 07.10.2019
634 Rain 8 1015 93 10000 1.5 340 07:41 07.10.2019
635 Clouds 8 1015 93 10000 0.5 0 07:22 07.10.2019
636 Drizzle 8 1014 100 10000 1 0 06:49 07.10.2019
637 Drizzle 8 1014 100 10000 1 0 06:27 07.10.2019
638 Clouds 8 1013 100 10000 0.5 0 05:47 07.10.2019
639 Clouds 8 1013 100 10000 0.5 0 05:22 07.10.2019
640 Rain 8 1012 100 10000 1.5 80 04:25 07.10.2019
641 Rain 8 1012 100 10000 0.5 0 03:44 07.10.2019
642 Rain 8 1012 100 10000 0.5 0 03:21 07.10.2019
643 Rain 8 1012 100 5000 1 0 02:22 07.10.2019
644 Rain 8 1011 93 7000 1 0 01:52 07.10.2019
645 Rain 8 1011 93 10000 1 190 01:21 07.10.2019
646 Rain 8 1011 93 10000 0.5 0 00:39 07.10.2019
647 Rain 8 1011 93 10000 0.5 0 00:39 07.10.2019
648 Rain 8 1011 93 10000 0.5 0 00:20 07.10.2019
649 Rain 8 1011 93 10000 1.5 260 23:42 06.10.2019
650 Rain 8 1011 93 10000 1.5 280 23:22 06.10.2019
651 Rain 9 1011 93 10000 1.5 280 22:59 06.10.2019
652 Rain 8 1011 93 10000 1 0 22:41 06.10.2019
653 Rain 8 1012 93 10000 0.5 0 22:22 06.10.2019
654 Clouds 8 1012 93 10000 1 0 21:58 06.10.2019
655 Clouds 8 1012 93 10000 1 0 21:38 06.10.2019
656 Clouds 8 1012 93 10000 1 0 21:38 06.10.2019
657 Clouds 8 1012 93 10000 1 0 21:38 06.10.2019
658 Clouds 8 1012 87 10000 1 170 21:19 06.10.2019
659 Clouds 8 1012 87 10000 1 170 20:58 06.10.2019
660 Rain 8 1013 87 10000 0.5 0 20:40 06.10.2019
661 Clouds 8 1013 87 10000 1 0 20:20 06.10.2019
662 Clouds 8 1013 87 10000 1 0 20:20 06.10.2019
663 Clouds 9 1013 87 10000 1 0 19:57 06.10.2019
664 Rain 9 1013 87 10000 1 0 19:37 06.10.2019
665 Rain 9 1013 87 10000 1 0 19:19 06.10.2019
666 Rain 9 1013 87 10000 1 0 18:56 06.10.2019
667 Rain 9 1013 81 10000 2.6 60 18:38 06.10.2019
668 Rain 9 1013 81 10000 2.6 70 18:19 06.10.2019
669 Rain 9 1013 81 10000 2.6 60 17:57 06.10.2019
670 Rain 9 1013 81 10000 2.6 60 17:38 06.10.2019
671 Rain 10 1014 71 10000 0.56 336.265 17:18 06.10.2019
672 Rain 10 1014 71 10000 0.5 0 16:42 06.10.2019
673 Clouds 10 1014 71 10000 0.5 0 16:23 06.10.2019
674 Rain 9 1014 90 0 0.45 311 15:54 06.10.2019
675 Rain 10 1014 90 0 0.89 291 15:36 06.10.2019
676 Rain 10 1014 91 0 0.89 301 15:18 06.10.2019
677 Clouds 10 1015 71 10000 1 0 14:42 06.10.2019
678 Clouds 10 1016 71 10000 1 0 14:24 06.10.2019
679 Clouds 9 1016 71 10000 1 0 13:56 06.10.2019
680 Clouds 9 1016 71 10000 0.5 0 13:38 06.10.2019
681 Clouds 9 1017 81 10000 1 0 13:19 06.10.2019
682 Clouds 9 1017 81 10000 1 0 12:56 06.10.2019
683 Drizzle 9 1017 81 10000 1 0 12:37 06.10.2019
684 Clouds 9 1017 81 10000 0.5 0 12:19 06.10.2019
685 Clouds 8 1017 87 10000 0.5 0 11:55 06.10.2019
686 Clouds 8 1017 87 10000 0.5 0 11:36 06.10.2019
687 Clouds 8 1018 87 10000 0.5 0 11:18 06.10.2019
688 Clouds 8 1018 87 10000 1 0 10:42 06.10.2019
689 Clouds 8 1018 87 10000 1.5 60 10:24 06.10.2019
690 Rain 7 1018 93 10000 2.1 80 09:42 06.10.2019
691 Rain 6 1018 93 10000 2.1 90 09:21 06.10.2019
692 Rain 6 1018 93 10000 2.1 90 09:21 06.10.2019
693 Rain 6 1018 93 10000 2.1 90 08:59 06.10.2019
694 Rain 5 1018 93 10000 1.5 80 08:39 06.10.2019
695 Rain 5 1018 93 10000 0.5 0 08:19 06.10.2019
696 Rain 5 1018 93 10000 1.5 80 07:42 06.10.2019
697 Rain 6 1018 93 10000 1.5 80 07:18 06.10.2019
698 Clouds 5 1018 87 10000 1.5 80 06:18 06.10.2019
699 Clouds 5 1018 93 10000 2.6 90 05:27 06.10.2019
700 Clouds 6 1018 93 10000 1 170 03:23 06.10.2019
701 Clouds 6 1019 93 10000 1.5 120 02:40 06.10.2019
702 Clouds 6 1019 93 10000 1.5 120 02:40 06.10.2019
703 Clouds 6 1019 87 10000 1.5 70 01:57 06.10.2019
704 Clouds 6 1019 87 10000 1.5 70 01:37 06.10.2019
705 Clouds 6 1019 87 10000 1 0 01:18 06.10.2019
706 Clouds 6 1019 87 10000 1.5 70 00:45 06.10.2019
707 Clouds 6 1018 87 10000 1 0 00:21 06.10.2019
708 Rain 5 1017 95 0 0.51 136.904 23:43 05.10.2019
709 Rain 5 1017 96 0 0.51 136.904 23:21 05.10.2019
710 Clouds 6 1018 87 10000 0.5 0 22:57 05.10.2019
711 Clouds 6 1018 87 10000 1.5 80 22:38 05.10.2019
712 Clouds 6 1018 87 10000 1.5 80 22:38 05.10.2019
713 Clouds 6 1018 87 10000 1.5 80 22:38 05.10.2019
714 Clouds 7 1018 87 10000 1.5 90 22:19 05.10.2019
715 Clouds 7 1018 87 10000 1 0 21:42 05.10.2019
716 Rain 7 1017 87 10000 1.5 160 21:24 05.10.2019
717 Rain 7 1017 87 10000 1.5 160 20:59 05.10.2019
718 Rain 7 1017 87 10000 1.5 160 20:59 05.10.2019
719 Rain 7 1017 87 10000 1 0 20:40 05.10.2019
720 Rain 7 1017 87 10000 2.1 0 20:20 05.10.2019
721 Rain 7 1015 95 0 0.45 291 19:58 05.10.2019
722 Rain 8 1016 81 10000 2.6 240 19:37 05.10.2019
723 Rain 8 1016 87 10000 1.5 0 19:18 05.10.2019
724 Rain 8 1015 87 10000 2.6 90 18:55 05.10.2019
725 Rain 8 1015 87 10000 2.6 90 18:36 05.10.2019
726 Rain 8 1014 93 0 0.89 317 18:18 05.10.2019
727 Rain 9 1014 81 10000 4.1 80 17:42 05.10.2019
728 Rain 9 1013 87 10000 4.1 70 17:22 05.10.2019
729 Rain 9 1013 87 10000 4.1 70 16:56 05.10.2019
730 Rain 9 1013 87 10000 4.1 70 16:56 05.10.2019
731 Rain 9 1013 87 10000 3.1 80 16:37 05.10.2019
732 Rain 10 1012 82 10000 2.1 80 16:19 05.10.2019
733 Rain 10 1012 82 10000 2.1 80 15:56 05.10.2019
734 Rain 10 1012 71 10000 3.1 290 15:38 05.10.2019
735 Rain 10 1011 71 10000 4.6 270 15:19 05.10.2019
736 Clouds 11 1011 71 10000 2.1 240 14:43 05.10.2019
737 Clouds 10 1011 82 10000 4.6 270 14:24 05.10.2019
738 Clouds 10 1011 82 10000 4.6 270 13:58 05.10.2019
739 Clouds 10 1011 76 10000 4.6 260 13:39 05.10.2019
740 Clouds 10 1011 76 10000 4.1 250 13:18 05.10.2019
741 Clouds 10 1011 76 10000 3.6 260 12:42 05.10.2019
742 Clouds 10 1011 76 10000 1.5 0 12:19 05.10.2019
743 Clouds 10 1012 81 10000 1.5 320 11:41 05.10.2019
744 Rain 10 1012 87 10000 0.5 0 11:20 05.10.2019
745 Rain 9 1012 87 10000 0.5 0 10:57 05.10.2019
746 Rain 9 1012 87 10000 0.5 0 10:38 05.10.2019
747 Rain 9 1012 93 10000 0.5 0 10:20 05.10.2019
748 Rain 8 1011 93 10000 1 0 09:42 05.10.2019
749 Rain 8 1011 93 10000 0.5 0 09:23 05.10.2019
750 Clouds 7 1011 100 10000 0.5 0 08:43 05.10.2019
751 Rain 7 1011 93 10000 0.5 0 08:24 05.10.2019
752 Rain 7 1011 93 10000 0.5 0 07:59 05.10.2019
753 Rain 8 1011 93 10000 0.5 0 07:40 05.10.2019
754 Drizzle 8 1011 93 10000 1 0 07:21 05.10.2019
755 Rain 7 1011 93 10000 1 0 06:52 05.10.2019
756 Rain 7 1011 93 10000 2.1 270 06:21 05.10.2019
757 Rain 7 1011 93 10000 0.5 0 04:46 05.10.2019
758 Clouds 7 1011 93 10000 0.5 0 03:32 05.10.2019
759 Clouds 7 1012 100 10000 1.5 260 02:29 05.10.2019
760 Rain 7 1011 100 10000 0.5 0 01:26 05.10.2019
761 Rain 8 1012 93 10000 0.5 0 00:48 05.10.2019
762 Rain 8 1012 93 10000 0.5 0 00:48 05.10.2019
763 Rain 7 1012 93 10000 1 0 00:27 05.10.2019
764 Rain 7 1012 93 10000 1 0 23:57 04.10.2019
765 Rain 7 1011 93 10000 1 0 23:39 04.10.2019
766 Rain 7 1011 93 10000 1 0 23:21 04.10.2019
767 Rain 7 1011 87 10000 2.1 90 22:42 04.10.2019
768 Rain 8 1011 93 10000 1 0 22:24 04.10.2019
769 Rain 8 1011 87 10000 1 0 21:59 04.10.2019
770 Rain 8 1011 87 10000 1 0 21:40 04.10.2019
771 Rain 8 1011 93 10000 2.1 270 21:22 04.10.2019
772 Rain 8 1011 93 10000 2.1 270 20:58 04.10.2019
773 Clouds 8 1010 93 10000 1.5 300 20:39 04.10.2019
774 Clouds 8 1010 87 10000 1.5 200 20:21 04.10.2019
775 Clouds 8 1009 87 10000 1 0 19:55 04.10.2019
776 Clouds 8 1009 87 10000 1 0 19:37 04.10.2019
777 Clouds 8 1010 87 10000 2.1 290 19:18 04.10.2019
778 Clouds 9 1010 81 10000 2.6 270 18:40 04.10.2019
779 Clouds 9 1010 81 10000 2.6 290 18:20 04.10.2019
780 Rain 9 1010 76 10000 6.2 250 17:58 04.10.2019
781 Rain 9 1010 76 10000 6.2 250 17:39 04.10.2019
782 Rain 9 1010 76 10000 6.2 280 17:21 04.10.2019
783 Clouds 10 1010 76 10000 6.2 270 16:55 04.10.2019
784 Clouds 10 1010 76 10000 6.2 270 16:37 04.10.2019
785 Clouds 9 1010 66 10000 3.1 270 16:18 04.10.2019
786 Clouds 10 1010 66 10000 3.1 270 15:55 04.10.2019
787 Clouds 10 1010 66 10000 3.1 270 15:55 04.10.2019
788 Clouds 10 1011 66 10000 4.6 300 15:37 04.10.2019
789 Clouds 10 1011 76 10000 6.2 270 15:19 04.10.2019
790 Rain 10 1012 70 10000 3.1 280 14:54 04.10.2019
791 Rain 10 1012 70 10000 3.1 280 14:36 04.10.2019
792 Clouds 10 1011 66 10000 2.1 300 14:18 04.10.2019
793 Clouds 9 1012 70 10000 2.6 270 13:42 04.10.2019
794 Clouds 8 1012 70 10000 1.5 0 13:19 04.10.2019
795 Clouds 9 1013 66 10000 1.5 80 12:46 04.10.2019
796 Clouds 9 1013 66 10000 1.5 80 12:28 04.10.2019
797 Clouds 7 1013 70 10000 1 0 11:59 04.10.2019
798 Clouds 7 1014 81 10000 1.5 260 11:40 04.10.2019
799 Clouds 7 1014 81 10000 1.5 260 11:40 04.10.2019
800 Clouds 6 1015 81 10000 2.1 260 11:20 04.10.2019
801 Clouds 8 1014 87 10000 1 0 10:40 04.10.2019
802 Clouds 7 1014 87 10000 3.1 270 10:20 04.10.2019
803 Clouds 7 1014 86 10000 2.1 260 09:45 04.10.2019
804 Clouds 5 1014 86 10000 2.1 260 09:27 04.10.2019
805 Clouds 3 1015 93 10000 2.1 260 08:56 04.10.2019
806 Clouds 3 1015 93 10000 2.1 260 08:38 04.10.2019
807 Clouds 3 1015 93 10000 1.5 240 08:19 04.10.2019
808 Clear 2 1015 93 10000 1.5 260 07:43 04.10.2019
809 Clear 2 1016 93 10000 0.5 0 07:22 04.10.2019
810 Clouds 2 1017 93 10000 1 0 06:43 04.10.2019
811 Clouds 2 1017 93 10000 1 0 06:43 04.10.2019
812 Clouds 2 1017 93 10000 0.5 0 06:24 04.10.2019
813 Clouds 2 1017 93 10000 1 0 05:38 04.10.2019
814 Clouds 2 1017 93 10000 1 0 05:18 04.10.2019
815 Clouds 1 1017 93 10000 0.5 0 03:47 04.10.2019
816 Clouds 1 1017 93 10000 1 0 02:53 04.10.2019
817 Clouds 3 1018 86 10000 0.5 0 01:55 04.10.2019
818 Clouds 3 1018 86 10000 0.5 0 01:55 04.10.2019
819 Clouds 2 1018 86 10000 0.5 0 01:30 04.10.2019
820 Clouds 2 1018 93 10000 1 280 00:57 04.10.2019
821 Clouds 3 1019 93 10000 0.5 0 23:55 03.10.2019
822 Clouds 3 1019 93 10000 0.5 0 23:37 03.10.2019
823 Clouds 3 1019 93 10000 1 170 23:18 03.10.2019
824 Clouds 3 1019 93 10000 1 170 23:18 03.10.2019
825 Clouds 3 1019 86 10000 0.5 0 22:55 03.10.2019
826 Clouds 3 1019 86 10000 0.5 0 22:37 03.10.2019
827 Clouds 4 1019 81 10000 1 0 22:18 03.10.2019
828 Clouds 4 1019 81 10000 1 0 21:55 03.10.2019
829 Clouds 4 1018 81 10000 1 260 21:36 03.10.2019
830 Clouds 6 1018 75 10000 1.5 260 21:18 03.10.2019
831 Clouds 6 1018 81 10000 1 0 20:41 03.10.2019
832 Clouds 6 1018 75 10000 1 0 20:23 03.10.2019
833 Clouds 8 1018 75 10000 1 0 19:59 03.10.2019
834 Clouds 8 1017 75 10000 1 0 19:41 03.10.2019
835 Clouds 10 1017 61 10000 1.5 70 19:22 03.10.2019
836 Clouds 11 1017 57 10000 3.6 60 18:58 03.10.2019
837 Clouds 11 1017 57 10000 3.6 60 18:38 03.10.2019
838 Clouds 11 1017 57 10000 3.6 60 18:38 03.10.2019
839 Clouds 10 1017 54 10000 4.6 70 18:19 03.10.2019
840 Clouds 10 1017 50 10000 3.1 80 17:55 03.10.2019
841 Clouds 10 1017 50 10000 3.1 80 17:55 03.10.2019
842 Clouds 10 1017 50 10000 3.1 80 17:55 03.10.2019
843 Clouds 11 1017 50 10000 3.1 80 17:37 03.10.2019
844 Clouds 10 1017 43 10000 3.6 50 17:19 03.10.2019
845 Clouds 10 1017 43 10000 3.6 80 16:41 03.10.2019
846 Clouds 10 1017 43 10000 3.1 100 16:23 03.10.2019
847 Clouds 10 1017 60 10000 3.1 60 15:55 03.10.2019
848 Clouds 13 1017 60 10000 3.1 60 15:37 03.10.2019
849 Clouds 10 1017 53 0 1.34 337 15:18 03.10.2019
850 Clouds 9 1017 54 0 1.79 15 14:43 03.10.2019
851 Clouds 10 1018 43 10000 1.5 0 14:24 03.10.2019
852 Clouds 9 1017 52 0 0.89 1 13:56 03.10.2019
853 Clouds 9 1017 54 0 1.34 344 13:38 03.10.2019
854 Clouds 9 1017 54 0 1.34 344 13:38 03.10.2019
855 Clouds 10 1019 58 10000 3.1 50 13:19 03.10.2019
856 Clouds 9 1018 56 0 0.45 37 12:54 03.10.2019
857 Clouds 8 1018 65 0 1.74 353.903 12:36 03.10.2019
858 Clouds 9 1019 57 10000 1 0 12:18 03.10.2019
859 Clouds 8 1018 67 0 0.45 4 11:40 03.10.2019
860 Clouds 8 1018 69 0 0.45 351 11:22 03.10.2019
861 Clouds 7 1020 70 10000 1.5 0 10:58 03.10.2019
862 Clouds 7 1020 70 10000 1.5 0 10:39 03.10.2019
863 Clouds 7 1020 81 10000 0.5 0 10:18 03.10.2019
864 Clouds 7 1020 81 10000 0.5 0 09:57 03.10.2019
865 Clouds 6 1020 81 10000 1 0 09:38 03.10.2019
866 Clouds 6 1020 87 10000 0.5 0 09:19 03.10.2019
867 Clouds 5 1019 87 10000 0.5 0 08:43 03.10.2019
868 Clouds 5 1019 87 10000 1 0 08:25 03.10.2019
869 Clouds 5 1019 87 10000 1 0 07:56 03.10.2019
870 Clouds 5 1018 87 10000 1 0 07:37 03.10.2019
871 Clouds 5 1018 87 10000 1 0 07:19 03.10.2019
872 Clouds 5 1018 81 10000 2.1 70 06:27 03.10.2019
873 Clouds 5 1018 81 10000 1.5 100 05:50 03.10.2019
874 Clouds 5 1018 81 10000 1.5 100 05:31 03.10.2019
875 Clouds 5 1018 81 10000 0.5 0 04:47 03.10.2019
876 Rain 5 1018 81 10000 1.5 270 04:18 03.10.2019
877 Clouds 6 1018 81 10000 2.6 280 03:19 03.10.2019
878 Clouds 6 1018 81 10000 2.6 280 03:19 03.10.2019
879 Clouds 6 1018 75 10000 2.1 260 02:27 03.10.2019
880 Clouds 6 1017 75 10000 2.1 220 01:41 03.10.2019
881 Clouds 6 1017 61 10000 2.1 240 00:53 03.10.2019
882 Clouds 6 1017 61 10000 2.1 240 00:32 03.10.2019
883 Clouds 7 1016 66 10000 2.6 160 23:58 02.10.2019
884 Clouds 7 1015 66 10000 3.6 260 23:38 02.10.2019
885 Clouds 7 1015 66 10000 3.6 260 23:38 02.10.2019
886 Clouds 7 1014 66 10000 5.7 250 23:19 02.10.2019
887 Clouds 7 1014 66 10000 6.2 240 22:42 02.10.2019
888 Rain 7 1013 71 10000 2.6 0 22:20 02.10.2019
889 Clouds 8 1011 71 10000 5.7 260 21:55 02.10.2019
890 Clouds 8 1011 71 10000 5.7 260 21:37 02.10.2019
891 Rain 9 1011 76 10000 5.1 250 21:19 02.10.2019
892 -273 0 0 0 0 0 20:55 02.10.2019
893 Rain 10 1010 76 10000 4.1 250 20:37 02.10.2019
894 Rain 10 1009 87 10000 1 0 20:19 02.10.2019
895 Rain 10 1008 82 10000 0.5 0 19:45 02.10.2019
896 Rain 10 1008 82 10000 0.5 0 19:45 02.10.2019
897 Rain 10 1008 82 10000 0.5 0 19:45 02.10.2019
898 Rain 11 1008 82 10000 1 180 19:23 02.10.2019
899 Rain 11 1008 82 10000 1 180 18:59 02.10.2019
900 Clouds 14 1008 82 10000 1.5 160 18:40 02.10.2019
901 Clouds 13 1008 77 10000 1.5 90 18:21 02.10.2019
902 Clouds 13 1008 77 10000 1.5 90 17:58 02.10.2019
903 Clouds 14 1008 72 10000 1.5 0 17:39 02.10.2019
904 Clouds 14 1008 72 10000 1.5 0 17:39 02.10.2019
905 Clouds 14 1008 72 10000 1 0 17:20 02.10.2019
906 Clouds 14 1008 72 10000 1 0 16:57 02.10.2019
907 Clouds 14 1008 67 10000 2.1 80 16:37 02.10.2019
908 Clouds 14 1008 72 10000 2.1 80 16:19 02.10.2019
909 Clouds 14 1008 72 10000 2.1 80 15:55 02.10.2019
910 Clouds 13 1008 77 10000 3.1 60 15:37 02.10.2019
911 Clouds 13 1008 77 10000 3.1 60 15:18 02.10.2019
912 Clouds 13 1008 82 10000 3.6 70 14:43 02.10.2019
913 Clouds 13 1008 77 10000 2.1 60 14:23 02.10.2019
914 Clouds 12 1008 82 10000 1.5 90 13:56 02.10.2019
915 Clouds 12 1008 82 10000 0.5 0 13:37 02.10.2019
916 Rain 12 1008 82 10000 0.5 0 13:19 02.10.2019
917 Rain 12 1008 82 10000 0.5 0 13:19 02.10.2019
918 Rain 12 1008 87 10000 1 0 12:40 02.10.2019
919 Rain 12 1008 87 10000 1 0 12:22 02.10.2019
920 Rain 12 1008 87 10000 1 0 11:55 02.10.2019
921 Rain 12 1008 93 10000 1 60 11:36 02.10.2019
922 Rain 12 1008 93 7000 1.5 280 11:18 02.10.2019
923 Rain 12 1008 93 7000 1.5 280 11:18 02.10.2019
924 Rain 11 1008 93 10000 0.5 0 10:38 02.10.2019
925 Rain 11 1008 93 10000 0.5 0 10:18 02.10.2019
926 Rain 11 1008 93 10000 1.5 250 09:40 02.10.2019
927 Rain 11 1008 93 10000 1.5 250 09:20 02.10.2019
928 Rain 11 1007 93 10000 0.5 0 08:55 02.10.2019
929 Clouds 11 1007 93 10000 1.5 100 08:36 02.10.2019
930 Clouds 11 1007 93 10000 1.5 100 08:18 02.10.2019
931 Rain 11 1007 93 10000 0.5 0 07:39 02.10.2019
932 Rain 11 1007 93 10000 0.5 0 07:21 02.10.2019
933 Rain 11 1007 93 10000 1 0 06:47 02.10.2019
934 Rain 11 1007 93 8000 2.1 0 05:56 02.10.2019
935 Rain 12 1007 87 10000 3.1 270 05:25 02.10.2019
936 Rain 12 1007 87 10000 3.6 290 04:56 02.10.2019
937 Rain 13 1006 87 10000 4.1 270 03:53 02.10.2019
938 Clouds 13 1006 82 10000 0.5 0 02:47 02.10.2019
939 Clouds 13 1006 82 10000 1.5 0 02:24 02.10.2019
940 Clouds 12 1006 82 10000 1 0 01:46 02.10.2019
941 Clouds 13 1006 82 10000 1.5 0 00:51 02.10.2019
942 Clouds 13 1007 82 10000 1.5 250 00:27 02.10.2019
943 Clouds 13 1007 77 10000 1 0 23:45 01.10.2019
944 Clouds 13 1007 77 10000 1 0 23:26 01.10.2019
945 Clouds 13 1007 72 10000 1 0 22:59 01.10.2019
946 Clouds 13 1007 72 10000 1 0 22:40 01.10.2019
947 Clouds 13 1007 72 10000 1.5 250 22:20 01.10.2019
948 Clouds 14 1007 63 10000 2.1 0 21:57 01.10.2019
949 Clouds 14 1006 67 10000 1.5 150 21:39 01.10.2019
950 Clouds 14 1006 67 10000 1.5 150 21:21 01.10.2019
951 Clouds 15 1007 52 10000 3.1 80 20:57 01.10.2019
952 Clouds 16 1006 46 10000 3.1 0 20:38 01.10.2019
953 Clouds 16 1006 46 10000 3.1 0 20:19 01.10.2019
954 Clouds 16 1006 46 10000 5.7 70 19:56 01.10.2019
955 Clouds 22 1006 43 10000 5.7 140 19:38 01.10.2019
956 Clouds 22 1006 43 10000 5.7 140 19:18 01.10.2019
957 Clouds 23 1006 40 10000 5.1 140 18:40 01.10.2019
958 Clouds 20 1006 40 10000 5.1 140 18:22 01.10.2019
959 Clouds 21 1006 40 10000 5.7 140 17:58 01.10.2019
960 Clouds 22 1006 40 10000 6.2 120 17:40 01.10.2019
961 Clouds 21 1006 40 10000 6.2 120 17:19 01.10.2019
962 Clouds 21 1007 38 10000 7.2 130 16:58 01.10.2019
963 Clouds 22 1007 38 10000 6.7 130 16:40 01.10.2019
964 Clouds 22 1007 38 10000 6.7 130 16:21 01.10.2019
965 Clouds 21 1007 36 10000 6.2 140 15:46 01.10.2019
966 Clear 21 1006 46 0 3.13 125 15:23 01.10.2019
967 Clear 21 1006 45 0 4.47 194 14:55 01.10.2019
968 Clouds 21 1008 43 10000 4.1 260 14:37 01.10.2019
969 Clouds 21 1008 43 10000 4.1 260 14:18 01.10.2019
970 Clouds 21 1010 55 10000 5.1 270 13:40 01.10.2019
971 Clouds 20 1010 55 10000 5.1 270 13:21 01.10.2019
972 Clear 20 1011 52 10000 4.6 260 12:59 01.10.2019
973 Clear 20 1011 52 10000 4.6 260 12:59 01.10.2019
974 Clear 19 1011 55 10000 5.1 260 12:40 01.10.2019
975 Clear 17 1011 55 10000 5.1 260 12:19 01.10.2019
976 Clear 16 1012 59 10000 5.1 270 11:58 01.10.2019
977 Clouds 15 1012 71 10000 3.6 270 11:38 01.10.2019
978 Clouds 14 1012 71 10000 3.6 270 11:19 01.10.2019
979 Clear 14 1013 76 10000 3.1 270 10:58 01.10.2019
980 Clear 16 1013 76 10000 3.6 280 10:40 01.10.2019
981 Clear 12 1013 76 10000 3.6 280 10:21 01.10.2019
982 Clear 14 1014 87 10000 1.5 270 09:40 01.10.2019
983 Clear 10 1014 87 10000 1.5 270 09:21 01.10.2019
984 Clear 9 1014 93 10000 0.5 0 08:42 01.10.2019
985 Clear 8 1014 93 10000 1 0 08:24 01.10.2019
986 Clear 8 1014 93 10000 0.5 0 07:48 01.10.2019
987 Clear 8 1015 93 10000 1 260 07:25 01.10.2019
988 Clear 8 1015 93 10000 1.5 270 06:48 01.10.2019
989 Clear 8 1015 93 10000 1 0 06:20 01.10.2019
990 Clear 8 1015 87 10000 0.5 0 05:46 01.10.2019
991 Clear 8 1015 87 10000 0.5 0 05:18 01.10.2019
992 Clear 9 1016 93 10000 1.5 240 04:30 01.10.2019
993 Clouds 9 1016 93 10000 1 0 02:29 01.10.2019
994 Clouds 10 1017 87 10000 1.5 350 01:59 01.10.2019
995 Clouds 8 1016 87 10000 1 0 00:59 01.10.2019
996 Clouds 9 1016 87 10000 1 330 00:37 01.10.2019
997 Clouds 9 1016 87 10000 1 330 00:37 01.10.2019
998 Clouds 10 1016 87 10000 1 330 00:18 01.10.2019
999 Clear 10 1016 81 10000 0.5 0 23:41 30.09.2019
1000 Clear 10 1016 81 10000 0.5 0 23:41 30.09.2019
1001 Clear 10 1016 81 10000 0.5 0 23:21 30.09.2019
1002 Clear 11 1016 81 10000 0.5 0 22:43 30.09.2019
1003 Clear 11 1016 81 10000 0.5 0 22:25 30.09.2019
1004 Clear 11 1016 76 10000 0.5 0 21:58 30.09.2019
1005 Clear 12 1015 71 10000 0.5 0 21:38 30.09.2019
1006 Clear 12 1015 71 10000 0.5 0 21:19 30.09.2019
1007 Clouds 13 1015 63 10000 0.5 0 20:58 30.09.2019
1008 -273 0 0 0 0 0 20:39 30.09.2019
1009 Clouds 14 1014 59 10000 1 0 20:20 30.09.2019
1010 Clouds 15 1014 55 10000 3.1 80 19:57 30.09.2019
1011 Clouds 16 1013 52 10000 5.1 80 19:39 30.09.2019
1012 Clouds 19 1013 52 10000 5.1 80 19:19 30.09.2019
1013 Clouds 20 1013 49 10000 6.2 80 18:57 30.09.2019
1014 -273 0 0 0 0 0 18:39 30.09.2019
1015 Clouds 18 1012 40 10000 3.1 60 18:19 30.09.2019
1016 Clouds 19 1012 31 10000 1.5 0 17:43 30.09.2019
1017 Clouds 19 1012 31 10000 1.5 0 17:23 30.09.2019
1018 Clouds 19 1012 35 10000 3.1 280 16:58 30.09.2019
1019 Clouds 20 1012 35 10000 3.1 280 16:40 30.09.2019
1020 Clouds 21 1012 28 10000 5.1 250 16:19 30.09.2019
1021 Clouds 21 1011 35 10000 5.1 280 15:58 30.09.2019
1022 Clouds 21 1011 29 10000 5.7 290 15:38 30.09.2019
1023 Clouds 21 1011 29 10000 5.7 290 15:19 30.09.2019
1024 Clouds 21 1011 35 10000 6.7 280 14:57 30.09.2019
1025 Clouds 20 1011 28 10000 6.2 290 14:37 30.09.2019
1026 Clouds 21 1011 28 10000 6.2 290 14:19 30.09.2019
1027 Clouds 20 1012 33 10000 8.2 280 13:57 30.09.2019
1028 Clouds 20 1011 33 10000 6.2 290 13:38 30.09.2019
1029 Rain 20 1009 43 0 2.24 318 13:20 30.09.2019
1030 Clouds 20 1012 60 10000 3.1 60 12:43 30.09.2019
1031 Clouds 18 1012 60 10000 3.1 60 12:22 30.09.2019
1032 Clouds 17 1012 63 10000 2.1 0 11:57 30.09.2019
1033 Clouds 17 1012 72 10000 1.5 110 11:39 30.09.2019
1034 Clouds 17 1012 72 10000 1.5 110 11:19 30.09.2019
1035 Clouds 17 1012 77 10000 3.1 120 10:54 30.09.2019
1036 Clouds 16 1012 82 10000 3.1 110 10:36 30.09.2019
1037 Clouds 16 1012 82 10000 3.1 110 10:18 30.09.2019
1038 Clouds 15 1011 87 10000 3.6 100 09:40 30.09.2019
1039 Clouds 12 1011 87 10000 3.6 100 09:21 30.09.2019
1040 Clouds 11 1010 87 10000 4.6 80 08:51 30.09.2019
1041 Clouds 11 1010 93 10000 3.1 100 08:33 30.09.2019
1042 Clouds 11 1010 93 10000 1 0 07:46 30.09.2019
1043 Clouds 11 1009 93 10000 1.5 150 07:28 30.09.2019
1044 Clouds 11 1009 87 10000 0.5 0 06:59 30.09.2019
1045 Clouds 11 1009 93 10000 2.1 0 06:41 30.09.2019
1046 Clouds 12 1009 87 10000 1 0 05:51 30.09.2019
1047 Clouds 12 1009 87 10000 1.5 280 05:33 30.09.2019
1048 Clouds 13 1009 87 10000 1.5 240 02:49 30.09.2019
1049 Clouds 13 1009 87 10000 1.5 0 01:41 30.09.2019
1050 Clouds 12 1009 82 10000 4.6 270 00:55 30.09.2019
1051 Clouds 13 1009 77 10000 2.6 220 00:37 30.09.2019
1052 Clouds 14 1009 77 10000 2.6 220 00:18 30.09.2019
1053 Clouds 14 1009 77 10000 4.1 250 23:39 29.09.2019
1054 Clouds 14 1009 77 10000 4.1 250 23:20 29.09.2019
1055 Clouds 13 1009 77 10000 3.6 250 22:43 29.09.2019
1056 Clouds 13 1009 77 10000 3.1 260 22:25 29.09.2019
1057 Clouds 15 1009 55 10000 2.6 0 21:59 29.09.2019
1058 Clear 16 1009 52 10000 2.6 0 21:39 29.09.2019
1059 Clear 15 1009 52 10000 2.6 0 21:19 29.09.2019
1060 Clouds 16 1009 49 10000 4.1 0 20:58 29.09.2019
1061 Clouds 16 1009 49 10000 4.1 0 20:40 29.09.2019
1062 Clouds 17 1009 49 10000 4.1 0 20:19 29.09.2019
1063 Clouds 17 1009 49 10000 4.6 0 19:55 29.09.2019
1064 Clouds 22 1009 43 10000 4.1 140 19:36 29.09.2019
1065 Clouds 22 1009 43 10000 4.1 140 19:18 29.09.2019
1066 -273 0 0 0 0 0 18:55 29.09.2019
1067 Clouds 22 1009 43 10000 6.2 140 18:55 29.09.2019
1068 Clouds 23 1009 40 10000 7.2 140 18:36 29.09.2019
1069 Clouds 19 1008 55 0 3.13 165 18:18 29.09.2019
1070 Clouds 21 1009 40 10000 6.2 160 17:54 29.09.2019
1071 Clouds 21 1009 40 10000 6.2 160 17:54 29.09.2019
1072 -273 0 0 0 0 0 17:54 29.09.2019
1073 Clouds 20 1008 50 0 3.58 131 17:36 29.09.2019
1074 Clouds 21 1008 48 0 4.47 299 17:18 29.09.2019
1075 Clouds 23 1010 38 10000 6.7 160 16:41 29.09.2019
1076 Clouds 23 1010 38 10000 6.7 160 16:20 29.09.2019
1077 Clouds 23 1010 38 10000 3.1 0 15:58 29.09.2019
1078 Clouds 22 1010 41 10000 2.1 0 15:38 29.09.2019
1079 Clouds 22 1010 41 10000 2.1 0 15:19 29.09.2019
1080 Clouds 22 1011 43 10000 2.6 260 14:58 29.09.2019
1081 Clouds 20 1011 56 10000 4.1 260 14:38 29.09.2019
1082 Clouds 21 1011 56 10000 4.1 260 14:19 29.09.2019
1083 Clouds 21 1012 56 10000 4.1 260 13:56 29.09.2019
1084 Clouds 20 1013 63 10000 4.6 260 13:37 29.09.2019
1085 Clouds 20 1013 63 10000 4.6 260 13:18 29.09.2019
1086 Clouds 20 1014 63 10000 4.1 270 12:56 29.09.2019
1087 Clouds 19 1014 67 10000 4.1 260 12:38 29.09.2019
1088 Clouds 17 1014 67 10000 4.1 260 12:20 29.09.2019
1089 Clouds 15 1016 77 10000 2.6 260 11:41 29.09.2019
1090 Clouds 15 1016 77 10000 2.6 260 11:20 29.09.2019
1091 Clouds 14 1016 76 10000 1.5 250 10:58 29.09.2019
1092 Clouds 16 1017 82 10000 1 0 10:40 29.09.2019
1093 Clouds 15 1017 82 10000 1 0 10:21 29.09.2019
1094 Clouds 14 1017 81 10000 1 0 09:59 29.09.2019
1095 Clouds 14 1017 87 10000 1.5 270 09:41 29.09.2019
1096 Clouds 11 1017 87 10000 1.5 270 09:19 29.09.2019
1097 Clouds 11 1017 93 10000 1.5 250 08:43 29.09.2019
1098 Clouds 7 1017 100 10000 1.5 290 08:22 29.09.2019
1099 Clouds 9 1018 93 10000 2.1 260 07:45 29.09.2019
1100 Clouds 9 1018 100 10000 0.5 0 07:27 29.09.2019
1101 Clouds 9 1018 93 10000 1 0 06:55 29.09.2019
1102 Clouds 9 1018 93 10000 1.5 250 06:32 29.09.2019
1103 Clouds 8 1018 93 10000 1 220 04:52 29.09.2019
1104 Clouds 8 1019 93 10000 2.6 260 04:24 29.09.2019
1105 Clouds 8 1019 93 10000 1.5 260 03:42 29.09.2019
1106 Clouds 9 1020 87 10000 2.1 260 02:25 29.09.2019
1107 Clouds 10 1020 93 10000 2.6 270 01:45 29.09.2019
1108 Clouds 10 1020 87 10000 2.1 260 01:20 29.09.2019
1109 Clouds 10 1020 87 10000 0.5 0 00:41 29.09.2019
1110 Clouds 12 1020 87 10000 0.5 0 00:19 29.09.2019
1111 Clouds 12 1020 87 10000 1 160 23:39 28.09.2019
1112 Clouds 12 1020 87 10000 1 160 23:39 28.09.2019
1113 Clouds 11 1020 87 10000 1 160 23:21 28.09.2019
1114 Clouds 11 1020 82 10000 0.5 0 22:41 28.09.2019
1115 Clouds 12 1020 82 10000 0.5 0 22:23 28.09.2019
1116 Clouds 12 1020 82 10000 0.5 0 21:59 28.09.2019
1117 Clouds 12 1020 82 10000 0.5 0 21:40 28.09.2019
1118 Clouds 13 1020 82 10000 0.5 0 21:21 28.09.2019
1119 Clouds 13 1019 77 10000 0.5 0 20:59 28.09.2019
1120 Clouds 13 1019 77 10000 0.5 0 20:40 28.09.2019
1121 Clouds 13 1019 77 10000 1 0 20:21 28.09.2019
1122 Clouds 13 1019 77 10000 0.5 0 19:58 28.09.2019
1123 Clouds 13 1019 77 10000 1 0 19:39 28.09.2019
1124 Clouds 12 1019 77 10000 1 0 19:21 28.09.2019
1125 Clouds 13 1019 67 10000 1.5 150 18:58 28.09.2019
1126 Clouds 14 1019 67 10000 2.1 90 18:39 28.09.2019
1127 Clouds 14 1019 67 10000 2.1 90 18:21 28.09.2019
1128 Clouds 14 1019 67 10000 2.6 100 17:56 28.09.2019
1129 Clouds 14 1019 63 10000 2.1 60 17:38 28.09.2019
1130 Clouds 14 1016 82 0 0.89 300 17:20 28.09.2019
1131 Rain 14 1016 81 0 1.79 331 16:45 28.09.2019
1132 Rain 14 1016 81 0 1.34 303 16:27 28.09.2019
1133 Clouds 14 1016 78 0 2.24 353 15:42 28.09.2019
1134 Clouds 14 1019 67 10000 2.6 170 15:24 28.09.2019
1135 Clouds 14 1019 67 10000 2.1 180 14:58 28.09.2019
1136 Clouds 14 1019 67 10000 2.1 0 14:40 28.09.2019
1137 Clouds 14 1019 67 10000 2.1 0 14:21 28.09.2019
1138 Clouds 14 1019 72 10000 2.1 80 13:58 28.09.2019
1139 Clouds 14 1019 82 10000 0.5 0 13:40 28.09.2019
1140 Clouds 14 1019 82 10000 0.5 0 13:20 28.09.2019
1141 Clouds 14 1019 82 10000 0.5 0 12:46 28.09.2019
1142 Clouds 13 1019 82 10000 1.5 70 12:21 28.09.2019
1143 Clouds 13 1019 82 10000 2.1 70 11:59 28.09.2019
1144 Clouds 13 1019 87 10000 2.1 90 11:40 28.09.2019
1145 Clouds 13 1019 87 10000 2.1 90 11:40 28.09.2019
1146 Clouds 13 1019 87 10000 2.1 90 11:19 28.09.2019
1147 Clouds 13 1019 93 10000 1.5 140 10:44 28.09.2019
1148 Clouds 13 1019 93 10000 1.5 140 10:21 28.09.2019
1149 Rain 13 1018 93 10000 1 90 09:58 28.09.2019
1150 Rain 13 1018 93 10000 1 90 09:58 28.09.2019
1151 Rain 13 1018 93 10000 2.1 60 09:40 28.09.2019
1152 Rain 12 1018 93 10000 2.1 60 09:18 28.09.2019
1153 Rain 12 1018 100 10000 0.5 0 08:47 28.09.2019
1154 Drizzle 12 1018 100 10000 1.5 220 08:29 28.09.2019
1155 Rain 13 1018 100 8000 1 290 07:47 28.09.2019
1156 Rain 13 1018 100 5000 2.6 250 07:25 28.09.2019
1157 Rain 13 1017 100 7000 1 0 06:59 28.09.2019
1158 Rain 13 1017 93 8000 2.6 260 06:33 28.09.2019
1159 Rain 13 1017 93 8000 2.6 260 06:33 28.09.2019
1160 Clouds 13 1017 93 10000 1.5 270 05:59 28.09.2019
1161 Clouds 13 1017 93 10000 1.5 0 05:24 28.09.2019
1162 Clouds 13 1016 100 10000 0.5 0 04:44 28.09.2019
1163 Clouds 13 1016 93 10000 2.1 260 04:21 28.09.2019
1164 Clouds 13 1016 93 10000 1 60 03:33 28.09.2019
1165 Clouds 12 1017 93 10000 0.5 0 02:57 28.09.2019
1166 Clouds 13 1017 93 10000 0.5 0 02:36 28.09.2019
1167 Clouds 13 1017 93 10000 3.1 70 01:56 28.09.2019
1168 Clouds 13 1017 93 10000 3.1 70 01:56 28.09.2019
1169 Clouds 13 1017 93 10000 2.1 300 01:38 28.09.2019
1170 Clouds 13 1017 93 10000 2.1 300 01:18 28.09.2019
1171 Clouds 13 1016 100 10000 1.5 240 00:43 28.09.2019
1172 Clouds 13 1016 100 10000 1.5 240 00:25 28.09.2019
1173 Rain 13 1016 93 10000 2.6 100 23:38 27.09.2019
1174 Rain 13 1016 93 10000 2.6 100 23:20 27.09.2019
1175 Rain 13 1017 93 10000 1.5 210 22:47 27.09.2019
1176 Rain 13 1017 93 10000 1.5 210 22:47 27.09.2019
1177 Thunderstorm 13 1017 93 10000 1 0 22:21 27.09.2019
1178 Clouds 14 1016 87 10000 2.1 280 21:59 27.09.2019
1179 Clouds 15 1016 82 10000 0.5 0 21:39 27.09.2019
1180 Clouds 15 1016 82 10000 0.5 0 21:20 27.09.2019
1181 Clouds 16 1016 82 10000 0.5 0 20:58 27.09.2019
1182 Clouds 16 1015 82 10000 0.5 0 20:40 27.09.2019
1183 Clouds 16 1015 82 10000 0.5 0 20:19 27.09.2019
1184 Clouds 16 1015 82 10000 0.5 0 20:19 27.09.2019
1185 Clouds 17 1015 77 10000 1 0 19:57 27.09.2019
1186 Clouds 17 1015 77 10000 1 0 19:38 27.09.2019
1187 Clouds 16 1015 77 10000 1 0 19:19 27.09.2019
1188 Clouds 19 1014 68 10000 1.5 90 18:41 27.09.2019
1189 Clouds 19 1014 68 10000 1.5 90 18:41 27.09.2019
1190 Clouds 18 1014 68 10000 1.5 90 18:23 27.09.2019
1191 Clouds 18 1014 60 10000 1.5 100 17:56 27.09.2019
1192 Clouds 18 1014 60 10000 1.5 100 17:56 27.09.2019
1193 Clouds 19 1014 68 10000 0.5 0 17:37 27.09.2019
1194 Clouds 19 1014 68 10000 0.5 0 17:19 27.09.2019
1195 Clear 19 1014 68 10000 1 0 16:57 27.09.2019
1196 Clear 19 1013 60 10000 1.5 260 16:37 27.09.2019
1197 Clear 19 1013 60 10000 1.5 260 16:18 27.09.2019
1198 Clear 19 1013 60 10000 1.5 260 16:18 27.09.2019
1199 Clear 19 1013 60 10000 1.5 260 16:18 27.09.2019
1200 Rain 19 1012 69 0 1.79 332 15:45 27.09.2019
1201 Clear 19 1014 60 10000 1 0 15:21 27.09.2019
1202 Clear 20 1014 64 10000 1 0 14:58 27.09.2019
1203 Clear 19 1014 63 10000 1 0 14:39 27.09.2019
1204 Clear 19 1014 63 10000 1 0 14:21 27.09.2019
1205 Clouds 18 1015 68 10000 1 0 13:57 27.09.2019
1206 Clouds 18 1016 72 10000 2.1 270 13:39 27.09.2019
1207 Clouds 17 1016 72 10000 2.1 270 13:20 27.09.2019
1208 Clouds 17 1016 72 10000 2.1 270 12:52 27.09.2019
1209 Clouds 15 1016 77 10000 3.1 280 12:23 27.09.2019
1210 Clouds 15 1017 77 10000 2.6 300 11:57 27.09.2019
1211 Clouds 14 1017 82 10000 1.5 280 11:38 27.09.2019
1212 Clouds 14 1017 82 10000 1.5 280 11:19 27.09.2019
1213 Clouds 15 1018 77 10000 2.1 250 10:43 27.09.2019
1214 Clouds 14 1018 82 10000 1 0 10:21 27.09.2019
1215 Clouds 14 1018 82 10000 0.5 0 09:58 27.09.2019
1216 Clouds 13 1018 87 10000 0.5 0 09:39 27.09.2019
1217 Clouds 11 1018 87 10000 0.5 0 09:19 27.09.2019
1218 Clouds 11 1018 87 10000 1 0 08:41 27.09.2019
1219 Clouds 9 1019 93 10000 1.5 270 08:21 27.09.2019
1220 Rain 9 1019 93 10000 0.5 0 07:50 27.09.2019
1221 Rain 9 1019 93 10000 0.5 0 07:29 27.09.2019
1222 Clouds 10 1019 93 10000 1 0 06:49 27.09.2019
1223 Clouds 9 1019 93 10000 1 60 06:31 27.09.2019
1224 Clouds 9 1019 93 10000 0.5 0 05:54 27.09.2019
1225 Clouds 9 1019 93 10000 1 160 05:34 27.09.2019
1226 Clouds 10 1019 93 10000 1.5 110 04:52 27.09.2019
1227 Clouds 10 1019 93 10000 0.5 0 03:38 27.09.2019
1228 Clouds 10 1019 93 10000 1 280 01:56 27.09.2019
1229 Clouds 10 1019 93 10000 1 0 01:30 27.09.2019
1230 Clouds 11 1019 93 10000 0.5 0 00:41 27.09.2019
1231 Clouds 11 1019 93 10000 1 0 23:57 26.09.2019
1232 Clouds 12 1019 93 10000 0.5 0 23:39 26.09.2019
1233 Clouds 12 1019 93 10000 0.5 0 23:20 26.09.2019
1234 Clouds 12 1019 93 10000 0.5 0 22:58 26.09.2019
1235 Clouds 12 1019 93 10000 0.5 0 22:58 26.09.2019
1236 Clouds 12 1019 93 10000 1 0 22:39 26.09.2019
1237 Clouds 12 1019 93 10000 1 0 22:18 26.09.2019
1238 Clouds 12 1019 93 10000 1 0 22:18 26.09.2019
1239 Clouds 12 1019 87 10000 0.5 0 21:58 26.09.2019
1240 Clouds 12 1019 93 10000 1 0 21:38 26.09.2019
1241 Clouds 12 1019 93 10000 1 0 21:19 26.09.2019
1242 Clouds 13 1018 87 10000 0.5 0 20:58 26.09.2019
1243 Clouds 13 1018 87 10000 0.5 0 20:40 26.09.2019
1244 Clouds 13 1018 87 10000 0.5 0 20:21 26.09.2019
1245 Clouds 13 1018 87 10000 0.5 0 19:59 26.09.2019
1246 Clouds 13 1018 82 10000 1 0 19:39 26.09.2019
1247 Clouds 13 1018 82 10000 1 0 19:18 26.09.2019
1248 Clouds 13 1017 87 10000 1 0 18:54 26.09.2019
1249 Clouds 14 1017 82 10000 1 0 18:36 26.09.2019
1250 Clouds 14 1017 82 10000 1 0 18:18 26.09.2019
1251 Rain 14 1017 72 10000 0.5 0 17:38 26.09.2019
1252 Rain 14 1017 72 10000 0.5 0 17:38 26.09.2019
1253 Rain 14 1017 72 10000 0.5 0 17:38 26.09.2019
1254 Rain 14 1017 72 10000 0.5 0 17:38 26.09.2019
1255 Rain 15 1017 72 10000 0.5 0 17:19 26.09.2019
1256 Clouds 14 1017 72 10000 1 0 16:56 26.09.2019
1257 Clouds 16 1017 77 10000 1 0 16:37 26.09.2019
1258 Clouds 16 1017 77 10000 1 0 16:19 26.09.2019
1259 Clouds 16 1017 77 10000 1 0 15:55 26.09.2019
1260 Rain 16 1017 77 10000 0.5 0 15:36 26.09.2019
1261 Clouds 14 1017 77 10000 1.5 100 15:18 26.09.2019
1262 Clouds 14 1017 82 10000 1 0 14:41 26.09.2019
1263 Clouds 14 1017 82 10000 1 0 14:22 26.09.2019
1264 Clouds 14 1017 82 10000 1 0 13:58 26.09.2019
1265 Clouds 14 1017 77 10000 0.5 0 13:39 26.09.2019
1266 Clouds 14 1017 82 10000 1.5 300 13:19 26.09.2019
1267 Clouds 14 1017 82 10000 1.5 300 12:55 26.09.2019
1268 Rain 13 1017 82 10000 1.5 290 12:36 26.09.2019
1269 Clouds 13 1017 82 10000 1.5 290 12:18 26.09.2019
1270 Clouds 13 1017 87 10000 1.5 260 11:42 26.09.2019
1271 Clouds 13 1017 87 10000 1.5 260 11:21 26.09.2019
1272 Rain 13 1017 87 10000 0.5 0 10:43 26.09.2019
1273 Clouds 12 1017 93 10000 0.5 0 10:25 26.09.2019
1274 Clouds 12 1017 93 10000 0.5 0 10:25 26.09.2019
1275 Clouds 12 1017 93 10000 0.5 0 09:59 26.09.2019
1276 Clouds 12 1017 93 10000 0.5 0 09:59 26.09.2019
1277 Clouds 12 1017 93 10000 0.5 0 09:59 26.09.2019
1278 Clouds 12 1017 93 10000 0.5 0 09:59 26.09.2019
1279 Clouds 11 1016 93 10000 1 0 09:41 26.09.2019
1280 Clouds 10 1016 93 10000 1 0 09:22 26.09.2019
1281 Rain 10 1016 93 10000 2.6 270 08:54 26.09.2019
1282 Clouds 10 1016 100 10000 1 260 08:32 26.09.2019
1283 Clouds 9 1016 93 10000 0.5 0 07:58 26.09.2019
1284 Clouds 9 1015 93 10000 0.5 0 07:40 26.09.2019
1285 Rain 9 1015 100 10000 0.5 0 07:19 26.09.2019
1286 Rain 9 1015 100 10000 1 320 06:43 26.09.2019
1287 Rain 10 1015 100 10000 1 320 06:24 26.09.2019
1288 Clouds 10 1015 93 10000 1 160 05:40 26.09.2019
1289 Clouds 10 1015 93 10000 1 160 05:20 26.09.2019
1290 Clouds 10 1014 93 10000 0.5 0 02:38 26.09.2019
1291 Clouds 10 1014 93 10000 1 190 01:49 26.09.2019
1292 Clouds 10 1014 93 10000 1 190 01:49 26.09.2019
1293 Clouds 11 1014 93 10000 0.5 0 01:26 26.09.2019
1294 Clouds 11 1014 100 10000 1 0 00:48 26.09.2019
1295 Clouds 11 1014 100 10000 1.5 40 00:28 26.09.2019
1296 Rain 10 1014 100 10000 2.1 140 23:45 25.09.2019
1297 Rain 10 1014 93 10000 1.5 260 23:26 25.09.2019
1298 Rain 10 1014 93 10000 1.5 260 23:26 25.09.2019
1299 Clouds 10 1014 93 10000 0.5 0 22:56 25.09.2019
1300 Rain 10 1014 93 10000 0.5 0 22:56 25.09.2019
1301 Clouds 10 1013 93 10000 1.5 160 22:38 25.09.2019
1302 Clouds 10 1013 93 10000 1.5 160 22:19 25.09.2019
1303 Clouds 10 1013 100 10000 0.5 0 21:56 25.09.2019
1304 Rain 10 1013 100 10000 1 0 21:37 25.09.2019
1305 Rain 11 1013 100 10000 1 0 21:18 25.09.2019
1306 Clouds 11 1013 93 10000 1 0 20:56 25.09.2019
1307 Clouds 11 1013 93 10000 1.5 150 20:37 25.09.2019
1308 Clouds 11 1013 93 10000 1.5 150 20:19 25.09.2019
1309 Clouds 14 1012 87 10000 0.5 0 19:41 25.09.2019
1310 Clouds 14 1012 87 10000 0.5 0 19:21 25.09.2019
1311 Clouds 14 1012 93 10000 0.5 0 18:57 25.09.2019
1312 Clouds 14 1012 87 10000 1 0 18:38 25.09.2019
1313 Rain 12 1012 87 10000 1 0 18:20 25.09.2019
1314 Rain 12 1012 87 10000 1.5 170 17:55 25.09.2019
1315 Rain 13 1011 87 10000 1 0 17:36 25.09.2019
1316 Rain 13 1011 87 10000 1 0 17:18 25.09.2019
1317 Rain 15 1011 87 10000 1.5 70 16:42 25.09.2019
1318 Rain 15 1011 87 10000 1.5 70 16:24 25.09.2019
1319 Rain 15 1011 82 10000 2.6 310 15:57 25.09.2019
1320 Clouds 17 1011 72 10000 1.5 340 15:39 25.09.2019
1321 Clouds 14 1011 72 10000 1.5 340 15:20 25.09.2019
1322 Clouds 14 1011 72 10000 1.5 340 15:20 25.09.2019
1323 Rain 14 1011 67 10000 1.5 30 14:43 25.09.2019
1324 Clouds 14 1011 72 10000 2.1 160 14:25 25.09.2019
1325 Clouds 14 1011 72 10000 1.5 110 13:58 25.09.2019
1326 Clouds 14 1012 77 10000 1 0 13:40 25.09.2019
1327 Clouds 14 1012 77 10000 1 0 13:20 25.09.2019
1328 Clouds 13 1012 77 10000 1.5 70 12:57 25.09.2019
1329 Clouds 13 1012 82 10000 1 0 12:37 25.09.2019
1330 Clouds 13 1012 82 10000 1 0 12:19 25.09.2019
1331 Clouds 13 1013 93 10000 1 0 11:41 25.09.2019
1332 Rain 12 1013 93 10000 1 0 11:20 25.09.2019
1333 Rain 12 1013 93 10000 3.1 260 10:48 25.09.2019
1334 Rain 12 1013 93 10000 2.1 250 10:28 25.09.2019
1335 Rain 12 1012 93 10000 1.5 270 09:59 25.09.2019
1336 Rain 12 1012 93 10000 0.5 0 09:41 25.09.2019
1337 Rain 11 1012 93 10000 0.5 0 09:23 25.09.2019
1338 Clouds 11 1012 93 10000 1.5 210 08:59 25.09.2019
1339 Clouds 11 1012 93 10000 1.5 210 08:40 25.09.2019
1340 Clouds 10 1012 93 10000 1 0 08:20 25.09.2019
1341 Clouds 11 1012 93 10000 1.5 140 07:41 25.09.2019
1342 Clouds 11 1012 93 10000 1.5 140 07:23 25.09.2019
1343 Clouds 11 1012 93 10000 1.5 80 06:58 25.09.2019
1344 Clouds 11 1012 93 10000 1.5 50 06:37 25.09.2019
1345 Clouds 10 1012 93 10000 1 0 05:47 25.09.2019
1346 Clouds 10 1012 93 10000 1.5 270 05:20 25.09.2019
1347 Clouds 11 1012 93 10000 1.5 160 03:21 25.09.2019
1348 Clouds 11 1013 93 10000 1.5 230 01:39 25.09.2019
1349 Rain 11 1013 93 10000 1 0 00:41 25.09.2019
1350 Clouds 11 1013 93 10000 1 0 00:23 25.09.2019
1351 Clouds 12 1013 93 10000 1.5 120 23:44 24.09.2019
1352 Clouds 12 1013 93 10000 1.5 120 23:22 24.09.2019
1353 Rain 12 1013 93 10000 3.1 260 22:58 24.09.2019
1354 Clouds 12 1013 87 10000 1 0 22:38 24.09.2019
1355 Clouds 12 1013 87 10000 1 0 22:19 24.09.2019
1356 Clouds 12 1013 87 10000 1 0 22:19 24.09.2019
1357 Clouds 12 1012 87 10000 0.5 0 21:55 24.09.2019
1358 Clouds 12 1012 82 10000 1 0 21:37 24.09.2019
1359 Clouds 13 1012 82 10000 1 0 21:18 24.09.2019
1360 Clouds 13 1012 87 10000 1 0 20:56 24.09.2019
1361 Clouds 13 1012 87 10000 1 0 20:38 24.09.2019
1362 Clouds 13 1012 87 10000 1 0 20:19 24.09.2019
1363 Clouds 15 1012 82 10000 1 0 19:43 24.09.2019
1364 Clouds 15 1012 82 10000 0.5 0 19:21 24.09.2019
1365 Clouds 16 1011 77 10000 0.5 0 18:58 24.09.2019
1366 Clouds 17 1012 72 10000 1 0 18:39 24.09.2019
1367 Clouds 16 1012 72 10000 1 0 18:21 24.09.2019
1368 Clouds 16 1011 67 10000 1 160 17:57 24.09.2019
1369 Clouds 16 1011 67 10000 1 0 17:38 24.09.2019
1370 Clouds 16 1011 67 10000 1 0 17:20 24.09.2019
1371 Clouds 16 1012 67 10000 0.5 0 16:43 24.09.2019
1372 Clouds 16 1012 59 10000 0.5 0 16:21 24.09.2019
1373 Clouds 17 1012 59 10000 1 0 15:59 24.09.2019
1374 Clouds 17 1012 63 10000 2.1 280 15:41 24.09.2019
1375 Clouds 17 1012 63 10000 2.1 280 15:22 24.09.2019
1376 Clouds 17 1012 63 10000 1 0 14:40 24.09.2019
1377 Clouds 17 1013 67 10000 1 0 14:19 24.09.2019
1378 Clouds 16 1014 67 10000 1 0 13:45 24.09.2019
1379 Clouds 16 1014 67 10000 1 0 13:24 24.09.2019
1380 Clouds 15 1015 72 10000 1.5 260 12:59 24.09.2019
1381 Clouds 14 1016 72 10000 1 0 12:39 24.09.2019
1382 Clouds 14 1016 72 10000 1 0 12:18 24.09.2019
1383 Clouds 14 1016 72 10000 1.5 0 11:43 24.09.2019
1384 Clouds 14 1016 72 10000 1.5 0 11:43 24.09.2019
1385 Clouds 13 1017 71 10000 0.5 0 11:22 24.09.2019
1386 Clouds 13 1017 82 10000 2.1 250 10:57 24.09.2019
1387 Clouds 14 1018 82 10000 2.6 260 10:37 24.09.2019
1388 Clouds 13 1018 82 10000 2.6 260 10:19 24.09.2019
1389 Clouds 12 1018 87 10000 3.1 260 09:46 24.09.2019
1390 Clouds 11 1018 87 10000 2.6 280 09:27 24.09.2019
1391 Clouds 10 1018 93 10000 3.1 260 08:57 24.09.2019
1392 Clouds 10 1018 93 10000 3.1 260 08:57 24.09.2019
1393 Rain 10 1017 93 7000 0.5 0 08:38 24.09.2019
1394 Clouds 9 1017 93 7000 0.5 0 08:20 24.09.2019
1395 Clouds 9 1017 93 7000 1 160 07:52 24.09.2019
1396 Clouds 9 1018 93 7000 1 0 07:25 24.09.2019
1397 Clouds 9 1018 93 10000 1.5 270 06:57 24.09.2019
1398 Clouds 11 1018 93 7000 1 0 06:36 24.09.2019
1399 Clouds 11 1018 93 7000 1 0 06:36 24.09.2019
1400 Clouds 10 1018 93 10000 0.5 0 05:51 24.09.2019
1401 Clouds 9 1019 93 10000 1 170 05:20 24.09.2019
1402 Clouds 11 1019 93 10000 1 280 03:45 24.09.2019
1403 Clouds 11 1020 93 10000 1 270 02:57 24.09.2019
1404 Clouds 11 1020 93 10000 0.5 0 02:39 24.09.2019
1405 Clouds 10 1020 93 10000 0.5 0 01:39 24.09.2019
1406 Clouds 10 1020 93 10000 0.5 0 00:38 24.09.2019
1407 Clouds 10 1020 93 10000 0.5 0 00:20 24.09.2019
1408 Clouds 10 1020 93 10000 0.5 0 23:40 23.09.2019
1409 Clouds 10 1020 93 10000 0.5 0 23:21 23.09.2019
1410 Rain 11 1020 93 10000 0.5 0 22:40 23.09.2019
1411 Rain 11 1020 93 10000 0.5 0 22:21 23.09.2019
1412 Rain 11 1020 93 10000 0.5 0 22:21 23.09.2019
1413 Rain 11 1020 100 10000 0.5 0 21:58 23.09.2019
1414 Clouds 11 1020 93 10000 0.5 0 21:40 23.09.2019
1415 Clouds 11 1020 93 10000 0.5 0 21:20 23.09.2019
1416 Clouds 11 1019 93 10000 0.5 0 20:56 23.09.2019
1417 Rain 11 1019 87 10000 1 0 20:37 23.09.2019
1418 Rain 11 1019 87 10000 1 0 20:18 23.09.2019
1419 Rain 10 1019 87 10000 1.5 250 19:40 23.09.2019
1420 Rain 10 1019 87 10000 1.5 250 19:21 23.09.2019
1421 Clouds 10 1018 87 10000 2.1 240 18:58 23.09.2019
1422 Clouds 11 1018 87 10000 3.1 260 18:40 23.09.2019
1423 Clouds 12 1018 87 10000 3.1 260 18:18 23.09.2019
1424 Clouds 12 1018 87 10000 3.6 280 17:56 23.09.2019
1425 Rain 12 1018 87 10000 6.2 260 17:37 23.09.2019
1426 Rain 12 1018 87 10000 6.2 260 17:19 23.09.2019
1427 Rain 12 1018 87 10000 5.1 250 16:54 23.09.2019
1428 Rain 12 1018 87 10000 4.1 270 16:36 23.09.2019
1429 Rain 12 1018 87 10000 4.1 270 16:18 23.09.2019
1430 Rain 12 1018 82 10000 6.7 250 15:54 23.09.2019
1431 Rain 12 1018 87 10000 2.1 260 15:36 23.09.2019
1432 Rain 12 1018 87 10000 2.1 260 15:18 23.09.2019
1433 Clouds 13 1017 87 10000 2.6 350 14:39 23.09.2019
1434 Clouds 13 1017 87 10000 2.6 350 14:20 23.09.2019
1435 Clouds 13 1017 87 10000 1.5 330 13:58 23.09.2019
1436 Rain 13 1017 87 10000 3.6 300 13:37 23.09.2019
1437 Rain 13 1017 87 10000 3.6 300 13:18 23.09.2019
1438 Rain 14 1017 93 10000 1 0 12:43 23.09.2019
1439 Rain 13 1017 93 10000 1 0 12:22 23.09.2019
1440 Rain 13 1017 87 10000 1 0 11:55 23.09.2019
1441 Rain 12 1016 93 10000 1.5 280 11:37 23.09.2019
1442 Rain 12 1016 93 10000 1.5 280 11:19 23.09.2019
1443 Rain 13 1016 93 10000 2.6 270 10:49 23.09.2019
1444 Rain 13 1016 87 10000 3.6 260 10:21 23.09.2019
1445 Rain 13 1015 87 10000 2.1 270 09:55 23.09.2019
1446 Rain 12 1015 87 10000 1 0 09:37 23.09.2019
1447 Rain 12 1015 87 10000 1 0 09:19 23.09.2019
1448 Clouds 12 1014 82 10000 1 50 08:42 23.09.2019
1449 Clouds 12 1014 82 10000 1 50 08:22 23.09.2019
1450 Clouds 12 1014 82 10000 1 0 07:47 23.09.2019
1451 Clouds 12 1013 82 10000 2.1 260 07:24 23.09.2019
1452 Clouds 12 1013 87 10000 1.5 280 06:21 23.09.2019
1453 Clouds 11 1013 87 10000 2.6 240 05:47 23.09.2019
1454 Clouds 12 1013 87 10000 1.5 210 05:19 23.09.2019
1455 Clouds 11 1013 87 10000 2.6 260 04:54 23.09.2019
1456 Clouds 12 1013 87 10000 2.1 260 02:36 23.09.2019
1457 Clouds 12 1013 87 10000 2.1 260 02:36 23.09.2019
1458 Clouds 13 1013 77 10000 3.6 260 00:42 23.09.2019
1459 Rain 14 1013 77 10000 3.6 260 00:22 23.09.2019
1460 Rain 14 1013 72 10000 1.5 0 23:50 22.09.2019
1461 Clouds 14 1013 63 10000 2.1 0 23:32 22.09.2019
1462 Rain 14 1010 93 0 2.15 185.064 22:57 22.09.2019
1463 Clouds 15 1013 49 10000 2.1 0 22:38 22.09.2019
1464 Clouds 15 1013 49 10000 2.1 0 22:20 22.09.2019
1465 Clouds 15 1013 49 10000 3.1 0 21:43 22.09.2019
1466 Clouds 15 1013 49 10000 3.1 0 21:43 22.09.2019
1467 Clouds 15 1008 100 0 2.24 45 21:22 22.09.2019
1468 Clouds 16 1012 49 10000 2.1 0 20:55 22.09.2019
1469 Clouds 16 1012 49 10000 4.1 0 20:36 22.09.2019
1470 Clouds 16 1012 49 10000 4.1 0 20:18 22.09.2019
1471 Clouds 18 1012 49 10000 5.1 0 19:41 22.09.2019
1472 Clouds 21 1012 49 10000 5.1 0 19:23 22.09.2019
1473 Clouds 22 1011 46 10000 7.2 150 18:59 22.09.2019
1474 Clouds 22 1011 46 10000 5.7 150 18:39 22.09.2019
1475 Clouds 19 1009 59 0 3.13 164 18:20 22.09.2019
1476 Clouds 19 1009 58 0 2.68 188 17:58 22.09.2019
1477 Clouds 19 1011 43 10000 6.2 150 17:40 22.09.2019
1478 Clouds 20 1011 43 10000 6.2 150 17:19 22.09.2019
1479 Clouds 19 1009 54 0 2.68 152 16:44 22.09.2019
1480 Clouds 19 1009 53 0 2.24 166 16:26 22.09.2019
1481 Clouds 19 1012 56 10000 2.6 270 15:56 22.09.2019
1482 Clouds 19 1012 60 10000 3.1 270 15:37 22.09.2019
1483 Clouds 19 1012 60 10000 3.1 270 15:19 22.09.2019
1484 Clouds 19 1013 63 10000 5.1 270 14:43 22.09.2019
1485 Clouds 19 1013 63 10000 5.1 270 14:25 22.09.2019
1486 Clouds 18 1013 59 10000 3.6 270 13:57 22.09.2019
1487 Clouds 19 1014 63 10000 4.6 270 13:39 22.09.2019
1488 Clouds 19 1014 63 10000 4.6 270 13:39 22.09.2019
1489 Clouds 19 1014 63 10000 4.6 270 13:21 22.09.2019
1490 Clouds 17 1014 67 10000 4.6 270 12:44 22.09.2019
1491 Clouds 17 1015 72 10000 4.6 290 12:24 22.09.2019
1492 Clouds 16 1015 72 10000 4.6 280 11:56 22.09.2019
1493 Clouds 15 1015 72 10000 3.6 300 11:38 22.09.2019
1494 Clouds 15 1015 72 10000 3.6 300 11:38 22.09.2019
1495 Clouds 15 1015 72 10000 3.6 300 11:20 22.09.2019
1496 Clouds 16 1016 76 10000 3.6 270 10:44 22.09.2019
1497 Clouds 15 1016 76 10000 3.6 270 10:20 22.09.2019
1498 Clouds 14 1016 81 10000 4.6 270 09:57 22.09.2019
1499 Clear 12 1016 81 10000 3.1 270 09:38 22.09.2019
1500 Clear 12 1016 81 10000 3.1 270 09:19 22.09.2019
1501 Clear 11 1016 87 10000 3.6 290 08:45 22.09.2019
1502 Clear 10 1016 81 10000 3.6 280 08:24 22.09.2019
1503 Clear 9 1016 87 10000 4.1 260 07:54 22.09.2019
1504 Clear 9 1016 87 10000 3.1 260 07:36 22.09.2019
1505 Clear 9 1016 87 10000 3.1 260 07:18 22.09.2019
1506 Clear 9 1016 87 10000 3.1 260 07:18 22.09.2019
1507 Clear 10 1016 81 10000 4.6 270 06:46 22.09.2019
1508 Clouds 9 1017 87 10000 2.6 270 05:25 22.09.2019
1509 Clouds 10 1018 81 10000 4.6 270 03:31 22.09.2019
1510 Clouds 11 1018 81 10000 4.1 280 02:37 22.09.2019
1511 Clouds 11 1018 81 10000 4.1 280 02:18 22.09.2019
1512 Clouds 11 1018 76 10000 2.6 240 00:58 22.09.2019
1513 Clouds 11 1018 76 10000 3.6 250 00:33 22.09.2019
1514 Clear 11 1018 76 10000 2.1 260 23:57 21.09.2019
1515 Clear 11 1018 71 10000 2.6 260 23:39 21.09.2019
1516 Clear 12 1018 71 10000 3.1 230 22:59 21.09.2019
1517 Clear 11 1018 71 10000 2.1 250 22:38 21.09.2019
1518 Clear 11 1018 71 10000 2.1 250 22:38 21.09.2019
1519 Clear 12 1018 71 10000 2.1 250 22:20 21.09.2019
1520 Clear 12 1018 67 10000 3.6 90 21:42 21.09.2019
1521 Clear 13 1018 67 10000 3.6 90 21:20 21.09.2019
1522 Clear 14 1017 63 10000 3.6 90 20:58 21.09.2019
1523 Clear 14 1017 63 10000 3.6 90 20:58 21.09.2019
1524 Clear 15 1017 59 10000 3.1 80 20:38 21.09.2019
1525 Clear 15 1017 59 10000 3.1 80 20:38 21.09.2019
1526 Clear 15 1017 59 10000 3.1 80 20:19 21.09.2019
1527 Clear 15 1017 59 10000 3.1 80 20:19 21.09.2019
1528 Clear 15 1017 59 10000 3.6 60 19:46 21.09.2019
1529 Clear 19 1017 55 10000 4.1 70 19:23 21.09.2019
1530 Clear 22 1017 43 10000 5.1 80 18:42 21.09.2019
1531 Clear 19 1017 43 10000 5.1 80 18:22 21.09.2019
1532 Clear 20 1017 40 10000 4.6 80 17:56 21.09.2019
1533 Clear 20 1017 46 10000 5.1 80 17:38 21.09.2019
1534 Clear 20 1017 46 10000 5.1 80 17:19 21.09.2019
1535 Clear 20 1017 46 10000 5.1 80 16:42 21.09.2019
1536 Clear 20 1017 46 10000 5.1 80 16:42 21.09.2019
1537 Clear 21 1017 46 10000 4.1 80 16:24 21.09.2019
1538 Clear 21 1018 46 10000 3.1 80 15:45 21.09.2019
1539 Clear 20 1018 43 10000 1.5 0 15:25 21.09.2019
1540 Clear 20 1019 40 10000 1 0 14:50 21.09.2019
1541 Clear 20 1019 43 10000 1.5 270 14:32 21.09.2019
1542 Clear 20 1020 49 10000 3.1 270 13:57 21.09.2019
1543 Clear 19 1020 52 10000 4.1 270 13:39 21.09.2019
1544 Clear 19 1020 52 10000 4.1 270 13:20 21.09.2019
1545 Clear 18 1021 52 10000 5.1 280 12:56 21.09.2019
1546 Clear 19 1021 63 10000 5.1 270 12:37 21.09.2019
1547 Clear 17 1021 63 10000 5.1 270 12:19 21.09.2019
1548 Clear 15 1022 62 10000 4.1 270 11:44 21.09.2019
1549 Clear 14 1023 67 10000 2.6 270 11:24 21.09.2019
1550 Clear 14 1023 67 10000 2.6 270 11:24 21.09.2019
1551 Clear 16 1023 76 10000 2.6 270 10:54 21.09.2019
1552 Clear 15 1024 81 10000 2.1 250 10:36 21.09.2019
1553 Clear 14 1024 81 10000 2.1 250 10:18 21.09.2019
1554 Clear 12 1024 87 10000 2.1 260 09:40 21.09.2019
1555 Clear 9 1024 87 10000 2.1 260 09:21 21.09.2019
1556 Clear 8 1024 93 10000 1 280 08:52 21.09.2019
1557 Clouds 7 1024 93 10000 0.5 0 08:29 21.09.2019
1558 Clear 6 1024 93 10000 0.5 0 07:43 21.09.2019
1559 Clear 6 1024 93 10000 0.5 0 07:24 21.09.2019
1560 Clear 6 1024 93 10000 1.5 260 06:59 21.09.2019
1561 Clear 6 1024 93 10000 1.5 260 06:34 21.09.2019
1562 Clouds 6 1024 93 10000 1.5 250 05:36 21.09.2019
1563 Clouds 6 1025 87 10000 0.5 0 04:37 21.09.2019
1564 Clouds 7 1025 87 10000 1 150 03:22 21.09.2019
1565 Clouds 7 1025 87 10000 1 0 02:21 21.09.2019
1566 Clouds 7 1025 87 10000 0.5 0 01:46 21.09.2019
1567 Clouds 7 1026 87 10000 1 0 00:52 21.09.2019
1568 Clear 6 1026 81 10000 1 270 00:20 21.09.2019
1569 Clear 6 1026 87 10000 2.1 250 23:48 20.09.2019
1570 Clear 7 1026 81 10000 0.5 0 23:28 20.09.2019
1571 Clear 8 1026 76 10000 2.1 170 22:43 20.09.2019
1572 Clear 7 1026 76 10000 2.1 170 22:24 20.09.2019
1573 Clear 8 1026 81 10000 1.5 160 21:57 20.09.2019
1574 Clear 9 1026 76 10000 1 0 21:38 20.09.2019
1575 Clear 9 1026 76 10000 1 0 21:20 20.09.2019
1576 Clear 10 1025 71 10000 0.5 0 20:57 20.09.2019
1577 Clear 11 1025 66 10000 2.1 60 20:38 20.09.2019
1578 Clear 11 1025 66 10000 2.1 60 20:38 20.09.2019
1579 Clear 10 1025 66 10000 2.1 60 20:19 20.09.2019
1580 Clear 14 1025 62 10000 2.6 70 19:45 20.09.2019
1581 Clear 15 1024 54 10000 3.6 60 19:26 20.09.2019
1582 Clear 15 1024 59 10000 2.6 50 18:58 20.09.2019
1583 Clear 16 1024 48 10000 2.6 60 18:38 20.09.2019
1584 Clear 15 1024 48 10000 2.6 60 18:18 20.09.2019
1585 Clear 16 1024 39 10000 3.1 100 17:45 20.09.2019
1586 Clear 16 1024 51 10000 2.6 60 17:26 20.09.2019
1587 Clear 16 1024 45 10000 2.6 110 16:44 20.09.2019
1588 Clear 16 1024 52 10000 2.1 110 16:23 20.09.2019
1589 Clear 16 1024 48 10000 1 0 15:59 20.09.2019
1590 Clear 16 1024 55 10000 2.6 70 15:41 20.09.2019
1591 Clear 16 1024 55 10000 2.6 70 15:22 20.09.2019
1592 Clear 16 1025 55 10000 3.1 70 14:44 20.09.2019
1593 Clear 16 1025 55 10000 3.1 70 14:44 20.09.2019
1594 Clear 16 1025 55 10000 1.5 0 14:20 20.09.2019
1595 Clear 16 1025 55 10000 1.5 0 13:57 20.09.2019
1596 Clear 16 1026 58 10000 1 0 13:38 20.09.2019
1597 Clear 15 1026 58 10000 1 0 13:20 20.09.2019
1598 Clear 15 1026 62 10000 1.5 0 12:40 20.09.2019
1599 Clear 13 1026 62 10000 1.5 0 12:22 20.09.2019
1600 Clear 12 1027 62 10000 1 0 11:50 20.09.2019
1601 Clear 12 1027 66 10000 0.5 0 11:25 20.09.2019
1602 Clear 11 1028 71 10000 0.5 0 10:58 20.09.2019
1603 Clear 12 1028 76 10000 0.5 0 10:39 20.09.2019
1604 Clear 11 1028 76 10000 0.5 0 10:20 20.09.2019
1605 Clear 12 1028 81 10000 0.5 0 09:38 20.09.2019
1606 Clear 6 1028 81 10000 0.5 0 09:19 20.09.2019
1607 Clear 4 1028 87 10000 0.5 0 08:47 20.09.2019
1608 Clear 3 1028 93 10000 0.5 0 08:27 20.09.2019
1609 Clear 4 1028 93 10000 1 250 07:51 20.09.2019
1610 Clear 3 1027 93 10000 0.5 0 07:29 20.09.2019
1611 Clear 4 1027 93 10000 0.5 0 06:50 20.09.2019
1612 Clear 3 1027 93 10000 1 0 06:32 20.09.2019
1613 Clear 3 1027 93 10000 0.5 0 05:59 20.09.2019
1614 Clear 2 1028 86 10000 0.5 0 04:29 20.09.2019
1615 Clear 4 1028 87 10000 1 280 03:26 20.09.2019
1616 Clear 4 1028 81 10000 0.5 0 01:50 20.09.2019
1617 Clear 4 1028 75 10000 1 0 01:31 20.09.2019
1618 Clear 6 1028 81 10000 1 0 00:33 20.09.2019
1619 Clear 6 1028 76 10000 1 0 23:46 19.09.2019
1620 Clear 7 1028 76 10000 1 0 23:27 19.09.2019
1621 Clear 7 1027 76 10000 1 270 22:58 19.09.2019
1622 Clear 7 1027 76 10000 1 0 22:39 19.09.2019
1623 Clear 7 1027 76 10000 1 0 22:21 19.09.2019
1624 Clear 7 1027 76 10000 1 0 21:57 19.09.2019
1625 Clear 8 1026 71 10000 1 0 21:38 19.09.2019
1626 Clear 9 1026 71 10000 1 0 21:19 19.09.2019
1627 Clouds 9 1026 66 10000 1 0 20:43 19.09.2019
1628 Clouds 10 1025 58 10000 1 0 20:23 19.09.2019
1629 Clouds 11 1025 54 10000 4.1 90 19:57 19.09.2019
1630 Clouds 15 1024 51 10000 4.6 80 19:39 19.09.2019
1631 Clouds 15 1024 51 10000 4.6 80 19:21 19.09.2019
1632 Clouds 16 1024 48 10000 5.1 80 18:56 19.09.2019
1633 Clouds 16 1024 48 10000 5.1 80 18:56 19.09.2019
1634 Clouds 17 1024 45 10000 6.2 90 18:38 19.09.2019
1635 Clouds 14 1024 45 10000 6.2 90 18:19 19.09.2019
1636 Clouds 15 1024 45 10000 5.7 90 17:42 19.09.2019
1637 Clouds 16 1024 45 10000 5.7 90 17:23 19.09.2019
1638 Clouds 17 1023 42 10000 5.1 90 16:58 19.09.2019
1639 Clouds 17 1023 42 10000 4.6 70 16:39 19.09.2019
1640 Clouds 17 1023 42 10000 4.6 70 16:39 19.09.2019
1641 Clouds 16 1023 42 10000 4.6 70 16:19 19.09.2019
1642 Clouds 16 1024 48 10000 3.1 90 15:39 19.09.2019
1643 Clouds 16 1024 48 10000 3.1 90 15:20 19.09.2019
1644 Clouds 16 1024 55 10000 3.1 50 14:42 19.09.2019
1645 Clouds 15 1024 48 10000 2.6 140 14:24 19.09.2019
1646 Clouds 16 1025 55 10000 2.6 100 13:59 19.09.2019
1647 Clouds 15 1025 51 10000 2.1 0 13:40 19.09.2019
1648 Clouds 15 1025 51 10000 2.1 0 13:40 19.09.2019
1649 Clouds 15 1025 51 10000 2.1 0 13:20 19.09.2019
1650 Clouds 14 1026 54 10000 2.6 100 12:40 19.09.2019
1651 Clouds 13 1026 54 10000 2.6 100 12:20 19.09.2019
1652 Clouds 13 1026 58 10000 3.1 110 11:58 19.09.2019
1653 Clouds 12 1026 58 10000 2.6 150 11:40 19.09.2019
1654 Clouds 12 1026 58 10000 2.6 150 11:21 19.09.2019
1655 Clouds 11 1026 58 10000 2.6 50 10:57 19.09.2019
1656 Clouds 11 1026 58 10000 1.5 90 10:36 19.09.2019
1657 Clouds 11 1026 58 10000 1.5 90 10:18 19.09.2019
1658 Clouds 10 1026 62 10000 1 0 09:42 19.09.2019
1659 Clouds 8 1025 66 10000 1 0 09:22 19.09.2019
1660 Clouds 8 1025 66 10000 1.5 70 08:56 19.09.2019
1661 Clouds 7 1023 77 0 0.72 127.583 08:56 19.09.2019
1662 Clouds 7 1025 71 10000 1 0 08:29 19.09.2019
1663 Clouds 7 1023 79 0 0.81 85.095 07:58 19.09.2019
1664 Clouds 7 1023 79 0 0.81 85.095 07:40 19.09.2019
1665 Clouds 7 1022 80 0 0.81 85.095 07:21 19.09.2019
1666 Clouds 7 1022 80 0 0.81 85.095 06:45 19.09.2019
1667 Clouds 7 1022 80 0 0.81 85.095 06:27 19.09.2019
1668 Clouds 7 1021 79 0 0.71 116.457 05:51 19.09.2019
1669 Clouds 8 1024 62 10000 2.6 70 04:43 19.09.2019
1670 Clouds 7 1021 74 0 0.71 116.457 03:51 19.09.2019
1671 Clouds 8 1022 76 0 0.76 132.1 02:30 19.09.2019
1672 Clouds 13 1024 66 10000 2.1 40 01:23 19.09.2019
1673 Clouds 13 1024 66 10000 2.1 90 00:49 19.09.2019
1674 Clouds 10 1024 66 10000 2.1 100 00:25 19.09.2019
1675 Clouds 10 1024 66 10000 2.1 100 00:25 19.09.2019
1676 Clouds 11 1023 62 10000 1.5 80 23:42 18.09.2019
1677 Clouds 12 1023 62 10000 1.5 80 23:21 18.09.2019
1678 Clouds 13 1023 71 10000 2.1 50 22:47 18.09.2019
1679 Clouds 14 1023 62 10000 3.1 120 22:23 18.09.2019
1680 Clouds 14 1023 62 10000 3.1 110 21:59 18.09.2019
1681 Clouds 15 1022 62 10000 2.1 110 21:40 18.09.2019
1682 Clouds 13 1022 62 10000 2.1 110 21:19 18.09.2019
1683 Clouds 13 1022 62 10000 2.6 70 20:58 18.09.2019
1684 Clouds 13 1021 62 10000 4.1 80 20:40 18.09.2019
1685 Clouds 12 1021 62 10000 4.1 80 20:22 18.09.2019
1686 Clouds 13 1021 59 10000 4.1 80 19:58 18.09.2019
1687 Clouds 13 1021 59 10000 4.1 80 19:58 18.09.2019
1688 Clouds 17 1021 59 10000 4.6 80 19:40 18.09.2019
1689 Clouds 14 1021 59 10000 4.6 80 19:19 18.09.2019
1690 Clouds 17 1020 59 10000 4.6 90 18:56 18.09.2019
1691 Clouds 18 1020 55 10000 4.1 80 18:37 18.09.2019
1692 Clouds 18 1020 55 10000 4.1 80 18:37 18.09.2019
1693 Clouds 15 1020 55 10000 4.1 80 18:19 18.09.2019
1694 Clouds 15 1020 55 10000 5.7 90 17:58 18.09.2019
1695 Clouds 16 1020 52 10000 4.1 90 17:39 18.09.2019
1696 Clouds 16 1020 52 10000 4.1 90 17:19 18.09.2019
1697 Clouds 16 1020 52 10000 4.1 90 17:19 18.09.2019
1698 Clouds 17 1020 52 10000 3.6 80 16:56 18.09.2019
1699 Clouds 18 1020 52 10000 3.1 90 16:38 18.09.2019
1700 Clouds 18 1020 52 10000 3.1 90 16:19 18.09.2019
1701 Clouds 18 1020 55 10000 2.6 70 15:55 18.09.2019
1702 Clouds 18 1021 55 10000 2.6 110 15:37 18.09.2019
1703 Clouds 17 1021 55 10000 2.6 110 15:18 18.09.2019
1704 Clouds 16 1021 55 10000 1.5 0 14:57 18.09.2019
1705 Clouds 16 1021 55 10000 2.6 150 14:38 18.09.2019
1706 Clouds 16 1021 55 10000 2.6 150 14:20 18.09.2019
1707 Clouds 15 1022 59 10000 2.1 60 13:43 18.09.2019
1708 Clouds 15 1022 59 10000 2.1 60 13:19 18.09.2019
1709 Clouds 15 1022 59 10000 2.1 60 13:19 18.09.2019
1710 Clouds 15 1023 62 10000 3.1 110 12:55 18.09.2019
1711 Clouds 15 1023 62 10000 3.1 70 12:37 18.09.2019
1712 Clouds 13 1023 62 10000 3.1 70 12:18 18.09.2019
1713 Clouds 13 1023 62 10000 2.1 100 11:40 18.09.2019
1714 Clouds 12 1023 62 10000 2.1 100 11:19 18.09.2019
1715 Clouds 12 1023 62 10000 1.5 130 10:41 18.09.2019
1716 Clouds 12 1023 62 10000 1.5 130 10:22 18.09.2019
1717 Clouds 12 1023 66 10000 1.5 110 09:59 18.09.2019
1718 Clouds 11 1023 66 10000 1 0 09:41 18.09.2019
1719 Clouds 11 1023 66 10000 1 0 09:22 18.09.2019
1720 Clouds 11 1022 66 10000 1 0 08:55 18.09.2019
1721 Clouds 11 1022 66 10000 2.1 80 08:37 18.09.2019
1722 Clouds 11 1022 66 10000 2.1 80 08:18 18.09.2019
1723 Clouds 11 1022 66 10000 2.1 80 08:18 18.09.2019
1724 Clouds 11 1022 66 10000 3.1 70 07:41 18.09.2019
1725 Clouds 11 1021 66 10000 2.6 80 07:23 18.09.2019
1726 Clouds 11 1021 71 10000 3.1 70 06:42 18.09.2019
1727 Clouds 11 1021 71 10000 2.6 70 05:58 18.09.2019
1728 Clouds 12 1021 71 10000 3.1 70 05:22 18.09.2019
1729 Clouds 12 1020 93 10000 1 0 03:25 18.09.2019
1730 Clouds 13 1020 87 10000 1 0 02:40 18.09.2019
1731 Clouds 13 1020 87 10000 0.5 0 01:37 18.09.2019
1732 Clouds 14 1020 87 10000 0.5 0 00:51 18.09.2019
1733 Clouds 14 1019 82 10000 0.5 0 00:28 18.09.2019
1734 Clouds 14 1019 87 10000 0.5 0 23:47 17.09.2019
1735 Clouds 15 1019 82 10000 0.5 0 23:23 17.09.2019
1736 Clouds 16 1019 77 10000 1 310 22:55 17.09.2019
1737 Clouds 16 1019 77 10000 0.5 0 22:36 17.09.2019
1738 Clouds 16 1019 77 10000 0.5 0 22:18 17.09.2019
1739 Clouds 16 1019 77 10000 1 0 21:54 17.09.2019
1740 Clouds 17 1018 72 10000 2.1 90 21:36 17.09.2019
1741 Clouds 17 1018 72 10000 2.1 90 21:18 17.09.2019
1742 Clouds 17 1017 63 10000 2.6 70 20:54 17.09.2019
1743 Clouds 17 1017 63 10000 0.5 0 20:36 17.09.2019
1744 Clouds 17 1017 63 10000 0.5 0 20:18 17.09.2019
1745 Clouds 20 1016 56 10000 2.6 0 19:39 17.09.2019
1746 Clouds 20 1016 56 10000 2.6 0 19:39 17.09.2019
1747 Clouds 20 1016 56 10000 2.6 0 19:20 17.09.2019
1748 Clouds 21 1016 50 10000 1 0 18:58 17.09.2019
1749 Clouds 21 1016 50 10000 1 0 18:58 17.09.2019
1750 Clouds 21 1016 50 10000 1 0 18:58 17.09.2019
1751 Clouds 23 1015 53 10000 2.6 110 18:40 17.09.2019
1752 Clouds 19 1015 53 10000 2.6 110 18:21 17.09.2019
1753 Clouds 20 1015 50 10000 1.5 200 17:47 17.09.2019
1754 Clouds 21 1015 50 10000 1.5 200 17:21 17.09.2019
1755 Clouds 21 1015 53 10000 1.5 0 16:59 17.09.2019
1756 Clouds 21 1016 50 10000 1 0 16:41 17.09.2019
1757 Clouds 22 1016 50 10000 1 0 16:22 17.09.2019
1758 Clouds 22 1016 53 10000 1.5 60 15:54 17.09.2019
1759 Clouds 22 1016 57 10000 0.5 0 15:36 17.09.2019
1760 Clouds 22 1016 57 10000 0.5 0 15:18 17.09.2019
1761 Clouds 22 1016 53 10000 1 0 14:54 17.09.2019
1762 Clouds 21 1016 60 10000 1 0 14:36 17.09.2019
1763 Clouds 21 1016 60 10000 1 0 14:36 17.09.2019
1764 Clouds 21 1016 53 10000 1.5 170 14:18 17.09.2019
1765 Clouds 22 1017 56 10000 1.5 160 13:41 17.09.2019
1766 Clouds 22 1017 56 10000 1.5 160 13:22 17.09.2019
1767 Clouds 21 1017 56 10000 1.5 130 12:54 17.09.2019
1768 Clouds 21 1018 60 10000 1.5 0 12:36 17.09.2019
1769 Clouds 21 1018 60 10000 1.5 0 12:18 17.09.2019
1770 Clouds 20 1018 64 10000 3.1 60 11:41 17.09.2019
1771 Clouds 19 1018 64 10000 3.1 60 11:18 17.09.2019
1772 Clouds 18 1018 72 10000 1.5 0 10:42 17.09.2019
1773 Clouds 19 1019 68 10000 0.5 0 10:22 17.09.2019
1774 Clouds 18 1019 72 10000 2.1 100 09:58 17.09.2019
1775 Clouds 17 1019 82 10000 1.79 354.513 09:40 17.09.2019
1776 Clouds 15 1019 82 10000 0.68 235.193 09:20 17.09.2019
1777 Clouds 15 1019 87 10000 0.5 0 08:44 17.09.2019
1778 Clouds 14 1019 93 10000 0.5 0 08:25 17.09.2019
1779 Clouds 14 1019 87 10000 1 330 07:55 17.09.2019
1780 Clouds 14 1018 93 10000 0.5 0 07:36 17.09.2019
1781 Clouds 14 1018 93 10000 0.5 0 07:18 17.09.2019
1782 Clouds 14 1018 93 10000 0.5 0 06:44 17.09.2019
1783 Clouds 14 1018 93 10000 0.5 0 06:19 17.09.2019
1784 Clouds 15 1018 87 10000 1 0 05:33 17.09.2019
1785 Clouds 13 1018 87 10000 1 270 04:26 17.09.2019
1786 Clouds 14 1019 93 10000 1.5 270 02:41 17.09.2019
1787 Clouds 15 1019 87 10000 1 0 01:55 17.09.2019
1788 Clouds 15 1019 82 10000 1 0 01:19 17.09.2019
1789 Clouds 17 1019 82 10000 1.5 260 00:22 17.09.2019
1790 Clouds 17 1019 82 10000 1 260 23:37 16.09.2019
1791 Clouds 17 1019 82 10000 1 260 23:18 16.09.2019
1792 Clouds 16 1019 82 10000 1 0 22:42 16.09.2019
1793 Clouds 17 1019 77 10000 1 0 22:24 16.09.2019
1794 Clouds 17 1019 82 10000 0.5 0 21:59 16.09.2019
1795 Clouds 17 1019 77 10000 0.5 0 21:39 16.09.2019
1796 Clouds 19 1019 77 10000 0.5 0 21:20 16.09.2019
1797 Clouds 19 1018 72 10000 1 0 20:58 16.09.2019
1798 Clouds 20 1018 68 10000 2.1 250 20:39 16.09.2019
1799 Clouds 20 1018 68 10000 2.1 250 20:19 16.09.2019
1800 Clouds 21 1018 64 10000 2.1 240 19:55 16.09.2019
1801 Clouds 23 1017 60 10000 1.5 280 19:37 16.09.2019
1802 Clouds 23 1017 60 10000 1.5 280 19:18 16.09.2019
1803 Clouds 23 1017 60 10000 1.5 280 19:18 16.09.2019
1804 Clouds 25 1017 44 10000 1 0 18:43 16.09.2019
1805 Clouds 23 1014 53 0 0.45 17 18:25 16.09.2019
1806 Clouds 25 1017 39 10000 1.5 0 17:54 16.09.2019
1807 Clouds 25 1017 44 10000 2.6 60 17:36 16.09.2019
1808 Clouds 25 1017 44 10000 2.6 60 17:18 16.09.2019
1809 Clouds 27 1018 42 10000 2.6 60 16:42 16.09.2019
1810 Clouds 27 1018 42 10000 2.6 60 16:21 16.09.2019
1811 Clouds 27 1018 44 10000 1.5 60 15:57 16.09.2019
1812 Clouds 27 1018 44 10000 1.5 60 15:57 16.09.2019
1813 Clouds 25 1018 50 10000 2.1 50 15:38 16.09.2019
1814 Clouds 25 1018 50 10000 2.1 50 15:20 16.09.2019
1815 Clouds 25 1018 50 10000 2.1 50 15:20 16.09.2019
1816 Clouds 24 1019 47 10000 1 0 14:58 16.09.2019
1817 Clouds 25 1019 44 10000 2.1 80 14:39 16.09.2019
1818 Clouds 24 1019 44 10000 2.1 80 14:20 16.09.2019
1819 Clouds 24 1021 47 10000 1 0 13:43 16.09.2019
1820 Clouds 24 1021 47 10000 1 0 13:22 16.09.2019
1821 Clouds 24 1021 53 10000 1 0 12:57 16.09.2019
1822 Clouds 24 1021 56 10000 1 0 12:38 16.09.2019
1823 Clouds 22 1021 56 10000 1 0 12:18 16.09.2019
1824 Clouds 20 1022 60 10000 1 0 11:44 16.09.2019
1825 Clear 20 1022 68 10000 2.1 260 11:22 16.09.2019
1826 Clear 21 1022 72 10000 2.1 270 10:55 16.09.2019
1827 Clear 21 1022 72 10000 2.1 270 10:55 16.09.2019
1828 Clear 20 1023 77 10000 2.6 270 10:36 16.09.2019
1829 Clear 18 1023 77 10000 2.6 270 10:18 16.09.2019
1830 Clear 18 1023 87 10000 1.5 270 09:41 16.09.2019
1831 Clear 15 1023 87 10000 1.5 270 09:20 16.09.2019
1832 Clear 14 1023 87 10000 1.5 250 08:52 16.09.2019
1833 Clear 13 1023 93 10000 1 0 08:31 16.09.2019
1834 Fog 13 1023 93 10000 1.5 270 07:58 16.09.2019
1835 Clouds 13 1023 100 10000 0.5 0 07:40 16.09.2019
1836 Clouds 12 1023 100 10000 0.5 0 07:20 16.09.2019
1837 Clear 13 1023 100 10000 1 230 06:49 16.09.2019
1838 Clear 13 1023 93 10000 1.5 240 06:31 16.09.2019
1839 Clear 13 1024 93 10000 1.5 250 05:57 16.09.2019
1840 Clouds 13 1024 93 10000 1.5 260 05:39 16.09.2019
1841 Clear 13 1024 93 10000 1 0 04:57 16.09.2019
1842 Clouds 14 1024 93 10000 0.5 0 03:35 16.09.2019
1843 Clear 14 1024 93 10000 0.5 0 00:57 16.09.2019
1844 Clear 14 1024 87 10000 0.5 0 00:36 16.09.2019
1845 Clear 15 1024 87 10000 0.5 0 00:18 16.09.2019
1846 Clear 16 1024 88 10000 1.5 270 23:37 15.09.2019
1847 Clear 16 1024 88 10000 1.5 270 23:18 15.09.2019
1848 Clear 15 1023 88 10000 1 0 22:39 15.09.2019
1849 Clear 16 1023 88 10000 1 0 22:20 15.09.2019
1850 Clear 17 1023 82 10000 1 0 21:56 15.09.2019
1851 Clear 17 1023 82 10000 0.5 0 21:38 15.09.2019
1852 Clear 18 1023 82 10000 0.5 0 21:19 15.09.2019
1853 Clear 19 1023 82 10000 0.5 0 20:45 15.09.2019
1854 Clear 19 1022 77 10000 0.5 0 20:26 15.09.2019
1855 Clear 22 1022 68 10000 1 0 19:56 15.09.2019
1856 Clear 22 1022 68 10000 1 0 19:56 15.09.2019
1857 Clear 25 1022 61 10000 0.5 0 19:38 15.09.2019
1858 Clear 25 1022 61 10000 0.5 0 19:38 15.09.2019
1859 Clear 25 1022 61 10000 0.5 0 19:19 15.09.2019
1860 Clouds 27 1022 47 10000 1 0 18:40 15.09.2019
1861 Clouds 24 1022 47 10000 1 0 18:22 15.09.2019
1862 Clouds 25 1022 42 10000 2.6 110 17:43 15.09.2019
1863 Clouds 25 1022 42 10000 2.6 110 17:23 15.09.2019
1864 Clouds 25 1022 39 10000 3.1 80 16:59 15.09.2019
1865 Clouds 25 1022 50 10000 3.6 70 16:41 15.09.2019
1866 Clouds 25 1022 50 10000 3.6 70 16:22 15.09.2019
1867 Clouds 25 1022 47 10000 3.1 80 15:57 15.09.2019
1868 Clouds 25 1023 44 10000 1.5 120 15:38 15.09.2019
1869 Clouds 25 1023 44 10000 1.5 120 15:19 15.09.2019
1870 Clouds 25 1023 44 10000 1.5 120 15:19 15.09.2019
1871 Clouds 25 1023 47 10000 1 0 14:55 15.09.2019
1872 Clear 24 1024 47 10000 0.5 0 14:37 15.09.2019
1873 Clear 24 1024 47 10000 0.5 0 14:19 15.09.2019
1874 Clear 25 1024 50 10000 0.5 0 13:43 15.09.2019
1875 Clear 24 1025 56 10000 1.5 0 13:22 15.09.2019
1876 Clear 24 1025 56 10000 1.5 0 13:22 15.09.2019
1877 Clear 24 1026 60 10000 3.1 280 12:43 15.09.2019
1878 Clear 22 1026 60 10000 3.1 280 12:24 15.09.2019
1879 Clear 21 1026 64 10000 2.6 270 11:58 15.09.2019
1880 Clear 20 1027 64 10000 2.1 270 11:40 15.09.2019
1881 Clear 20 1027 64 10000 2.1 270 11:21 15.09.2019
1882 Clear 21 1027 72 10000 2.6 280 10:46 15.09.2019
1883 Clear 19 1027 77 10000 2.6 260 10:23 15.09.2019
1884 Clouds 19 1028 82 10000 1 0 09:58 15.09.2019
1885 Clouds 17 1028 87 10000 0.5 0 09:37 15.09.2019
1886 Clouds 15 1028 87 10000 0.5 0 09:19 15.09.2019
1887 Clouds 13 1028 93 10000 0.5 0 08:46 15.09.2019
1888 Clouds 12 1028 100 10000 0.5 0 08:26 15.09.2019
1889 Clouds 12 1028 93 10000 0.5 0 07:48 15.09.2019
1890 Fog 12 1028 93 10000 0.5 0 07:26 15.09.2019
1891 Clouds 13 1028 93 10000 0.5 0 06:42 15.09.2019
1892 Clouds 12 1029 100 9000 2.11 195.491 03:31 15.09.2019
1893 Clouds 14 1029 93 10000 0.5 0 02:35 15.09.2019
1894 Clouds 13 1029 87 10000 1 0 01:40 15.09.2019
1895 Clouds 13 1029 87 10000 1 0 01:40 15.09.2019
1896 Clouds 13 1029 87 10000 1 0 01:19 15.09.2019
1897 Clouds 13 1029 87 10000 0.5 0 00:43 15.09.2019
1898 Clouds 14 1029 87 10000 0.5 0 00:21 15.09.2019
1899 Clouds 14 1029 87 10000 0.5 0 23:58 14.09.2019
1900 Clear 14 1029 87 10000 1.5 310 23:39 14.09.2019
1901 Clear 14 1029 87 10000 1.5 310 23:39 14.09.2019
1902 Clear 14 1029 87 10000 1.5 310 23:21 14.09.2019
1903 Clear 14 1029 87 10000 1.5 310 23:21 14.09.2019
1904 Clear 14 1029 87 10000 1 0 22:59 14.09.2019
1905 Clear 15 1029 82 10000 0.5 0 22:40 14.09.2019
1906 Clear 15 1029 82 10000 0.5 0 22:19 14.09.2019
1907 Clear 16 1028 82 10000 0.5 0 21:55 14.09.2019
1908 Clear 16 1029 82 10000 1.5 20 21:36 14.09.2019
1909 Clear 17 1029 82 10000 1.5 20 21:18 14.09.2019
1910 Clear 18 1028 77 10000 1 0 20:40 14.09.2019
1911 Clear 18 1028 77 10000 1 0 20:22 14.09.2019
1912 Clouds 19 1028 68 10000 2.1 60 19:53 14.09.2019
1913 Clouds 20 1027 64 10000 2.1 90 19:23 14.09.2019
1914 Clouds 24 1027 60 10000 2.6 90 18:59 14.09.2019
1915 Clouds 24 1027 60 10000 3.1 90 18:40 14.09.2019
1916 Clouds 21 1027 60 10000 3.1 90 18:21 14.09.2019
1917 Clouds 22 1027 57 10000 3.6 100 17:58 14.09.2019
1918 Clouds 23 1027 53 10000 2.6 90 17:39 14.09.2019
1919 Clouds 22 1027 53 10000 2.6 90 17:21 14.09.2019
1920 Clouds 22 1027 57 10000 3.1 60 16:43 14.09.2019
1921 Clouds 23 1027 60 10000 3.1 70 16:21 14.09.2019
1922 Clouds 23 1027 50 10000 2.6 100 15:43 14.09.2019
1923 Clouds 24 1027 50 10000 2.1 0 15:24 14.09.2019
1924 Clouds 23 1028 57 10000 1.5 0 14:59 14.09.2019
1925 Clouds 23 1028 60 10000 2.1 40 14:40 14.09.2019
1926 Clouds 23 1028 60 10000 2.1 40 14:19 14.09.2019
1927 Clouds 23 1028 60 10000 2.1 40 14:19 14.09.2019
1928 Clouds 23 1028 60 10000 2.1 40 14:19 14.09.2019
1929 Clouds 23 1029 60 10000 1.5 0 13:47 14.09.2019
1930 Clouds 22 1029 60 10000 0.5 0 13:22 14.09.2019
1931 Clouds 22 1029 60 10000 0.5 0 13:22 14.09.2019
1932 Clouds 22 1030 56 10000 1 0 12:48 14.09.2019
1933 Clouds 20 1031 64 10000 1 0 12:26 14.09.2019
1934 Clouds 19 1031 72 10000 0.5 0 11:42 14.09.2019
1935 Clouds 19 1031 72 10000 0.5 0 11:21 14.09.2019
1936 Clouds 18 1032 72 10000 0.5 0 10:58 14.09.2019
1937 Clouds 18 1032 77 10000 0.5 0 10:36 14.09.2019
1938 Clouds 17 1032 77 10000 0.5 0 10:18 14.09.2019
1939 Clouds 16 1032 87 10000 0.5 0 09:56 14.09.2019
1940 Clouds 14 1032 87 10000 1.5 260 09:37 14.09.2019
1941 Clouds 14 1032 87 10000 1.5 260 09:18 14.09.2019
1942 Clouds 12 1032 93 10000 2.1 230 08:41 14.09.2019
1943 Clouds 12 1032 93 10000 2.1 230 08:23 14.09.2019
1944 Clouds 11 1032 93 10000 1 250 07:44 14.09.2019
1945 Clouds 11 1032 93 10000 1 250 07:44 14.09.2019
1946 Clouds 11 1032 93 10000 0.5 0 07:26 14.09.2019
1947 Clouds 12 1032 93 10000 0.5 0 06:39 14.09.2019
1948 Clouds 12 1032 93 10000 1 0 05:57 14.09.2019
1949 Clouds 12 1032 100 10000 1 290 04:44 14.09.2019
1950 Clouds 13 1032 93 10000 0.5 0 03:38 14.09.2019
1951 Clouds 13 1032 93 10000 0.5 0 02:51 14.09.2019
1952 Clouds 13 1032 93 10000 1 260 01:47 14.09.2019
1953 Clear 13 1032 93 10000 0.5 0 01:21 14.09.2019
1954 Clear 13 1032 93 10000 0.5 0 00:56 14.09.2019
1955 Clear 13 1032 87 10000 0.5 0 00:37 14.09.2019
1956 Clear 14 1032 87 10000 0.5 0 00:18 14.09.2019
1957 Clear 13 1032 87 10000 0.77 167.723 23:38 13.09.2019
1958 Clear 13 1032 87 10000 0.77 167.723 23:19 13.09.2019
1959 Clear 13 1032 87 10000 0.5 0 22:56 13.09.2019
1960 Clear 13 1032 87 10000 0.5 0 22:56 13.09.2019
1961 Clear 14 1032 87 10000 0.5 0 22:37 13.09.2019
1962 Clear 14 1032 87 10000 0.5 0 22:37 13.09.2019
1963 Clear 14 1032 87 10000 0.5 0 22:19 13.09.2019
1964 Clear 16 1031 77 10000 0.5 0 21:40 13.09.2019
1965 Clear 17 1031 77 10000 1.5 250 21:19 13.09.2019
1966 Clear 17 1031 77 10000 1.5 250 20:58 13.09.2019
1967 Clear 18 1030 77 10000 1 0 20:39 13.09.2019
1968 Clear 18 1030 77 10000 1 0 20:20 13.09.2019
1969 Clear 21 1030 68 10000 0.5 0 19:55 13.09.2019
1970 Clear 23 1030 60 10000 2.1 80 19:37 13.09.2019
1971 Clear 23 1030 60 10000 2.1 80 19:18 13.09.2019
1972 Clear 23 1030 60 10000 2.1 80 19:18 13.09.2019
1973 Clear 25 1030 50 10000 2.6 70 18:39 13.09.2019
1974 Clear 23 1030 50 10000 2.6 70 18:20 13.09.2019
1975 Clear 23 1029 50 10000 3.1 100 17:58 13.09.2019
1976 Clear 23 1029 47 10000 3.1 80 17:37 13.09.2019
1977 Clear 23 1029 47 10000 3.1 80 17:18 13.09.2019
1978 Clear 23 1030 44 10000 3.6 80 16:40 13.09.2019
1979 Clear 24 1030 44 10000 3.6 80 16:20 13.09.2019
1980 Clear 24 1030 44 10000 3.6 80 16:20 13.09.2019
1981 Clear 23 1030 44 10000 2.6 90 15:46 13.09.2019
1982 Clear 23 1030 50 10000 2.1 110 15:27 13.09.2019
1983 Clear 23 1031 50 10000 1 0 14:57 13.09.2019
1984 Clear 23 1031 53 10000 1 0 14:39 13.09.2019
1985 Clear 23 1031 53 10000 1 0 14:19 13.09.2019
1986 Clear 23 1032 56 10000 1 0 13:45 13.09.2019
1987 Clear 23 1032 56 10000 1 0 13:22 13.09.2019
1988 Clear 22 1032 56 10000 1 0 12:54 13.09.2019
1989 Clear 22 1033 63 10000 1.5 290 12:36 13.09.2019
1990 Clear 20 1033 63 10000 1.5 290 12:18 13.09.2019
1991 Clear 19 1033 63 10000 2.1 260 11:54 13.09.2019
1992 Clear 18 1034 72 10000 3.1 260 11:18 13.09.2019
1993 Clear 20 1034 82 10000 2.6 250 10:37 13.09.2019
1994 Clear 18 1034 82 10000 2.6 250 10:19 13.09.2019
1995 Clear 18 1034 82 10000 2.1 270 09:44 13.09.2019
1996 Clear 13 1034 87 10000 2.1 260 09:23 13.09.2019
1997 Clear 13 1035 93 10000 2.1 260 08:58 13.09.2019
1998 Clear 12 1035 93 10000 1.5 250 08:40 13.09.2019
1999 Clear 11 1035 93 10000 1.5 250 08:20 13.09.2019
2000 Clear 11 1035 93 10000 1.5 250 08:20 13.09.2019
2001 Clear 11 1035 100 10000 1.5 260 07:44 13.09.2019
2002 Clear 11 1034 100 10000 1 0 07:26 13.09.2019
2003 Clear 11 1034 93 10000 0.5 0 06:41 13.09.2019
2004 Clear 10 1034 93 10000 0.5 0 05:47 13.09.2019
2005 Clear 10 1034 100 10000 0.5 0 04:51 13.09.2019
2006 Clear 10 1034 93 10000 1.5 250 03:38 13.09.2019
2007 Clear 12 1034 93 10000 0.5 0 02:20 13.09.2019
2008 Clear 11 1034 93 10000 0.5 0 01:42 13.09.2019
2009 Clear 11 1034 87 10000 0.5 0 01:21 13.09.2019
2010 Clear 11 1033 87 10000 0.5 0 00:37 13.09.2019
2011 Clear 13 1033 87 10000 0.5 0 23:58 12.09.2019
2012 Clear 14 1033 87 10000 0.5 0 23:35 12.09.2019
2013 Clear 12 1033 87 10000 0.5 0 22:59 12.09.2019
2014 Clear 12 1033 87 10000 0.5 0 22:41 12.09.2019
2015 Clear 13 1033 87 10000 0.5 0 22:23 12.09.2019
2016 Clear 13 1032 82 10000 0.5 0 21:56 12.09.2019
2017 Clear 14 1032 82 10000 1 0 21:37 12.09.2019
2018 Clear 15 1032 82 10000 1 0 21:19 12.09.2019
2019 Clear 16 1032 77 10000 0.5 0 20:55 12.09.2019
2020 Clear 16 1032 77 10000 0.5 0 20:55 12.09.2019
2021 Clear 16 1032 77 10000 0.5 0 20:55 12.09.2019
2022 Clear 16 1031 72 10000 1 0 20:36 12.09.2019
2023 Clear 17 1031 72 10000 1 0 20:18 12.09.2019
2024 Clear 21 1030 60 10000 2.1 60 19:41 12.09.2019
2025 Clear 21 1030 60 10000 2.1 60 19:41 12.09.2019
2026 Clear 21 1030 60 10000 2.1 60 19:20 12.09.2019
2027 Clouds 22 1030 56 10000 3.6 50 18:58 12.09.2019
2028 Clouds 24 1030 49 10000 3.6 70 18:36 12.09.2019
2029 Clouds 21 1030 49 10000 3.6 70 18:18 12.09.2019
2030 Clouds 22 1030 49 10000 2.6 60 17:41 12.09.2019
2031 Clouds 21 1030 49 10000 2.6 60 17:21 12.09.2019
2032 Clouds 21 1030 43 10000 3.1 70 16:58 12.09.2019
2033 Clouds 22 1031 49 10000 3.6 60 16:40 12.09.2019
2034 Clouds 21 1031 49 10000 3.6 60 16:20 12.09.2019
2035 Clouds 21 1031 43 10000 1.5 0 15:42 12.09.2019
2036 Clouds 21 1031 46 10000 3.1 70 15:23 12.09.2019
2037 Clouds 20 1031 49 10000 2.1 70 14:48 12.09.2019
2038 Clouds 20 1032 52 10000 2.1 70 14:23 12.09.2019
2039 Clouds 20 1032 63 10000 2.6 60 13:59 12.09.2019
2040 Clouds 20 1032 68 10000 2.1 50 13:39 12.09.2019
2041 Clouds 19 1032 68 10000 2.1 50 13:20 12.09.2019
2042 Clouds 19 1032 68 10000 1.5 60 12:48 12.09.2019
2043 Clouds 17 1033 72 10000 1 0 12:19 12.09.2019
2044 Clouds 16 1033 72 10000 0.5 0 11:58 12.09.2019
2045 Clouds 16 1033 82 10000 0.5 0 11:39 12.09.2019
2046 Clouds 15 1033 82 10000 0.5 0 11:21 12.09.2019
2047 Clouds 15 1033 82 10000 0.5 0 11:21 12.09.2019
2048 Clouds 15 1033 77 10000 1 0 10:48 12.09.2019
2049 Clouds 16 1033 82 10000 1.5 50 10:26 12.09.2019
2050 Clouds 14 1032 87 10000 1 0 09:56 12.09.2019
2051 Clouds 14 1032 87 10000 1 0 09:38 12.09.2019
2052 Clouds 13 1032 87 10000 1 0 09:18 12.09.2019
2053 Clouds 13 1032 87 10000 1 0 09:18 12.09.2019
2054 Clouds 12 1032 87 10000 0.5 0 08:43 12.09.2019
2055 Clouds 12 1032 93 10000 0.5 0 08:23 12.09.2019
2056 Clouds 12 1032 93 10000 0.5 0 07:46 12.09.2019
2057 Clouds 12 1031 93 10000 1 0 07:20 12.09.2019
2058 Clouds 12 1031 93 10000 1 0 06:52 12.09.2019
2059 Rain 12 1031 93 10000 0.5 0 06:32 12.09.2019
2060 Clouds 12 1031 93 10000 1 0 05:53 12.09.2019
2061 Clouds 12 1030 87 10000 2.6 70 05:35 12.09.2019
2062 Clouds 12 1030 87 10000 2.1 100 04:42 12.09.2019
2063 Clouds 12 1030 87 10000 1 140 03:18 12.09.2019
2064 Clouds 12 1029 87 10000 2.1 60 01:38 12.09.2019
2065 Clouds 12 1029 87 10000 2.1 60 01:19 12.09.2019
2066 Clouds 12 1029 82 10000 2.1 100 00:45 12.09.2019
2067 Clouds 13 1028 82 10000 2.1 80 00:25 12.09.2019
2068 Clouds 13 1028 82 10000 0.5 0 23:43 11.09.2019
2069 Clouds 12 1028 82 10000 0.5 0 23:24 11.09.2019
2070 Clouds 13 1027 82 10000 1 0 22:57 11.09.2019
2071 Clouds 13 1027 77 10000 0.5 0 22:38 11.09.2019
2072 Clouds 13 1027 77 10000 0.5 0 22:19 11.09.2019
2073 Clouds 13 1027 77 10000 1 0 21:55 11.09.2019
2074 Clouds 14 1026 72 10000 1 0 21:36 11.09.2019
2075 Clouds 14 1026 72 10000 1 0 21:18 11.09.2019
2076 Clouds 15 1025 68 10000 0.5 0 20:54 11.09.2019
2077 Clouds 15 1025 72 10000 1.5 270 20:36 11.09.2019
2078 Clouds 16 1025 72 10000 1.5 270 20:18 11.09.2019
2079 Clouds 19 1024 68 10000 1 0 19:42 11.09.2019
2080 Clouds 19 1024 68 10000 1 0 19:22 11.09.2019
2081 Clouds 20 1023 60 10000 2.6 70 18:59 11.09.2019
2082 Clouds 20 1023 60 10000 2.6 70 18:59 11.09.2019
2083 Clouds 20 1023 56 10000 2.1 70 18:40 11.09.2019
2084 Clouds 19 1023 56 10000 2.1 70 18:22 11.09.2019
2085 Clouds 19 1022 52 10000 3.1 100 17:57 11.09.2019
2086 Clouds 19 1022 49 10000 3.1 100 17:38 11.09.2019
2087 Clouds 20 1022 49 10000 3.1 100 17:20 11.09.2019
2088 Clouds 20 1022 46 10000 3.6 90 16:49 11.09.2019
2089 Clouds 20 1022 46 10000 3.1 60 16:26 11.09.2019
2090 Clouds 20 1023 49 10000 3.1 80 15:59 11.09.2019
2091 Clouds 20 1023 52 10000 3.6 70 15:41 11.09.2019
2092 Clouds 19 1023 52 10000 3.6 70 15:20 11.09.2019
2093 Clouds 18 1023 49 10000 2.6 90 14:55 11.09.2019
2094 Clouds 18 1023 49 10000 2.6 90 14:55 11.09.2019
2095 Clouds 18 1023 52 10000 2.1 90 14:37 11.09.2019
2096 Clouds 18 1023 52 10000 2.1 90 14:18 11.09.2019
2097 Clouds 18 1023 55 10000 2.1 80 13:39 11.09.2019
2098 Clouds 17 1023 55 10000 2.1 80 13:20 11.09.2019
2099 Clouds 16 1023 63 10000 2.6 70 12:59 11.09.2019
2100 Clouds 17 1024 67 10000 2.1 60 12:38 11.09.2019
2101 Clouds 15 1024 67 10000 2.1 60 12:20 11.09.2019
2102 Clear 14 1024 82 10000 0.5 0 11:40 11.09.2019
2103 Clear 14 1024 82 10000 0.5 0 11:21 11.09.2019
2104 Clear 13 1024 76 10000 0.5 0 10:57 11.09.2019
2105 Clear 14 1024 87 10000 0.5 0 10:39 11.09.2019
2106 Clear 13 1024 87 10000 0.5 0 10:19 11.09.2019
2107 Clouds 12 1024 81 10000 1 0 09:40 11.09.2019
2108 Clouds 11 1024 81 10000 1 0 09:20 11.09.2019
2109 Clouds 11 1024 87 10000 1.5 280 08:56 11.09.2019
2110 Clouds 10 1023 93 10000 1 270 08:38 11.09.2019
2111 Clouds 10 1023 93 10000 1 270 08:20 11.09.2019
2112 Clear 9 1023 87 10000 1 0 07:40 11.09.2019
2113 Clear 9 1023 87 10000 1 0 07:22 11.09.2019
2114 Clear 9 1022 93 10000 2.1 270 06:48 11.09.2019
2115 Clear 9 1022 93 10000 2.1 270 06:29 11.09.2019
2116 Clouds 9 1022 93 10000 0.5 0 05:37 11.09.2019
2117 Clouds 9 1022 93 10000 0.5 0 05:18 11.09.2019
2118 Clouds 9 1022 87 10000 0.5 0 04:23 11.09.2019
2119 Clouds 9 1021 93 10000 1 0 03:31 11.09.2019
2120 Clouds 9 1021 93 10000 1 0 03:31 11.09.2019
2121 Clouds 9 1021 87 10000 0.5 0 02:41 11.09.2019
2122 Clouds 9 1021 87 10000 0.5 0 01:50 11.09.2019
2123 Clouds 10 1021 87 10000 1 0 00:50 11.09.2019
2124 Clouds 11 1021 81 10000 1 0 00:20 11.09.2019
2125 Clear 12 1020 71 10000 1 0 23:41 10.09.2019
2126 Clear 12 1020 71 10000 1 0 23:22 10.09.2019
2127 Clear 14 1020 71 10000 1 0 22:59 10.09.2019
2128 Clear 15 1020 72 10000 1.5 70 22:41 10.09.2019
2129 Clear 15 1020 72 10000 1.5 70 22:19 10.09.2019
2130 Clear 15 1020 72 10000 1.5 70 22:19 10.09.2019
2131 Clear 15 1019 67 10000 1.5 120 21:55 10.09.2019
2132 Clear 15 1019 62 10000 2.1 140 21:37 10.09.2019
2133 Clear 15 1019 62 10000 2.1 140 21:37 10.09.2019
2134 Clear 15 1019 62 10000 2.1 140 21:37 10.09.2019
2135 Clear 15 1019 62 10000 2.1 140 21:37 10.09.2019
2136 Clear 13 1019 62 10000 2.1 140 21:18 10.09.2019
2137 Clear 14 1018 67 10000 1.5 100 20:57 10.09.2019
2138 Clear 14 1018 67 10000 3.6 50 20:38 10.09.2019
2139 Clear 17 1018 67 10000 3.6 50 20:19 10.09.2019
2140 Clear 17 1018 67 10000 3.6 50 20:19 10.09.2019
2141 Clear 18 1017 59 10000 2.1 50 19:56 10.09.2019
2142 Clouds 19 1017 55 10000 3.1 70 19:37 10.09.2019
2143 Clouds 19 1017 55 10000 3.1 70 19:19 10.09.2019
2144 Clouds 20 1016 60 10000 1 0 18:46 10.09.2019
2145 Clouds 18 1016 46 10000 2.1 260 18:23 10.09.2019
2146 Clouds 19 1015 43 10000 3.1 260 17:59 10.09.2019
2147 Clouds 19 1016 43 10000 3.1 260 17:41 10.09.2019
2148 Clouds 19 1016 43 10000 3.1 260 17:21 10.09.2019
2149 Clouds 19 1015 33 10000 3.1 340 16:58 10.09.2019
2150 Clouds 20 1015 33 10000 3.6 360 16:39 10.09.2019
2151 Clouds 19 1015 33 10000 3.6 360 16:20 10.09.2019
2152 Clouds 19 1016 35 10000 3.6 0 15:57 10.09.2019
2153 Clouds 19 1016 37 10000 1 0 15:39 10.09.2019
2154 Clouds 19 1016 38 0 2.68 69 15:20 10.09.2019
2155 Clouds 18 1016 49 10000 2.6 260 14:40 10.09.2019
2156 Clouds 18 1016 49 10000 2.6 260 14:22 10.09.2019
2157 Clouds 18 1016 55 10000 2.1 250 13:50 10.09.2019
2158 Clouds 17 1017 59 10000 1.5 270 13:24 10.09.2019
2159 Clouds 17 1017 59 10000 1 0 12:58 10.09.2019
2160 Clouds 16 1017 62 10000 1.5 290 12:40 10.09.2019
2161 Clouds 16 1017 62 10000 1.5 290 12:22 10.09.2019
2162 Clouds 14 1018 71 10000 2.1 260 11:43 10.09.2019
2163 Clouds 13 1018 71 10000 2.1 260 11:23 10.09.2019
2164 Clouds 13 1018 71 10000 2.1 260 11:23 10.09.2019
2165 Clouds 12 1018 81 10000 1 0 10:59 10.09.2019
2166 Clouds 13 1018 81 10000 0.5 0 10:38 10.09.2019
2167 Clouds 11 1018 81 10000 0.5 0 10:18 10.09.2019
2168 Clouds 11 1018 81 10000 0.5 0 09:47 10.09.2019
2169 Clouds 9 1018 87 10000 0.5 0 09:20 10.09.2019
2170 Clouds 8 1018 93 10000 1.5 300 08:59 10.09.2019
2171 Clouds 7 1018 93 10000 0.5 0 08:41 10.09.2019
2172 Clouds 6 1018 100 10000 1 0 08:22 10.09.2019
2173 Clouds 6 1018 100 10000 1 0 07:44 10.09.2019
2174 Clouds 6 1018 100 10000 1 0 07:25 10.09.2019
2175 Clouds 6 1017 100 10000 0.5 0 06:51 10.09.2019
2176 Clouds 6 1017 93 10000 0.5 0 06:31 10.09.2019
2177 Clouds 6 1017 93 10000 1.5 230 04:57 10.09.2019
2178 Clouds 6 1018 100 10000 1.5 260 02:46 10.09.2019
2179 Clouds 6 1018 100 10000 1.5 260 02:22 10.09.2019
2180 Clouds 6 1017 93 10000 0.5 0 01:54 10.09.2019
2181 Clouds 6 1017 93 10000 0.5 0 01:28 10.09.2019
2182 Clouds 7 1017 93 10000 1 0 00:44 10.09.2019
2183 Clouds 7 1017 93 10000 1 0 00:24 10.09.2019
2184 Clouds 7 1017 93 10000 1 0 23:46 09.09.2019
2185 Clouds 7 1017 93 10000 1 0 23:20 09.09.2019
2186 Clouds 7 1017 87 10000 1.5 140 22:56 09.09.2019
2187 Clouds 7 1017 93 10000 1 0 22:38 09.09.2019
2188 Clouds 7 1017 93 10000 1 0 22:20 09.09.2019
2189 Clouds 7 1017 87 10000 1 0 21:56 09.09.2019
2190 Clouds 8 1016 87 10000 0.5 0 21:37 09.09.2019
2191 Clouds 8 1016 87 10000 0.5 0 21:37 09.09.2019
2192 Clouds 9 1016 87 10000 0.5 0 21:19 09.09.2019
2193 Clouds 9 1016 87 10000 0.5 0 21:19 09.09.2019
2194 Clouds 9 1016 76 10000 1.5 30 20:55 09.09.2019
2195 Clouds 10 1015 71 10000 3.6 70 20:37 09.09.2019
2196 Clouds 10 1015 71 10000 3.6 70 20:18 09.09.2019
2197 Clouds 10 1015 71 10000 3.6 70 20:18 09.09.2019
2198 Clouds 10 1015 71 10000 4.6 60 19:56 09.09.2019
2199 Clouds 14 1015 67 10000 3.6 50 19:38 09.09.2019
2200 Clouds 11 1015 67 10000 3.6 50 19:19 09.09.2019
2201 Clouds 11 1015 67 10000 3.6 50 18:57 09.09.2019
2202 Clouds 13 1014 63 10000 3.6 50 18:38 09.09.2019
2203 Clouds 13 1014 59 10000 2.6 60 18:20 09.09.2019
2204 Clouds 14 1014 59 10000 2.6 60 17:57 09.09.2019
2205 Clouds 14 1014 51 10000 0.5 0 17:38 09.09.2019
2206 Clouds 14 1014 51 10000 0.5 0 17:38 09.09.2019
2207 Clouds 14 1014 51 10000 0.5 0 17:20 09.09.2019
2208 Clouds 14 1014 55 10000 2.6 30 16:55 09.09.2019
2209 -273 0 0 0 0 0 16:55 09.09.2019
2210 Clouds 14 1015 59 10000 1 0 16:37 09.09.2019
2211 Clouds 14 1015 59 10000 1 0 16:18 09.09.2019
2212 Clouds 13 1015 62 10000 1.5 0 15:43 09.09.2019
2213 Clouds 13 1015 62 10000 1.5 0 15:24 09.09.2019
2214 Clouds 13 1015 62 10000 1 0 14:58 09.09.2019
2215 Rain 12 1016 67 10000 0.5 0 14:40 09.09.2019
2216 Rain 12 1016 67 10000 0.5 0 14:21 09.09.2019
2217 Rain 12 1016 71 10000 0.5 0 13:55 09.09.2019
2218 Clouds 12 1016 76 10000 0.5 0 13:37 09.09.2019
2219 Clouds 11 1016 76 10000 0.5 0 13:18 09.09.2019
2220 Clouds 11 1016 76 10000 0.5 0 12:54 09.09.2019
2221 Clouds 10 1016 81 10000 0.5 0 12:36 09.09.2019
2222 Clouds 9 1016 81 10000 1 0 12:18 09.09.2019
2223 Clouds 9 1016 87 10000 1 0 11:43 09.09.2019
2224 Clouds 9 1016 87 10000 1 0 11:20 09.09.2019
2225 Rain 8 1016 87 10000 1 0 10:42 09.09.2019
2226 Rain 8 1016 87 10000 1 0 10:24 09.09.2019
2227 Clouds 8 1016 87 10000 0.5 0 09:59 09.09.2019
2228 Rain 7 1016 93 10000 0.5 0 09:40 09.09.2019
2229 Rain 7 1016 93 10000 0.5 0 09:22 09.09.2019
2230 Drizzle 7 1016 93 10000 0.5 0 08:56 09.09.2019
2231 Rain 7 1016 93 10000 0.5 0 08:37 09.09.2019
2232 Rain 7 1016 93 10000 0.5 0 08:18 09.09.2019
2233 Rain 7 1015 100 10000 0.5 0 07:41 09.09.2019
2234 Rain 7 1015 100 10000 0.5 0 07:20 09.09.2019
2235 Rain 7 1015 93 10000 1 270 06:53 09.09.2019
2236 Rain 7 1015 93 10000 1 270 06:53 09.09.2019
2237 Rain 7 1015 93 10000 0.5 0 06:27 09.09.2019
2238 Rain 6 1016 93 10000 1 0 03:21 09.09.2019
2239 Clouds 6 1016 93 10000 1.23 245.544 02:42 09.09.2019
2240 Clouds 6 1016 93 10000 0.5 0 01:25 09.09.2019
2241 Clouds 6 1017 93 10000 2.1 270 00:24 09.09.2019
2242 Clouds 6 1017 93 10000 0.5 0 23:56 08.09.2019
2243 Clouds 6 1017 93 10000 0.5 0 23:38 08.09.2019
2244 Clouds 6 1017 93 10000 0.5 0 23:19 08.09.2019
2245 Rain 6 1017 93 10000 0.5 0 22:41 08.09.2019
2246 Rain 6 1017 93 10000 0.5 0 22:23 08.09.2019
2247 Rain 6 1017 93 10000 1 0 21:59 08.09.2019
2248 Rain 6 1017 93 10000 1.5 190 21:40 08.09.2019
2249 Rain 6 1017 93 10000 1.5 190 21:40 08.09.2019
2250 Rain 6 1017 93 10000 1.5 190 21:22 08.09.2019
2251 Rain 6 1017 93 10000 0.5 0 20:55 08.09.2019
2252 Clouds 6 1017 93 10000 1.5 330 20:37 08.09.2019
2253 Clouds 6 1017 93 10000 1.5 330 20:37 08.09.2019
2254 Clouds 6 1017 93 10000 1.5 330 20:18 08.09.2019
2255 Rain 6 1017 87 10000 1.5 230 19:39 08.09.2019
2256 Rain 6 1017 87 10000 1.5 230 19:21 08.09.2019
2257 Rain 6 1017 87 10000 1.5 290 18:59 08.09.2019
2258 Rain 6 1017 87 10000 2.6 290 18:39 08.09.2019
2259 Rain 6 1017 87 10000 2.6 290 18:20 08.09.2019
2260 Rain 6 1017 87 10000 4.1 270 17:59 08.09.2019
2261 Rain 6 1017 87 10000 3.1 260 17:37 08.09.2019
2262 Rain 6 1017 87 10000 1 0 17:19 08.09.2019
2263 Rain 6 1017 87 10000 3.1 260 17:19 08.09.2019
2264 Rain 6 1017 87 10000 3.1 260 17:19 08.09.2019
2265 Rain 6 1017 87 10000 3.1 260 17:19 08.09.2019
2266 Rain 6 1017 87 10000 3.1 260 17:19 08.09.2019
2267 Rain 7 1017 87 10000 1 0 16:57 08.09.2019
2268 Rain 7 1017 81 10000 1 0 16:39 08.09.2019
2269 Rain 7 1017 81 10000 1 0 16:20 08.09.2019
2270 Rain 5 1018 87 10000 2.1 60 15:42 08.09.2019
2271 Rain 7 1018 87 10000 2.1 60 15:22 08.09.2019
2272 Rain 7 1017 87 10000 2.6 140 14:59 08.09.2019
2273 Rain 7 1018 87 10000 2.1 60 14:39 08.09.2019
2274 Rain 7 1018 87 10000 2.1 60 14:39 08.09.2019
2275 Rain 8 1018 87 10000 2.1 60 14:21 08.09.2019
2276 Rain 8 1017 87 8000 1.5 90 13:57 08.09.2019
2277 Rain 7 1017 93 8000 2.1 120 13:39 08.09.2019
2278 Rain 7 1017 93 8000 2.1 120 13:21 08.09.2019
2279 Rain 8 1017 87 10000 1.5 150 12:55 08.09.2019
2280 Rain 8 1017 93 10000 1.5 170 12:37 08.09.2019
2281 Rain 9 1017 93 7000 3.1 270 12:18 08.09.2019
2282 Rain 9 1017 93 7000 3.1 270 11:54 08.09.2019
2283 Rain 9 1017 93 8000 3.1 270 11:36 08.09.2019
2284 Rain 9 1017 93 8000 3.1 270 11:36 08.09.2019
2285 Rain 9 1017 93 8000 3.1 270 11:18 08.09.2019
2286 Rain 9 1016 93 8000 1.5 260 10:41 08.09.2019
2287 Rain 9 1016 93 8000 1.5 260 10:22 08.09.2019
2288 Rain 9 1017 93 10000 2.1 260 09:55 08.09.2019
2289 Rain 9 1016 93 10000 0.5 0 09:37 08.09.2019
2290 Rain 9 1017 93 10000 0.5 0 09:19 08.09.2019
2291 Rain 8 1017 93 10000 1 0 08:39 08.09.2019
2292 Clouds 8 1017 93 10000 2.1 270 08:19 08.09.2019
2293 Clouds 9 1017 93 10000 1.5 200 07:43 08.09.2019
2294 Clouds 8 1017 93 10000 1.5 200 07:21 08.09.2019
2295 Clouds 8 1017 93 8000 1 340 06:57 08.09.2019
2296 Clouds 8 1018 93 6000 1 0 06:34 08.09.2019
2297 Clouds 8 1018 93 10000 0.5 0 05:40 08.09.2019
2298 Clouds 8 1018 93 10000 0.5 0 04:58 08.09.2019
2299 Clouds 9 1019 100 10000 1 0 03:23 08.09.2019
2300 Clouds 9 1019 100 10000 1 240 02:48 08.09.2019
2301 Clouds 8 1019 100 10000 1.5 20 01:53 08.09.2019
2302 Clouds 8 1020 100 10000 1 140 01:26 08.09.2019
2303 Clouds 9 1020 100 10000 1.5 260 00:47 08.09.2019
2304 Clouds 8 1020 100 10000 1.5 260 00:29 08.09.2019
2305 Clouds 9 1020 93 10000 1 0 23:55 07.09.2019
2306 Clouds 10 1020 93 10000 1 0 23:36 07.09.2019
2307 Clouds 10 1020 93 10000 1 0 23:36 07.09.2019
2308 Clouds 10 1020 93 10000 1 0 23:18 07.09.2019
2309 Clouds 11 1020 87 10000 0.5 0 22:42 07.09.2019
2310 Clouds 11 1020 87 10000 0.5 0 22:23 07.09.2019
2311 Clouds 11 1020 87 10000 1 0 21:56 07.09.2019
2312 Clouds 11 1020 93 10000 1 0 21:37 07.09.2019
2313 Clouds 10 1020 93 10000 1 0 21:19 07.09.2019
2314 Clouds 10 1020 87 10000 0.5 0 20:39 07.09.2019
2315 Clouds 11 1020 87 10000 0.5 0 20:21 07.09.2019
2316 Clouds 12 1020 87 10000 1.5 150 19:56 07.09.2019
2317 Clouds 13 1020 82 10000 1.5 160 19:38 07.09.2019
2318 Clouds 13 1020 82 10000 1.5 160 19:19 07.09.2019
2319 Clouds 13 1020 82 10000 1.5 100 18:58 07.09.2019
2320 Clouds 13 1020 82 10000 1.5 100 18:58 07.09.2019
2321 Clouds 13 1020 82 10000 1 0 18:38 07.09.2019
2322 Drizzle 11 1020 82 10000 1 0 18:20 07.09.2019
2323 Clouds 11 1020 82 10000 1 0 18:20 07.09.2019
2324 Drizzle 11 1020 82 10000 1 0 17:58 07.09.2019
2325 Drizzle 12 1019 87 10000 1 0 17:39 07.09.2019
2326 Drizzle 12 1019 87 10000 1.5 180 17:18 07.09.2019
2327 Drizzle 11 1019 87 10000 1.5 90 16:55 07.09.2019
2328 Drizzle 11 1019 87 10000 1.5 90 16:36 07.09.2019
2329 Drizzle 12 1019 82 10000 0.5 0 16:18 07.09.2019
2330 Rain 11 1019 82 10000 0.5 0 15:43 07.09.2019
2331 Rain 11 1019 82 10000 0.5 0 15:24 07.09.2019
2332 Rain 11 1019 87 10000 2.1 70 14:56 07.09.2019
2333 Rain 11 1019 87 10000 2.1 70 14:36 07.09.2019
2334 Rain 11 1019 87 10000 2.1 70 14:18 07.09.2019
2335 Rain 11 1019 93 10000 3.1 60 13:44 07.09.2019
2336 Rain 11 1019 93 10000 3.1 60 13:25 07.09.2019
2337 Rain 12 1019 87 10000 3.1 80 12:55 07.09.2019
2338 Rain 12 1019 93 10000 3.6 60 12:37 07.09.2019
2339 Rain 12 1019 93 10000 3.6 60 12:19 07.09.2019
2340 Rain 11 1020 87 10000 1 0 11:41 07.09.2019
2341 Rain 11 1020 87 10000 1 0 11:41 07.09.2019
2342 Drizzle 11 1020 87 10000 1 0 11:22 07.09.2019
2343 Drizzle 11 1020 93 10000 1 0 10:42 07.09.2019
2344 Drizzle 11 1020 93 10000 1 0 10:23 07.09.2019
2345 Drizzle 11 1020 87 10000 1.5 280 09:59 07.09.2019
2346 Drizzle 11 1019 87 10000 1 0 09:41 07.09.2019
2347 Drizzle 11 1019 87 10000 1 0 09:21 07.09.2019
2348 Drizzle 11 1019 93 10000 0.5 0 08:49 07.09.2019
2349 Drizzle 10 1019 93 10000 1 0 08:30 07.09.2019
2350 Rain 10 1019 100 10000 0.5 0 07:57 07.09.2019
2351 Rain 10 1019 93 8000 0.5 0 07:38 07.09.2019
2352 Rain 10 1019 93 8000 0.5 0 07:20 07.09.2019
2353 Rain 10 1019 100 8000 1 0 06:42 07.09.2019
2354 Rain 11 1019 93 10000 1 0 05:39 07.09.2019
2355 Rain 11 1019 93 10000 1.5 260 04:26 07.09.2019
2356 Rain 11 1019 93 10000 1.5 280 03:31 07.09.2019
2357 Clouds 11 1020 100 10000 2.1 270 02:22 07.09.2019
2358 Rain 11 1020 93 10000 1.5 290 01:27 07.09.2019
2359 Clouds 11 1020 93 10000 0.5 0 00:54 07.09.2019
2360 Rain 11 1020 93 10000 0.5 0 00:23 07.09.2019
2361 Rain 11 1020 93 10000 0.5 0 23:59 06.09.2019
2362 Rain 11 1021 87 10000 0.5 0 23:38 06.09.2019
2363 Rain 11 1021 87 10000 0.5 0 23:19 06.09.2019
2364 Rain 11 1021 87 10000 0.5 0 22:56 06.09.2019
2365 Rain 11 1021 93 10000 0.5 0 22:36 06.09.2019
2366 Rain 11 1021 93 10000 0.5 0 22:18 06.09.2019
2367 Rain 11 1021 93 10000 0.5 0 21:54 06.09.2019
2368 Rain 11 1021 87 10000 0.69 316.181 21:36 06.09.2019
2369 Rain 11 1020 87 10000 0.5 0 21:18 06.09.2019
2370 Rain 11 1020 93 10000 0.5 0 20:41 06.09.2019
2371 Clouds 11 1020 93 10000 0.5 0 20:22 06.09.2019
2372 Clouds 11 1020 93 10000 0.97 351.737 19:59 06.09.2019
2373 Clouds 11 1020 87 10000 1.5 300 19:41 06.09.2019
2374 Clouds 12 1020 87 10000 1.5 300 19:41 06.09.2019
2375 Rain 12 1020 82 10000 1.5 280 19:21 06.09.2019
2376 Rain 12 1020 82 10000 1.5 280 18:56 06.09.2019
2377 Clouds 12 1020 82 10000 1 280 18:37 06.09.2019
2378 Clouds 12 1020 82 10000 1 280 18:19 06.09.2019
2379 Clouds 12 1020 82 10000 2.1 290 17:40 06.09.2019
2380 Clouds 12 1020 82 10000 2.1 290 17:20 06.09.2019
2381 Rain 12 1021 76 10000 0.5 0 16:43 06.09.2019
2382 Rain 12 1021 76 10000 0.5 0 16:20 06.09.2019
2383 Rain 12 1021 76 10000 0.5 0 15:59 06.09.2019
2384 Rain 12 1021 82 10000 0.5 0 15:41 06.09.2019
2385 Rain 12 1021 82 10000 0.5 0 15:22 06.09.2019
2386 Rain 12 1021 82 10000 0.5 0 15:22 06.09.2019
2387 Rain 12 1021 82 10000 1 0 14:47 06.09.2019
2388 Rain 12 1022 76 10000 1.5 120 14:19 06.09.2019
2389 Rain 12 1022 76 10000 2.6 110 13:44 06.09.2019
2390 Rain 12 1022 76 10000 2.6 110 13:44 06.09.2019
2391 Clouds 12 1022 76 10000 3.6 70 13:23 06.09.2019
2392 Clouds 12 1022 76 10000 3.6 70 12:58 06.09.2019
2393 Clouds 11 1022 76 10000 3.1 60 12:37 06.09.2019
2394 Clouds 11 1022 81 10000 2.1 70 12:18 06.09.2019
2395 Clouds 11 1023 81 10000 1.5 70 11:41 06.09.2019
2396 Clouds 11 1023 81 10000 1.5 70 11:23 06.09.2019
2397 Clouds 11 1023 81 10000 1 0 10:57 06.09.2019
2398 Clouds 11 1023 87 10000 1 0 10:39 06.09.2019
2399 Clouds 11 1023 87 10000 1 0 10:18 06.09.2019
2400 Clouds 10 1023 87 10000 1 190 09:40 06.09.2019
2401 Clouds 10 1023 93 10000 0.5 0 09:20 06.09.2019
2402 Clouds 9 1023 93 10000 0.5 0 08:56 06.09.2019
2403 Clouds 9 1023 93 10000 0.5 0 08:38 06.09.2019
2404 Clouds 9 1023 93 10000 0.5 0 08:20 06.09.2019
2405 Clouds 9 1023 93 10000 0.5 0 07:44 06.09.2019
2406 Clouds 9 1023 93 10000 0.5 0 07:26 06.09.2019
2407 Clouds 9 1023 93 9000 0.5 0 06:54 06.09.2019
2408 Rain 9 1023 93 10000 1 0 05:58 06.09.2019
2409 Rain 9 1023 93 10000 1 0 05:19 06.09.2019
2410 Rain 9 1024 93 10000 0.5 0 04:38 06.09.2019
2411 Rain 9 1024 93 10000 0.5 0 03:42 06.09.2019
2412 Rain 9 1025 93 10000 1.5 230 01:50 06.09.2019
2413 Rain 8 1025 93 7000 0.36 250.71 00:32 06.09.2019
2414 Rain 10 1025 87 10000 2.1 230 23:44 05.09.2019
2415 Rain 10 1025 87 10000 2.1 230 23:24 05.09.2019
2416 Rain 9 1025 93 10000 1.5 220 22:54 05.09.2019
2417 Rain 9 1025 93 10000 1.5 220 22:54 05.09.2019
2418 Rain 9 1024 81 10000 1.5 190 22:36 05.09.2019
2419 Rain 9 1024 81 10000 1.5 190 22:18 05.09.2019
2420 Rain 10 1024 81 10000 1.5 0 21:55 05.09.2019
2421 Rain 10 1023 87 10000 1.5 310 21:37 05.09.2019
2422 Rain 10 1022 87 10000 2.1 20 21:19 05.09.2019
2423 Rain 10 1022 87 10000 2.1 20 20:54 05.09.2019
2424 Rain 10 1021 82 8000 4.6 260 20:36 05.09.2019
2425 Rain 10 1021 82 8000 4.6 260 20:36 05.09.2019
2426 Rain 10 1021 82 8000 4.6 260 20:18 05.09.2019
2427 Rain 10 1020 93 8000 3.6 250 19:41 05.09.2019
2428 Rain 10 1020 93 8000 3.6 250 19:22 05.09.2019
2429 Rain 11 1019 87 8000 3.6 260 18:57 05.09.2019
2430 Rain 11 1019 93 8000 1.5 180 18:39 05.09.2019
2431 Rain 13 1019 87 10000 1 0 18:19 05.09.2019
2432 Rain 14 1019 87 10000 1 0 17:41 05.09.2019
2433 Rain 14 1019 87 10000 1 0 17:22 05.09.2019
2434 Rain 16 1019 82 10000 2.6 50 16:58 05.09.2019
2435 Clouds 17 1018 77 10000 1.5 60 16:40 05.09.2019
2436 Rain 15 1018 77 10000 1.5 60 16:20 05.09.2019
2437 Rain 17 1018 72 10000 2.6 50 15:56 05.09.2019
2438 Clouds 17 1018 72 10000 1.5 80 15:37 05.09.2019
2439 Clouds 16 1018 72 10000 1.5 80 15:18 05.09.2019
2440 Clouds 16 1018 72 10000 2.1 80 15:18 05.09.2019
2441 Clouds 16 1018 68 10000 2.1 0 14:42 05.09.2019
2442 Clouds 16 1018 68 10000 2.1 0 14:21 05.09.2019
2443 Clouds 16 1018 77 10000 0.5 0 13:44 05.09.2019
2444 Clouds 16 1018 77 10000 0.5 0 13:23 05.09.2019
2445 Clouds 15 1018 77 10000 1 280 12:58 05.09.2019
2446 Clouds 15 1018 77 10000 1 270 12:40 05.09.2019
2447 Clouds 15 1018 77 10000 1 270 12:21 05.09.2019
2448 Clouds 15 1017 82 10000 3.1 270 11:43 05.09.2019
2449 Clouds 15 1017 82 10000 3.1 270 11:20 05.09.2019
2450 Clouds 16 1017 82 10000 1 0 10:43 05.09.2019
2451 Clouds 16 1017 82 10000 1 0 10:23 05.09.2019
2452 Clouds 16 1017 82 10000 1 0 10:23 05.09.2019
2453 Clouds 16 1017 82 10000 1 0 10:23 05.09.2019
2454 Clouds 16 1018 82 10000 0.5 0 09:59 05.09.2019
2455 Clouds 14 1018 82 10000 1 0 09:40 05.09.2019
2456 Clouds 13 1018 82 10000 1 0 09:20 05.09.2019
2457 Clouds 13 1017 87 10000 0.5 0 08:46 05.09.2019
2458 Clouds 13 1017 87 10000 0.5 0 08:27 05.09.2019
2459 Clouds 12 1017 87 10000 0.5 0 07:48 05.09.2019
2460 Clouds 12 1017 87 10000 0.5 0 07:29 05.09.2019
2461 Clouds 12 1017 87 10000 1 0 06:58 05.09.2019
2462 Clouds 11 1017 93 10000 0.5 0 06:33 05.09.2019
2463 Clouds 12 1017 93 10000 0.5 0 06:33 05.09.2019
2464 Clouds 12 1017 93 10000 0.5 0 05:59 05.09.2019
2465 Clouds 11 1017 87 10000 1 260 05:37 05.09.2019
2466 Clouds 11 1017 87 10000 1 260 05:19 05.09.2019
2467 Clouds 11 1017 93 10000 0.5 0 04:29 05.09.2019
2468 Clouds 10 1017 93 10000 0.5 0 03:41 05.09.2019
2469 Clear 11 1017 87 10000 1.5 270 02:54 05.09.2019
2470 Clear 11 1017 87 10000 0.5 0 02:28 05.09.2019
2471 Clear 11 1017 87 10000 1 0 01:42 05.09.2019
2472 Clear 12 1017 87 10000 1 0 00:51 05.09.2019
2473 Clear 13 1017 87 10000 1.5 260 00:23 05.09.2019
2474 Clear 14 1017 82 10000 1.5 270 23:57 04.09.2019
2475 Clear 14 1017 82 10000 0.5 0 23:39 04.09.2019
2476 Clear 13 1017 82 10000 0.5 0 23:18 04.09.2019
2477 Clear 13 1017 82 10000 0.5 0 23:18 04.09.2019
2478 Clear 13 1017 82 10000 0.5 0 23:18 04.09.2019
2479 Clear 13 1017 82 10000 0.5 0 22:47 04.09.2019
2480 Clear 15 1017 77 10000 0.5 0 22:19 04.09.2019
2481 Clear 15 1016 72 10000 1 0 21:41 04.09.2019
2482 Clear 17 1016 72 10000 1 0 21:21 04.09.2019
2483 Clear 17 1016 68 10000 1.5 260 20:58 04.09.2019
2484 Clear 17 1015 68 10000 1 0 20:40 04.09.2019
2485 Clear 19 1015 64 10000 1 10 20:20 04.09.2019
2486 Clear 21 1015 64 10000 1 10 19:58 04.09.2019
2487 Clear 23 1014 53 10000 1.5 10 19:39 04.09.2019
2488 Clear 25 1014 41 10000 1.5 80 19:20 04.09.2019
2489 Clear 24 1014 44 10000 2.6 60 18:40 04.09.2019
2490 Clear 23 1014 44 10000 2.6 60 18:20 04.09.2019
2491 Clear 23 1014 38 10000 2.6 70 17:56 04.09.2019
2492 Clear 24 1015 44 10000 3.1 80 17:37 04.09.2019
2493 Clear 24 1015 44 10000 3.1 80 17:19 04.09.2019
2494 Clear 24 1015 50 10000 2.6 70 16:46 04.09.2019
2495 Clear 24 1015 47 10000 2.1 70 16:28 04.09.2019
2496 Clear 23 1016 47 10000 1 0 15:58 04.09.2019
2497 Clear 23 1016 47 10000 0.5 0 15:39 04.09.2019
2498 Clear 23 1016 47 10000 0.5 0 15:21 04.09.2019
2499 Clear 23 1016 49 10000 0.5 0 14:57 04.09.2019
2500 Clear 22 1017 43 10000 0.5 0 14:37 04.09.2019
2501 Clear 22 1017 43 10000 0.5 0 14:19 04.09.2019
2502 Clear 23 1018 56 10000 0.5 0 13:40 04.09.2019
2503 Clear 22 1018 56 10000 0.5 0 13:22 04.09.2019
2504 Clear 22 1019 56 10000 1 0 12:59 04.09.2019
2505 Clear 21 1020 59 10000 1.5 270 12:39 04.09.2019
2506 Clear 20 1020 59 10000 1.5 270 12:21 04.09.2019
2507 Clear 19 1020 63 10000 1.5 260 11:55 04.09.2019
2508 Clear 19 1020 63 10000 1.5 260 11:55 04.09.2019
2509 Clear 18 1021 67 10000 2.6 280 11:36 04.09.2019
2510 Clear 17 1021 67 10000 2.6 280 11:18 04.09.2019
2511 Clouds 18 1022 77 10000 3.1 260 10:43 04.09.2019
2512 Clouds 17 1022 77 10000 3.1 260 10:25 04.09.2019
2513 Clouds 16 1023 87 10000 2.1 260 09:47 04.09.2019
2514 Clouds 12 1023 87 10000 2.1 260 09:27 04.09.2019
2515 Clouds 12 1023 93 10000 2.1 260 08:59 04.09.2019
2516 Clouds 11 1023 93 10000 1.5 270 08:40 04.09.2019
2517 Clouds 10 1023 93 10000 1.5 270 08:22 04.09.2019
2518 Clouds 9 1023 100 10000 1 260 07:49 04.09.2019
2519 Clouds 10 1023 93 10000 1.5 260 07:29 04.09.2019
2520 Clear 9 1023 100 10000 0.5 0 06:40 04.09.2019
2521 Clear 10 1023 93 10000 1 0 05:51 04.09.2019
2522 Clear 8 1024 93 10000 1 0 04:52 04.09.2019
2523 Clear 8 1024 100 10000 0.5 0 04:18 04.09.2019
2524 Clear 9 1025 87 10000 0.5 0 01:39 04.09.2019
2525 Clear 10 1025 87 10000 1 280 00:54 04.09.2019
2526 Clear 10 1025 87 10000 0.5 0 00:32 04.09.2019
2527 Clear 10 1025 87 10000 0.5 0 23:54 03.09.2019
2528 Clear 11 1025 87 10000 0.5 0 23:28 03.09.2019
2529 Clear 11 1025 87 10000 1 0 22:59 03.09.2019
2530 Clear 11 1025 87 10000 0.5 0 22:40 03.09.2019
2531 Clear 11 1025 87 10000 0.5 0 22:21 03.09.2019
2532 Clear 14 1025 82 10000 1 0 21:56 03.09.2019
2533 Clear 12 1025 82 10000 1 0 21:56 03.09.2019
2534 Clear 12 1025 82 10000 1 0 21:56 03.09.2019
2535 Clear 15 1024 77 10000 1 0 21:37 03.09.2019
2536 Clear 15 1024 77 10000 1 0 21:37 03.09.2019
2537 Clear 14 1024 77 10000 1 0 21:19 03.09.2019
2538 Clear 15 1024 72 10000 0.5 0 20:42 03.09.2019
2539 Clear 15 1024 72 10000 0.5 0 20:42 03.09.2019
2540 Clear 15 1024 72 10000 0.5 0 20:24 03.09.2019
2541 Clear 15 1024 72 10000 0.5 0 20:24 03.09.2019
2542 Clear 15 1023 63 10000 1.5 20 19:56 03.09.2019
2543 Clear 18 1023 63 10000 1.5 20 19:38 03.09.2019
2544 Clear 18 1023 63 10000 1.5 20 19:38 03.09.2019
2545 Clouds 17 1023 56 10000 3.1 40 19:19 03.09.2019
2546 Clouds 21 1023 49 10000 3.6 60 18:47 03.09.2019
2547 Clouds 20 1023 49 10000 3.6 60 18:27 03.09.2019
2548 Clouds 20 1023 56 10000 2.1 50 17:59 03.09.2019
2549 Clouds 20 1023 43 10000 2.1 80 17:41 03.09.2019
2550 Clouds 19 1023 43 10000 2.1 80 17:20 03.09.2019
2551 Clouds 19 1023 46 10000 3.1 110 16:58 03.09.2019
2552 Clouds 20 1024 46 10000 2.1 0 16:38 03.09.2019
2553 Clouds 20 1024 46 10000 2.1 0 16:20 03.09.2019
2554 Clouds 20 1024 46 10000 2.1 0 16:20 03.09.2019
2555 Clouds 20 1024 49 10000 2.1 0 15:41 03.09.2019
2556 Clouds 20 1024 49 10000 2.1 0 15:21 03.09.2019
2557 Clouds 19 1024 52 10000 2.1 130 14:58 03.09.2019
2558 Clouds 18 1025 59 10000 1.5 0 14:40 03.09.2019
2559 Clouds 18 1025 59 10000 1.5 0 14:20 03.09.2019
2560 Clouds 18 1025 59 10000 2.1 200 13:57 03.09.2019
2561 Clouds 18 1025 59 10000 2.1 200 13:57 03.09.2019
2562 Clouds 18 1025 63 10000 1 0 13:37 03.09.2019
2563 Clouds 18 1025 63 10000 1 0 13:37 03.09.2019
2564 Clouds 18 1026 67 10000 1.5 20 13:19 03.09.2019
2565 Clouds 17 1026 67 10000 1.5 20 12:55 03.09.2019
2566 Clouds 16 1026 63 10000 1 0 12:37 03.09.2019
2567 Clouds 16 1027 72 10000 1.5 0 12:19 03.09.2019
2568 Clouds 14 1027 72 10000 1 0 11:39 03.09.2019
2569 Clouds 14 1027 72 10000 1 0 11:39 03.09.2019
2570 Clouds 14 1027 72 10000 1 0 11:21 03.09.2019
2571 Clouds 16 1027 77 10000 1 0 10:56 03.09.2019
2572 Clouds 14 1027 87 10000 2.1 270 10:38 03.09.2019
2573 Clouds 15 1027 87 10000 2.6 260 10:19 03.09.2019
2574 Clouds 14 1027 87 10000 1 0 09:43 03.09.2019
2575 Clouds 11 1027 87 10000 1 0 09:25 03.09.2019
2576 Clouds 11 1027 93 10000 1 0 08:44 03.09.2019
2577 Clouds 10 1027 93 10000 1 0 08:26 03.09.2019
2578 Clouds 10 1026 93 10000 1 0 07:58 03.09.2019
2579 Clouds 11 1026 93 10000 1 80 07:39 03.09.2019
2580 Clouds 10 1026 93 10000 1.5 182.137 07:21 03.09.2019
2581 Clouds 10 1026 93 10000 0.5 0 06:43 03.09.2019
2582 Clouds 10 1026 93 10000 0.5 0 05:52 03.09.2019
2583 Clouds 10 1026 93 10000 0.5 0 03:35 03.09.2019
2584 Clouds 10 1026 100 10000 0.5 0 02:43 03.09.2019
2585 Clouds 11 1026 100 10000 0.5 0 02:23 03.09.2019
2586 Rain 11 1026 100 10000 0.5 0 01:48 03.09.2019
2587 Clouds 11 1026 100 10000 0.5 0 01:28 03.09.2019
2588 Clouds 11 1026 100 10000 1 0 00:40 03.09.2019
2589 Clouds 11 1026 100 10000 1.5 160 00:18 03.09.2019
2590 Rain 11 1026 93 10000 1 0 23:39 02.09.2019
2591 Rain 11 1026 93 10000 1 0 23:20 02.09.2019
2592 Rain 11 1026 93 10000 1 0 23:20 02.09.2019
2593 Rain 11 1026 93 10000 1 0 22:56 02.09.2019
2594 Rain 11 1026 93 10000 1 260 22:37 02.09.2019
2595 Rain 12 1025 93 10000 1.5 290 22:19 02.09.2019
2596 Rain 11 1025 93 10000 1.5 290 21:56 02.09.2019
2597 Rain 11 1025 93 10000 1.5 290 21:56 02.09.2019
2598 Rain 11 1025 93 10000 2.6 300 21:38 02.09.2019
2599 Rain 11 1025 93 10000 2.6 300 21:19 02.09.2019
2600 Rain 11 1024 93 10000 2.6 250 20:54 02.09.2019
2601 Rain 11 1024 93 10000 2.6 250 20:54 02.09.2019
2602 Rain 11 1023 100 10000 2.1 250 20:36 02.09.2019
2603 Rain 12 1023 93 7000 0.5 0 20:18 02.09.2019
2604 Rain 12 1023 93 7000 0.5 0 19:55 02.09.2019
2605 Rain 12 1023 93 7000 0.5 0 19:36 02.09.2019
2606 Rain 12 1022 93 8000 2.1 240 19:18 02.09.2019
2607 Rain 12 1022 93 10000 3.6 270 18:38 02.09.2019
2608 Rain 12 1022 93 10000 3.6 270 18:38 02.09.2019
2609 Rain 13 1021 93 10000 1 0 18:19 02.09.2019
2610 Rain 13 1021 93 10000 1 0 17:55 02.09.2019
2611 Rain 13 1021 93 10000 1 0 17:55 02.09.2019
2612 -273 0 0 0 0 0 17:55 02.09.2019
2613 Rain 13 1021 93 10000 1 0 17:55 02.09.2019
2614 Rain 13 1021 87 10000 1 0 17:37 02.09.2019
2615 Rain 12 1017 94 0 1.34 355 17:18 02.09.2019
2616 Rain 13 1017 95 0 1.34 360 16:41 02.09.2019
2617 Rain 13 1017 95 0 1.79 352 16:21 02.09.2019
2618 Clouds 13 1021 87 10000 2.6 100 15:54 02.09.2019
2619 Rain 14 1021 88 10000 1 0 15:36 02.09.2019
2620 Rain 14 1021 88 10000 1 0 15:18 02.09.2019
2621 Clouds 14 1021 88 10000 0.5 0 14:55 02.09.2019
2622 Rain 14 1021 87 10000 1 0 14:36 02.09.2019
2623 Rain 14 1021 93 10000 0.5 0 14:18 02.09.2019
2624 Rain 14 1021 93 10000 1 0 13:41 02.09.2019
2625 Rain 14 1021 93 10000 1 0 13:23 02.09.2019
2626 Rain 15 1021 93 8000 2.6 60 12:45 02.09.2019
2627 Rain 14 1021 93 8000 2.6 60 12:26 02.09.2019
2628 Rain 15 1021 87 10000 2.6 60 11:59 02.09.2019
2629 Rain 15 1020 88 10000 1.49 5.062 11:40 02.09.2019
2630 Rain 15 1020 88 10000 1.49 5.062 11:21 02.09.2019
2631 Rain 15 1020 93 10000 1 260 10:58 02.09.2019
2632 Rain 14 1020 93 10000 1 0 10:39 02.09.2019
2633 Rain 14 1020 93 10000 1 0 10:20 02.09.2019
2634 Rain 14 1020 93 10000 1.5 260 09:58 02.09.2019
2635 Rain 14 1020 93 10000 1.5 270 09:37 02.09.2019
2636 Rain 14 1020 93 10000 1.5 270 09:18 02.09.2019
2637 Rain 14 1019 93 9000 0.5 0 08:39 02.09.2019
2638 Rain 14 1019 93 9000 0.5 0 08:18 02.09.2019
2639 Rain 15 1019 93 10000 1.5 240 07:41 02.09.2019
2640 Rain 15 1019 93 8000 1.5 100 07:21 02.09.2019
2641 Rain 15 1019 93 10000 1 0 06:48 02.09.2019
2642 Rain 15 1019 93 10000 1 0 06:30 02.09.2019
2643 Clouds 15 1018 93 10000 1.5 270 05:49 02.09.2019
2644 Rain 15 1018 93 10000 1.5 270 05:19 02.09.2019
2645 Rain 15 1018 88 10000 5.7 260 04:33 02.09.2019
2646 Rain 16 1018 93 10000 0.5 0 01:48 02.09.2019
2647 Rain 16 1018 93 10000 0.5 0 00:53 02.09.2019
2648 Rain 16 1018 93 10000 1.5 250 00:32 02.09.2019
2649 Rain 16 1018 93 10000 1 0 23:48 01.09.2019
2650 Rain 16 1018 93 10000 1 0 23:23 01.09.2019
2651 Clouds 16 1018 93 10000 2.1 80 22:59 01.09.2019
2652 Rain 16 1017 93 10000 2.1 190 22:40 01.09.2019
2653 Rain 16 1017 88 5000 2.1 0 22:20 01.09.2019
2654 Rain 17 1017 88 5000 2.1 0 21:57 01.09.2019
2655 Rain 17 1016 88 10000 4.6 280 21:39 01.09.2019
2656 Rain 17 1016 88 10000 4.6 280 21:21 01.09.2019
2657 Rain 17 1016 93 10000 4.6 260 20:57 01.09.2019
2658 Clouds 18 1015 88 10000 0.5 0 20:38 01.09.2019
2659 Clouds 18 1015 88 10000 1.5 270 20:18 01.09.2019
2660 Clouds 18 1015 88 10000 1.5 270 20:18 01.09.2019
2661 Clouds 18 1015 88 10000 1.5 270 19:58 01.09.2019
2662 Clouds 18 1015 88 10000 1.5 270 19:58 01.09.2019
2663 Clouds 18 1015 88 10000 1.5 270 19:37 01.09.2019
2664 Rain 18 1015 88 10000 1 0 19:19 01.09.2019
2665 Rain 18 1014 77 10000 3.1 240 18:43 01.09.2019
2666 Rain 20 1014 77 10000 3.1 240 18:25 01.09.2019
2667 Clouds 20 1013 47 10000 2.1 0 17:56 01.09.2019
2668 Clouds 21 1013 47 10000 4.1 70 17:38 01.09.2019
2669 Clouds 21 1013 47 10000 4.1 70 17:19 01.09.2019
2670 Clouds 21 1013 47 10000 4.1 70 17:19 01.09.2019
2671 Clouds 23 1013 47 10000 4.6 70 16:41 01.09.2019
2672 Clouds 25 1013 47 10000 4.6 70 16:19 01.09.2019
2673 Clouds 26 1013 44 10000 1.5 0 15:48 01.09.2019
2674 Clouds 26 1013 47 10000 2.1 260 15:29 01.09.2019
2675 Clouds 26 1014 53 10000 1.5 260 14:59 01.09.2019
2676 Clouds 25 1014 53 10000 1.5 230 14:40 01.09.2019
2677 Clouds 25 1014 53 10000 1.5 230 14:20 01.09.2019
2678 Clouds 24 1014 47 10000 1 0 13:54 01.09.2019
2679 Clouds 23 1015 53 10000 1 0 13:36 01.09.2019
2680 Clouds 23 1015 53 10000 1 0 13:18 01.09.2019
2681 Clouds 21 1016 60 10000 3.6 250 12:41 01.09.2019
2682 Clouds 21 1016 60 10000 3.6 250 12:22 01.09.2019
2683 Clouds 21 1016 64 10000 4.1 260 11:41 01.09.2019
2684 Clouds 20 1016 64 10000 4.1 260 11:20 01.09.2019
2685 Clouds 21 1016 72 10000 4.1 270 10:58 01.09.2019
2686 Clouds 21 1017 72 10000 6.2 270 10:40 01.09.2019
2687 Clouds 20 1017 72 10000 6.2 270 10:21 01.09.2019
2688 Clouds 19 1017 82 10000 1.5 0 09:43 01.09.2019
2689 Clouds 17 1017 82 10000 1.5 0 09:25 01.09.2019
2690 Clouds 16 1017 87 10000 0.5 0 08:44 01.09.2019
2691 Clouds 15 1017 87 10000 0.5 0 08:24 01.09.2019
2692 Clouds 15 1017 93 10000 2.1 300 07:51 01.09.2019
2693 Clouds 15 1017 93 10000 2.1 300 07:51 01.09.2019
2694 Clouds 15 1017 93 10000 2.1 300 07:33 01.09.2019
2695 Clear 16 1017 87 10000 2.1 300 06:42 01.09.2019
2696 Clear 15 1017 87 10000 2.1 300 06:23 01.09.2019
2697 Clouds 16 1017 87 10000 3.6 300 05:39 01.09.2019
2698 Clouds 15 1017 82 10000 7.2 260 04:29 01.09.2019
2699 Clouds 15 1017 87 10000 5.1 270 03:41 01.09.2019
2700 Clouds 17 1017 87 10000 5.7 280 02:57 01.09.2019
2701 Clouds 17 1017 87 10000 6.7 280 02:26 01.09.2019
2702 Clouds 16 1017 82 10000 4.6 280 01:50 01.09.2019
2703 Clouds 16 1017 82 10000 5.1 270 01:22 01.09.2019
2704 Clouds 16 1018 88 10000 5.1 280 00:45 01.09.2019
2705 Clouds 18 1018 88 10000 5.1 280 00:22 01.09.2019
2706 Clouds 18 1018 82 10000 7.2 270 23:49 31.08.2019
2707 Clouds 18 1018 82 10000 7.2 270 23:22 31.08.2019
2708 Clouds 16 1018 82 10000 8.2 260 22:58 31.08.2019
2709 Clouds 18 1018 72 10000 9.3 260 22:40 31.08.2019
2710 Clouds 18 1018 72 10000 9.3 260 22:22 31.08.2019
2711 Rain 17 1018 68 10000 10.8 250 21:55 31.08.2019
2712 Clouds 18 1018 68 10000 8.2 240 21:37 31.08.2019
2713 Clouds 19 1018 68 10000 8.2 240 21:19 31.08.2019
2714 Clouds 19 1018 68 10000 8.2 240 21:19 31.08.2019
2715 Thunderstorm 20 1016 50 10000 8.2 250 20:46 31.08.2019
2716 Thunderstorm 20 1016 50 10000 8.2 250 20:28 31.08.2019
2717 Clouds 22 1015 41 10000 2.6 0 19:55 31.08.2019
2718 Thunderstorm 22 1015 41 10000 4.1 140 19:37 31.08.2019
2719 Thunderstorm 23 1015 41 10000 4.1 140 19:19 31.08.2019
2720 Thunderstorm 26 1014 39 10000 5.7 130 18:39 31.08.2019
2721 Thunderstorm 26 1014 39 10000 5.7 130 18:39 31.08.2019
2722 Clouds 26 1014 39 10000 6.2 140 18:20 31.08.2019
2723 Clouds 26 1014 39 10000 6.2 140 17:55 31.08.2019
2724 Clouds 26 1014 37 10000 6.2 130 17:37 31.08.2019
2725 Clouds 26 1014 37 10000 6.2 130 17:18 31.08.2019
2726 Clouds 29 1014 35 10000 4.6 150 16:55 31.08.2019
2727 Thunderstorm 28 1015 57 10000 1 0 16:37 31.08.2019
2728 Thunderstorm 28 1015 57 10000 1 0 16:18 31.08.2019
2729 Clouds 29 1015 35 10000 2.1 0 15:42 31.08.2019
2730 Clear 27 1012 42 0 2.24 177 15:19 31.08.2019
2731 Clouds 28 1015 37 10000 2.1 10 14:56 31.08.2019
2732 Clear 27 1012 39 0 1.79 191 14:37 31.08.2019
2733 Clouds 28 1016 39 10000 2.6 360 14:19 31.08.2019
2734 Clouds 28 1016 39 10000 2.6 360 14:19 31.08.2019
2735 Clouds 27 1017 47 10000 3.1 260 13:40 31.08.2019
2736 Clouds 27 1017 47 10000 3.1 260 13:21 31.08.2019
2737 Clouds 27 1018 50 10000 4.6 270 12:58 31.08.2019
2738 Clouds 26 1018 53 10000 4.6 260 12:38 31.08.2019
2739 Clouds 25 1018 53 10000 4.6 260 12:19 31.08.2019
2740 Clouds 25 1018 53 10000 4.6 260 12:19 31.08.2019
2741 Clouds 23 1019 68 10000 5.1 280 11:46 31.08.2019
2742 Clouds 23 1019 68 10000 5.1 280 11:46 31.08.2019
2743 Clouds 23 1019 68 10000 5.1 280 11:28 31.08.2019
2744 Clouds 23 1019 68 10000 4.6 280 10:58 31.08.2019
2745 Clouds 22 1020 77 10000 3.6 260 10:40 31.08.2019
2746 Clouds 21 1020 77 10000 3.6 260 10:19 31.08.2019
2747 Clouds 20 1020 77 10000 2.1 270 09:54 31.08.2019
2748 Clouds 19 1020 88 10000 2.1 270 09:36 31.08.2019
2749 Clear 17 1021 88 10000 1.5 280 09:18 31.08.2019
2750 Clear 16 1021 88 10000 0.5 0 08:41 31.08.2019
2751 Clear 16 1021 88 10000 0.5 0 08:41 31.08.2019
2752 Clear 16 1021 88 10000 0.5 0 08:22 31.08.2019
2753 Clear 15 1021 93 10000 0.5 0 07:40 31.08.2019
2754 Clouds 14 1021 93 10000 0.5 0 07:20 31.08.2019
2755 Clear 14 1021 93 10000 1.5 240 06:28 31.08.2019
2756 Clear 14 1021 93 10000 1.5 260 05:55 31.08.2019
2757 Clear 14 1021 93 10000 0.5 0 05:30 31.08.2019
2758 Clear 13 1021 87 10000 1 0 04:30 31.08.2019
2759 Clear 13 1022 87 10000 0.5 0 03:44 31.08.2019
2760 Clear 15 1022 88 10000 1 260 02:29 31.08.2019
2761 Clear 14 1022 88 10000 2.1 280 01:52 31.08.2019
2762 Clouds 15 1022 82 10000 1.5 40 01:31 31.08.2019
2763 Clouds 15 1022 82 10000 1.5 90 00:48 31.08.2019
2764 Clouds 16 1022 82 10000 1.5 90 00:28 31.08.2019
2765 Clear 17 1023 88 10000 1 0 23:51 30.08.2019
2766 Clear 18 1022 88 10000 1.5 310 23:21 30.08.2019
2767 Clouds 17 1022 77 10000 1 0 22:59 30.08.2019
2768 Clouds 17 1022 77 10000 1 0 22:39 30.08.2019
2769 Clouds 18 1022 77 10000 1 0 22:21 30.08.2019
2770 Clouds 18 1022 77 10000 1 360 21:57 30.08.2019
2771 Clouds 18 1022 77 10000 0.5 0 21:37 30.08.2019
2772 Clouds 20 1022 73 10000 1 0 21:18 30.08.2019
2773 Clouds 21 1022 73 10000 1 0 20:58 30.08.2019
2774 Clouds 22 1021 69 10000 2.6 40 20:38 30.08.2019
2775 Clouds 22 1021 69 10000 2.6 40 20:20 30.08.2019
2776 Clouds 25 1021 61 10000 3.6 70 19:56 30.08.2019
2777 Clouds 25 1021 61 10000 3.6 70 19:38 30.08.2019
2778 Clouds 25 1021 61 10000 4.6 60 19:19 30.08.2019
2779 Clouds 27 1021 51 10000 4.1 70 18:45 30.08.2019
2780 Clouds 25 1021 51 10000 4.1 70 18:24 30.08.2019
2781 Clouds 26 1021 45 10000 3.1 90 17:57 30.08.2019
2782 Clouds 25 1021 42 10000 3.6 40 17:39 30.08.2019
2783 Clouds 26 1021 42 10000 3.6 40 17:19 30.08.2019
2784 Clouds 26 1021 51 10000 3.1 40 16:57 30.08.2019
2785 Clouds 27 1021 42 10000 3.1 60 16:39 30.08.2019
2786 Clouds 27 1021 42 10000 3.1 60 16:20 30.08.2019
2787 Clouds 27 1022 51 10000 2.6 100 15:42 30.08.2019
2788 Clouds 26 1022 51 10000 2.6 100 15:21 30.08.2019
2789 Clouds 25 1023 50 10000 2.6 120 14:45 30.08.2019
2790 Clouds 25 1023 50 10000 2.6 120 14:26 30.08.2019
2791 Clouds 24 1023 53 10000 2.1 0 13:57 30.08.2019
2792 Clouds 24 1023 53 10000 0.5 0 13:39 30.08.2019
2793 Clouds 23 1023 53 10000 0.5 0 13:20 30.08.2019
2794 Clouds 22 1024 60 10000 1 0 12:45 30.08.2019
2795 Clouds 22 1024 60 10000 1 0 12:25 30.08.2019
2796 Clouds 21 1024 60 10000 0.5 0 11:57 30.08.2019
2797 Clouds 20 1025 64 10000 1.5 270 11:39 30.08.2019
2798 Clouds 20 1025 64 10000 1.5 270 11:39 30.08.2019
2799 Clouds 20 1025 64 10000 1.5 270 11:20 30.08.2019
2800 Clouds 21 1025 77 10000 2.1 270 10:37 30.08.2019
2801 Clouds 20 1025 77 10000 2.1 270 10:19 30.08.2019
2802 Clouds 20 1025 77 10000 3.1 270 09:55 30.08.2019
2803 Clouds 18 1025 82 10000 2.1 280 09:36 30.08.2019
2804 Clouds 16 1025 82 10000 2.1 280 09:18 30.08.2019
2805 Clouds 15 1025 93 10000 0.5 0 08:42 30.08.2019
2806 Clouds 15 1025 93 10000 0.5 0 08:23 30.08.2019
2807 Clouds 16 1025 93 10000 1.5 210 07:46 30.08.2019
2808 Clouds 15 1025 93 10000 1.5 210 07:25 30.08.2019
2809 Clouds 14 1025 93 10000 1 0 06:49 30.08.2019
2810 Clouds 14 1025 87 10000 0.5 0 06:31 30.08.2019
2811 Clear 14 1024 93 10000 1 250 05:59 30.08.2019
2812 Clear 14 1024 93 10000 0.5 0 05:24 30.08.2019
2813 Clouds 15 1024 93 10000 1.5 220 03:56 30.08.2019
2814 Clouds 15 1025 93 10000 0.5 0 03:37 30.08.2019
2815 Clouds 15 1025 93 10000 1 260 02:37 30.08.2019
2816 Clouds 16 1025 93 10000 0.5 0 01:40 30.08.2019
2817 Clouds 16 1024 88 10000 1 0 00:47 30.08.2019
2818 Clouds 16 1024 93 10000 1 0 00:18 30.08.2019
2819 Clouds 16 1024 88 10000 0.5 0 23:46 29.08.2019
2820 Clouds 16 1024 88 10000 0.5 0 23:22 29.08.2019
2821 Clouds 17 1023 82 10000 0.5 0 22:45 29.08.2019
2822 Clouds 17 1023 82 10000 0.5 0 22:27 29.08.2019
2823 Clouds 17 1023 82 10000 0.5 0 21:59 29.08.2019
2824 Clouds 18 1023 77 10000 2.6 90 21:40 29.08.2019
2825 Clouds 18 1023 77 10000 2.6 90 21:21 29.08.2019
2826 Clouds 18 1023 77 10000 2.6 90 21:21 29.08.2019
2827 Clouds 18 1023 77 10000 3.1 70 20:58 29.08.2019
2828 Clouds 19 1023 77 10000 3.1 70 20:39 29.08.2019
2829 Clouds 19 1022 77 10000 2.6 60 20:18 29.08.2019
2830 Clouds 20 1022 73 10000 4.6 70 19:47 29.08.2019
2831 Clouds 21 1022 69 10000 3.1 60 19:26 29.08.2019
2832 Clouds 22 1021 69 10000 3.1 70 18:58 29.08.2019
2833 Clouds 22 1021 69 10000 3.1 70 18:40 29.08.2019
2834 Clouds 22 1022 69 10000 3.6 60 18:18 29.08.2019
2835 Clouds 23 1021 60 10000 4.6 60 17:54 29.08.2019
2836 Clouds 23 1021 60 10000 4.6 60 17:36 29.08.2019
2837 Clouds 23 1021 60 10000 2.1 270 17:18 29.08.2019
2838 Clouds 23 1021 57 10000 1 0 16:41 29.08.2019
2839 Clouds 23 1021 61 10000 2.6 260 16:23 29.08.2019
2840 Clouds 23 1021 60 10000 2.1 260 15:41 29.08.2019
2841 Clouds 23 1021 60 10000 2.1 260 15:22 29.08.2019
2842 Clouds 23 1021 64 10000 2.6 270 14:59 29.08.2019
2843 Clouds 23 1022 64 10000 3.6 270 14:41 29.08.2019
2844 Clouds 23 1022 64 10000 3.6 270 14:20 29.08.2019
2845 Clouds 22 1021 73 10000 4.6 260 13:57 29.08.2019
2846 Clouds 22 1022 68 10000 5.7 260 13:39 29.08.2019
2847 Clouds 22 1022 68 10000 5.7 260 13:39 29.08.2019
2848 Clouds 22 1022 68 10000 5.7 260 13:39 29.08.2019
2849 Clouds 22 1022 68 10000 5.7 260 13:19 29.08.2019
2850 Clouds 22 1021 73 10000 4.6 270 12:56 29.08.2019
2851 Clouds 22 1022 69 10000 3.1 260 12:38 29.08.2019
2852 Clouds 21 1022 73 10000 2.6 270 12:20 29.08.2019
2853 Clouds 20 1022 73 10000 1.5 0 11:43 29.08.2019
2854 Clouds 20 1022 73 10000 1.5 0 11:21 29.08.2019
2855 Clouds 20 1022 77 10000 1.5 240 10:59 29.08.2019
2856 Clouds 20 1022 82 10000 2.6 270 10:40 29.08.2019
2857 Clouds 20 1021 77 10000 2.1 260 10:22 29.08.2019
2858 Clouds 20 1021 82 10000 1.5 250 09:41 29.08.2019
2859 Clouds 18 1021 82 10000 0.5 0 09:20 29.08.2019
2860 Clouds 18 1021 82 10000 0.5 0 08:56 29.08.2019
2861 Clouds 18 1021 93 10000 1 0 08:36 29.08.2019
2862 Clouds 18 1021 88 10000 0.5 0 08:18 29.08.2019
2863 Clouds 17 1021 88 10000 1.5 300 07:41 29.08.2019
2864 Clouds 17 1021 88 10000 1.5 300 07:23 29.08.2019
2865 Clouds 18 1021 88 10000 1.5 290 06:41 29.08.2019
2866 Clouds 18 1020 88 10000 1.5 290 05:54 29.08.2019
2867 Clouds 18 1020 88 10000 2.1 270 05:33 29.08.2019
2868 Clouds 18 1020 82 10000 2.1 260 04:49 29.08.2019
2869 Clouds 18 1020 82 10000 2.1 330 04:28 29.08.2019
2870 Clouds 19 1020 68 10000 7.2 260 02:27 29.08.2019
2871 Clouds 19 1020 77 10000 2.1 250 01:41 29.08.2019
2872 Clouds 18 1020 82 10000 2.6 310 00:51 29.08.2019
2873 Clouds 19 1020 77 10000 1 0 00:24 29.08.2019
2874 Clouds 19 1019 77 10000 1.5 260 23:59 28.08.2019
2875 Clouds 19 1019 77 10000 1.5 180 23:40 28.08.2019
2876 Clouds 19 1019 77 10000 1.5 180 23:22 28.08.2019
2877 Clouds 19 1019 77 10000 1.5 180 23:22 28.08.2019
2878 Clouds 21 1019 73 10000 1 0 22:57 28.08.2019
2879 Clouds 21 1018 73 10000 1 290 22:38 28.08.2019
2880 Clouds 21 1018 73 10000 1 290 22:18 28.08.2019
2881 Clouds 22 1018 68 10000 2.6 250 21:46 28.08.2019
2882 Clouds 21 1018 68 10000 2.6 250 21:26 28.08.2019
2883 Clouds 21 1017 64 10000 1.5 270 20:59 28.08.2019
2884 Clouds 22 1017 69 10000 1 0 20:40 28.08.2019
2885 Clouds 22 1017 69 10000 1 0 20:22 28.08.2019
2886 Clouds 26 1016 54 10000 3.1 60 19:44 28.08.2019
2887 Clouds 25 1016 54 10000 3.1 60 19:22 28.08.2019
2888 Clouds 25 1016 54 10000 3.1 60 18:59 28.08.2019
2889 Clouds 25 1016 54 10000 4.6 50 18:40 28.08.2019
2890 Clouds 26 1016 51 10000 4.1 60 18:21 28.08.2019
2891 Clouds 28 1016 45 10000 4.6 70 17:39 28.08.2019
2892 Clouds 28 1016 45 10000 4.6 70 17:19 28.08.2019
2893 Clouds 28 1016 45 10000 4.6 80 16:55 28.08.2019
2894 Clouds 28 1016 45 10000 4.6 80 16:55 28.08.2019
2895 Clouds 28 1017 48 10000 4.1 70 16:37 28.08.2019
2896 Clouds 26 1017 48 10000 4.1 70 16:18 28.08.2019
2897 Clouds 26 1017 47 10000 2.1 90 15:38 28.08.2019
2898 Clouds 26 1017 47 10000 2.1 90 15:38 28.08.2019
2899 Clouds 26 1018 47 10000 1.5 100 15:20 28.08.2019
2900 Clouds 26 1018 47 10000 1.5 100 14:58 28.08.2019
2901 Clouds 25 1018 50 10000 2.1 110 14:39 28.08.2019
2902 Clouds 25 1018 50 10000 2.1 110 14:20 28.08.2019
2903 Clouds 25 1019 53 10000 2.1 120 13:59 28.08.2019
2904 Clouds 24 1019 50 10000 1.5 90 13:39 28.08.2019
2905 Clouds 24 1019 57 10000 1 0 13:20 28.08.2019
2906 Clouds 24 1019 56 10000 0.5 0 12:42 28.08.2019
2907 Clouds 22 1019 56 10000 0.5 0 12:24 28.08.2019
2908 Clear 22 1020 60 10000 0.5 0 11:57 28.08.2019
2909 Clear 21 1020 68 10000 1.5 270 11:39 28.08.2019
2910 Clear 21 1020 72 10000 1.5 270 11:20 28.08.2019
2911 Clear 21 1020 72 10000 1.5 270 10:56 28.08.2019
2912 Clear 21 1021 77 10000 1.5 270 10:37 28.08.2019
2913 Clear 20 1021 77 10000 2.1 250 10:19 28.08.2019
2914 Clear 19 1021 82 10000 1 0 09:41 28.08.2019
2915 Clear 17 1021 82 10000 1 0 09:21 28.08.2019
2916 Clear 17 1021 82 10000 1 0 08:55 28.08.2019
2917 Clear 16 1021 87 10000 1 0 08:36 28.08.2019
2918 Clear 16 1021 93 10000 1.5 270 08:18 28.08.2019
2919 Clear 16 1021 87 10000 0.5 0 07:37 28.08.2019
2920 Clear 16 1021 87 10000 0.5 0 07:19 28.08.2019
2921 Clear 16 1021 87 10000 0.5 0 06:46 28.08.2019
2922 Clouds 15 1021 87 10000 1 190 05:52 28.08.2019
2923 Clouds 15 1021 82 10000 1 0 04:40 28.08.2019
2924 Clouds 16 1021 82 10000 0.5 0 01:57 28.08.2019
2925 Clouds 15 1021 82 10000 0.5 0 01:30 28.08.2019
2926 Clouds 16 1020 72 10000 1 0 00:43 28.08.2019
2927 Clouds 17 1020 72 10000 1 0 00:23 28.08.2019
2928 Clear 18 1020 77 10000 1 0 23:44 27.08.2019
2929 Clear 18 1020 77 10000 1 0 23:22 27.08.2019
2930 Clear 18 1020 77 10000 0.5 0 22:59 27.08.2019
2931 Clear 17 1019 77 10000 0.5 0 22:41 27.08.2019
2932 Clear 17 1019 77 10000 0.5 0 22:21 27.08.2019
2933 Clear 18 1019 72 10000 0.5 0 21:56 27.08.2019
2934 Clear 18 1019 68 10000 0.5 0 21:38 27.08.2019
2935 Clear 20 1019 68 10000 0.5 0 21:19 27.08.2019
2936 Clear 20 1018 60 10000 2.1 260 20:56 27.08.2019
2937 Clouds 21 1018 56 10000 1 0 20:37 27.08.2019
2938 Clouds 22 1017 50 10000 1.5 330 20:19 27.08.2019
2939 Clouds 26 1017 50 10000 3.1 40 19:43 27.08.2019
2940 Clouds 28 1017 50 10000 3.1 40 19:24 27.08.2019
2941 Clouds 27 1017 50 10000 3.1 40 18:55 27.08.2019
2942 Clouds 28 1017 37 10000 3.6 40 18:36 27.08.2019
2943 Clouds 28 1017 37 10000 3.6 40 18:36 27.08.2019
2944 Clouds 26 1017 32 10000 3.1 50 18:18 27.08.2019
2945 Clouds 26 1017 39 10000 4.1 60 17:43 27.08.2019
2946 Clouds 26 1017 39 10000 4.1 60 17:23 27.08.2019
2947 Clouds 27 1018 37 10000 2.6 90 16:49 27.08.2019
2948 Clouds 27 1018 37 10000 2.6 90 16:28 27.08.2019
2949 Clouds 27 1018 42 10000 2.1 60 15:59 27.08.2019
2950 Clouds 26 1015 54 0 0.89 349 15:40 27.08.2019
2951 Clear 26 1015 48 0 1.34 302 15:22 27.08.2019
2952 Clouds 26 1018 44 10000 1.5 0 14:59 27.08.2019
2953 Clouds 26 1019 44 10000 1 0 14:41 27.08.2019
2954 Clouds 26 1019 44 10000 1 0 14:22 27.08.2019
2955 Clouds 26 1020 53 10000 1 0 13:42 27.08.2019
2956 Clouds 26 1020 53 10000 1 0 13:42 27.08.2019
2957 Clouds 25 1020 53 10000 1 0 13:23 27.08.2019
2958 Clouds 24 1020 57 10000 1 0 12:55 27.08.2019
2959 Clouds 24 1021 60 10000 0.5 0 12:37 27.08.2019
2960 Clouds 24 1021 60 10000 0.5 0 12:18 27.08.2019
2961 Clear 23 1021 64 10000 1 0 11:43 27.08.2019
2962 Clear 23 1021 64 10000 1 0 11:24 27.08.2019
2963 Clear 22 1022 72 10000 3.6 260 10:42 27.08.2019
2964 Clear 21 1022 72 10000 3.6 260 10:21 27.08.2019
2965 Clear 20 1022 77 10000 1.5 270 09:58 27.08.2019
2966 Clear 19 1022 82 10000 2.1 270 09:38 27.08.2019
2967 Clear 16 1022 82 10000 2.1 270 09:20 27.08.2019
2968 Clouds 15 1022 87 10000 2.1 280 08:48 27.08.2019
2969 Clouds 14 1022 87 10000 2.1 260 08:27 27.08.2019
2970 Clouds 15 1022 87 10000 2.1 260 08:27 27.08.2019
2971 Clouds 14 1021 93 10000 1.5 290 07:59 27.08.2019
2972 Clouds 14 1021 93 10000 1.5 250 07:38 27.08.2019
2973 Clouds 14 1021 93 10000 1.5 250 07:19 27.08.2019
2974 Clear 14 1021 93 10000 0.5 0 06:50 27.08.2019
2975 Clear 14 1021 93 10000 1.5 220 06:21 27.08.2019
2976 Clear 13 1021 93 10000 1 0 05:30 27.08.2019
2977 Clear 13 1021 93 10000 1 0 04:28 27.08.2019
2978 Clear 14 1021 93 10000 2.1 250 03:32 27.08.2019
2979 Clouds 14 1021 93 10000 1 10 02:23 27.08.2019
2980 Clouds 15 1021 87 10000 0.5 0 01:35 27.08.2019
2981 Clouds 14 1021 87 10000 1 0 00:50 27.08.2019
2982 Clouds 14 1021 87 10000 1 0 00:29 27.08.2019
2983 Rain 15 1021 82 10000 1 0 23:59 26.08.2019
2984 Clouds 16 1021 82 10000 1.5 0 23:37 26.08.2019
2985 Clouds 16 1021 82 10000 1.5 0 23:19 26.08.2019
2986 Clouds 17 1021 77 10000 2.6 0 22:38 26.08.2019
2987 Clouds 17 1021 77 10000 2.6 0 22:19 26.08.2019
2988 Clouds 17 1021 77 10000 2.6 0 21:57 26.08.2019
2989 Clouds 18 1021 72 10000 3.1 100 21:37 26.08.2019
2990 Clouds 18 1021 77 10000 1 0 21:18 26.08.2019
2991 Clouds 18 1021 88 10000 2.6 30 20:54 26.08.2019
2992 Clouds 18 1021 88 10000 2.6 30 20:36 26.08.2019
2993 Clouds 19 1021 82 10000 2.6 90 20:18 26.08.2019
2994 Thunderstorm 19 1020 77 10000 3.6 20 19:42 26.08.2019
2995 Thunderstorm 21 1020 56 10000 4.6 140 19:19 26.08.2019
2996 Clouds 22 1019 53 10000 4.6 290 18:56 26.08.2019
2997 Clouds 24 1019 53 10000 4.6 290 18:37 26.08.2019
2998 Clouds 23 1019 57 10000 3.6 280 18:18 26.08.2019
2999 Thunderstorm 24 1018 47 10000 2.1 240 17:43 26.08.2019
3000 Clouds 23 1018 44 10000 1 0 17:19 26.08.2019
3001 Clouds 23 1018 44 10000 1 0 17:19 26.08.2019
3002 Clouds 23 1018 51 10000 2.6 170 16:57 26.08.2019
3003 Clouds 23 1018 51 10000 2.6 170 16:38 26.08.2019
3004 Clouds 24 1018 50 10000 3.1 120 16:18 26.08.2019
3005 Clouds 24 1018 51 10000 3.6 110 15:44 26.08.2019
3006 Clouds 25 1019 51 10000 2.6 120 15:22 26.08.2019
3007 Clouds 25 1019 57 10000 2.1 90 14:58 26.08.2019
3008 Clouds 25 1019 57 10000 2.1 90 14:39 26.08.2019
3009 Clouds 25 1019 50 10000 2.1 80 14:21 26.08.2019
3010 Clouds 24 1019 50 10000 1 0 13:43 26.08.2019
3011 Clouds 23 1019 57 10000 0.5 0 13:23 26.08.2019
3012 Clouds 23 1020 60 10000 1 0 12:56 26.08.2019
3013 Clouds 22 1020 60 10000 1 0 12:37 26.08.2019
3014 Clouds 22 1020 68 10000 1.5 290 12:19 26.08.2019
3015 Clouds 21 1021 68 10000 2.1 280 11:38 26.08.2019
3016 Clouds 20 1021 72 10000 2.1 280 11:20 26.08.2019
3017 Clouds 21 1021 77 10000 3.1 270 10:57 26.08.2019
3018 Clouds 23 1021 77 10000 3.1 270 10:39 26.08.2019
3019 Clouds 18 1022 82 10000 2.1 270 10:18 26.08.2019
3020 Clouds 17 1022 88 10000 2.1 280 09:42 26.08.2019
3021 Clouds 16 1022 87 10000 1.5 240 09:23 26.08.2019
3022 Clouds 14 1022 93 10000 2.1 260 08:56 26.08.2019
3023 Clouds 15 1022 93 10000 2.1 260 08:38 26.08.2019
3024 Clouds 15 1022 93 10000 2.1 260 08:38 26.08.2019
3025 Clouds 14 1023 93 10000 1.5 260 08:19 26.08.2019
3026 Clouds 13 1022 93 10000 1.5 270 07:43 26.08.2019
3027 Clouds 14 1022 93 10000 0.5 0 07:24 26.08.2019
3028 Fog 13 1022 100 8000 0.5 0 06:57 26.08.2019
3029 Fog 13 1022 100 8000 0.5 0 06:38 26.08.2019
3030 Clouds 13 1022 93 9000 1 280 06:18 26.08.2019
3031 Clouds 13 1022 93 10000 1 0 04:54 26.08.2019
3032 Clouds 14 1022 93 10000 0.5 0 03:49 26.08.2019
3033 Clouds 14 1022 93 10000 1 0 02:38 26.08.2019
3034 Clouds 15 1022 88 10000 1 0 01:23 26.08.2019
3035 Clouds 15 1023 88 10000 1 0 00:44 26.08.2019
3036 Clouds 16 1023 88 10000 1.5 240 00:26 26.08.2019
3037 Clouds 15 1023 88 10000 1 0 23:45 25.08.2019
3038 Clouds 15 1023 88 10000 2.1 240 23:20 25.08.2019
3039 Clouds 15 1023 88 10000 1 0 22:59 25.08.2019
3040 Clouds 15 1023 88 10000 1 0 22:40 25.08.2019
3041 Clouds 15 1023 88 10000 1 0 22:20 25.08.2019
3042 Clouds 16 1023 88 10000 1 0 21:58 25.08.2019
3043 Rain 16 1023 88 10000 1 0 21:39 25.08.2019
3044 Rain 17 1023 82 10000 2.1 90 21:19 25.08.2019
3045 Rain 17 1023 82 10000 2.6 40 20:55 25.08.2019
3046 Rain 17 1023 82 10000 2.6 40 20:55 25.08.2019
3047 Rain 17 1023 82 10000 2.6 40 20:36 25.08.2019
3048 Rain 17 1023 77 10000 3.1 100 20:18 25.08.2019
3049 Rain 17 1022 88 10000 3.1 90 19:40 25.08.2019
3050 Rain 18 1021 77 10000 2.6 120 19:21 25.08.2019
3051 Rain 18 1020 53 10000 2.6 0 18:59 25.08.2019
3052 Rain 18 1020 53 10000 2.6 0 18:59 25.08.2019
3053 Clouds 19 1019 50 10000 3.6 140 18:40 25.08.2019
3054 Clouds 21 1019 50 10000 3.6 140 18:22 25.08.2019
3055 Clouds 22 1019 54 10000 1 0 17:56 25.08.2019
3056 Clouds 23 1019 54 10000 1 0 17:38 25.08.2019
3057 Clouds 23 1019 57 10000 1 0 17:19 25.08.2019
3058 Clouds 22 1019 61 10000 1.5 10 16:40 25.08.2019
3059 Thunderstorm 24 1019 50 10000 4.1 10 16:22 25.08.2019
3060 Clouds 25 1019 47 10000 2.6 0 15:47 25.08.2019
3061 Clouds 24 1019 47 10000 0.5 0 15:26 25.08.2019
3062 Clouds 25 1019 57 10000 1.5 270 14:56 25.08.2019
3063 Clouds 24 1019 57 10000 1.5 270 14:38 25.08.2019
3064 Clouds 24 1019 54 10000 1.5 0 14:19 25.08.2019
3065 Clouds 23 1020 50 10000 1 0 13:43 25.08.2019
3066 Clouds 23 1020 57 10000 1 0 13:21 25.08.2019
3067 Clouds 23 1020 60 10000 1.5 220 12:54 25.08.2019
3068 Clouds 24 1020 60 10000 1.5 220 12:36 25.08.2019
3069 Clouds 21 1021 64 10000 2.6 280 12:18 25.08.2019
3070 Clouds 20 1021 68 10000 3.1 260 11:54 25.08.2019
3071 Clouds 20 1021 68 10000 3.1 260 11:36 25.08.2019
3072 Clouds 20 1021 68 10000 2.1 270 11:18 25.08.2019
3073 Clouds 21 1022 77 10000 2.1 300 10:40 25.08.2019
3074 Clouds 19 1022 77 10000 3.1 260 10:20 25.08.2019
3075 Clouds 20 1022 77 10000 1.5 260 09:56 25.08.2019
3076 Clouds 20 1022 77 10000 1.5 260 09:37 25.08.2019
3077 Clear 15 1018 87 0 1.69 191.23 09:19 25.08.2019
3078 Clouds 15 1022 88 10000 1 0 08:42 25.08.2019
3079 Clouds 14 1022 88 10000 0.5 0 08:21 25.08.2019
3080 Clouds 14 1022 100 10000 0.5 0 07:35 25.08.2019
3081 Clouds 14 1022 93 10000 0.5 0 06:51 25.08.2019
3082 Clouds 14 1021 93 10000 1 170 06:22 25.08.2019
3083 Clouds 14 1021 87 10000 1 0 04:41 25.08.2019
3084 Clouds 15 1021 88 10000 1 0 03:31 25.08.2019
3085 Clouds 15 1022 88 10000 1 290 02:39 25.08.2019
3086 Clouds 15 1022 88 10000 2.1 260 01:28 25.08.2019
3087 Clouds 16 1021 82 10000 2.1 230 00:40 25.08.2019
3088 Rain 16 1022 82 10000 2.1 270 00:20 25.08.2019
3089 Rain 16 1022 82 10000 1.5 240 23:51 24.08.2019
3090 Rain 16 1022 82 10000 1 0 23:22 24.08.2019
3091 Clouds 16 1022 82 10000 1.5 110 22:55 24.08.2019
3092 Clouds 16 1022 82 10000 1.5 110 22:37 24.08.2019
3093 Thunderstorm 17 1023 82 10000 1.5 140 22:19 24.08.2019
3094 Clouds 17 1022 77 10000 3.1 70 21:55 24.08.2019
3095 Clouds 17 1022 77 10000 3.1 70 21:37 24.08.2019
3096 Clouds 17 1022 77 10000 3.1 70 21:37 24.08.2019
3097 Clouds 18 1022 73 10000 2.1 80 21:18 24.08.2019
3098 Clouds 17 1021 73 10000 1.5 0 20:54 24.08.2019
3099 Clouds 17 1021 73 10000 1.5 0 20:36 24.08.2019
3100 Clouds 18 1021 73 10000 0.5 0 20:18 24.08.2019
3101 Clouds 19 1020 60 10000 2.6 80 19:41 24.08.2019
3102 Clouds 19 1020 60 10000 2.6 80 19:22 24.08.2019
3103 Clouds 20 1020 64 10000 1 0 18:59 24.08.2019
3104 Clouds 19 1020 64 10000 1 0 18:39 24.08.2019
3105 Thunderstorm 21 1020 53 10000 2.1 30 18:20 24.08.2019
3106 Clouds 23 1020 57 10000 3.6 90 17:44 24.08.2019
3107 Thunderstorm 23 1019 53 10000 5.7 70 17:24 24.08.2019
3108 Thunderstorm 24 1019 47 10000 6.2 80 16:48 24.08.2019
3109 Clouds 26 1019 54 10000 5.7 70 16:21 24.08.2019
3110 Clouds 25 1019 54 10000 3.1 70 15:58 24.08.2019
3111 Clouds 25 1019 54 10000 3.1 70 15:40 24.08.2019
3112 Clouds 26 1019 44 10000 0.5 0 15:22 24.08.2019
3113 Clouds 25 1019 54 10000 2.1 270 14:43 24.08.2019
3114 Clouds 25 1019 50 10000 3.6 280 14:22 24.08.2019
3115 Clouds 25 1020 50 10000 3.6 270 13:56 24.08.2019
3116 Clouds 25 1020 50 10000 3.6 270 13:37 24.08.2019
3117 Clouds 24 1020 53 10000 4.6 270 13:19 24.08.2019
3118 Clouds 24 1020 57 10000 5.1 260 12:42 24.08.2019
3119 Clouds 23 1021 60 10000 5.7 260 12:24 24.08.2019
3120 Clouds 22 1021 64 10000 5.7 260 11:58 24.08.2019
3121 Clouds 22 1021 64 10000 5.7 260 11:39 24.08.2019
3122 Clouds 22 1022 68 10000 5.1 270 11:20 24.08.2019
3123 Clouds 21 1022 73 10000 4.1 270 10:49 24.08.2019
3124 Clouds 20 1022 77 10000 4.6 270 10:24 24.08.2019
3125 Clouds 19 1022 77 10000 3.6 260 09:45 24.08.2019
3126 Clouds 17 1022 88 10000 4.1 270 09:21 24.08.2019
3127 Clouds 16 1023 88 10000 1 0 08:58 24.08.2019
3128 Clouds 16 1023 88 10000 1 0 08:39 24.08.2019
3129 Clouds 16 1023 93 10000 1 0 08:21 24.08.2019
3130 Clouds 16 1023 100 10000 0.5 0 07:49 24.08.2019
3131 Clouds 15 1023 100 10000 1 0 07:26 24.08.2019
3132 Clouds 15 1023 100 10000 1 0 06:29 24.08.2019
3133 Mist 14 1023 100 5000 0.5 0 05:42 24.08.2019
3134 Mist 15 1023 93 4900 0.5 0 04:46 24.08.2019
3135 Clouds 15 1023 93 8000 1 0 03:37 24.08.2019
3136 Clouds 16 1023 93 10000 1 10 02:27 24.08.2019
3137 Clouds 17 1023 88 10000 0.5 0 01:31 24.08.2019
3138 Clouds 18 1023 93 10000 1 0 00:54 24.08.2019
3139 Clouds 18 1023 93 10000 1 0 00:26 24.08.2019
3140 Clouds 17 1023 93 10000 1.5 10 23:59 23.08.2019
3141 Clouds 17 1023 93 10000 1.5 10 23:39 23.08.2019
3142 Clouds 17 1023 93 10000 1 0 23:19 23.08.2019
3143 Clouds 18 1023 93 10000 0.5 0 22:42 23.08.2019
3144 Clouds 19 1024 88 10000 0.78 180.439 22:24 23.08.2019
3145 Clouds 19 1024 88 10000 0.5 0 21:41 23.08.2019
3146 Clouds 19 1024 88 10000 0.5 0 21:23 23.08.2019
3147 Clouds 19 1023 88 10000 0.5 0 20:59 23.08.2019
3148 Clouds 19 1023 88 10000 0.5 0 20:40 23.08.2019
3149 Clouds 19 1023 88 10000 1 0 20:21 23.08.2019
3150 Clouds 20 1023 82 10000 1 0 19:44 23.08.2019
3151 Clouds 19 1023 77 10000 1 0 19:19 23.08.2019
3152 Clouds 20 1023 77 10000 1.5 240 18:49 23.08.2019
3153 Clouds 20 1023 77 10000 1.5 90 18:31 23.08.2019
3154 Clouds 20 1023 82 10000 4.6 50 17:58 23.08.2019
3155 Rain 20 1023 82 10000 4.6 50 17:39 23.08.2019
3156 Rain 20 1023 82 10000 5.7 100 17:20 23.08.2019
3157 Rain 21 1023 68 10000 4.6 80 16:48 23.08.2019
3158 Rain 21 1023 64 10000 3.1 110 16:29 23.08.2019
3159 Rain 21 1023 64 10000 4.1 90 15:57 23.08.2019
3160 Rain 21 1023 64 10000 4.1 90 15:37 23.08.2019
3161 Clouds 22 1023 60 10000 3.6 110 15:19 23.08.2019
3162 Clouds 21 1023 60 10000 2.6 70 14:42 23.08.2019
3163 Clouds 21 1024 64 10000 3.6 70 14:21 23.08.2019
3164 Clouds 20 1024 68 10000 2.6 60 13:58 23.08.2019
3165 Clouds 20 1024 68 10000 2.6 60 13:40 23.08.2019
3166 Clouds 20 1024 68 10000 3.1 60 13:22 23.08.2019
3167 Clouds 21 1025 72 10000 1.5 90 12:58 23.08.2019
3168 Clouds 19 1025 72 10000 1.5 90 12:40 23.08.2019
3169 Clouds 18 1025 72 10000 1 0 12:21 23.08.2019
3170 Clouds 18 1025 77 10000 1 0 11:56 23.08.2019
3171 Clouds 18 1025 77 10000 1 0 11:37 23.08.2019
3172 Clouds 18 1026 77 10000 1 0 11:18 23.08.2019
3173 Clouds 18 1026 77 10000 0.5 0 10:43 23.08.2019
3174 Clouds 17 1026 82 10000 1 0 10:22 23.08.2019
3175 Clouds 16 1026 88 10000 1.5 50 09:57 23.08.2019
3176 Clouds 16 1026 88 10000 1.5 50 09:39 23.08.2019
3177 Clouds 15 1026 88 10000 1 0 09:20 23.08.2019
3178 Clouds 15 1026 88 10000 0.5 0 08:43 23.08.2019
3179 Clouds 15 1026 88 10000 1.14 171.499 08:19 23.08.2019
3180 Clouds 15 1026 88 10000 1.14 171.499 07:43 23.08.2019
3181 Clouds 14 1026 87 10000 0.5 0 07:24 23.08.2019
3182 Clouds 14 1026 87 10000 0.5 0 07:24 23.08.2019
3183 Clouds 14 1026 87 10000 0.5 0 07:24 23.08.2019
3184 Clouds 14 1026 87 10000 1 0 06:58 23.08.2019
3185 Clouds 14 1026 87 10000 1 0 06:39 23.08.2019
3186 Clouds 14 1026 87 10000 0.5 0 06:20 23.08.2019
3187 Clouds 13 1026 93 10000 0.5 0 05:42 23.08.2019
3188 Clouds 13 1026 87 10000 0.5 0 05:21 23.08.2019
3189 Clouds 14 1026 82 10000 1 0 03:22 23.08.2019
3190 Clouds 14 1026 82 10000 1 290 02:23 23.08.2019
3191 Clouds 14 1026 82 10000 0.5 0 01:40 23.08.2019
3192 Clouds 14 1026 82 10000 0.5 0 00:45 23.08.2019
3193 Clouds 14 1026 82 10000 1 0 00:21 23.08.2019
3194 Clouds 14 1026 82 10000 1 0 23:49 22.08.2019
3195 Clouds 15 1026 82 10000 1 0 23:31 22.08.2019
3196 Clouds 15 1026 82 10000 1 0 22:58 22.08.2019
3197 Clouds 15 1026 82 10000 1 0 22:40 22.08.2019
3198 Clouds 15 1026 82 10000 1.5 50 22:21 22.08.2019
3199 Clouds 15 1026 82 10000 3.1 60 21:56 22.08.2019
3200 Clouds 15 1026 82 10000 3.1 60 21:37 22.08.2019
3201 Clouds 16 1025 77 10000 3.1 60 21:19 22.08.2019
3202 Clouds 17 1025 72 10000 4.6 70 20:56 22.08.2019
3203 Clouds 17 1025 72 10000 4.6 70 20:38 22.08.2019
3204 Clouds 18 1024 77 10000 4.1 80 20:18 22.08.2019
3205 Clouds 17 1023 72 10000 5.1 80 19:54 22.08.2019
3206 Clouds 17 1023 72 10000 5.1 80 19:54 22.08.2019
3207 Clouds 17 1023 72 10000 5.1 80 19:36 22.08.2019
3208 Clouds 18 1023 73 10000 5.1 70 19:18 22.08.2019
3209 Clouds 18 1023 64 10000 4.1 100 18:55 22.08.2019
3210 Clouds 18 1023 64 10000 4.1 100 18:36 22.08.2019
3211 Clouds 19 1023 64 10000 5.7 60 18:18 22.08.2019
3212 Clouds 19 1023 57 10000 4.1 80 17:41 22.08.2019
3213 Clouds 20 1022 57 10000 3.6 80 17:21 22.08.2019
3214 Clouds 20 1022 60 10000 3.6 90 16:57 22.08.2019
3215 Clouds 20 1022 60 10000 3.6 90 16:39 22.08.2019
3216 Clouds 20 1023 60 10000 3.1 70 16:20 22.08.2019
3217 Clouds 20 1023 60 10000 3.1 70 16:20 22.08.2019
3218 Clouds 20 1023 60 10000 3.1 70 16:20 22.08.2019
3219 Clouds 20 1023 60 10000 3.1 80 15:56 22.08.2019
3220 Clouds 20 1023 60 10000 3.1 80 15:56 22.08.2019
3221 Clouds 19 1023 60 10000 3.1 80 15:37 22.08.2019
3222 Clouds 20 1023 64 10000 3.6 70 15:18 22.08.2019
3223 Clouds 20 1023 64 10000 3.6 70 15:18 22.08.2019
3224 Clouds 20 1023 64 10000 3.6 70 15:18 22.08.2019
3225 Clouds 20 1023 64 10000 3.6 70 15:18 22.08.2019
3226 Clouds 20 1023 64 10000 3.6 70 15:18 22.08.2019
3227 Clouds 20 1023 64 10000 2.6 80 14:41 22.08.2019
3228 Clouds 20 1023 64 10000 3.1 110 14:22 22.08.2019
3229 Clouds 19 1024 64 10000 2.6 110 13:59 22.08.2019
3230 Clouds 20 1024 64 10000 2.6 110 13:41 22.08.2019
3231 Clouds 19 1024 68 10000 3.1 90 13:21 22.08.2019
3232 Clouds 19 1025 72 10000 2.6 90 12:57 22.08.2019
3233 Clouds 18 1025 72 10000 2.6 90 12:38 22.08.2019
3234 Clouds 18 1025 72 10000 2.1 70 12:19 22.08.2019
3235 Clouds 17 1025 72 10000 0.5 0 11:42 22.08.2019
3236 Clouds 17 1025 72 10000 0.5 0 11:42 22.08.2019
3237 Clouds 17 1025 72 10000 1 0 11:21 22.08.2019
3238 Clouds 17 1025 82 10000 0.5 0 10:58 22.08.2019
3239 Clouds 17 1025 82 10000 0.5 0 10:40 22.08.2019
3240 Clouds 16 1025 82 10000 0.5 0 10:22 22.08.2019
3241 Clouds 17 1025 87 10000 1 0 09:57 22.08.2019
3242 Clouds 17 1025 87 10000 0.5 0 09:39 22.08.2019
3243 Clouds 14 1025 87 10000 0.5 0 09:20 22.08.2019
3244 Clouds 14 1025 93 10000 0.5 0 08:56 22.08.2019
3245 Clouds 13 1025 93 10000 0.5 0 08:38 22.08.2019
3246 Clouds 13 1025 93 10000 1 0 08:19 22.08.2019
3247 Clouds 13 1025 93 10000 0.5 0 07:39 22.08.2019
3248 Clouds 13 1025 93 10000 0.5 0 07:19 22.08.2019
3249 Clouds 13 1025 100 10000 1 170 06:52 22.08.2019
3250 Clouds 12 1025 93 10000 0.5 0 06:24 22.08.2019
3251 Clouds 11 1025 100 10000 1 0 05:40 22.08.2019
3252 Clouds 12 1025 100 10000 0.5 0 04:28 22.08.2019
3253 Clouds 13 1026 93 10000 2.1 270 02:47 22.08.2019
3254 Clouds 13 1026 93 10000 1.5 300 02:29 22.08.2019
3255 Clouds 13 1027 93 10000 1 0 01:22 22.08.2019
3256 Clouds 13 1027 87 10000 1.5 190 00:44 22.08.2019
3257 Clouds 14 1027 87 10000 2.6 100 00:25 22.08.2019
3258 Rain 14 1027 93 10000 4.1 60 23:50 21.08.2019
3259 Rain 14 1027 93 10000 2.1 140 23:30 21.08.2019
3260 Rain 15 1028 93 10000 2.1 290 22:59 21.08.2019
3261 Rain 15 1028 93 10000 2.1 290 22:41 21.08.2019
3262 Rain 15 1028 93 10000 2.1 290 22:41 21.08.2019
3263 Clouds 15 1027 87 10000 1 0 22:21 21.08.2019
3264 Clouds 15 1027 87 10000 0.5 0 21:58 21.08.2019
3265 Clouds 15 1027 87 10000 0.5 0 21:38 21.08.2019
3266 Clouds 15 1027 82 10000 1 0 21:20 21.08.2019
3267 Rain 15 1026 72 10000 1 0 20:58 21.08.2019
3268 Rain 15 1026 72 10000 1 0 20:40 21.08.2019
3269 Clouds 15 1026 72 10000 2.6 90 20:22 21.08.2019
3270 Clouds 15 1026 72 10000 2.1 90 19:55 21.08.2019
3271 Clouds 15 1026 72 10000 2.1 90 19:36 21.08.2019
3272 Clouds 16 1026 72 10000 2.1 80 19:18 21.08.2019
3273 Clouds 16 1026 68 10000 2.6 60 18:41 21.08.2019
3274 Clouds 16 1026 68 10000 3.6 70 18:22 21.08.2019
3275 Clouds 16 1026 68 10000 3.1 80 17:45 21.08.2019
3276 Clouds 16 1026 68 10000 2.6 90 17:25 21.08.2019
3277 Clouds 17 1026 72 10000 3.1 70 16:59 21.08.2019
3278 Clouds 17 1026 72 10000 3.1 70 16:40 21.08.2019
3279 Clouds 17 1026 63 10000 2.6 80 16:21 21.08.2019
3280 Clouds 17 1026 63 10000 3.1 110 15:58 21.08.2019
3281 Clouds 17 1026 63 10000 3.1 110 15:40 21.08.2019
3282 Clouds 16 1027 63 10000 2.6 100 15:20 21.08.2019
3283 Clouds 16 1027 63 10000 3.1 90 14:57 21.08.2019
3284 Clouds 16 1027 63 10000 3.1 90 14:38 21.08.2019
3285 Clouds 16 1027 63 10000 3.1 90 14:20 21.08.2019
3286 Clouds 16 1027 63 10000 3.1 90 14:20 21.08.2019
3287 Clouds 16 1027 68 10000 2.6 70 13:45 21.08.2019
3288 Clouds 16 1027 68 10000 3.1 50 13:22 21.08.2019
3289 Clouds 16 1028 63 10000 3.1 110 12:59 21.08.2019
3290 Clouds 15 1028 63 10000 3.1 110 12:40 21.08.2019
3291 Clouds 15 1028 72 10000 1 0 12:21 21.08.2019
3292 Clouds 14 1028 77 10000 1 0 11:58 21.08.2019
3293 Clouds 14 1028 77 10000 1 0 11:39 21.08.2019
3294 Clouds 14 1028 77 10000 1 0 11:39 21.08.2019
3295 Clouds 14 1028 77 10000 1 0 11:21 21.08.2019
3296 Clouds 13 1028 82 10000 1.5 150 10:56 21.08.2019
3297 Clouds 14 1028 82 10000 1.5 150 10:37 21.08.2019
3298 Clouds 14 1028 82 10000 1.5 0 10:19 21.08.2019
3299 Clouds 13 1028 82 10000 1 0 09:43 21.08.2019
3300 Clouds 12 1028 87 10000 1.5 0 09:24 21.08.2019
3301 Clouds 12 1028 93 10000 2.6 60 08:59 21.08.2019
3302 Clouds 12 1028 93 10000 2.6 60 08:41 21.08.2019
3303 Clouds 12 1028 93 10000 1 0 08:23 21.08.2019
3304 Rain 12 1028 93 10000 1.5 100 07:41 21.08.2019
3305 Rain 12 1028 93 10000 1.5 110 07:22 21.08.2019
3306 Rain 12 1028 93 10000 1 0 06:49 21.08.2019
3307 Rain 12 1028 93 10000 2.1 60 06:23 21.08.2019
3308 Rain 12 1028 100 10000 1 0 05:42 21.08.2019
3309 Rain 12 1028 100 7000 1.5 150 05:23 21.08.2019
3310 Rain 12 1028 93 10000 3.1 260 03:39 21.08.2019
3311 Clouds 13 1027 93 10000 2.6 110 01:50 21.08.2019
3312 Rain 13 1027 93 4300 1 0 00:46 21.08.2019
3313 Rain 13 1027 93 7000 1 0 00:24 21.08.2019
3314 Rain 13 1026 87 7000 3.6 260 23:59 20.08.2019
3315 Rain 13 1026 87 7000 3.6 260 23:41 20.08.2019
3316 Rain 13 1026 93 10000 2.6 270 23:19 20.08.2019
3317 Rain 13 1020 100 0 1.34 113 22:56 20.08.2019
3318 Rain 13 1021 87 0 3.13 303 22:37 20.08.2019
3319 Rain 13 1019 100 0 1.34 68 22:19 20.08.2019
3320 Rain 14 1024 94 0 0.89 57 21:57 20.08.2019
3321 Clouds 15 1023 63 10000 3.1 290 21:37 20.08.2019
3322 Rain 15 1018 100 0 0.89 90 21:19 20.08.2019
3323 Clouds 16 1022 72 10000 1 0 20:43 20.08.2019
3324 Clouds 15 1021 77 10000 1 0 20:24 20.08.2019
3325 Clouds 16 1021 77 10000 1 0 19:58 20.08.2019
3326 Clouds 16 1021 77 10000 1 0 19:38 20.08.2019
3327 Clouds 16 1020 77 10000 0.5 0 19:20 20.08.2019
3328 Clouds 17 1020 64 10000 0.5 0 18:55 20.08.2019
3329 Clouds 17 1020 64 10000 0.5 0 18:37 20.08.2019
3330 Clouds 17 1020 64 10000 1 0 18:18 20.08.2019
3331 Clouds 19 1020 64 10000 1 0 17:39 20.08.2019
3332 Clouds 20 1020 64 10000 1 0 17:21 20.08.2019
3333 Clouds 22 1020 64 10000 1 0 16:58 20.08.2019
3334 Clouds 22 1020 68 10000 1 0 16:40 20.08.2019
3335 Clouds 20 1020 68 10000 1 0 16:22 20.08.2019
3336 Clouds 19 1020 73 10000 2.1 50 15:41 20.08.2019
3337 Clouds 19 1020 73 10000 2.1 50 15:18 20.08.2019
3338 Clouds 19 1021 77 10000 1 0 14:56 20.08.2019
3339 Clouds 18 1021 82 10000 1 0 14:37 20.08.2019
3340 Clouds 18 1021 82 10000 1 0 14:18 20.08.2019
3341 Clouds 18 1021 88 10000 2.1 60 13:54 20.08.2019
3342 Clouds 18 1021 88 10000 2.6 80 13:36 20.08.2019
3343 Rain 18 1021 88 10000 2.1 80 13:18 20.08.2019
3344 Rain 18 1022 82 10000 0.5 0 12:44 20.08.2019
3345 Rain 18 1022 82 10000 0.5 0 12:23 20.08.2019
3346 Rain 17 1022 82 10000 0.5 0 11:55 20.08.2019
3347 Rain 18 1022 93 10000 0.5 0 11:37 20.08.2019
3348 Rain 17 1022 93 10000 0.5 0 11:18 20.08.2019
3349 Rain 17 1022 88 10000 2.1 290 10:55 20.08.2019
3350 Rain 17 1021 88 10000 4.1 260 10:37 20.08.2019
3351 Clouds 17 1021 88 10000 4.1 260 10:18 20.08.2019
3352 Clouds 17 1021 93 10000 3.1 270 09:40 20.08.2019
3353 Clouds 16 1021 93 10000 1.5 280 09:21 20.08.2019
3354 Clouds 16 1021 88 10000 0.5 0 08:42 20.08.2019
3355 Clouds 16 1021 88 10000 0.5 0 08:24 20.08.2019
3356 Clouds 16 1021 93 10000 2.1 60 07:58 20.08.2019
3357 Clouds 16 1021 93 10000 1 0 07:39 20.08.2019
3358 Clouds 16 1022 93 10000 0.5 0 07:20 20.08.2019
3359 Rain 15 1022 93 10000 2.1 250 06:46 20.08.2019
3360 Rain 15 1022 93 10000 2.1 250 06:46 20.08.2019
3361 Rain 15 1022 93 10000 2.1 250 06:21 20.08.2019
3362 Clouds 16 1022 93 10000 1 130 05:47 20.08.2019
3363 Clouds 16 1022 88 10000 1 0 04:30 20.08.2019
3364 Clouds 15 1022 93 10000 1 0 02:58 20.08.2019
3365 Clouds 15 1022 93 10000 1.5 310 02:18 20.08.2019
3366 Clouds 15 1022 93 10000 1 270 01:21 20.08.2019
3367 Clouds 15 1022 93 10000 1 0 00:45 20.08.2019
3368 Clouds 16 1022 93 10000 1 0 00:25 20.08.2019
3369 Clouds 16 1022 93 10000 1 0 23:50 19.08.2019
3370 Clouds 16 1021 93 10000 1 0 23:19 19.08.2019
3371 Clouds 16 1021 93 10000 1 0 22:59 19.08.2019
3372 Clouds 16 1021 93 10000 1 270 22:41 19.08.2019
3373 Clouds 16 1021 93 10000 1 270 22:21 19.08.2019
3374 Rain 16 1021 88 10000 1.5 200 21:57 19.08.2019
3375 Rain 16 1021 88 10000 1.5 200 21:57 19.08.2019
3376 Rain 17 1021 88 10000 2.1 100 21:38 19.08.2019
3377 Rain 17 1021 88 10000 2.1 100 21:38 19.08.2019
3378 Rain 18 1021 88 10000 2.1 100 21:19 19.08.2019
3379 Rain 18 1021 82 10000 2.6 320 20:55 19.08.2019
3380 Rain 18 1020 82 10000 8.7 240 20:37 19.08.2019
3381 Rain 18 1020 82 10000 8.7 240 20:19 19.08.2019
3382 Rain 21 1019 77 10000 3.1 260 19:54 19.08.2019
3383 Rain 22 1019 77 10000 3.1 260 19:36 19.08.2019
3384 Clouds 22 1018 68 10000 2.6 30 19:18 19.08.2019
3385 Clouds 23 1018 64 10000 1.5 90 18:41 19.08.2019
3386 Clouds 22 1018 60 10000 2.6 70 18:22 19.08.2019
3387 Clouds 21 1018 60 10000 2.6 70 17:57 19.08.2019
3388 Clouds 21 1018 60 10000 3.1 110 17:38 19.08.2019
3389 Clouds 21 1019 64 10000 3.6 100 17:19 19.08.2019
3390 Clouds 22 1019 64 10000 3.6 100 16:54 19.08.2019
3391 Clouds 22 1019 64 10000 3.6 100 16:36 19.08.2019
3392 Clouds 22 1019 68 10000 3.1 80 16:18 19.08.2019
3393 Clouds 20 1019 68 10000 3.1 100 15:44 19.08.2019
3394 Clouds 20 1020 68 10000 3.1 110 15:19 19.08.2019
3395 Clouds 20 1020 73 10000 2.1 130 14:44 19.08.2019
3396 Clouds 19 1020 77 10000 3.1 60 14:24 19.08.2019
3397 Clouds 19 1020 77 10000 3.1 60 13:59 19.08.2019
3398 Clouds 20 1020 77 10000 3.1 60 13:40 19.08.2019
3399 Clouds 19 1020 77 10000 4.1 110 13:21 19.08.2019
3400 Clouds 18 1020 82 10000 3.6 90 12:58 19.08.2019
3401 Clouds 18 1020 82 10000 3.6 90 12:40 19.08.2019
3402 Clouds 18 1020 82 10000 3.6 70 12:20 19.08.2019
3403 Clouds 18 1021 88 10000 2.6 70 11:42 19.08.2019
3404 Rain 18 1021 88 10000 1 70 11:24 19.08.2019
3405 Rain 17 1021 88 10000 0.5 0 10:59 19.08.2019
3406 Rain 18 1021 88 10000 0.5 0 10:39 19.08.2019
3407 Rain 17 1021 88 10000 1 0 10:19 19.08.2019
3408 Rain 17 1021 88 10000 1 0 09:54 19.08.2019
3409 Rain 17 1020 88 10000 0.5 0 09:36 19.08.2019
3410 Rain 17 1020 88 10000 0.5 0 09:18 19.08.2019
3411 Rain 17 1020 82 10000 1 0 08:42 19.08.2019
3412 Rain 17 1019 88 10000 2.6 40 08:22 19.08.2019
3413 Rain 17 1018 77 10000 2.6 40 07:54 19.08.2019
3414 Clouds 17 1018 68 10000 1.5 150 07:34 19.08.2019
3415 Clouds 17 1017 68 10000 0.5 0 06:59 19.08.2019
3416 Clouds 17 1017 77 10000 1.5 220 06:36 19.08.2019
3417 Clouds 17 1017 77 10000 1.5 220 06:36 19.08.2019
3418 Clouds 17 1017 82 10000 1 0 05:27 19.08.2019
3419 Clouds 17 1016 77 10000 1 180 04:33 19.08.2019
3420 Clouds 18 1016 77 10000 1.5 280 03:26 19.08.2019
3421 Clouds 18 1015 72 10000 4.1 270 02:30 19.08.2019
3422 Clouds 18 1015 72 10000 1.5 0 01:37 19.08.2019
3423 Rain 18 1014 60 10000 2.6 0 00:47 19.08.2019
3424 Rain 18 1011 88 0 1.7 186.674 00:23 19.08.2019
3425 Rain 19 1010 87 0 1.7 186.674 23:56 18.08.2019
3426 Rain 20 1013 47 10000 1.5 0 23:36 18.08.2019
3427 Clouds 21 1013 47 10000 3.1 0 23:18 18.08.2019
3428 Clouds 21 1013 44 10000 3.1 110 22:40 18.08.2019
3429 Clouds 21 1013 44 10000 5.7 100 22:21 18.08.2019
3430 Clouds 22 1013 44 10000 3.6 0 21:57 18.08.2019
3431 Clouds 27 1013 44 10000 3.6 0 21:38 18.08.2019
3432 Clouds 28 1012 39 10000 3.1 0 21:20 18.08.2019
3433 Clouds 28 1012 42 10000 3.1 0 20:45 18.08.2019
3434 Clouds 28 1012 42 10000 3.1 0 20:45 18.08.2019
3435 Clouds 28 1012 42 10000 3.1 0 20:45 18.08.2019
3436 Clouds 28 1012 42 10000 3.1 70 20:26 18.08.2019
3437 Clouds 29 1012 39 10000 3.1 80 19:59 18.08.2019
3438 Clouds 29 1012 39 10000 3.1 80 19:41 18.08.2019
3439 Clouds 28 1012 45 10000 4.1 30 19:23 18.08.2019
3440 Clouds 29 1011 39 10000 4.1 70 18:56 18.08.2019
3441 Clouds 29 1011 39 10000 4.1 70 18:38 18.08.2019
3442 Clouds 30 1011 37 10000 3.1 90 18:20 18.08.2019
3443 Clouds 31 1011 35 10000 4.1 60 17:44 18.08.2019
3444 Clouds 30 1011 35 10000 5.1 60 17:19 18.08.2019
3445 Clouds 31 1011 35 10000 4.6 70 16:59 18.08.2019
3446 Clouds 31 1011 35 10000 4.6 70 16:41 18.08.2019
3447 Clouds 31 1011 38 10000 4.6 70 16:21 18.08.2019
3448 Clouds 30 1011 37 10000 5.7 70 15:59 18.08.2019
3449 Clouds 29 1011 37 10000 5.7 70 15:39 18.08.2019
3450 Clouds 29 1012 45 10000 4.1 90 15:20 18.08.2019
3451 Clouds 29 1012 45 10000 4.1 90 15:20 18.08.2019
3452 Clouds 28 1012 48 10000 3.1 60 14:56 18.08.2019
3453 Clouds 28 1012 48 10000 3.1 60 14:38 18.08.2019
3454 Clouds 28 1013 45 10000 1 0 14:19 18.08.2019
3455 Clouds 27 1013 44 10000 1.5 0 13:55 18.08.2019
3456 Clouds 27 1013 44 10000 1.5 0 13:36 18.08.2019
3457 Clear 26 1013 47 10000 1 0 13:18 18.08.2019
3458 Clear 26 1014 54 10000 0.5 0 12:41 18.08.2019
3459 Clear 25 1014 50 10000 1.5 290 12:22 18.08.2019
3460 Clear 24 1014 57 10000 2.6 260 11:55 18.08.2019
3461 Clear 24 1014 57 10000 2.6 260 11:36 18.08.2019
3462 Clear 23 1015 56 10000 3.1 270 11:18 18.08.2019
3463 Clear 22 1015 56 10000 2.6 270 10:41 18.08.2019
3464 Clear 21 1016 64 10000 3.6 270 10:21 18.08.2019
3465 Clear 19 1016 72 10000 3.1 260 09:51 18.08.2019
3466 Clear 18 1016 77 10000 1.5 280 09:23 18.08.2019
3467 Clear 17 1016 82 10000 2.1 260 08:55 18.08.2019
3468 Clear 16 1016 87 10000 2.1 280 08:37 18.08.2019
3469 Clear 16 1016 87 10000 2.1 280 08:18 18.08.2019
3470 Clear 15 1016 87 10000 2.1 260 07:44 18.08.2019
3471 Clear 14 1016 93 10000 0.5 0 07:25 18.08.2019
3472 Clouds 15 1016 87 10000 1.5 230 05:48 18.08.2019
3473 Clouds 15 1016 87 10000 1.5 270 04:53 18.08.2019
3474 Clouds 17 1016 82 10000 0.5 0 03:41 18.08.2019
3475 Clouds 17 1016 88 10000 1 0 02:46 18.08.2019
3476 Clouds 17 1016 88 10000 1.5 260 02:23 18.08.2019
3477 Clouds 18 1016 77 10000 1 160 01:31 18.08.2019
3478 Clouds 18 1016 82 10000 1 0 00:59 18.08.2019
3479 Clouds 18 1016 82 10000 1 0 00:38 18.08.2019
3480 Clouds 18 1016 82 10000 1.5 270 00:18 18.08.2019
3481 Clouds 18 1016 82 10000 1 0 23:56 17.08.2019
3482 Clouds 18 1016 82 10000 1 0 23:37 17.08.2019
3483 Clouds 18 1016 77 10000 1 0 23:18 17.08.2019
3484 Clouds 19 1016 77 10000 0.5 0 22:42 17.08.2019
3485 Clouds 19 1016 77 10000 1.5 280 22:23 17.08.2019
3486 Clouds 19 1016 72 10000 0.5 0 21:59 17.08.2019
3487 Clouds 19 1016 72 10000 0.5 0 21:40 17.08.2019
3488 Clouds 19 1016 72 10000 0.5 0 21:40 17.08.2019
3489 Clouds 20 1016 68 10000 0.5 0 21:22 17.08.2019
3490 Clouds 20 1016 72 10000 1 0 20:40 17.08.2019
3491 Clouds 19 1016 68 10000 1 0 20:21 17.08.2019
3492 Clouds 19 1016 68 10000 1 0 20:21 17.08.2019
3493 Clouds 21 1015 68 10000 0.5 0 19:59 17.08.2019
3494 Clouds 21 1015 68 10000 0.5 0 19:39 17.08.2019
3495 Clouds 21 1015 64 10000 1 0 19:20 17.08.2019
3496 Clouds 22 1015 56 10000 1 0 18:41 17.08.2019
3497 Clouds 22 1015 53 10000 1.5 40 18:19 17.08.2019
3498 Clouds 22 1015 50 10000 2.1 90 17:59 17.08.2019
3499 Clouds 23 1015 50 10000 2.1 90 17:41 17.08.2019
3500 Clouds 23 1015 44 10000 2.6 70 17:21 17.08.2019
3501 Clouds 23 1015 44 10000 2.6 70 17:21 17.08.2019
3502 Clouds 23 1015 50 10000 2.1 70 16:55 17.08.2019
3503 Clouds 23 1015 50 10000 2.1 70 16:36 17.08.2019
3504 Clouds 23 1015 50 10000 1.5 60 16:18 17.08.2019
3505 Clouds 23 1016 50 10000 1.5 50 15:41 17.08.2019
3506 Clouds 23 1016 53 10000 1.5 60 15:21 17.08.2019
3507 Clouds 23 1016 47 10000 2.1 60 14:56 17.08.2019
3508 Clouds 22 1016 47 10000 2.1 60 14:36 17.08.2019
3509 Clouds 23 1016 49 10000 2.6 70 14:18 17.08.2019
3510 Clouds 23 1016 49 10000 2.6 90 13:42 17.08.2019
3511 Clouds 23 1017 53 10000 0.5 0 13:19 17.08.2019
3512 Clouds 23 1017 53 10000 1 0 12:42 17.08.2019
3513 Clouds 22 1017 56 10000 1 0 12:19 17.08.2019
3514 Clouds 21 1018 63 10000 1.5 0 11:57 17.08.2019
3515 Clouds 20 1018 63 10000 1.5 0 11:37 17.08.2019
3516 Clouds 20 1018 72 10000 0.5 0 11:19 17.08.2019
3517 Clear 21 1018 72 10000 1 0 10:39 17.08.2019
3518 Clear 19 1019 77 10000 1.5 280 10:20 17.08.2019
3519 Clear 19 1019 82 10000 2.1 280 09:52 17.08.2019
3520 Clear 17 1019 82 10000 1 0 09:32 17.08.2019
3521 Clear 13 1019 87 10000 1 0 08:57 17.08.2019
3522 Clear 13 1019 93 10000 1 0 08:28 17.08.2019
3523 Clear 12 1019 93 10000 1 0 08:28 17.08.2019
3524 Clear 13 1019 87 10000 1.5 260 07:55 17.08.2019
3525 Clear 13 1019 87 10000 1.5 260 07:36 17.08.2019
3526 Clear 11 1019 93 10000 1 0 07:18 17.08.2019
3527 Clouds 10 1019 87 10000 0.5 0 05:57 17.08.2019
3528 Clouds 10 1019 93 10000 0.5 0 04:31 17.08.2019
3529 Clouds 11 1019 93 10000 1.5 270 03:37 17.08.2019
3530 Clouds 11 1019 82 10000 0.5 0 01:59 17.08.2019
3531 Clouds 10 1019 82 10000 0.5 0 01:36 17.08.2019
3532 Clouds 10 1019 82 10000 1 270 01:18 17.08.2019
3533 Clouds 11 1019 87 10000 0.5 0 00:31 17.08.2019
3534 Clouds 13 1019 82 10000 1.5 260 23:57 16.08.2019
3535 Clouds 13 1019 82 10000 1.5 260 23:37 16.08.2019
3536 Clear 14 1019 82 10000 1 0 23:18 16.08.2019
3537 Clear 13 1019 82 10000 1.5 160 22:40 16.08.2019
3538 Clear 14 1018 82 10000 1.5 130 22:19 16.08.2019
3539 Clear 14 1018 77 10000 0.5 0 21:42 16.08.2019
3540 Clear 16 1018 72 10000 1 0 21:22 16.08.2019
3541 Clear 17 1018 68 10000 1 0 20:58 16.08.2019
3542 Clear 17 1018 68 10000 1 0 20:39 16.08.2019
3543 Clouds 18 1017 63 10000 2.1 40 20:19 16.08.2019
3544 Clouds 21 1017 56 10000 2.6 70 19:45 16.08.2019
3545 Clouds 21 1017 56 10000 2.6 70 19:45 16.08.2019
3546 Clouds 20 1017 49 10000 4.6 70 19:24 16.08.2019
3547 Clouds 20 1017 49 10000 4.6 70 19:24 16.08.2019
3548 Clouds 20 1017 49 10000 4.1 80 18:59 16.08.2019
3549 Clouds 22 1017 49 10000 4.1 80 18:41 16.08.2019
3550 Clouds 21 1017 46 10000 4.6 70 18:22 16.08.2019
3551 Clouds 21 1017 46 10000 4.1 50 17:44 16.08.2019
3552 Clouds 21 1017 43 10000 4.1 50 17:25 16.08.2019
3553 Clouds 21 1017 43 10000 4.1 60 16:56 16.08.2019
3554 Clouds 21 1017 43 10000 4.1 60 16:38 16.08.2019
3555 Clouds 21 1017 43 10000 3.1 60 16:18 16.08.2019
3556 Clouds 21 1018 50 10000 1.5 0 15:54 16.08.2019
3557 Clouds 21 1018 50 10000 1.5 0 15:36 16.08.2019
3558 Clouds 21 1018 49 10000 1.5 260 15:18 16.08.2019
3559 Clouds 20 1018 46 10000 1.5 200 14:41 16.08.2019
3560 Clouds 20 1019 46 10000 1.5 0 14:19 16.08.2019
3561 Clouds 20 1019 49 10000 1 0 13:58 16.08.2019
3562 Clouds 20 1019 49 10000 1 0 13:38 16.08.2019
3563 Clouds 19 1020 52 10000 1.5 0 13:19 16.08.2019
3564 Clouds 19 1020 56 10000 1 0 12:39 16.08.2019
3565 Rain 17 1018 61 0 0.97 7.614 12:20 16.08.2019
3566 Rain 16 1018 66 0 0.97 7.614 11:43 16.08.2019
3567 Rain 16 1018 74 0 1.34 351 11:24 16.08.2019
3568 Clouds 15 1022 72 10000 1 0 10:55 16.08.2019
3569 Clouds 15 1022 72 10000 1 0 10:55 16.08.2019
3570 -273 0 0 0 0 0 10:55 16.08.2019
3571 Clouds 17 1022 72 10000 1 0 10:36 16.08.2019
3572 Clouds 16 1022 72 10000 1 0 10:18 16.08.2019
3573 Clouds 15 1022 82 10000 2.1 280 09:38 16.08.2019
3574 Clouds 13 1022 82 10000 1.5 280 09:19 16.08.2019
3575 Clouds 13 1022 82 10000 1.5 330 08:56 16.08.2019
3576 Clouds 13 1022 82 10000 1.5 330 08:38 16.08.2019
3577 Clouds 12 1022 93 10000 1 0 08:18 16.08.2019
3578 Clouds 12 1021 87 10000 0.5 0 07:44 16.08.2019
3579 Clouds 12 1021 93 10000 1 0 07:24 16.08.2019
3580 Rain 12 1021 93 10000 1.5 260 06:34 16.08.2019
3581 Clouds 12 1021 93 10000 0.5 0 05:58 16.08.2019
3582 Clouds 12 1021 93 10000 0.5 0 05:32 16.08.2019
3583 Clouds 12 1020 93 10000 1.5 230 03:19 16.08.2019
3584 Clouds 13 1020 87 10000 1.5 280 01:44 16.08.2019
3585 Rain 13 1020 87 10000 1 0 01:24 16.08.2019
3586 Clouds 13 1020 93 10000 3.1 290 00:43 16.08.2019
3587 Clouds 14 1020 93 10000 1.5 290 00:22 16.08.2019
3588 Clouds 14 1020 93 10000 1.5 240 23:46 15.08.2019
3589 Rain 14 1020 93 10000 2.6 270 23:24 15.08.2019
3590 Clouds 14 1020 93 10000 1 0 22:59 15.08.2019
3591 Clouds 13 1020 93 10000 1 0 22:40 15.08.2019
3592 Clouds 14 1019 93 10000 1.5 320 22:21 15.08.2019
3593 Rain 14 1019 93 10000 2.6 260 21:56 15.08.2019
3594 Rain 14 1019 93 10000 2.6 260 21:38 15.08.2019
3595 Rain 14 1018 93 10000 1 0 21:19 15.08.2019
3596 Rain 15 1018 93 10000 2.1 280 20:44 15.08.2019
3597 Rain 15 1018 93 10000 2.1 220 20:22 15.08.2019
3598 Rain 15 1018 93 10000 1.5 150 19:59 15.08.2019
3599 Rain 15 1018 93 10000 1.5 150 19:39 15.08.2019
3600 Rain 16 1017 77 10000 1 0 19:21 15.08.2019
3601 Rain 16 1016 68 10000 3.1 80 18:47 15.08.2019
3602 Clouds 17 1016 68 10000 4.1 90 18:24 15.08.2019
3603 Clouds 18 1016 56 10000 1.5 0 17:58 15.08.2019
3604 Clouds 18 1016 56 10000 1.5 0 17:38 15.08.2019
3605 Clouds 18 1016 64 10000 2.1 40 17:20 15.08.2019
3606 Clouds 17 1014 73 0 1.34 332 16:58 15.08.2019
3607 Rain 18 1016 68 10000 2.6 0 16:40 15.08.2019
3608 Clouds 18 1016 56 10000 1.5 60 16:21 15.08.2019
3609 Clouds 18 1015 49 10000 2.1 90 15:39 15.08.2019
3610 Clouds 19 1015 49 10000 2.1 90 15:20 15.08.2019
3611 Clouds 20 1015 52 10000 3.6 60 14:57 15.08.2019
3612 Clouds 19 1015 52 10000 3.6 60 14:38 15.08.2019
3613 Clouds 19 1016 52 10000 2.1 70 14:19 15.08.2019
3614 Clouds 19 1016 55 10000 1 0 13:55 15.08.2019
3615 Clouds 19 1016 55 10000 1 0 13:37 15.08.2019
3616 Clouds 19 1016 52 10000 0.5 0 13:19 15.08.2019
3617 Clouds 18 1016 52 10000 1 0 12:40 15.08.2019
3618 Clouds 17 1017 59 10000 0.5 0 12:20 15.08.2019
3619 Clear 17 1017 59 10000 1.5 250 11:58 15.08.2019
3620 Clear 16 1017 59 10000 1.5 250 11:38 15.08.2019
3621 Clear 16 1017 67 10000 1.5 290 11:20 15.08.2019
3622 Clouds 15 1018 72 10000 3.1 280 10:58 15.08.2019
3623 Clouds 17 1018 72 10000 3.1 280 10:37 15.08.2019
3624 Clouds 15 1018 76 10000 3.1 260 10:18 15.08.2019
3625 Clouds 15 1018 82 10000 2.6 270 09:44 15.08.2019
3626 Clear 13 1019 82 10000 2.1 270 09:22 15.08.2019
3627 Clear 12 1019 81 10000 2.6 250 08:39 15.08.2019
3628 Clear 11 1019 87 10000 2.1 280 08:21 15.08.2019
3629 Clear 10 1019 93 10000 1.5 260 07:59 15.08.2019
3630 Clear 10 1019 93 10000 1.5 260 07:40 15.08.2019
3631 Clear 9 1019 93 10000 2.1 280 07:21 15.08.2019
3632 Clear 9 1019 93 10000 1.5 240 06:48 15.08.2019
3633 Clear 8 1019 93 10000 1 0 06:26 15.08.2019
3634 Clear 9 1020 93 10000 1 0 05:39 15.08.2019
3635 Clear 9 1020 87 10000 1.5 260 05:19 15.08.2019
3636 Clear 8 1020 93 10000 1.5 250 04:27 15.08.2019
3637 Clear 10 1020 93 10000 0.5 0 03:26 15.08.2019
3638 Clear 9 1020 87 10000 1 0 02:35 15.08.2019
3639 Clear 8 1020 87 10000 1 0 01:45 15.08.2019
3640 Clear 9 1020 87 10000 0.5 0 00:59 15.08.2019
3641 Clear 11 1020 87 10000 0.5 0 00:37 15.08.2019
3642 Clear 11 1020 76 10000 1.5 140 00:19 15.08.2019
3643 Clear 11 1020 76 10000 1.5 140 00:19 15.08.2019
3644 Clear 12 1020 82 10000 0.5 0 23:56 14.08.2019
3645 Clear 12 1020 82 10000 0.5 0 23:37 14.08.2019
3646 Clouds 13 1020 76 10000 1 0 23:19 14.08.2019
3647 Clouds 12 1020 76 10000 1.5 30 22:42 14.08.2019
3648 Clouds 12 1019 77 10000 0.5 0 22:23 14.08.2019
3649 Clouds 13 1019 72 10000 0.5 0 21:57 14.08.2019
3650 Clouds 14 1019 72 10000 0.5 0 21:39 14.08.2019
3651 Clouds 14 1019 67 10000 1 0 21:21 14.08.2019
3652 Clouds 14 1019 67 10000 1.5 50 20:59 14.08.2019
3653 Clouds 15 1019 67 10000 1.5 50 20:41 14.08.2019
3654 Clouds 16 1018 63 10000 1.5 20 20:19 14.08.2019
3655 Clouds 17 1018 55 10000 3.1 40 19:55 14.08.2019
3656 Clouds 19 1018 55 10000 3.1 40 19:36 14.08.2019
3657 Clouds 19 1018 55 10000 3.1 30 19:18 14.08.2019
3658 Clouds 20 1018 52 10000 4.1 40 18:43 14.08.2019
3659 Clouds 21 1018 40 10000 3.6 60 18:25 14.08.2019
3660 Clouds 21 1018 46 10000 3.6 50 17:59 14.08.2019
3661 Clouds 21 1018 46 10000 3.6 50 17:40 14.08.2019
3662 Clouds 21 1018 43 10000 2.6 100 17:22 14.08.2019
3663 Clouds 21 1018 43 10000 3.1 110 16:58 14.08.2019
3664 Clouds 21 1018 43 10000 3.1 110 16:39 14.08.2019
3665 Clouds 20 1019 42 10000 2.6 0 16:20 14.08.2019
3666 Clouds 20 1019 49 10000 2.6 20 15:43 14.08.2019
3667 Clouds 19 1019 48 10000 3.6 60 15:20 14.08.2019
3668 Clouds 20 1020 56 10000 2.6 0 14:58 14.08.2019
3669 Clouds 20 1020 56 10000 2.6 0 14:39 14.08.2019
3670 Clouds 20 1020 49 10000 3.1 90 14:19 14.08.2019
3671 Clouds 20 1020 49 10000 3.1 90 14:19 14.08.2019
3672 Clouds 19 1020 55 10000 1.5 60 13:44 14.08.2019
3673 Clouds 19 1020 55 10000 1.5 60 13:44 14.08.2019
3674 Clouds 19 1020 55 10000 3.1 160 13:25 14.08.2019
3675 Clouds 18 1020 52 10000 2.6 110 12:59 14.08.2019
3676 Clouds 18 1020 52 10000 2.6 110 12:40 14.08.2019
3677 Clouds 18 1021 52 10000 2.6 140 12:22 14.08.2019
3678 Clouds 18 1021 52 10000 2.6 140 12:22 14.08.2019
3679 Clouds 17 1021 63 10000 2.6 110 11:58 14.08.2019
3680 Clouds 17 1021 63 10000 2.6 110 11:40 14.08.2019
3681 Clouds 17 1021 72 10000 2.6 80 11:21 14.08.2019
3682 Clouds 17 1021 67 10000 2.6 120 10:45 14.08.2019
3683 Clouds 16 1021 72 10000 2.1 90 10:25 14.08.2019
3684 Clouds 16 1021 72 10000 2.1 90 10:25 14.08.2019
3685 Clouds 15 1021 77 10000 2.1 100 09:59 14.08.2019
3686 Clouds 15 1021 77 10000 2.1 100 09:41 14.08.2019
3687 Clouds 14 1021 82 10000 1 0 09:20 14.08.2019
3688 Clouds 14 1021 87 10000 1.5 100 08:41 14.08.2019
3689 Clouds 13 1021 93 10000 1.5 100 08:23 14.08.2019
3690 Clouds 13 1021 93 10000 0.5 0 07:55 14.08.2019
3691 Clouds 13 1021 93 10000 0.5 0 07:34 14.08.2019
3692 Rain 13 1020 93 10000 1 180 06:49 14.08.2019
3693 Rain 13 1020 93 10000 0.5 0 06:23 14.08.2019
3694 Clouds 13 1020 93 10000 0.5 0 05:28 14.08.2019
3695 Clouds 12 1021 100 10000 1 130 03:40 14.08.2019
3696 Clouds 12 1020 100 10000 1 0 02:36 14.08.2019
3697 Clouds 12 1021 100 10000 0.5 0 01:57 14.08.2019
3698 Rain 13 1021 93 10000 0.5 0 01:23 14.08.2019
3699 Drizzle 13 1021 93 10000 0.5 0 00:25 14.08.2019
3700 Clouds 11 1021 93 10000 1 0 23:43 13.08.2019
3701 Clouds 12 1021 93 10000 1 0 23:19 13.08.2019
3702 Clouds 12 1021 93 10000 1 270 22:56 13.08.2019
3703 Clouds 12 1021 93 10000 1 270 22:56 13.08.2019
3704 Clouds 12 1021 93 10000 1 270 22:38 13.08.2019
3705 Rain 12 1021 93 10000 2.6 270 22:19 13.08.2019
3706 Rain 12 1021 93 10000 2.1 190 21:54 13.08.2019
3707 Rain 12 1021 93 10000 2.1 190 21:36 13.08.2019
3708 Rain 12 1021 93 10000 1 0 21:18 13.08.2019
3709 Rain 13 1020 93 10000 1.5 70 20:42 13.08.2019
3710 Rain 13 1020 93 8000 2.6 180 20:19 13.08.2019
3711 Rain 13 1020 93 10000 2.1 50 19:56 13.08.2019
3712 Rain 12 1020 93 10000 2.1 50 19:37 13.08.2019
3713 Rain 12 1019 93 10000 1.5 140 19:19 13.08.2019
3714 Rain 13 1019 93 10000 1 0 18:41 13.08.2019
3715 Rain 15 1019 87 10000 1.5 160 18:22 13.08.2019
3716 Rain 15 1018 82 10000 1.5 330 17:44 13.08.2019
3717 Rain 15 1018 82 10000 3.6 290 17:25 13.08.2019
3718 Rain 15 1019 82 10000 2.6 300 16:59 13.08.2019
3719 Clouds 16 1019 82 10000 2.6 300 16:40 13.08.2019
3720 Rain 17 1019 77 10000 1.5 300 16:22 13.08.2019
3721 Clouds 17 1019 72 10000 1 0 16:00 13.08.2019
3722 Clouds 17 1019 72 10000 1 0 15:38 13.08.2019
3723 Clouds 17 1019 72 10000 1 0 15:19 13.08.2019
3724 Clouds 17 1019 72 10000 1.5 170 14:47 13.08.2019
3725 Clouds 17 1019 72 10000 1 0 14:20 13.08.2019
3726 Clouds 16 1020 77 10000 1.5 80 13:59 13.08.2019
3727 Clouds 16 1020 77 10000 1.5 80 13:59 13.08.2019
3728 Clouds 16 1020 77 10000 1.5 80 13:40 13.08.2019
3729 Clouds 16 1020 82 10000 0.5 0 13:20 13.08.2019
3730 Clouds 16 1020 77 10000 0.5 0 12:57 13.08.2019
3731 Clouds 16 1020 77 10000 0.5 0 12:39 13.08.2019
3732 Clouds 15 1020 77 10000 0.5 0 12:20 13.08.2019
3733 Clouds 16 1021 82 10000 0.5 0 11:42 13.08.2019
3734 Clouds 15 1021 82 10000 0.5 0 11:22 13.08.2019
3735 Clouds 15 1021 87 10000 1 0 10:58 13.08.2019
3736 Clouds 14 1021 87 10000 1 0 10:38 13.08.2019
3737 Clouds 14 1021 87 10000 1.5 260 10:19 13.08.2019
3738 Clouds 15 1021 87 10000 1.5 270 09:46 13.08.2019
3739 Clouds 14 1021 93 10000 1.5 270 09:25 13.08.2019
3740 Clouds 14 1020 93 10000 2.1 280 08:59 13.08.2019
3741 Clouds 14 1020 93 10000 2.1 280 08:39 13.08.2019
3742 Clouds 14 1020 93 10000 1.5 250 08:20 13.08.2019
3743 Clouds 13 1020 93 10000 1.5 270 07:46 13.08.2019
3744 Clouds 13 1020 93 10000 1 0 07:25 13.08.2019
3745 Clouds 13 1020 93 10000 1.5 270 06:44 13.08.2019
3746 Clouds 13 1020 93 10000 2.6 250 05:58 13.08.2019
3747 Clouds 13 1020 93 10000 2.6 300 05:20 13.08.2019
3748 Rain 14 1020 100 10000 0.5 0 02:22 13.08.2019
3749 Rain 14 1020 100 10000 1 0 01:41 13.08.2019
3750 Rain 14 1020 100 10000 1 250 00:52 13.08.2019
3751 Rain 14 1020 100 5000 1.5 290 00:22 13.08.2019
3752 Rain 15 1020 100 10000 2.1 270 23:44 12.08.2019
3753 Rain 15 1019 100 10000 1 0 23:21 12.08.2019
3754 Rain 14 1019 100 10000 0.5 0 22:55 12.08.2019
3755 Clouds 14 1019 100 10000 0.5 0 22:37 12.08.2019
3756 Clouds 14 1019 93 10000 1.5 0 22:18 12.08.2019
3757 Rain 15 1018 93 10000 3.1 110 21:54 12.08.2019
3758 Rain 15 1018 93 10000 3.1 110 21:36 12.08.2019
3759 Rain 15 1018 93 6000 3.1 90 21:18 12.08.2019
3760 Rain 15 1018 93 6000 1 0 20:41 12.08.2019
3761 Rain 15 1018 93 8000 3.1 40 20:21 12.08.2019
3762 Rain 15 1017 93 7000 3.1 260 19:58 12.08.2019
3763 Rain 15 1017 93 7000 3.1 260 19:39 12.08.2019
3764 Rain 15 1016 88 10000 1.5 90 19:21 12.08.2019
3765 Rain 16 1015 77 10000 3.1 90 18:59 12.08.2019
3766 Rain 17 1015 77 10000 3.1 90 18:39 12.08.2019
3767 Rain 16 1015 88 10000 2.6 60 18:21 12.08.2019
3768 Rain 16 1016 82 10000 3.6 60 17:56 12.08.2019
3769 Clouds 17 1016 82 10000 3.6 60 17:38 12.08.2019
3770 Clouds 17 1016 82 10000 4.1 80 17:20 12.08.2019
3771 Rain 16 1017 82 10000 4.6 100 16:55 12.08.2019
3772 Rain 16 1017 82 10000 4.6 100 16:36 12.08.2019
3773 Rain 16 1018 88 10000 2.6 100 16:18 12.08.2019
3774 Rain 16 1018 87 10000 4.1 300 15:42 12.08.2019
3775 Rain 16 1018 87 10000 4.1 300 15:41 12.08.2019
3776 -273 0 0 0 0 0 15:41 12.08.2019
3777 Rain 16 1018 88 3500 6.7 260 15:22 12.08.2019
3778 Rain 17 1016 82 10000 1 0 14:58 12.08.2019
3779 -273 0 0 0 0 0 14:39 12.08.2019
3780 Rain 17 1016 82 10000 1 0 14:39 12.08.2019
3781 Rain 17 1016 82 10000 4.1 260 14:21 12.08.2019
3782 Rain 17 1016 82 10000 4.6 270 13:57 12.08.2019
3783 Rain 18 1016 82 10000 4.6 270 13:39 12.08.2019
3784 Rain 17 1015 77 10000 3.1 270 13:20 12.08.2019
3785 Clouds 17 1016 82 10000 0.5 0 12:43 12.08.2019
3786 Clouds 17 1016 88 10000 1.5 290 12:19 12.08.2019
3787 -273 0 0 0 0 0 11:45 12.08.2019
3788 -273 0 0 0 0 0 11:44 12.08.2019
3789 Rain 17 1017 82 10000 2.6 240 11:44 12.08.2019
3790 Clouds 17 1017 88 10000 3.1 270 11:25 12.08.2019
3791 Clouds 17 1017 88 10000 5.1 270 10:54 12.08.2019
3792 Clouds 17 1017 88 10000 5.1 270 10:36 12.08.2019
3793 Rain 17 1016 82 10000 2.1 0 10:18 12.08.2019
3794 Clouds 17 1016 82 10000 3.6 80 09:42 12.08.2019
3795 Clouds 17 1016 82 10000 1 0 09:20 12.08.2019
3796 Clouds 17 1016 82 10000 1.5 90 08:59 12.08.2019
3797 Clouds 17 1016 82 10000 1.5 90 08:59 12.08.2019
3798 Clouds 17 1016 82 10000 1.5 90 08:39 12.08.2019
3799 Clouds 17 1016 82 10000 2.6 90 08:21 12.08.2019
3800 Clouds 17 1016 82 10000 2.6 90 08:21 12.08.2019
3801 Clouds 17 1016 82 10000 2.1 60 07:56 12.08.2019
3802 Clouds 17 1017 82 10000 2.1 70 07:33 12.08.2019
3803 Clouds 17 1016 82 10000 2.1 110 06:53 12.08.2019
3804 Clouds 17 1016 93 10000 1.5 50 05:46 12.08.2019
3805 Thunderstorm 18 1015 88 10000 4.1 310 03:30 12.08.2019
3806 Thunderstorm 19 1014 68 10000 2.6 70 02:42 12.08.2019
3807 Clouds 19 1015 64 10000 5.1 260 01:23 12.08.2019
3808 Clouds 19 1014 64 10000 1 0 00:58 12.08.2019
3809 Clouds 20 1014 64 10000 1 0 00:40 12.08.2019
3810 Clouds 19 1013 64 10000 2.1 250 00:20 12.08.2019
3811 Clouds 20 1013 60 10000 0.5 0 23:57 11.08.2019
3812 Clouds 21 1013 60 10000 0.5 0 23:38 11.08.2019
3813 Clouds 21 1013 60 10000 2.6 260 23:19 11.08.2019
3814 Clouds 26 1013 54 10000 2.6 250 22:55 11.08.2019
3815 Clouds 26 1013 54 10000 2.6 250 22:36 11.08.2019
3816 Clouds 28 1012 45 10000 3.6 120 22:18 11.08.2019
3817 Clouds 28 1012 45 10000 6.2 30 21:54 11.08.2019
3818 Clouds 25 1012 45 10000 6.2 30 21:36 11.08.2019
3819 Clouds 23 1009 83 0 1.34 65 21:18 11.08.2019
3820 Clouds 24 1007 81 0 0.52 348.647 20:41 11.08.2019
3821 Clouds 24 1007 75 0 0.52 348.647 20:22 11.08.2019
3822 Clouds 24 1007 75 0 0.52 348.647 20:22 11.08.2019
3823 Clouds 26 1010 37 10000 5.7 50 19:45 11.08.2019
3824 Clouds 30 1011 37 10000 5.1 0 19:22 11.08.2019
3825 Clouds 31 1011 38 10000 6.7 80 18:58 11.08.2019
3826 Clouds 29 1011 38 10000 6.7 80 18:38 11.08.2019
3827 Clouds 27 1011 38 10000 5.7 80 18:19 11.08.2019
3828 Clouds 27 1008 64 0 3.13 5 17:42 11.08.2019
3829 Clouds 27 1011 42 10000 6.2 0 17:20 11.08.2019
3830 Clouds 28 1012 45 10000 5.1 0 16:59 11.08.2019
3831 Clouds 28 1012 45 10000 5.1 0 16:59 11.08.2019
3832 Clouds 28 1012 45 10000 5.1 0 16:40 11.08.2019
3833 Clouds 27 1012 45 10000 5.1 80 16:22 11.08.2019
3834 Clouds 27 1013 54 10000 6.2 70 15:56 11.08.2019
3835 Clouds 27 1013 54 10000 6.2 70 15:38 11.08.2019
3836 Clouds 27 1014 54 10000 5.7 60 15:19 11.08.2019
3837 Clouds 26 1014 57 10000 4.1 70 14:42 11.08.2019
3838 Clouds 26 1014 57 10000 4.1 70 14:42 11.08.2019
3839 Clouds 26 1015 47 10000 1.5 0 14:24 11.08.2019
3840 Clouds 26 1016 54 10000 1.5 260 13:46 11.08.2019
3841 Clouds 25 1016 57 10000 1.5 0 13:26 11.08.2019
3842 Clouds 24 1017 57 10000 2.1 280 12:59 11.08.2019
3843 Clouds 23 1017 57 10000 2.1 280 12:41 11.08.2019
3844 Clouds 23 1018 53 10000 0.5 0 12:20 11.08.2019
3845 Clouds 23 1018 57 10000 1 0 11:40 11.08.2019
3846 Clouds 23 1018 57 10000 1 0 11:40 11.08.2019
3847 Clouds 23 1019 69 10000 1 0 11:22 11.08.2019
3848 Clouds 22 1019 64 10000 2.1 90 10:56 11.08.2019
3849 Clouds 22 1019 64 10000 2.1 90 10:38 11.08.2019
3850 Clouds 22 1020 68 10000 2.1 70 10:19 11.08.2019
3851 Clouds 22 1020 68 10000 2.1 70 10:19 11.08.2019
3852 Clouds 21 1020 77 10000 2.1 70 09:54 11.08.2019
3853 Clouds 20 1020 77 10000 2.1 70 09:36 11.08.2019
3854 Clouds 20 1020 77 10000 2.1 70 09:36 11.08.2019
3855 Clouds 18 1020 77 10000 2.6 60 09:18 11.08.2019
3856 Clouds 17 1021 77 10000 2.1 80 08:40 11.08.2019
3857 Clouds 17 1021 88 10000 2.1 70 08:22 11.08.2019
3858 Clouds 17 1021 88 10000 1.5 70 07:46 11.08.2019
3859 Clouds 17 1021 88 10000 1 0 07:19 11.08.2019
3860 Clouds 16 1021 88 10000 0.5 0 06:38 11.08.2019
3861 Rain 16 1021 93 10000 1 280 05:28 11.08.2019
3862 Rain 17 1021 88 10000 1.5 290 02:54 11.08.2019
3863 Clouds 17 1021 88 10000 0.5 0 02:26 11.08.2019
3864 Clouds 17 1021 82 10000 1 240 01:35 11.08.2019
3865 Rain 17 1021 82 10000 1 0 00:56 11.08.2019
3866 Rain 17 1021 82 10000 1 0 00:36 11.08.2019
3867 Rain 17 1021 82 10000 1 0 00:36 11.08.2019
3868 Clouds 17 1021 77 10000 0.5 0 00:18 11.08.2019
3869 Clouds 17 1021 72 10000 1 0 23:39 10.08.2019
3870 Clouds 17 1021 72 10000 2.1 50 23:20 10.08.2019
3871 Clouds 18 1021 72 10000 1.5 100 22:42 10.08.2019
3872 Clouds 18 1021 72 10000 1.5 330 22:23 10.08.2019
3873 Rain 18 1018 89 0 0.32 80.596 21:56 10.08.2019
3874 Rain 18 1018 89 0 0.32 80.596 21:56 10.08.2019
3875 Clouds 19 1021 68 10000 1.5 80 21:36 10.08.2019
3876 Clouds 19 1020 68 10000 2.1 70 21:18 10.08.2019
3877 Clouds 19 1020 64 10000 2.1 80 20:42 10.08.2019
3878 Clouds 19 1020 64 10000 2.1 90 20:21 10.08.2019
3879 Clouds 20 1019 68 10000 3.1 60 19:56 10.08.2019
3880 Clouds 21 1019 68 10000 3.1 60 19:37 10.08.2019
3881 Clouds 20 1019 68 10000 2.6 70 19:19 10.08.2019
3882 Clouds 22 1019 64 10000 3.1 90 18:39 10.08.2019
3883 Rain 20 1019 68 10000 2.1 110 18:20 10.08.2019
3884 Clouds 20 1019 64 10000 3.1 80 17:44 10.08.2019
3885 Clouds 19 1019 64 10000 3.6 80 17:24 10.08.2019
3886 Clouds 20 1018 64 10000 4.6 70 16:46 10.08.2019
3887 Clouds 20 1018 64 10000 5.7 70 16:28 10.08.2019
3888 Clouds 20 1018 60 10000 5.7 70 15:54 10.08.2019
3889 Clouds 21 1017 60 10000 5.7 90 15:24 10.08.2019
3890 Clouds 21 1017 61 10000 5.7 70 14:45 10.08.2019
3891 Clouds 22 1017 61 10000 4.1 80 14:21 10.08.2019
3892 Clouds 22 1016 61 10000 4.1 90 13:42 10.08.2019
3893 Clouds 22 1017 54 10000 1.5 0 13:21 10.08.2019
3894 Clouds 22 1017 61 10000 1 0 12:59 10.08.2019
3895 Clouds 22 1017 61 10000 1 0 12:39 10.08.2019
3896 Clouds 22 1017 64 10000 1 0 12:21 10.08.2019
3897 Clouds 22 1017 64 10000 1 0 11:42 10.08.2019
3898 Clouds 22 1017 69 10000 1.5 270 11:23 10.08.2019
3899 Clouds 22 1018 73 10000 4.1 270 10:59 10.08.2019
3900 Clouds 22 1018 73 10000 4.1 270 10:38 10.08.2019
3901 Clouds 22 1017 73 10000 3.1 280 10:19 10.08.2019
3902 Clouds 21 1017 78 10000 2.6 270 09:43 10.08.2019
3903 Clouds 21 1017 73 10000 2.1 280 09:24 10.08.2019
3904 Clouds 20 1016 68 10000 0.5 0 08:56 10.08.2019
3905 Clouds 20 1016 68 10000 0.5 0 08:38 10.08.2019
3906 Clouds 19 1016 73 10000 1 0 08:18 10.08.2019
3907 Clouds 19 1016 82 10000 1 320 07:46 10.08.2019
3908 Clouds 19 1016 82 10000 0.5 0 07:24 10.08.2019
3909 Clouds 19 1016 82 10000 1 0 06:47 10.08.2019
3910 Clouds 18 1016 82 10000 1 0 06:18 10.08.2019
3911 Clouds 19 1016 77 10000 1 0 05:21 10.08.2019
3912 Clouds 20 1015 73 10000 1 0 03:55 10.08.2019
3913 Clouds 20 1015 73 10000 3.6 250 02:50 10.08.2019
3914 Clouds 19 1015 73 10000 3.1 250 01:57 10.08.2019
3915 Clouds 19 1015 73 10000 3.1 250 01:37 10.08.2019
3916 Clouds 19 1015 77 10000 2.6 270 01:19 10.08.2019
3917 Clouds 19 1015 77 10000 3.1 250 00:42 10.08.2019
3918 Clouds 20 1015 77 10000 1 0 00:19 10.08.2019
3919 Clouds 20 1015 73 10000 1.5 0 23:41 09.08.2019
3920 Clear 21 1014 68 10000 0.5 0 23:21 09.08.2019
3921 Clear 21 1014 68 10000 1 0 22:56 09.08.2019
3922 Clear 22 1014 68 10000 1 0 22:37 09.08.2019
3923 Clear 22 1014 64 10000 1 0 22:19 09.08.2019
3924 Clear 24 1013 57 10000 1 0 21:41 09.08.2019
3925 Clear 24 1013 54 10000 2.1 130 21:22 09.08.2019
3926 Clear 25 1012 51 10000 3.1 80 20:58 09.08.2019
3927 Clear 26 1012 51 10000 3.1 80 20:39 09.08.2019
3928 Clear 27 1012 51 10000 4.1 60 20:20 09.08.2019
3929 Clouds 28 1012 48 10000 5.1 60 19:44 09.08.2019
3930 Clouds 30 1012 40 10000 4.1 70 19:23 09.08.2019
3931 Clouds 31 1012 38 10000 4.6 70 18:59 09.08.2019
3932 Clouds 32 1012 38 10000 4.6 70 18:39 09.08.2019
3933 Clouds 30 1012 33 10000 1 0 18:20 09.08.2019
3934 Clouds 30 1012 26 10000 0.5 0 17:45 09.08.2019
3935 Clouds 30 1012 31 10000 1.5 350 17:25 09.08.2019
3936 Clouds 31 1012 38 10000 1 0 16:58 09.08.2019
3937 Clouds 31 1012 38 10000 1 0 16:38 09.08.2019
3938 Clouds 30 1013 35 10000 1 0 16:20 09.08.2019
3939 Clouds 29 1010 44 0 0.45 312 15:42 09.08.2019
3940 Clouds 29 1010 44 0 0.45 312 15:42 09.08.2019
3941 Clouds 29 1013 40 10000 2.1 270 15:22 09.08.2019
3942 Clouds 29 1013 48 10000 2.6 280 14:59 09.08.2019
3943 -273 0 0 0 0 0 14:58 09.08.2019
3944 Clouds 29 1013 48 10000 2.6 280 14:40 09.08.2019
3945 Clouds 29 1014 51 10000 1.5 270 14:21 09.08.2019
3946 Clouds 28 1014 51 10000 1.5 300 13:46 09.08.2019
3947 Clouds 27 1015 47 10000 1 0 13:23 09.08.2019
3948 Clouds 28 1015 53 10000 1.5 0 12:58 09.08.2019
3949 Clouds 27 1015 53 10000 1.5 0 12:40 09.08.2019
3950 Clouds 25 1015 57 10000 2.1 280 12:21 09.08.2019
3951 -273 0 0 0 0 0 11:42 09.08.2019
3952 Clouds 23 1016 64 10000 2.1 0 11:21 09.08.2019
3953 Clouds 25 1016 68 10000 2.6 290 10:57 09.08.2019
3954 Clouds 25 1016 68 10000 2.6 290 10:38 09.08.2019
3955 Clouds 25 1016 68 10000 2.6 290 10:38 09.08.2019
3956 Clear 21 1017 72 10000 3.6 260 10:20 09.08.2019
3957 Clear 21 1017 72 10000 2.1 260 09:41 09.08.2019
3958 Clear 18 1018 82 10000 2.1 280 09:19 09.08.2019
3959 Clouds 17 1018 82 10000 1 0 08:45 09.08.2019
3960 Clouds 16 1018 87 10000 2.6 260 08:25 09.08.2019
3961 Clouds 16 1018 87 10000 2.6 250 07:58 09.08.2019
3962 Clouds 16 1018 87 10000 2.6 250 07:40 09.08.2019
3963 Clouds 16 1018 87 10000 2.6 250 07:40 09.08.2019
3964 Clouds 14 1018 87 10000 1.5 260 07:20 09.08.2019
3965 Clouds 15 1018 93 10000 1 0 06:44 09.08.2019
3966 Clouds 13 1018 93 10000 0.5 0 06:21 09.08.2019
3967 Clouds 13 1018 87 10000 2.6 260 05:37 09.08.2019
3968 Clouds 15 1017 87 10000 1 0 02:29 09.08.2019
3969 Clouds 14 1017 82 10000 1 250 01:30 09.08.2019
3970 Clouds 14 1017 82 10000 1 0 00:43 09.08.2019
3971 Clouds 16 1017 88 10000 0.5 0 00:24 09.08.2019
3972 Clouds 16 1017 82 10000 0.5 0 23:57 08.08.2019
3973 Clouds 17 1017 82 10000 0.5 0 23:37 08.08.2019
3974 Clear 17 1016 82 10000 0.5 0 23:19 08.08.2019
3975 Clear 16 1016 82 10000 0.5 0 22:56 08.08.2019
3976 Clear 16 1016 82 10000 0.5 0 22:36 08.08.2019
3977 Clouds 17 1016 82 10000 0.5 0 22:18 08.08.2019
3978 Clouds 17 1016 77 10000 1 0 21:43 08.08.2019
3979 Clouds 19 1015 73 10000 1 0 21:24 08.08.2019
3980 Clouds 20 1015 68 10000 1.5 20 20:58 08.08.2019
3981 Clouds 21 1015 68 10000 1.5 20 20:40 08.08.2019
3982 Clouds 22 1014 57 10000 2.6 70 20:20 08.08.2019
3983 Clouds 25 1014 53 10000 3.1 80 19:49 08.08.2019
3984 Clouds 25 1014 53 10000 4.1 70 19:29 08.08.2019
3985 Clouds 25 1014 53 10000 5.7 60 18:59 08.08.2019
3986 Clouds 25 1014 53 10000 5.7 60 18:40 08.08.2019
3987 Clouds 24 1014 54 10000 4.6 60 18:19 08.08.2019
3988 Clouds 25 1013 47 10000 4.1 90 17:42 08.08.2019
3989 Clouds 24 1013 51 10000 2.6 70 17:24 08.08.2019
3990 Clouds 27 1013 47 10000 3.1 60 16:59 08.08.2019
3991 Clouds 25 1013 47 10000 3.1 60 16:41 08.08.2019
3992 Clouds 25 1013 42 10000 1.5 0 16:23 08.08.2019
3993 Clouds 24 1013 47 10000 2.1 0 15:57 08.08.2019
3994 Clouds 24 1013 47 10000 2.1 0 15:38 08.08.2019
3995 Clouds 24 1013 47 10000 2.1 0 15:20 08.08.2019
3996 Clouds 24 1014 57 10000 3.1 50 14:40 08.08.2019
3997 Clouds 24 1014 57 10000 2.6 0 14:21 08.08.2019
3998 Clouds 23 1014 57 10000 1 0 13:56 08.08.2019
3999 Clouds 23 1014 57 10000 1 0 13:36 08.08.2019
4000 Clouds 22 1015 60 10000 1 0 13:18 08.08.2019
4001 Rain 21 1012 73 0 1.79 336 12:38 08.08.2019
4002 Clouds 21 1015 64 10000 1 0 12:18 08.08.2019
4003 Clouds 20 1015 68 10000 1 0 11:43 08.08.2019
4004 Clouds 19 1016 73 10000 1.5 280 11:25 08.08.2019
4005 Clouds 19 1016 77 10000 2.1 270 10:56 08.08.2019
4006 Clouds 20 1016 77 10000 2.1 270 10:37 08.08.2019
4007 Clouds 19 1016 77 10000 1.5 260 10:19 08.08.2019
4008 Clouds 19 1016 82 10000 1 0 09:40 08.08.2019
4009 Clouds 17 1016 82 10000 0.5 0 09:20 08.08.2019
4010 Clouds 17 1016 93 10000 0.5 0 08:42 08.08.2019
4011 Clouds 16 1016 100 10000 1 0 08:22 08.08.2019
4012 Clouds 16 1016 100 10000 0.5 0 07:58 08.08.2019
4013 Clouds 16 1016 100 10000 0.5 0 07:39 08.08.2019
4014 Clouds 16 1016 93 10000 2.1 260 07:18 08.08.2019
4015 Clouds 16 1016 93 10000 1 200 06:44 08.08.2019
4016 Clouds 15 1015 93 10000 0.5 0 05:58 08.08.2019
4017 Clouds 15 1015 93 10000 0.5 0 05:39 08.08.2019
4018 Clouds 16 1015 93 10000 1.5 200 04:21 08.08.2019
4019 Clouds 16 1015 93 10000 1.5 300 03:47 08.08.2019
4020 Rain 17 1015 93 10000 1 0 01:54 08.08.2019
4021 Clouds 17 1015 93 10000 0.5 0 01:20 08.08.2019
4022 Clouds 16 1015 93 10000 1 160 00:25 08.08.2019
4023 Clouds 17 1015 93 10000 1.5 250 23:39 07.08.2019
4024 Clouds 17 1014 100 10000 1.5 250 23:18 07.08.2019
4025 Clouds 17 1014 100 10000 1 0 22:41 07.08.2019
4026 Rain 17 1014 93 10000 0.5 0 22:21 07.08.2019
4027 Clouds 17 1014 88 10000 1.5 170 21:58 07.08.2019
4028 Clouds 17 1014 88 10000 1.5 170 21:40 07.08.2019
4029 Clouds 17 1014 88 10000 1.5 170 21:40 07.08.2019
4030 Clouds 17 1013 93 10000 1.5 300 21:21 07.08.2019
4031 Clouds 17 1013 93 10000 2.1 280 20:59 07.08.2019
4032 Clouds 17 1013 93 10000 2.1 280 20:41 07.08.2019
4033 Clouds 17 1013 93 10000 1 0 20:22 07.08.2019
4034 Clouds 18 1013 88 10000 1 0 19:56 07.08.2019
4035 Clouds 18 1013 88 10000 1 0 19:37 07.08.2019
4036 Clouds 18 1012 88 10000 1.5 260 19:19 07.08.2019
4037 Rain 18 1012 93 10000 4.1 280 18:41 07.08.2019
4038 Clouds 18 1012 88 10000 4.6 270 18:20 07.08.2019
4039 Clouds 18 1013 88 10000 2.1 270 17:56 07.08.2019
4040 Clouds 18 1013 88 10000 2.1 270 17:38 07.08.2019
4041 Rain 19 1013 88 10000 2.1 270 17:19 07.08.2019
4042 Rain 18 1013 82 10000 4.6 250 16:56 07.08.2019
4043 Rain 18 1013 82 10000 4.6 250 16:38 07.08.2019
4044 Rain 19 1013 82 10000 3.1 250 16:19 07.08.2019
4045 Rain 19 1012 82 10000 2.1 220 15:43 07.08.2019
4046 Rain 20 1013 82 10000 8.7 250 15:22 07.08.2019
4047 Rain 20 1012 72 10000 7.7 250 14:57 07.08.2019
4048 Rain 20 1012 72 10000 7.7 250 14:39 07.08.2019
4049 Clouds 21 1012 77 10000 4.6 280 14:21 07.08.2019
4050 Clouds 21 1012 77 10000 4.1 290 13:41 07.08.2019
4051 Clouds 21 1012 77 10000 4.6 270 13:19 07.08.2019
4052 Clouds 22 1012 77 10000 4.6 270 13:19 07.08.2019
4053 Clouds 22 1012 77 10000 4.1 280 12:58 07.08.2019
4054 Rain 22 1012 77 10000 4.1 280 12:39 07.08.2019
4055 Rain 20 1012 72 10000 4.1 280 12:20 07.08.2019
4056 Clouds 20 1013 77 10000 5.7 280 11:58 07.08.2019
4057 Clouds 20 1013 77 10000 5.7 280 11:40 07.08.2019
4058 Clouds 20 1013 82 10000 6.2 270 11:19 07.08.2019
4059 Clouds 20 1013 82 10000 6.2 260 10:42 07.08.2019
4060 Clouds 19 1013 88 10000 4.6 260 10:20 07.08.2019
4061 Clouds 18 1013 88 10000 2.6 260 09:59 07.08.2019
4062 Clouds 18 1013 88 10000 2.6 260 09:41 07.08.2019
4063 Clouds 18 1014 93 10000 4.1 280 09:21 07.08.2019
4064 Clouds 17 1014 100 10000 4.6 280 08:45 07.08.2019
4065 Clouds 17 1014 100 10000 3.6 270 08:26 07.08.2019
4066 Clouds 16 1014 93 10000 4.6 290 07:52 07.08.2019
4067 Clouds 16 1014 93 10000 4.6 290 07:33 07.08.2019
4068 Clouds 16 1014 93 10000 2.1 270 06:50 07.08.2019
4069 Clouds 15 1015 93 10000 2.1 260 06:27 07.08.2019
4070 Clouds 15 1015 93 10000 1 0 05:43 07.08.2019
4071 Clouds 16 1016 93 10000 1 0 04:43 07.08.2019
4072 Clouds 16 1016 93 10000 2.1 290 03:21 07.08.2019
4073 Rain 16 1016 93 10000 1.5 340 02:43 07.08.2019
4074 Clouds 16 1016 93 10000 1.5 270 01:58 07.08.2019
4075 Clouds 16 1016 93 10000 3.1 310 01:24 07.08.2019
4076 Clouds 16 1016 93 10000 2.6 250 00:38 07.08.2019
4077 Clouds 17 1016 100 10000 3.6 280 00:19 07.08.2019
4078 Clouds 17 1016 93 10000 2.1 270 23:41 06.08.2019
4079 Clouds 17 1016 93 10000 3.1 290 23:21 06.08.2019
4080 Clouds 17 1016 93 10000 3.1 290 23:21 06.08.2019
4081 Clouds 16 1016 93 10000 2.6 260 22:56 06.08.2019
4082 Clouds 16 1016 93 10000 2.6 260 22:37 06.08.2019
4083 Clouds 16 1016 93 10000 2.1 300 22:18 06.08.2019
4084 Clouds 17 1016 93 10000 1.5 0 21:40 06.08.2019
4085 Rain 18 1016 88 10000 2.1 320 21:20 06.08.2019
4086 Rain 18 1016 88 10000 2.1 320 21:20 06.08.2019
4087 Rain 18 1016 88 10000 2.1 320 21:20 06.08.2019
4088 Rain 19 1017 82 10000 6.2 240 20:48 06.08.2019
4089 Rain 19 1017 88 10000 7.2 260 20:29 06.08.2019
4090 Rain 19 1016 82 10000 5.7 240 19:59 06.08.2019
4091 Rain 19 1016 82 10000 5.7 240 19:41 06.08.2019
4092 Rain 20 1015 82 10000 6.2 250 19:22 06.08.2019
4093 Rain 21 1015 77 10000 3.6 250 18:45 06.08.2019
4094 Rain 22 1015 77 10000 1 0 18:26 06.08.2019
4095 Clouds 22 1015 68 10000 5.7 260 17:58 06.08.2019
4096 Clouds 21 1015 68 10000 5.7 260 17:38 06.08.2019
4097 Clouds 22 1015 69 10000 4.6 260 17:20 06.08.2019
4098 Clouds 21 1016 64 10000 2.6 270 16:54 06.08.2019
4099 Clouds 21 1016 64 10000 2.6 270 16:36 06.08.2019
4100 Clouds 21 1016 64 10000 3.1 280 16:18 06.08.2019
4101 Clouds 21 1017 69 10000 3.1 270 15:56 06.08.2019
4102 Clouds 21 1017 69 10000 3.1 270 15:37 06.08.2019
4103 Clouds 22 1017 73 10000 3.1 260 15:18 06.08.2019
4104 Clouds 22 1018 73 10000 4.1 260 14:40 06.08.2019
4105 Clouds 21 1019 82 10000 3.1 260 14:22 06.08.2019
4106 Clouds 21 1019 88 10000 2.1 240 13:57 06.08.2019
4107 Clouds 21 1019 88 10000 2.1 240 13:38 06.08.2019
4108 Clouds 21 1019 88 10000 1.5 0 13:19 06.08.2019
4109 Rain 21 1020 88 10000 2.1 100 12:55 06.08.2019
4110 Rain 22 1020 88 10000 2.1 100 12:36 06.08.2019
4111 Rain 18 1020 93 10000 2.1 60 12:18 06.08.2019
4112 Rain 17 1020 93 10000 1 0 11:40 06.08.2019
4113 Rain 17 1021 93 8000 2.1 270 11:18 06.08.2019
4114 Rain 17 1020 93 7000 1.5 270 10:41 06.08.2019
4115 Rain 17 1020 93 10000 0.5 0 10:22 06.08.2019
4116 Rain 17 1020 93 10000 1.5 80 09:48 06.08.2019
4117 Rain 17 1020 93 10000 1 0 09:24 06.08.2019
4118 Rain 16 1019 100 10000 1.5 240 08:57 06.08.2019
4119 Rain 16 1019 100 10000 1.5 240 08:37 06.08.2019
4120 Rain 16 1019 100 10000 2.1 270 08:19 06.08.2019
4121 Rain 16 1019 100 10000 1 0 07:35 06.08.2019
4122 Rain 16 1019 93 10000 1 0 06:51 06.08.2019
4123 Rain 16 1018 93 10000 1 0 06:26 06.08.2019
4124 Rain 16 1018 100 9000 3.1 100 05:47 06.08.2019
4125 Rain 17 1017 88 10000 2.6 320 02:59 06.08.2019
4126 Clouds 17 1016 88 10000 1 0 01:46 06.08.2019
4127 Thunderstorm 17 1016 88 10000 4.1 10 01:21 06.08.2019
4128 Clouds 18 1015 82 10000 1 0 00:26 06.08.2019
4129 Clouds 19 1015 77 10000 0.5 0 23:21 05.08.2019
4130 Clouds 18 1016 77 10000 1.5 140 22:59 05.08.2019
4131 Clouds 19 1016 77 10000 1.5 140 22:40 05.08.2019
4132 Clouds 19 1016 77 10000 1 0 22:22 05.08.2019
4133 Clouds 19 1016 77 10000 1 0 22:22 05.08.2019
4134 Clouds 22 1015 73 10000 1 0 21:43 05.08.2019
4135 Clouds 21 1015 68 10000 0.5 0 21:21 05.08.2019
4136 Clouds 21 1015 68 10000 0.5 0 20:59 05.08.2019
4137 Clouds 22 1015 68 10000 0.5 0 20:40 05.08.2019
4138 Clouds 23 1014 60 10000 0.5 0 20:22 05.08.2019
4139 Clouds 24 1014 60 10000 1.5 50 19:59 05.08.2019
4140 Clouds 24 1014 60 10000 1.5 50 19:39 05.08.2019
4141 Clouds 25 1014 61 10000 2.6 30 19:20 05.08.2019
4142 Clouds 25 1014 65 10000 1.5 20 18:43 05.08.2019
4143 Clouds 25 1014 50 10000 1 0 18:21 05.08.2019
4144 Rain 25 1014 61 10000 1.5 280 17:57 05.08.2019
4145 Rain 25 1014 61 10000 1.5 280 17:39 05.08.2019
4146 Rain 25 1014 50 10000 0.5 0 17:20 05.08.2019
4147 Clouds 25 1014 57 10000 1 0 16:43 05.08.2019
4148 Clouds 25 1015 50 10000 1 0 16:23 05.08.2019
4149 Rain 24 1015 64 10000 1.5 280 15:43 05.08.2019
4150 Rain 24 1015 53 10000 3.1 260 15:21 05.08.2019
4151 Clouds 24 1015 47 10000 1.5 70 14:43 05.08.2019
4152 Clouds 24 1015 53 10000 1.5 0 14:23 05.08.2019
4153 Clouds 23 1016 56 10000 1 0 13:57 05.08.2019
4154 Clouds 23 1016 56 10000 1 0 13:39 05.08.2019
4155 Clouds 23 1016 49 10000 0.5 0 13:18 05.08.2019
4156 Clouds 21 1017 56 10000 0.5 0 12:42 05.08.2019
4157 Clouds 20 1017 60 10000 1 0 12:19 05.08.2019
4158 Clouds 20 1018 64 10000 0.5 0 11:44 05.08.2019
4159 Clouds 19 1018 68 10000 0.5 0 11:25 05.08.2019
4160 Clouds 19 1018 72 10000 1 0 10:49 05.08.2019
4161 Clouds 19 1018 72 10000 1 0 10:31 05.08.2019
4162 Clouds 19 1018 77 10000 1 0 09:57 05.08.2019
4163 Clouds 17 1019 82 10000 2.1 260 09:38 05.08.2019
4164 Clouds 17 1019 82 10000 2.1 260 09:20 05.08.2019
4165 Clouds 15 1019 87 10000 1 0 08:44 05.08.2019
4166 Clouds 15 1019 87 10000 1 0 08:25 05.08.2019
4167 Clear 14 1019 82 10000 0.5 0 07:49 05.08.2019
4168 Clear 13 1019 87 10000 1.5 250 07:30 05.08.2019
4169 Clear 14 1019 87 10000 1 0 06:58 05.08.2019
4170 Clear 12 1018 93 10000 1.5 270 06:24 05.08.2019
4171 Clouds 12 1018 87 10000 1.5 280 05:31 05.08.2019
4172 Clouds 11 1018 87 10000 1 0 04:52 05.08.2019
4173 Clouds 11 1018 87 10000 0.5 0 03:52 05.08.2019
4174 Clouds 13 1018 87 10000 0.5 0 02:47 05.08.2019
4175 Clouds 14 1018 82 10000 0.5 0 01:58 05.08.2019
4176 Clouds 13 1018 87 10000 0.5 0 01:25 05.08.2019
4177 Clouds 13 1018 82 10000 0.5 0 00:40 05.08.2019
4178 Clouds 15 1018 82 10000 0.5 0 00:20 05.08.2019
4179 Clouds 15 1018 82 10000 0.5 0 00:20 05.08.2019
4180 Clouds 15 1018 82 10000 0.5 0 23:43 04.08.2019
4181 Clear 16 1018 77 10000 0.5 0 23:23 04.08.2019
4182 Clear 15 1017 77 10000 0.5 0 22:57 04.08.2019
4183 Clear 15 1017 77 10000 0.5 0 22:38 04.08.2019
4184 Clouds 16 1017 72 10000 0.5 0 22:20 04.08.2019
4185 Clouds 18 1017 68 10000 0.5 0 21:56 04.08.2019
4186 Clouds 19 1017 68 10000 0.5 0 21:37 04.08.2019
4187 Clouds 19 1016 64 10000 1.5 320 21:19 04.08.2019
4188 Clouds 20 1016 56 10000 1.5 50 20:41 04.08.2019
4189 Clouds 21 1016 53 10000 2.6 50 20:19 04.08.2019
4190 Clouds 24 1015 47 10000 4.6 80 19:54 04.08.2019
4191 Clouds 24 1015 47 10000 4.6 80 19:36 04.08.2019
4192 Clouds 22 1015 47 10000 5.1 70 19:18 04.08.2019
4193 Clouds 22 1015 50 10000 5.7 60 18:41 04.08.2019
4194 Clouds 23 1015 47 10000 5.7 60 18:20 04.08.2019
4195 Clouds 23 1015 47 10000 5.1 70 17:44 04.08.2019
4196 Clouds 24 1015 44 10000 4.6 70 17:24 04.08.2019
4197 Clouds 24 1015 44 10000 4.6 60 16:46 04.08.2019
4198 Clouds 24 1015 41 10000 4.6 60 16:28 04.08.2019
4199 Clouds 24 1016 36 10000 2.6 80 15:58 04.08.2019
4200 Clouds 24 1016 36 10000 2.6 80 15:38 04.08.2019
4201 Clouds 24 1016 44 10000 3.1 100 15:19 04.08.2019
4202 Clouds 23 1016 41 10000 2.1 80 14:43 04.08.2019
4203 Clouds 23 1016 47 10000 3.1 50 14:25 04.08.2019
4204 Clouds 23 1017 41 10000 2.1 110 13:47 04.08.2019
4205 Clouds 22 1017 46 10000 2.1 0 13:27 04.08.2019
4206 Clouds 22 1017 53 10000 2.1 180 12:57 04.08.2019
4207 Clouds 22 1017 53 10000 2.1 180 12:57 04.08.2019
4208 Clouds 22 1017 53 10000 2.1 180 12:39 04.08.2019
4209 Clouds 20 1018 60 10000 1 0 12:21 04.08.2019
4210 Clouds 19 1018 64 10000 0.5 0 11:46 04.08.2019
4211 Clouds 18 1018 68 10000 1 0 11:23 04.08.2019
4212 Clouds 20 1019 68 10000 1.5 270 10:48 04.08.2019
4213 Clouds 17 1019 77 10000 1.5 250 10:23 04.08.2019
4214 Clouds 17 1019 77 10000 1 0 09:47 04.08.2019
4215 Clouds 14 1019 82 10000 1 0 09:26 04.08.2019
4216 Clouds 14 1019 82 10000 0.5 0 08:59 04.08.2019
4217 Clouds 13 1019 82 10000 0.5 0 08:35 04.08.2019
4218 Clouds 13 1019 87 10000 0.5 0 07:55 04.08.2019
4219 Clouds 13 1019 87 10000 0.5 0 07:55 04.08.2019
4220 Clouds 13 1019 93 10000 0.5 0 07:29 04.08.2019
4221 Clouds 12 1019 87 10000 0.5 0 06:43 04.08.2019
4222 Clouds 11 1019 93 10000 0.5 0 06:19 04.08.2019
4223 Clouds 12 1019 87 10000 0.5 0 03:38 04.08.2019
4224 Clouds 12 1019 93 10000 0.5 0 01:55 04.08.2019
4225 Clouds 13 1019 87 10000 0.5 0 01:32 04.08.2019
4226 Clouds 13 1019 93 10000 0.5 0 00:43 04.08.2019
4227 Clouds 14 1019 93 10000 0.5 0 00:24 04.08.2019
4228 Clouds 14 1019 82 10000 0.5 0 23:56 03.08.2019
4229 Clouds 14 1019 82 10000 0.5 0 23:37 03.08.2019
4230 Clouds 14 1019 87 10000 0.5 0 23:18 03.08.2019
4231 Clouds 14 1019 87 10000 1 0 22:40 03.08.2019
4232 Clouds 15 1019 87 10000 2.1 80 22:19 03.08.2019
4233 Clouds 16 1018 82 10000 2.6 90 21:39 03.08.2019
4234 Clouds 15 1018 82 10000 3.1 50 21:21 03.08.2019
4235 Clouds 15 1018 82 10000 3.1 50 21:21 03.08.2019
4236 Clouds 16 1017 77 10000 3.1 90 20:45 03.08.2019
4237 Clouds 16 1017 72 10000 2.1 110 20:24 03.08.2019
4238 Clouds 16 1017 77 10000 4.1 70 19:56 03.08.2019
4239 Clouds 17 1017 77 10000 4.1 70 19:38 03.08.2019
4240 Clouds 17 1017 68 10000 2.6 80 19:20 03.08.2019
4241 Clouds 17 1016 64 10000 3.6 90 18:45 03.08.2019
4242 Clouds 17 1016 64 10000 3.1 100 18:24 03.08.2019
4243 Clouds 18 1016 60 10000 3.6 70 17:43 03.08.2019
4244 Clouds 18 1016 60 10000 4.6 100 17:20 03.08.2019
4245 Clouds 18 1016 60 10000 5.7 70 16:39 03.08.2019
4246 Clouds 19 1015 60 10000 4.6 90 16:21 03.08.2019
4247 Clouds 19 1015 60 10000 3.1 80 15:46 03.08.2019
4248 Clouds 19 1016 64 10000 1 0 15:26 03.08.2019
4249 Clouds 18 1016 64 10000 1.5 280 14:50 03.08.2019
4250 Clouds 18 1016 64 10000 1.5 280 14:50 03.08.2019
4251 Clouds 19 1016 60 10000 1 0 14:24 03.08.2019
4252 Clouds 18 1016 64 10000 1 0 13:59 03.08.2019
4253 Clouds 20 1016 64 10000 1 0 13:41 03.08.2019
4254 Clouds 19 1016 68 10000 1.5 60 13:23 03.08.2019
4255 Clouds 19 1017 64 10000 2.1 90 12:54 03.08.2019
4256 Clouds 19 1017 64 10000 2.1 90 12:36 03.08.2019
4257 Clouds 19 1017 64 10000 1.5 90 12:18 03.08.2019
4258 Clouds 17 1017 68 10000 0.5 0 11:38 03.08.2019
4259 Clouds 18 1017 72 10000 1 0 11:19 03.08.2019
4260 Rain 17 1017 82 10000 1 0 10:38 03.08.2019
4261 Rain 16 1017 87 10000 1 0 10:19 03.08.2019
4262 Clouds 15 1017 87 10000 1.5 280 09:37 03.08.2019
4263 Clouds 15 1017 87 10000 1.5 280 09:18 03.08.2019
4264 Clouds 15 1017 82 10000 0.5 0 08:43 03.08.2019
4265 Rain 14 1017 93 10000 1 0 07:38 03.08.2019
4266 Rain 14 1017 93 10000 3.1 360 06:48 03.08.2019
4267 Rain 13 1017 100 10000 3.6 270 06:18 03.08.2019
4268 Rain 13 1017 93 10000 1 280 02:59 03.08.2019
4269 Rain 13 1017 87 10000 1.5 260 02:25 03.08.2019
4270 Clouds 14 1018 87 10000 1 0 00:58 03.08.2019
4271 Clouds 14 1018 87 10000 1 0 00:32 03.08.2019
4272 Clouds 14 1018 87 10000 0.5 0 23:42 02.08.2019
4273 Clouds 14 1018 93 10000 0.5 0 23:20 02.08.2019
4274 Clouds 14 1017 87 10000 0.5 0 22:58 02.08.2019
4275 Clouds 14 1017 87 10000 0.5 0 22:40 02.08.2019
4276 Clouds 15 1018 93 10000 1 0 22:21 02.08.2019
4277 Clouds 15 1017 93 10000 1.5 50 21:55 02.08.2019
4278 Clouds 15 1017 93 10000 1.5 50 21:37 02.08.2019
4279 Clouds 15 1017 93 10000 1.5 120 21:18 02.08.2019
4280 Clouds 15 1017 93 10000 1.5 120 21:18 02.08.2019
4281 Clouds 15 1017 88 10000 1.5 70 20:42 02.08.2019
4282 Clouds 15 1017 88 10000 0.5 0 20:21 02.08.2019
4283 Clouds 15 1017 88 10000 1 0 19:49 02.08.2019
4284 Clouds 16 1017 88 10000 1 0 19:29 02.08.2019
4285 Clouds 16 1017 88 10000 1.5 330 18:47 02.08.2019
4286 Rain 16 1016 82 10000 1.5 260 18:29 02.08.2019
4287 Clouds 16 1017 77 10000 1 0 17:56 02.08.2019
4288 Clouds 16 1017 77 10000 1 0 17:38 02.08.2019
4289 Rain 16 1017 82 10000 1.5 160 17:18 02.08.2019
4290 Rain 15 1013 89 0 1.97 340.657 16:39 02.08.2019
4291 Rain 16 1016 82 10000 2.1 120 16:20 02.08.2019
4292 Rain 16 1015 88 10000 3.1 310 15:45 02.08.2019
4293 Rain 17 1015 77 10000 6.2 250 15:20 02.08.2019
4294 Thunderstorm 18 1014 77 10000 5.7 290 14:57 02.08.2019
4295 Thunderstorm 19 1014 77 10000 5.7 290 14:39 02.08.2019
4296 Rain 19 1013 53 10000 1.5 0 14:18 02.08.2019
4297 Clouds 19 1013 57 10000 2.1 100 13:42 02.08.2019
4298 Clouds 19 1014 60 10000 2.1 0 13:19 02.08.2019
4299 Clouds 20 1014 60 10000 2.1 0 12:41 02.08.2019
4300 Clouds 20 1015 73 10000 0.5 0 12:19 02.08.2019
4301 Clouds 18 1016 77 10000 1 0 11:40 02.08.2019
4302 Clouds 18 1016 77 10000 0.5 0 11:22 02.08.2019
4303 Clouds 18 1016 82 10000 0.5 0 10:44 02.08.2019
4304 Clouds 18 1016 82 10000 0.5 0 10:24 02.08.2019
4305 Clouds 17 1016 82 10000 0.5 0 09:53 02.08.2019
4306 Clouds 17 1016 88 10000 0.5 0 09:30 02.08.2019
4307 Clouds 16 1016 93 10000 1 0 08:56 02.08.2019
4308 Clouds 16 1016 93 10000 1.5 270 08:26 02.08.2019
4309 Clouds 15 1016 93 10000 2.1 230 07:59 02.08.2019
4310 Clouds 15 1016 93 10000 2.1 230 07:39 02.08.2019
4311 Clouds 15 1016 93 10000 1.5 110 07:21 02.08.2019
4312 Clouds 15 1016 93 10000 1.5 250 06:27 02.08.2019
4313 Rain 15 1017 93 10000 1 290 05:42 02.08.2019
4314 Rain 15 1018 93 10000 1 0 03:33 02.08.2019
4315 Rain 16 1018 88 10000 2.1 330 02:37 02.08.2019
4316 Thunderstorm 16 1017 88 10000 2.1 310 01:34 02.08.2019
4317 Clouds 17 1016 77 10000 0.5 0 00:31 02.08.2019
4318 Clouds 17 1016 68 10000 0.5 0 23:44 01.08.2019
4319 Clouds 17 1016 68 10000 1.5 0 23:25 01.08.2019
4320 Clouds 17 1016 68 10000 0.5 0 22:42 01.08.2019
4321 Clouds 18 1016 73 10000 1.5 310 22:22 01.08.2019
4322 Clouds 18 1016 73 10000 1 0 21:56 01.08.2019
4323 Clouds 21 1016 73 10000 1 0 21:38 01.08.2019
4324 Clouds 21 1015 56 10000 2.6 80 21:20 01.08.2019
4325 Clouds 21 1015 56 10000 5.1 80 20:46 01.08.2019
4326 Clouds 22 1015 53 10000 5.1 60 20:23 01.08.2019
4327 Clouds 21 1015 57 10000 5.7 70 19:45 01.08.2019
4328 Clouds 22 1015 53 10000 5.7 80 19:24 01.08.2019
4329 Clouds 23 1015 50 10000 4.1 90 18:59 01.08.2019
4330 Clouds 23 1015 50 10000 4.1 90 18:40 01.08.2019
4331 Clouds 24 1014 50 10000 4.1 80 18:22 01.08.2019
4332 Clouds 24 1015 44 10000 3.1 80 17:46 01.08.2019
4333 Clouds 24 1015 47 10000 2.6 70 17:27 01.08.2019
4334 Clouds 25 1015 50 10000 3.1 90 16:45 01.08.2019
4335 Clouds 25 1015 50 10000 3.1 90 16:45 01.08.2019
4336 Clouds 24 1015 47 10000 2.1 0 16:22 01.08.2019
4337 Clouds 24 1015 44 10000 2.6 110 15:46 01.08.2019
4338 Clouds 24 1016 47 10000 2.6 100 15:21 01.08.2019
4339 Clouds 24 1016 53 10000 2.1 0 14:58 01.08.2019
4340 Clouds 24 1016 53 10000 2.1 0 14:40 01.08.2019
4341 Clouds 23 1016 50 10000 2.1 0 14:18 01.08.2019
4342 Clouds 23 1017 43 10000 2.6 90 13:41 01.08.2019
4343 Clouds 23 1017 43 10000 2.6 90 13:41 01.08.2019
4344 Clouds 23 1017 46 10000 1.5 0 13:22 01.08.2019
4345 Clouds 23 1018 56 10000 1 0 12:59 01.08.2019
4346 Clouds 23 1018 56 10000 1 0 12:59 01.08.2019
4347 Clouds 22 1018 56 10000 1 0 12:41 01.08.2019
4348 Clouds 21 1018 60 10000 1 0 12:21 01.08.2019
4349 Clouds 20 1019 64 10000 1 0 11:42 01.08.2019
4350 Clouds 19 1019 68 10000 1.5 0 11:22 01.08.2019
4351 Clouds 19 1019 68 10000 1.5 0 11:22 01.08.2019
4352 Clouds 20 1019 68 10000 1.5 0 10:46 01.08.2019
4353 Clouds 20 1020 77 10000 1 0 10:28 01.08.2019
4354 Clouds 20 1020 77 10000 0.5 0 09:59 01.08.2019
4355 Clouds 18 1020 77 10000 0.5 0 09:39 01.08.2019
4356 Clouds 15 1020 82 10000 0.5 0 09:21 01.08.2019
4357 Clouds 14 1020 87 10000 1 0 08:42 01.08.2019
4358 Clouds 14 1020 87 10000 1.5 80 08:19 01.08.2019
4359 Clouds 15 1020 87 10000 2.1 60 07:47 01.08.2019
4360 Clouds 14 1020 93 10000 1 0 07:24 01.08.2019
4361 Clouds 15 1020 87 10000 0.5 0 06:47 01.08.2019
4362 Clouds 12 1020 100 10000 1 0 05:50 01.08.2019
4363 Clouds 13 1020 93 10000 1 40 04:18 01.08.2019
4364 Clouds 13 1020 87 10000 1 0 02:32 01.08.2019
4365 Clouds 14 1020 93 10000 1 0 00:43 01.08.2019
4366 Clouds 14 1020 93 10000 1 30 00:24 01.08.2019
4367 Clouds 15 1020 88 10000 0.5 0 23:42 31.07.2019
4368 Clouds 15 1020 88 10000 1 0 23:20 31.07.2019
4369 Clouds 16 1020 82 10000 0.5 0 22:47 31.07.2019
4370 Clouds 16 1020 88 10000 0.5 0 22:29 31.07.2019
4371 Clouds 17 1020 82 10000 1 100 21:45 31.07.2019
4372 Clouds 16 1020 82 10000 1.5 120 21:25 31.07.2019
4373 Clouds 17 1019 82 10000 1.5 90 20:58 31.07.2019
4374 Clouds 17 1019 82 10000 1.5 90 20:58 31.07.2019
4375 Clouds 17 1019 82 10000 1.5 90 20:39 31.07.2019
4376 Clouds 17 1019 82 10000 2.1 60 20:21 31.07.2019
4377 Clouds 17 1019 82 10000 2.1 60 19:41 31.07.2019
4378 Clouds 18 1019 82 10000 2.1 90 19:23 31.07.2019
4379 Clouds 18 1019 77 10000 3.1 100 18:42 31.07.2019
4380 Clouds 18 1019 77 10000 3.6 70 18:23 31.07.2019
4381 Clouds 18 1019 77 10000 4.1 60 17:56 31.07.2019
4382 Clouds 18 1019 77 10000 4.1 60 17:37 31.07.2019
4383 Clouds 18 1019 82 10000 2.6 80 17:19 31.07.2019
4384 Clouds 18 1019 77 10000 3.6 60 16:42 31.07.2019
4385 Clouds 17 1019 82 10000 1.5 90 16:19 31.07.2019
4386 Clouds 17 1019 82 10000 1 0 15:44 31.07.2019
4387 Rain 16 1019 93 10000 1 0 15:24 31.07.2019
4388 Rain 16 1019 93 10000 1.5 340 14:43 31.07.2019
4389 Rain 16 1019 88 10000 2.1 290 14:22 31.07.2019
4390 Rain 16 1019 88 10000 3.1 250 13:57 31.07.2019
4391 Rain 16 1019 88 10000 3.1 250 13:38 31.07.2019
4392 Rain 17 1018 82 10000 1.5 270 13:20 31.07.2019
4393 Clouds 17 1018 77 10000 0.5 0 12:45 31.07.2019
4394 Clouds 17 1018 77 10000 0.5 0 12:45 31.07.2019
4395 Clouds 17 1018 77 10000 1 0 12:26 31.07.2019
4396 Clouds 17 1018 77 10000 3.1 260 11:55 31.07.2019
4397 Clouds 16 1018 77 10000 3.1 260 11:36 31.07.2019
4398 Clouds 16 1018 82 10000 4.1 280 11:18 31.07.2019
4399 Clouds 17 1018 88 10000 2.6 270 10:41 31.07.2019
4400 Clouds 17 1018 93 10000 3.1 260 10:20 31.07.2019
4401 Rain 17 1018 88 10000 2.1 250 09:43 31.07.2019
4402 Rain 16 1018 93 10000 2.1 260 09:24 31.07.2019
4403 Rain 16 1018 93 10000 2.1 260 09:24 31.07.2019
4404 Clouds 16 1017 93 10000 2.6 270 08:45 31.07.2019
4405 Clouds 17 1017 93 10000 1 0 08:26 31.07.2019
4406 Clouds 17 1017 93 10000 1 300 07:57 31.07.2019
4407 Clouds 17 1017 93 10000 1 300 07:34 31.07.2019
4408 Clouds 16 1016 93 10000 1 170 06:18 31.07.2019
4409 Clouds 16 1016 93 10000 1 0 04:49 31.07.2019
4410 Clouds 16 1016 93 10000 1 0 01:21 31.07.2019
4411 Clouds 17 1016 93 10000 0.5 0 23:57 30.07.2019
4412 Clouds 17 1016 93 10000 0.5 0 23:39 30.07.2019
4413 Clouds 17 1016 93 10000 1.5 320 23:18 30.07.2019
4414 Clouds 19 1016 93 10000 1 0 22:42 30.07.2019
4415 Clouds 19 1016 93 10000 1 0 22:23 30.07.2019
4416 Clouds 21 1016 88 10000 1 0 21:38 30.07.2019
4417 Rain 20 1015 94 10000 1 0 21:20 30.07.2019
4418 Rain 21 1015 94 10000 2.1 270 20:58 30.07.2019
4419 Rain 21 1015 94 10000 2.1 270 20:39 30.07.2019
4420 Rain 20 1014 83 8000 5.7 270 20:20 30.07.2019
4421 Rain 25 1013 57 10000 2.1 60 19:49 30.07.2019
4422 Thunderstorm 25 1013 57 10000 4.6 70 19:30 30.07.2019
4423 Clouds 25 1013 57 10000 4.1 80 18:48 30.07.2019
4424 Clouds 23 1013 54 10000 4.1 60 18:27 30.07.2019
4425 Clouds 24 1013 54 10000 4.1 70 17:59 30.07.2019
4426 Clouds 24 1013 54 10000 4.1 70 17:41 30.07.2019
4427 Clouds 24 1013 51 10000 3.6 80 17:19 30.07.2019
4428 Clouds 25 1013 51 10000 5.1 60 16:46 30.07.2019
4429 Clouds 25 1013 51 10000 2.6 70 16:20 30.07.2019
4430 Clouds 25 1013 48 10000 2.1 100 15:44 30.07.2019
4431 Clouds 26 1013 51 10000 3.1 50 15:22 30.07.2019
4432 Clouds 25 1013 51 10000 3.1 90 14:46 30.07.2019
4433 Clouds 25 1014 51 10000 3.1 100 14:27 30.07.2019
4434 Clouds 25 1014 50 10000 2.6 90 13:59 30.07.2019
4435 Clouds 24 1014 50 10000 2.6 90 13:40 30.07.2019
4436 Clouds 24 1014 54 10000 3.1 100 13:22 30.07.2019
4437 Clouds 23 1015 57 10000 2.6 80 12:46 30.07.2019
4438 Clouds 22 1015 60 10000 2.6 80 12:28 30.07.2019
4439 Rain 21 1012 74 0 0.45 333 11:56 30.07.2019
4440 Rain 21 1012 76 0 1.79 298 11:37 30.07.2019
4441 Rain 21 1012 78 0 1.79 309 11:18 30.07.2019
4442 Clouds 22 1015 73 10000 1 0 10:39 30.07.2019
4443 Clouds 21 1016 73 10000 2.1 260 10:20 30.07.2019
4444 Clouds 20 1016 77 10000 1.5 270 09:48 30.07.2019
4445 Clouds 19 1016 77 10000 2.1 260 09:28 30.07.2019
4446 Clear 17 1012 90 0 0.45 306 08:43 30.07.2019
4447 Clouds 17 1015 77 10000 0.5 0 08:20 30.07.2019
4448 Clouds 18 1015 88 10000 0.5 0 07:44 30.07.2019
4449 Clouds 17 1015 88 10000 0.5 0 07:23 30.07.2019
4450 Clouds 17 1015 88 10000 0.5 0 06:46 30.07.2019
4451 Clouds 18 1015 88 10000 0.5 0 05:47 30.07.2019
4452 Clouds 18 1014 88 10000 1 250 05:25 30.07.2019
4453 Clouds 17 1014 88 10000 1 160 01:38 30.07.2019
4454 Clouds 17 1014 88 10000 1.5 140 00:36 30.07.2019
4455 Clouds 16 1014 88 10000 0.5 0 00:18 30.07.2019
4456 Clouds 17 1014 88 10000 0.5 0 23:43 29.07.2019
4457 Clouds 18 1014 82 10000 0.5 0 23:24 29.07.2019
4458 Clouds 18 1013 82 10000 1 0 22:57 29.07.2019
4459 Clouds 18 1013 82 10000 1 0 22:57 29.07.2019
4460 Clouds 18 1013 82 10000 1 0 22:38 29.07.2019
4461 Clouds 19 1013 77 10000 0.5 0 22:18 29.07.2019
4462 Clouds 19 1012 82 10000 1.5 360 21:43 29.07.2019
4463 Clouds 19 1012 77 10000 1.5 40 21:24 29.07.2019
4464 Clouds 19 1012 73 10000 2.1 60 20:58 29.07.2019
4465 Clouds 19 1012 73 10000 2.1 60 20:40 29.07.2019
4466 Clouds 20 1011 73 10000 2.1 30 20:21 29.07.2019
4467 Clouds 22 1011 64 10000 3.1 60 19:50 29.07.2019
4468 Clouds 20 1011 60 10000 3.1 90 19:24 29.07.2019
4469 Clouds 21 1011 60 10000 3.1 110 18:59 29.07.2019
4470 Clouds 20 1011 60 10000 3.1 110 18:40 29.07.2019
4471 Clouds 20 1008 71 0 2.24 323 18:20 29.07.2019
4472 Clouds 20 1008 71 0 2.24 323 17:49 29.07.2019
4473 Clouds 20 1011 64 10000 3.6 80 17:31 29.07.2019
4474 Clouds 19 1011 60 10000 4.1 80 16:57 29.07.2019
4475 Clouds 20 1011 60 10000 4.1 80 16:37 29.07.2019
4476 Clouds 20 1012 64 10000 3.6 100 16:19 29.07.2019
4477 Clouds 20 1012 64 10000 3.6 90 15:47 29.07.2019
4478 Clouds 19 1012 64 10000 4.1 90 15:28 29.07.2019
4479 Rain 17 1009 77 0 1.34 307 14:43 29.07.2019
4480 Clouds 17 1013 72 10000 2.6 80 14:21 29.07.2019
4481 Clouds 17 1013 77 10000 3.1 70 13:55 29.07.2019
4482 Clouds 17 1013 77 10000 3.1 70 13:36 29.07.2019
4483 Clouds 17 1013 77 10000 2.6 70 13:18 29.07.2019
4484 Clouds 17 1013 77 10000 2.6 50 12:40 29.07.2019
4485 Clouds 16 1013 77 10000 2.1 60 12:21 29.07.2019
4486 Clouds 16 1013 82 10000 2.1 60 11:42 29.07.2019
4487 Clouds 16 1013 82 10000 1.5 70 11:20 29.07.2019
4488 Clouds 16 1012 82 10000 1 0 10:44 29.07.2019
4489 Clouds 15 1012 88 10000 1.5 80 10:23 29.07.2019
4490 Clouds 15 1012 93 10000 1 0 09:44 29.07.2019
4491 Clouds 16 1012 88 10000 1 0 09:23 29.07.2019
4492 Clouds 15 1012 88 10000 0.5 0 08:55 29.07.2019
4493 Clouds 15 1011 93 10000 0.5 0 08:27 29.07.2019
4494 Clouds 15 1011 93 10000 1 0 07:53 29.07.2019
4495 Clouds 15 1011 93 10000 1 0 07:31 29.07.2019
4496 Clouds 15 1010 93 10000 1 0 06:40 29.07.2019
4497 Clouds 14 1010 93 10000 1 0 05:37 29.07.2019
4498 Clouds 15 1009 93 10000 2.1 40 04:24 29.07.2019
4499 Clouds 16 1009 93 10000 2.1 230 01:53 29.07.2019
4500 Clouds 15 1009 93 10000 2.1 230 01:35 29.07.2019
4501 Rain 16 1008 93 10000 2.6 280 00:59 29.07.2019
4502 Rain 16 1008 93 10000 2.1 270 00:30 29.07.2019
4503 Rain 17 1007 93 10000 2.1 270 23:45 28.07.2019
4504 Rain 17 1007 88 10000 3.6 250 23:26 28.07.2019
4505 Rain 16 1007 93 10000 3.1 250 22:57 28.07.2019
4506 Rain 16 1007 93 10000 3.1 250 22:36 28.07.2019
4507 Rain 16 1006 93 10000 4.1 250 22:18 28.07.2019
4508 Rain 18 1006 93 10000 2.6 0 21:42 28.07.2019
4509 Rain 17 1005 93 10000 1.5 0 21:18 28.07.2019
4510 Rain 17 1005 93 7000 2.1 0 20:43 28.07.2019
4511 Rain 17 1005 93 8000 1.5 80 20:24 28.07.2019
4512 Rain 18 1004 93 10000 0.5 0 19:42 28.07.2019
4513 Rain 18 1004 93 10000 0.5 0 19:21 28.07.2019
4514 Rain 18 1004 93 8000 1 0 18:47 28.07.2019
4515 Rain 18 1003 93 10000 0.5 0 18:29 28.07.2019
4516 Rain 18 1003 93 7000 1.5 100 17:58 28.07.2019
4517 Rain 18 1003 93 7000 1.5 100 17:39 28.07.2019
4518 Rain 18 1003 93 9000 0.5 0 17:19 28.07.2019
4519 Rain 18 1003 88 10000 0.5 0 16:46 28.07.2019
4520 Rain 17 1002 88 10000 1 0 16:26 28.07.2019
4521 Rain 17 1002 82 10000 0.5 0 15:49 28.07.2019
4522 Rain 19 1002 82 10000 0.5 0 15:28 28.07.2019
4523 Rain 19 1002 82 10000 1 0 14:57 28.07.2019
4524 Rain 19 1002 82 10000 1 0 14:37 28.07.2019
4525 Rain 19 1002 82 10000 1 0 14:18 28.07.2019
4526 Rain 20 1001 77 10000 1.5 70 13:40 28.07.2019
4527 Clouds 21 1001 68 10000 1 0 13:21 28.07.2019
4528 Clouds 21 1000 68 10000 1 0 12:47 28.07.2019
4529 Clouds 20 1000 68 10000 1 0 12:28 28.07.2019
4530 Clouds 19 1000 72 10000 1.5 250 11:52 28.07.2019
4531 Clouds 19 1000 77 10000 0.5 0 11:32 28.07.2019
4532 Clouds 18 1001 77 10000 1.5 250 10:59 28.07.2019
4533 Clouds 18 1001 77 10000 1.5 250 10:39 28.07.2019
4534 Clouds 19 1001 77 10000 0.5 0 10:19 28.07.2019
4535 Clouds 17 1000 82 10000 3.1 280 09:41 28.07.2019
4536 Clouds 17 1001 88 10000 4.6 270 09:23 28.07.2019
4537 Clouds 16 1001 88 10000 2.6 240 08:44 28.07.2019
4538 Clouds 16 1001 93 10000 1.5 260 08:26 28.07.2019
4539 Clouds 16 1001 93 10000 1.5 230 07:44 28.07.2019
4540 Clouds 15 1001 93 10000 2.1 270 07:26 28.07.2019
4541 Clouds 15 1001 93 10000 1 0 06:36 28.07.2019
4542 Clouds 15 1001 93 10000 1.5 260 05:22 28.07.2019
4543 Clouds 15 1002 93 10000 1.5 280 02:43 28.07.2019
4544 Clouds 15 1002 93 10000 2.1 260 02:00 28.07.2019
4545 Clouds 16 1002 93 10000 3.1 270 01:18 28.07.2019
4546 Clouds 16 1002 93 10000 2.6 270 00:43 28.07.2019
4547 Clouds 16 1003 93 10000 3.1 260 23:54 27.07.2019
4548 Clouds 16 1003 93 10000 2.1 270 23:29 27.07.2019
4549 Clouds 17 1003 88 10000 1 0 22:47 27.07.2019
4550 Clouds 17 1003 88 10000 1 0 22:29 27.07.2019
4551 Clouds 17 1004 88 10000 1 0 21:59 27.07.2019
4552 Clouds 17 1004 88 10000 1 0 21:38 27.07.2019
4553 Rain 17 1004 88 10000 1 0 21:19 27.07.2019
4554 Rain 17 1004 88 10000 1.5 0 20:45 27.07.2019
4555 Rain 18 1004 82 10000 0.5 0 20:22 27.07.2019
4556 Clouds 18 1004 88 10000 1 0 19:42 27.07.2019
4557 Clouds 18 1004 88 10000 1.5 210 19:22 27.07.2019
4558 Rain 19 1004 82 10000 1.5 200 18:49 27.07.2019
4559 Rain 19 1004 82 10000 1 0 18:31 27.07.2019
4560 Rain 20 1003 82 10000 3.6 310 17:52 27.07.2019
4561 Rain 21 1003 82 10000 3.6 310 17:32 27.07.2019
4562 Rain 21 1003 82 10000 3.6 310 17:32 27.07.2019
4563 Thunderstorm 21 1002 49 10000 8.2 260 16:57 27.07.2019
4564 Thunderstorm 20 1002 49 10000 8.2 260 16:38 27.07.2019
4565 Thunderstorm 20 1002 50 10000 8.7 240 16:18 27.07.2019
4566 Thunderstorm 21 1002 42 10000 10.3 240 15:43 27.07.2019
4567 Clouds 25 1001 45 10000 2.6 80 15:19 27.07.2019
4568 Clouds 27 1002 54 10000 2.1 120 14:46 27.07.2019
4569 Clouds 27 1003 51 10000 3.1 70 14:27 27.07.2019
4570 Clouds 27 1004 51 10000 2.1 0 13:51 27.07.2019
4571 Clouds 26 1005 54 10000 2.1 0 13:25 27.07.2019
4572 Clouds 26 1005 50 10000 2.1 0 12:54 27.07.2019
4573 Clouds 24 1005 50 10000 2.1 0 12:36 27.07.2019
4574 Clouds 25 1006 50 10000 1 0 12:18 27.07.2019
4575 Clouds 24 1006 57 10000 1 0 11:39 27.07.2019
4576 Clouds 23 1006 60 10000 1 0 11:20 27.07.2019
4577 Clouds 22 1007 60 10000 1 0 10:41 27.07.2019
4578 Clouds 21 1007 68 10000 1.5 300 10:22 27.07.2019
4579 Clouds 22 1007 68 10000 2.6 260 09:41 27.07.2019
4580 Clouds 20 1007 68 10000 3.1 270 09:23 27.07.2019
4581 Clouds 19 1008 72 10000 1.5 290 08:49 27.07.2019
4582 Clouds 19 1008 72 10000 1.5 290 08:49 27.07.2019
4583 Clouds 20 1008 72 10000 1 0 08:31 27.07.2019
4584 Clouds 19 1008 77 10000 1 0 07:56 27.07.2019
4585 Clouds 18 1008 82 10000 1 0 07:33 27.07.2019
4586 Clouds 17 1008 82 10000 0.5 0 06:57 27.07.2019
4587 Clouds 17 1008 82 10000 0.5 0 06:57 27.07.2019
4588 Clouds 17 1008 82 10000 0.5 0 06:32 27.07.2019
4589 Clouds 18 1008 77 10000 1 0 05:53 27.07.2019
4590 Clouds 18 1008 82 10000 2.1 330 05:28 27.07.2019
4591 Clouds 18 1008 77 10000 1.5 280 04:35 27.07.2019
4592 Clouds 19 1009 77 10000 1 0 03:29 27.07.2019
4593 Clouds 18 1009 82 10000 0.5 0 02:41 27.07.2019
4594 Clouds 18 1010 82 10000 3.6 260 01:49 27.07.2019
4595 Clouds 19 1010 82 10000 1.5 300 01:21 27.07.2019
4596 Clouds 18 1011 82 10000 3.1 250 00:33 27.07.2019
4597 Clouds 20 1010 77 10000 2.1 260 23:55 26.07.2019
4598 Clouds 20 1010 77 10000 2.1 260 23:37 26.07.2019
4599 Clouds 20 1010 72 10000 2.6 270 23:18 26.07.2019
4600 Clouds 20 1010 77 10000 2.1 270 22:41 26.07.2019
4601 Clouds 21 1011 68 10000 1 0 22:23 26.07.2019
4602 Clouds 22 1012 64 10000 3.6 300 21:49 26.07.2019
4603 Clouds 21 1011 73 10000 4.1 290 21:20 26.07.2019
4604 Clouds 22 1011 68 10000 3.6 310 20:43 26.07.2019
4605 Rain 22 1011 68 10000 5.7 300 20:25 26.07.2019
4606 Clouds 21 1011 77 10000 5.7 290 19:44 26.07.2019
4607 Rain 23 1011 60 10000 7.2 250 19:25 26.07.2019
4608 Clouds 24 1011 57 10000 7.7 250 18:58 26.07.2019
4609 Clouds 24 1011 57 10000 7.7 250 18:38 26.07.2019
4610 Clouds 24 1011 57 10000 7.7 250 18:38 26.07.2019
4611 Thunderstorm 28 1011 83 10000 3.1 260 18:19 26.07.2019
4612 Clouds 28 1011 83 10000 1.5 0 17:46 26.07.2019
4613 Clouds 28 1011 83 10000 1.5 170 17:19 26.07.2019
4614 Thunderstorm 28 1011 83 10000 2.1 170 16:57 26.07.2019
4615 Thunderstorm 28 1011 83 10000 2.1 170 16:39 26.07.2019
4616 Thunderstorm 29 1011 83 10000 2.1 0 16:20 26.07.2019
4617 Thunderstorm 30 1011 69 10000 5.7 320 15:56 26.07.2019
4618 Thunderstorm 30 1011 69 10000 5.7 320 15:38 26.07.2019
4619 Clouds 31 1010 40 10000 3.6 90 15:19 26.07.2019
4620 Clouds 32 1011 45 10000 3.1 160 14:43 26.07.2019
4621 Thunderstorm 31 1011 48 10000 3.6 150 14:22 26.07.2019
4622 Thunderstorm 31 1012 43 10000 1.5 140 13:44 26.07.2019
4623 Clouds 30 1012 48 10000 1.5 210 13:26 26.07.2019
4624 Clouds 29 1013 51 10000 0.5 0 12:49 26.07.2019
4625 Clouds 28 1013 58 10000 0.5 0 12:22 26.07.2019
4626 Clouds 27 1014 57 10000 1 0 11:48 26.07.2019
4627 Clouds 27 1014 69 10000 1.5 300 11:22 26.07.2019
4628 Clouds 26 1015 64 10000 2.1 290 10:58 26.07.2019
4629 Clouds 25 1015 64 10000 2.1 290 10:39 26.07.2019
4630 Clouds 25 1015 64 10000 2.1 290 10:39 26.07.2019
4631 Clouds 25 1015 73 10000 2.6 280 10:18 26.07.2019
4632 Clouds 23 1015 78 10000 2.1 260 09:43 26.07.2019
4633 Clouds 22 1016 77 10000 2.1 260 09:24 26.07.2019
4634 Clouds 20 1016 88 10000 2.1 270 08:40 26.07.2019
4635 Clouds 21 1016 82 10000 1 0 08:20 26.07.2019
4636 Clouds 20 1016 82 10000 1 0 08:20 26.07.2019
4637 Clouds 19 1016 82 10000 2.1 240 07:39 26.07.2019
4638 Clouds 18 1016 88 10000 1 270 07:21 26.07.2019
4639 Clouds 18 1016 93 10000 0.5 0 06:21 26.07.2019
4640 Clouds 19 1017 93 10000 1.5 210 04:30 26.07.2019
4641 Clouds 19 1017 88 10000 1.5 280 03:50 26.07.2019
4642 Clouds 20 1017 88 10000 2.1 250 01:45 26.07.2019
4643 Clouds 19 1018 88 10000 1 0 01:18 26.07.2019
4644 Rain 21 1018 93 10000 1.5 180 00:28 26.07.2019
4645 Rain 22 1018 88 10000 2.6 240 23:44 25.07.2019
4646 Clear 22 1017 88 10000 3.6 260 23:20 25.07.2019
4647 Clear 20 1018 94 10000 2.6 240 22:41 25.07.2019
4648 Clear 20 1018 94 10000 1.5 280 22:21 25.07.2019
4649 Clouds 21 1017 88 10000 1.5 220 21:48 25.07.2019
4650 Clouds 24 1018 78 10000 4.6 60 21:23 25.07.2019
4651 Rain 24 1018 78 10000 3.6 10 20:57 25.07.2019
4652 Rain 24 1018 78 10000 3.6 10 20:38 25.07.2019
4653 Rain 23 1019 83 10000 3.6 230 20:18 25.07.2019
4654 Rain 23 1018 61 10000 2.6 120 19:40 25.07.2019
4655 Rain 23 1017 54 10000 3.1 0 19:21 25.07.2019
4656 Thunderstorm 32 1016 51 10000 5.1 130 18:42 25.07.2019
4657 Rain 29 1016 51 10000 6.7 140 18:23 25.07.2019
4658 Clouds 30 1015 48 10000 8.7 150 17:50 25.07.2019
4659 Clouds 31 1015 48 10000 8.7 150 17:31 25.07.2019
4660 Thunderstorm 32 1014 41 10000 5.7 50 16:57 25.07.2019
4661 Thunderstorm 32 1014 41 10000 5.7 50 16:38 25.07.2019
4662 Clouds 33 1015 41 10000 2.1 60 16:19 25.07.2019
4663 Clouds 33 1015 34 10000 1.5 110 15:44 25.07.2019
4664 Clouds 33 1015 38 10000 1.5 0 15:19 25.07.2019
4665 Clouds 32 1015 38 10000 2.6 100 14:43 25.07.2019
4666 Clouds 32 1016 41 10000 3.1 100 14:23 25.07.2019
4667 Clouds 32 1016 40 10000 2.6 90 13:55 25.07.2019
4668 Clouds 32 1016 40 10000 2.6 90 13:36 25.07.2019
4669 Clouds 32 1017 40 10000 1.5 0 13:18 25.07.2019
4670 Clouds 30 1018 45 10000 0.5 0 12:30 25.07.2019
4671 Clouds 29 1018 48 10000 1 0 11:47 25.07.2019
4672 Clouds 28 1018 54 10000 1.5 280 11:26 25.07.2019
4673 Clouds 28 1019 57 10000 0.5 0 10:59 25.07.2019
4674 Clouds 26 1019 57 10000 0.5 0 10:40 25.07.2019
4675 Clouds 27 1019 57 10000 2.6 260 10:22 25.07.2019
4676 Clouds 26 1020 61 10000 2.6 270 09:44 25.07.2019
4677 Clouds 23 1020 69 10000 2.1 260 09:25 25.07.2019
4678 Clouds 22 1020 69 10000 2.1 260 08:44 25.07.2019
4679 Clear 21 1020 73 10000 2.1 260 08:19 25.07.2019
4680 Clear 20 1020 77 10000 2.1 260 07:36 25.07.2019
4681 Clear 21 1020 82 10000 1 260 06:43 25.07.2019
4682 Clear 20 1020 82 10000 0.5 0 05:48 25.07.2019
4683 Clear 18 1020 77 10000 0.5 0 05:30 25.07.2019
4684 Clear 19 1020 82 10000 1.5 270 04:38 25.07.2019
4685 Clouds 21 1019 73 10000 0.5 0 01:48 25.07.2019
4686 Clouds 22 1019 73 10000 0.5 0 01:20 25.07.2019
4687 Clouds 22 1019 64 10000 0.5 0 00:20 25.07.2019
4688 Clouds 23 1019 61 10000 0.5 0 23:50 24.07.2019
4689 Clouds 23 1019 65 10000 1 0 23:31 24.07.2019
4690 Clear 23 1018 57 10000 1 0 22:56 24.07.2019
4691 Clear 26 1018 57 10000 1 0 22:38 24.07.2019
4692 Clouds 27 1018 54 10000 1 0 22:19 24.07.2019
4693 Clouds 29 1018 48 10000 1 0 21:43 24.07.2019
4694 Clouds 27 1017 42 10000 3.6 80 21:22 24.07.2019
4695 Clouds 28 1017 43 10000 4.6 50 20:57 24.07.2019
4696 Clouds 30 1017 43 10000 4.6 50 20:38 24.07.2019
4697 Clouds 31 1017 43 10000 5.1 60 20:19 24.07.2019
4698 Clouds 32 1016 40 10000 4.6 50 19:54 24.07.2019
4699 Clouds 32 1016 40 10000 4.6 50 19:36 24.07.2019
4700 Clouds 32 1016 40 10000 4.6 50 19:36 24.07.2019
4701 Clouds 32 1016 40 10000 4.6 50 19:36 24.07.2019
4702 Clouds 33 1016 40 10000 3.6 40 19:18 24.07.2019
4703 Clouds 35 1016 36 10000 6.2 70 18:37 24.07.2019
4704 Clouds 32 1016 30 10000 5.1 80 18:19 24.07.2019
4705 Clouds 34 1016 28 10000 3.6 70 17:42 24.07.2019
4706 Clouds 33 1016 28 10000 3.1 70 17:20 24.07.2019
4707 Clouds 34 1016 30 10000 3.1 100 16:41 24.07.2019
4708 Clouds 33 1017 26 10000 2.1 0 16:21 24.07.2019
4709 Clouds 33 1017 24 10000 3.1 110 15:40 24.07.2019
4710 Clouds 33 1017 28 10000 2.1 60 15:21 24.07.2019
4711 Clouds 32 1017 31 10000 1.5 0 14:56 24.07.2019
4712 -273 0 0 0 0 0 14:56 24.07.2019
4713 Clouds 32 1017 31 10000 1.5 0 14:38 24.07.2019
4714 Clouds 32 1017 36 10000 1 0 14:18 24.07.2019
4715 Clouds 31 1018 35 10000 1 0 13:37 24.07.2019
4716 Clouds 31 1018 43 10000 1 0 13:18 24.07.2019
4717 Clouds 31 1018 40 10000 1 0 12:49 24.07.2019
4718 Clouds 29 1019 45 10000 1 0 12:26 24.07.2019
4719 Clouds 27 1019 48 10000 1 0 11:39 24.07.2019
4720 Clouds 28 1019 51 10000 1 0 11:20 24.07.2019
4721 Clouds 28 1020 54 10000 2.1 290 10:44 24.07.2019
4722 Clear 26 1020 57 10000 1 0 10:25 24.07.2019
4723 Clear 26 1020 69 10000 2.6 280 09:45 24.07.2019
4724 Clear 22 1020 64 10000 0.5 0 09:25 24.07.2019
4725 Clear 21 1021 73 10000 2.1 260 08:57 24.07.2019
4726 Clear 20 1021 72 10000 1.5 260 08:30 24.07.2019
4727 Clear 19 1021 77 10000 1 270 07:52 24.07.2019
4728 Clear 18 1021 82 10000 2.1 260 07:24 24.07.2019
4729 Clear 17 1021 88 10000 1.5 260 06:31 24.07.2019
4730 Clear 17 1021 82 10000 2.1 280 05:54 24.07.2019
4731 Clouds 17 1021 77 10000 1.5 270 02:45 24.07.2019
4732 Clouds 18 1021 77 10000 1.5 280 01:30 24.07.2019
4733 Clouds 18 1021 73 10000 0.5 0 00:57 24.07.2019
4734 Clouds 20 1021 68 10000 0.5 0 00:23 24.07.2019
4735 Clouds 21 1020 68 10000 0.5 0 23:42 23.07.2019
4736 Clear 22 1020 68 10000 0.5 0 23:24 23.07.2019
4737 Clear 21 1020 60 10000 0.5 0 22:40 23.07.2019
4738 Clear 21 1020 60 10000 1 0 22:20 23.07.2019
4739 Clear 25 1020 57 10000 1 340 21:59 23.07.2019
4740 Clear 25 1020 57 10000 1 340 21:41 23.07.2019
4741 Clear 26 1019 50 10000 1 0 21:22 23.07.2019
4742 Clear 27 1019 45 10000 1.5 30 20:47 23.07.2019
4743 Clouds 28 1019 42 10000 2.1 20 20:25 23.07.2019
4744 Clouds 30 1019 33 10000 3.6 80 19:43 23.07.2019
4745 Clouds 31 1019 33 10000 4.6 80 19:22 23.07.2019
4746 Clouds 32 1019 29 10000 5.1 80 18:52 23.07.2019
4747 Clouds 30 1019 29 10000 5.1 70 18:24 23.07.2019
4748 Clouds 31 1019 31 10000 4.6 70 17:45 23.07.2019
4749 Clouds 31 1019 27 10000 4.1 70 17:27 23.07.2019
4750 Clouds 31 1019 31 10000 3.6 60 16:58 23.07.2019
4751 Clouds 32 1019 31 10000 3.6 60 16:40 23.07.2019
4752 Clouds 32 1020 31 10000 3.1 60 16:19 23.07.2019
4753 Clouds 31 1020 29 10000 3.6 50 15:46 23.07.2019
4754 Clouds 30 1020 31 10000 3.1 80 15:24 23.07.2019
4755 Clouds 30 1021 33 10000 2.6 90 14:40 23.07.2019
4756 Clouds 29 1021 40 10000 2.6 80 14:21 23.07.2019
4757 Clouds 29 1022 39 10000 2.6 0 13:58 23.07.2019
4758 Clouds 29 1022 39 10000 2.6 0 13:39 23.07.2019
4759 Clouds 29 1022 45 10000 2.1 0 13:20 23.07.2019
4760 Clouds 28 1022 45 10000 1.5 0 12:48 23.07.2019
4761 Clouds 26 1023 50 10000 1 0 12:26 23.07.2019
4762 Clouds 25 1023 54 10000 1 0 11:50 23.07.2019
4763 Clouds 26 1023 54 10000 1 0 11:32 23.07.2019
4764 Clouds 25 1024 57 10000 1.5 290 10:59 23.07.2019
4765 Clouds 25 1024 57 10000 1.5 290 10:41 23.07.2019
4766 Clouds 24 1024 64 10000 1.5 270 10:20 23.07.2019
4767 Clouds 23 1025 68 10000 2.1 280 09:41 23.07.2019
4768 Clouds 20 1025 72 10000 1.5 270 09:19 23.07.2019
4769 Clouds 19 1025 77 10000 1.5 260 08:43 23.07.2019
4770 Clouds 17 1025 82 10000 1 0 08:19 23.07.2019
4771 Clear 18 1025 88 10000 1.5 230 07:55 23.07.2019
4772 Clear 17 1025 88 10000 1.5 230 07:36 23.07.2019
4773 Clear 17 1025 87 10000 2.1 250 06:46 23.07.2019
4774 Clear 16 1025 87 10000 1 220 06:28 23.07.2019
4775 Clouds 17 1025 88 10000 1 260 02:57 23.07.2019
4776 Clouds 16 1025 82 10000 0.5 0 01:33 23.07.2019
4777 Clouds 17 1025 82 10000 0.5 0 00:31 23.07.2019
4778 Clouds 19 1025 77 10000 0.5 0 23:56 22.07.2019
4779 Clouds 20 1025 77 10000 0.5 0 23:36 22.07.2019
4780 Clear 20 1025 73 10000 1 270 23:18 22.07.2019
4781 Clear 19 1025 68 10000 1 0 22:42 22.07.2019
4782 Clouds 19 1024 60 10000 0.5 0 22:20 22.07.2019
4783 Clouds 24 1024 60 10000 1 0 21:43 22.07.2019
4784 Clouds 23 1024 54 10000 2.1 100 21:22 22.07.2019
4785 Clouds 25 1023 54 10000 3.6 70 20:49 22.07.2019
4786 Clouds 25 1023 54 10000 3.6 60 20:31 22.07.2019
4787 Clouds 26 1023 45 10000 4.1 80 19:57 22.07.2019
4788 Clouds 28 1023 45 10000 4.1 80 19:37 22.07.2019
4789 Clouds 28 1023 48 10000 4.6 60 19:18 22.07.2019
4790 Clouds 28 1023 48 10000 5.7 60 18:46 22.07.2019
4791 Clouds 27 1023 42 10000 4.6 60 18:27 22.07.2019
4792 Clouds 27 1023 48 10000 5.7 50 17:44 22.07.2019
4793 Clouds 28 1023 39 10000 4.6 80 17:26 22.07.2019
4794 Clouds 28 1023 39 10000 4.1 80 16:59 22.07.2019
4795 Clouds 28 1023 39 10000 4.1 80 16:38 22.07.2019
4796 Clouds 28 1023 39 10000 4.1 80 16:38 22.07.2019
4797 Clouds 28 1023 42 10000 3.6 60 16:20 22.07.2019
4798 Clouds 28 1023 45 10000 2.1 0 15:44 22.07.2019
4799 Clouds 27 1024 42 10000 2.6 60 15:19 22.07.2019
4800 Clouds 27 1024 45 10000 2.1 90 14:44 22.07.2019
4801 Clouds 27 1024 47 10000 2.6 50 14:22 22.07.2019
4802 Clouds 26 1024 47 10000 0.5 0 13:50 22.07.2019
4803 Clouds 25 1025 57 10000 1 0 13:30 22.07.2019
4804 Clouds 24 1025 57 10000 1 0 12:51 22.07.2019
4805 Clouds 24 1025 64 10000 0.5 0 12:31 22.07.2019
4806 Clouds 23 1026 64 10000 1 0 11:56 22.07.2019
4807 Clouds 22 1026 64 10000 1 0 11:36 22.07.2019
4808 Clouds 22 1026 64 10000 1 0 11:36 22.07.2019
4809 Clouds 22 1026 64 10000 1 0 11:18 22.07.2019
4810 Clouds 22 1026 73 10000 0.5 0 10:37 22.07.2019
4811 Clouds 21 1026 73 10000 1.5 290 10:18 22.07.2019
4812 Clouds 20 1027 77 10000 1.5 250 09:39 22.07.2019
4813 Clouds 18 1027 82 10000 1.5 260 09:20 22.07.2019
4814 Clouds 17 1027 88 10000 1.5 250 08:38 22.07.2019
4815 Clouds 16 1027 88 10000 1.5 250 08:20 22.07.2019
4816 Clouds 16 1027 88 10000 1.5 260 07:47 22.07.2019
4817 Clouds 15 1027 93 10000 1 270 07:27 22.07.2019
4818 Clouds 15 1027 93 10000 1 0 05:30 22.07.2019
4819 Clouds 15 1026 93 10000 1 0 03:44 22.07.2019
4820 Clouds 16 1026 88 10000 0.5 0 01:25 22.07.2019
4821 Clouds 16 1026 88 10000 1.5 160 00:42 22.07.2019
4822 Rain 17 1026 88 10000 1.5 120 00:20 22.07.2019
4823 Rain 18 1026 88 10000 1 0 23:46 21.07.2019
4824 Clouds 18 1025 82 10000 1 0 22:58 21.07.2019
4825 Clouds 21 1025 82 10000 1 0 22:39 21.07.2019
4826 Clouds 21 1025 82 10000 1.5 30 22:20 21.07.2019
4827 Clouds 21 1025 73 10000 1.5 100 21:49 21.07.2019
4828 Clouds 20 1024 73 10000 2.6 70 21:26 21.07.2019
4829 Clouds 20 1024 73 10000 1.5 60 20:59 21.07.2019
4830 Clouds 20 1024 73 10000 1.5 60 20:41 21.07.2019
4831 Clouds 21 1023 69 10000 2.1 70 20:22 21.07.2019
4832 Clouds 21 1023 69 10000 2.1 20 19:49 21.07.2019
4833 Clouds 21 1023 64 10000 1.5 30 19:29 21.07.2019
4834 Clouds 22 1023 57 10000 1 0 18:51 21.07.2019
4835 Clouds 22 1023 57 10000 1 0 18:28 21.07.2019
4836 Clouds 22 1023 60 10000 1 0 17:56 21.07.2019
4837 Rain 21 1020 71 0 1.79 306 17:38 21.07.2019
4838 Rain 21 1020 73 0 2.13 351.992 17:18 21.07.2019
4839 Rain 21 1020 81 0 0.45 283 16:41 21.07.2019
4840 Clouds 21 1024 69 10000 1 0 16:22 21.07.2019
4841 Clouds 21 1024 73 10000 1.5 0 15:41 21.07.2019
4842 Clouds 20 1025 83 10000 2.1 70 15:21 21.07.2019
4843 Clouds 20 1025 83 10000 2.1 70 15:21 21.07.2019
4844 Clouds 20 1025 77 10000 2.1 90 14:51 21.07.2019
4845 Clouds 20 1025 82 10000 1.5 80 14:25 21.07.2019
4846 Rain 19 1025 82 10000 1.5 90 13:53 21.07.2019
4847 Rain 19 1025 82 10000 1.5 90 13:34 21.07.2019
4848 Rain 17 1025 82 10000 1 0 12:57 21.07.2019
4849 Rain 18 1025 82 10000 1 0 12:39 21.07.2019
4850 Clouds 17 1025 82 10000 2.6 120 12:20 21.07.2019
4851 Rain 17 1025 88 10000 1 0 11:45 21.07.2019
4852 Rain 17 1025 88 10000 1.5 90 11:25 21.07.2019
4853 Clouds 16 1025 88 10000 3.1 120 10:43 21.07.2019
4854 Rain 16 1024 93 10000 2.6 120 10:24 21.07.2019
4855 Rain 16 1025 93 10000 3.1 70 09:52 21.07.2019
4856 Rain 16 1025 93 10000 3.1 70 09:32 21.07.2019
4857 Rain 16 1023 88 10000 2.1 70 08:49 21.07.2019
4858 Rain 16 1024 88 10000 1 0 08:28 21.07.2019
4859 Rain 15 1023 93 10000 1.5 80 07:53 21.07.2019
4860 Rain 16 1022 88 10000 2.1 120 07:18 21.07.2019
4861 Clouds 14 1021 93 10000 1 360 05:56 21.07.2019
4862 Clouds 15 1023 93 10000 2.1 260 02:59 21.07.2019
4863 Clouds 15 1023 88 10000 1.5 250 01:51 21.07.2019
4864 Clouds 16 1023 88 10000 2.1 280 00:44 21.07.2019
4865 Clouds 17 1023 82 10000 1 0 00:20 21.07.2019
4866 Rain 17 1022 88 10000 2.1 120 23:44 20.07.2019
4867 Clouds 17 1022 88 10000 2.1 90 23:23 20.07.2019
4868 Clouds 17 1022 88 10000 3.1 60 22:49 20.07.2019
4869 Clouds 17 1022 82 10000 3.1 100 22:23 20.07.2019
4870 Clouds 17 1021 82 10000 2.1 100 21:58 20.07.2019
4871 Clouds 18 1021 82 10000 2.1 100 21:39 20.07.2019
4872 Rain 18 1021 77 10000 2.6 100 21:21 20.07.2019
4873 Rain 20 1020 72 10000 3.6 70 20:42 20.07.2019
4874 Rain 20 1020 72 10000 3.6 70 20:42 20.07.2019
4875 Rain 20 1019 73 10000 10.8 250 20:21 20.07.2019
4876 Rain 23 1017 68 10000 8.2 260 19:46 20.07.2019
4877 Thunderstorm 25 1016 53 10000 6.7 260 19:23 20.07.2019
4878 Thunderstorm 28 1015 45 10000 4.6 270 18:44 20.07.2019
4879 Clouds 28 1015 35 10000 2.6 220 18:22 20.07.2019
4880 Clouds 29 1014 35 10000 3.6 250 17:55 20.07.2019
4881 Clouds 30 1014 27 10000 1.5 210 17:26 20.07.2019
4882 Clouds 30 1014 27 10000 1 0 16:45 20.07.2019
4883 Clouds 29 1015 35 10000 1.5 0 16:27 20.07.2019
4884 Clouds 30 1015 26 10000 0.5 0 15:58 20.07.2019
4885 Clouds 30 1015 26 10000 0.5 0 15:58 20.07.2019
4886 Clouds 32 1015 26 10000 0.5 0 15:40 20.07.2019
4887 Clouds 32 1015 24 10000 2.1 0 15:20 20.07.2019
4888 Clouds 31 1015 25 10000 2.1 290 14:48 20.07.2019
4889 Clouds 31 1016 29 10000 1.5 250 14:29 20.07.2019
4890 Clouds 30 1016 35 10000 1.5 250 13:54 20.07.2019
4891 Clouds 30 1016 35 10000 1.5 250 13:36 20.07.2019
4892 Clouds 30 1016 35 10000 1.5 250 13:36 20.07.2019
4893 Clouds 30 1016 35 10000 1.5 250 13:36 20.07.2019
4894 Clouds 30 1016 35 10000 1.5 250 13:36 20.07.2019
4895 Clouds 30 1016 35 10000 1.5 250 13:36 20.07.2019
4896 Clouds 29 1016 39 10000 1 0 13:18 20.07.2019
4897 Clouds 28 1016 39 10000 1 0 12:38 20.07.2019
4898 Clouds 27 1017 44 10000 1.5 0 12:18 20.07.2019
4899 Clouds 26 1017 47 10000 3.1 270 11:40 20.07.2019
4900 Clouds 25 1017 50 10000 3.6 260 11:19 20.07.2019
4901 Clouds 25 1018 57 10000 4.6 270 10:37 20.07.2019
4902 Clouds 23 1018 60 10000 4.1 270 10:19 20.07.2019
4903 Clear 22 1018 64 10000 4.1 270 09:46 20.07.2019
4904 Clouds 19 1018 72 10000 3.1 280 09:24 20.07.2019
4905 Clouds 18 1019 72 10000 2.6 270 08:48 20.07.2019
4906 Clouds 18 1019 72 10000 1.5 260 08:21 20.07.2019
4907 Clear 16 1019 77 10000 0.5 0 07:34 20.07.2019
4908 Clear 15 1019 87 10000 1.5 280 06:43 20.07.2019
4909 Clouds 14 1018 82 10000 1 270 05:21 20.07.2019
4910 Clouds 13 1018 77 10000 1 0 04:30 20.07.2019
4911 Clouds 16 1018 72 10000 1 0 01:23 20.07.2019
4912 Clouds 16 1018 72 10000 0.5 0 00:50 20.07.2019
4913 Clouds 16 1017 72 10000 0.5 0 00:28 20.07.2019
4914 Clouds 19 1017 68 10000 0.5 0 23:56 19.07.2019
4915 Clouds 19 1017 68 10000 0.5 0 23:37 19.07.2019
4916 Clouds 19 1017 68 10000 1.42 184.377 23:18 19.07.2019
4917 Clouds 20 1017 64 10000 1 290 22:40 19.07.2019
4918 Clouds 22 1016 56 10000 0.5 0 22:20 19.07.2019
4919 Clouds 22 1016 56 10000 1 0 21:43 19.07.2019
4920 Clouds 22 1016 50 10000 0.5 0 21:24 19.07.2019
4921 Clouds 24 1016 50 10000 2.1 50 20:44 19.07.2019
4922 Clouds 24 1015 47 10000 4.1 60 20:25 19.07.2019
4923 Clouds 26 1015 41 10000 5.7 60 19:40 19.07.2019
4924 Clouds 26 1015 44 10000 5.1 60 19:19 19.07.2019
4925 Clouds 27 1015 36 10000 4.1 70 18:41 19.07.2019
4926 Clouds 26 1015 32 10000 4.1 90 18:19 19.07.2019
4927 Clouds 26 1015 32 10000 4.1 90 18:19 19.07.2019
4928 Clouds 26 1015 34 10000 3.6 60 17:46 19.07.2019
4929 Clouds 26 1015 28 10000 3.1 60 17:25 19.07.2019
4930 Clouds 26 1015 39 10000 1 0 16:48 19.07.2019
4931 Clouds 27 1015 30 10000 2.1 260 16:25 19.07.2019
4932 Clouds 26 1015 36 10000 2.1 10 15:48 19.07.2019
4933 Clouds 26 1015 32 10000 1.5 0 15:29 19.07.2019
4934 Clouds 27 1015 32 10000 2.1 0 14:56 19.07.2019
4935 Clouds 27 1015 32 10000 2.1 0 14:56 19.07.2019
4936 Clouds 27 1015 32 10000 2.1 0 14:38 19.07.2019
4937 Clouds 26 1015 32 10000 1.5 0 14:19 19.07.2019
4938 Clouds 26 1016 36 10000 1 0 13:43 19.07.2019
4939 Clouds 26 1016 36 10000 1 0 13:22 19.07.2019
4940 Clouds 25 1016 36 10000 1 0 12:49 19.07.2019
4941 Clouds 24 1017 38 10000 0.5 0 12:30 19.07.2019
4942 Clouds 24 1017 38 10000 0.5 0 12:30 19.07.2019
4943 Clouds 23 1017 40 10000 1 0 11:47 19.07.2019
4944 Clouds 22 1017 46 10000 2.6 270 11:20 19.07.2019
4945 Clouds 22 1018 52 10000 3.1 270 10:58 19.07.2019
4946 Clouds 21 1018 52 10000 3.6 290 10:40 19.07.2019
4947 Clouds 21 1018 52 10000 3.6 290 10:20 19.07.2019
4948 Clouds 20 1018 59 10000 3.6 270 09:44 19.07.2019
4949 Clouds 17 1018 63 10000 2.6 270 09:22 19.07.2019
4950 Clouds 17 1018 63 10000 2.6 270 09:22 19.07.2019
4951 Clouds 17 1018 63 10000 2.6 270 09:22 19.07.2019
4952 Clouds 16 1018 67 10000 1 0 08:56 19.07.2019
4953 Clouds 16 1018 72 10000 2.1 250 08:38 19.07.2019
4954 Clouds 14 1018 77 10000 2.1 250 07:42 19.07.2019
4955 Clouds 14 1018 77 10000 1 270 07:23 19.07.2019
4956 Clouds 13 1018 82 10000 1.5 260 05:39 19.07.2019
4957 Clouds 13 1017 72 10000 1.5 260 01:56 19.07.2019
4958 Clouds 14 1017 72 10000 1 0 00:58 19.07.2019
4959 Clouds 15 1016 68 10000 1 0 00:25 19.07.2019
4960 Clouds 16 1016 68 10000 0.5 0 23:42 18.07.2019
4961 Clouds 17 1016 60 10000 1 0 23:23 18.07.2019
4962 Clouds 18 1016 68 10000 0.5 0 22:57 18.07.2019
4963 Clouds 18 1016 68 10000 0.5 0 22:39 18.07.2019
4964 Clouds 20 1016 60 10000 0.5 0 22:18 18.07.2019
4965 Clouds 20 1015 60 10000 1 0 21:39 18.07.2019
4966 Clouds 19 1014 60 10000 1 0 21:20 18.07.2019
4967 Clouds 20 1014 49 10000 0.5 0 20:48 18.07.2019
4968 Clouds 21 1014 43 10000 2.1 80 20:27 18.07.2019
4969 Clouds 25 1014 43 10000 4.1 50 19:51 18.07.2019
4970 Clouds 23 1013 44 10000 5.1 60 19:28 18.07.2019
4971 Clouds 22 1013 36 10000 5.1 70 18:52 18.07.2019
4972 Clouds 23 1013 38 10000 5.1 60 18:23 18.07.2019
4973 Clouds 23 1013 41 10000 3.6 40 17:57 18.07.2019
4974 Clouds 24 1013 41 10000 3.6 40 17:38 18.07.2019
4975 Clouds 24 1013 41 10000 4.6 80 17:19 18.07.2019
4976 Clouds 24 1013 41 10000 5.7 80 16:49 18.07.2019
4977 Clouds 24 1013 44 10000 6.7 60 16:26 18.07.2019
4978 Rain 24 1013 41 10000 6.2 70 15:58 18.07.2019
4979 Rain 24 1013 41 10000 6.2 70 15:36 18.07.2019
4980 Clouds 24 1013 34 10000 3.1 40 14:56 18.07.2019
4981 Clouds 24 1013 34 10000 3.1 40 14:38 18.07.2019
4982 Clouds 25 1013 36 10000 1 0 14:19 18.07.2019
4983 Clouds 24 1013 38 10000 1.5 0 13:43 18.07.2019
4984 Clouds 23 1013 44 10000 1 0 13:21 18.07.2019
4985 Clouds 22 1014 49 10000 1 0 12:46 18.07.2019
4986 Clouds 22 1014 53 10000 1 0 12:21 18.07.2019
4987 Clouds 21 1014 53 10000 1 0 11:52 18.07.2019
4988 Clouds 20 1014 60 10000 1.5 240 11:33 18.07.2019
4989 Clouds 21 1015 63 10000 1.5 280 10:52 18.07.2019
4990 Clouds 21 1015 63 10000 1.5 280 10:52 18.07.2019
4991 Clouds 20 1015 63 10000 1.5 280 10:30 18.07.2019
4992 Clouds 19 1015 68 10000 3.1 270 09:45 18.07.2019
4993 Clouds 17 1015 72 10000 3.1 260 09:23 18.07.2019
4994 Clouds 16 1015 72 10000 2.6 260 08:47 18.07.2019
4995 Clouds 15 1015 77 10000 2.1 260 08:20 18.07.2019
4996 Clouds 15 1015 82 10000 2.1 270 07:43 18.07.2019
4997 Clouds 13 1015 82 10000 1.5 260 07:24 18.07.2019
4998 Clouds 13 1015 87 10000 1 250 06:37 18.07.2019
4999 Clouds 13 1015 87 10000 0.5 0 05:33 18.07.2019
5000 Clouds 14 1014 72 10000 2.6 70 02:55 18.07.2019
5001 Clouds 14 1014 82 10000 2.1 90 01:50 18.07.2019
5002 Clouds 15 1014 72 10000 1.5 90 00:36 18.07.2019
5003 Rain 17 1014 72 10000 3.1 100 23:49 17.07.2019
5004 Clouds 17 1014 72 10000 2.1 110 23:20 17.07.2019
5005 Clouds 16 1013 68 10000 2.6 110 22:56 17.07.2019
5006 Clouds 20 1013 68 10000 2.6 110 22:38 17.07.2019
5007 Clouds 21 1013 64 10000 2.6 110 22:18 17.07.2019
5008 Clouds 22 1013 56 10000 2.6 130 21:43 17.07.2019
5009 Clouds 20 1012 56 10000 1.5 130 21:25 17.07.2019
5010 Clouds 21 1012 53 10000 3.1 90 20:58 17.07.2019
5011 Clouds 22 1012 53 10000 3.1 90 20:39 17.07.2019
5012 Clouds 23 1012 47 10000 5.1 70 20:20 17.07.2019
5013 Clouds 25 1012 50 10000 3.6 90 19:44 17.07.2019
5014 Clouds 25 1011 44 10000 6.2 70 19:22 17.07.2019
5015 Clouds 26 1011 41 10000 2.6 100 18:59 17.07.2019
5016 Clouds 24 1011 41 10000 2.6 100 18:40 17.07.2019
5017 Thunderstorm 25 1011 41 10000 4.1 40 18:20 17.07.2019
5018 Clouds 25 1011 34 10000 4.1 80 17:50 17.07.2019
5019 Clouds 25 1011 34 10000 4.1 80 17:26 17.07.2019
5020 Clouds 26 1011 37 10000 3.6 60 16:55 17.07.2019
5021 Clouds 27 1011 32 10000 4.1 70 16:37 17.07.2019
5022 Clouds 27 1011 32 10000 4.1 70 16:18 17.07.2019
5023 Clouds 25 1012 32 10000 2.6 60 15:44 17.07.2019
5024 Clouds 25 1012 32 10000 2.6 60 15:25 17.07.2019
5025 Clouds 26 1012 36 10000 2.1 0 14:54 17.07.2019
5026 Clouds 25 1012 41 10000 3.1 50 14:36 17.07.2019
5027 Clouds 25 1012 41 10000 3.1 50 14:18 17.07.2019
5028 Clouds 25 1013 41 10000 1 0 13:40 17.07.2019
5029 Clouds 25 1013 50 10000 1 0 13:20 17.07.2019
5030 Clouds 24 1014 44 10000 1 0 12:40 17.07.2019
5031 Clouds 22 1014 49 10000 1 0 12:20 17.07.2019
5032 Clouds 23 1015 53 10000 1 0 11:45 17.07.2019
5033 Clouds 21 1015 53 10000 1 0 11:21 17.07.2019
5034 Clouds 22 1015 60 10000 1.5 290 10:50 17.07.2019
5035 Clouds 21 1016 59 10000 1.5 270 10:29 17.07.2019
5036 Clouds 20 1016 68 10000 1.5 260 09:58 17.07.2019
5037 Clear 17 1016 72 10000 2.1 260 09:39 17.07.2019
5038 Clear 16 1017 72 10000 1.5 270 09:20 17.07.2019
5039 Clear 15 1017 77 10000 2.1 260 08:41 17.07.2019
5040 Clear 15 1017 77 10000 2.1 260 08:21 17.07.2019
5041 Clear 13 1017 87 10000 2.6 260 07:47 17.07.2019
5042 Clear 14 1017 87 10000 2.6 260 07:23 17.07.2019
5043 Clear 14 1017 87 10000 2.6 260 07:23 17.07.2019
5044 Clear 13 1017 82 10000 1 0 06:49 17.07.2019
5045 Clear 13 1017 87 10000 1.5 250 06:29 17.07.2019
5046 Clouds 11 1017 82 10000 0.5 0 05:47 17.07.2019
5047 Clouds 11 1017 82 10000 0.5 0 05:25 17.07.2019
5048 Clouds 10 1017 82 10000 0.5 0 04:32 17.07.2019
5049 Clouds 13 1017 82 10000 1.5 260 02:52 17.07.2019
5050 Clouds 12 1017 77 10000 0.5 0 01:59 17.07.2019
5051 Clouds 13 1017 77 10000 0.5 0 01:24 17.07.2019
5052 Clouds 14 1017 67 10000 0.5 0 00:47 17.07.2019
5053 Clouds 15 1017 67 10000 0.5 0 00:24 17.07.2019
5054 Clouds 15 1017 67 10000 0.5 0 23:57 16.07.2019
5055 Clouds 16 1017 63 10000 0.5 0 23:29 16.07.2019
5056 Clouds 19 1017 59 10000 1 0 22:58 16.07.2019
5057 Clouds 20 1016 56 10000 1 0 22:40 16.07.2019
5058 Clouds 18 1016 56 10000 1 0 22:20 16.07.2019
5059 Clouds 21 1015 43 10000 4.1 90 21:45 16.07.2019
5060 Clouds 20 1015 43 10000 4.1 90 21:21 16.07.2019
5061 Clouds 21 1015 43 10000 4.1 100 20:58 16.07.2019
5062 Clouds 22 1015 41 10000 6.2 90 20:38 16.07.2019
5063 Clouds 22 1015 38 10000 4.6 80 20:20 16.07.2019
5064 Clouds 24 1015 38 10000 5.1 80 19:47 16.07.2019
5065 Clouds 24 1015 38 10000 5.1 80 19:27 16.07.2019
5066 Clouds 26 1014 36 10000 3.6 70 18:47 16.07.2019
5067 Clouds 23 1014 36 10000 3.6 70 18:21 16.07.2019
5068 Clouds 23 1014 31 10000 3.6 50 17:58 16.07.2019
5069 Clouds 23 1015 34 10000 3.6 50 17:40 16.07.2019
5070 Clouds 24 1015 34 10000 3.6 50 17:20 16.07.2019
5071 Clouds 24 1015 36 10000 1 0 16:43 16.07.2019
5072 Clouds 24 1015 36 10000 1 0 16:21 16.07.2019
5073 Clouds 23 1015 34 10000 1 0 15:41 16.07.2019
5074 Clouds 23 1015 34 10000 1 0 15:21 16.07.2019
5075 Clouds 23 1015 38 10000 1 0 14:58 16.07.2019
5076 Clouds 23 1016 41 10000 0.5 0 14:40 16.07.2019
5077 Clouds 23 1016 41 10000 0.5 0 14:22 16.07.2019
5078 Clouds 22 1016 43 10000 1.5 10 13:45 16.07.2019
5079 Clouds 22 1016 43 10000 1.5 10 13:25 16.07.2019
5080 Clouds 22 1016 40 10000 1 0 12:55 16.07.2019
5081 Clouds 21 1017 46 10000 1 0 12:37 16.07.2019
5082 Clouds 21 1017 46 10000 1 0 12:19 16.07.2019
5083 Clouds 20 1017 56 10000 1 0 11:43 16.07.2019
5084 Clouds 20 1017 56 10000 1 0 11:23 16.07.2019
5085 Clouds 20 1018 59 10000 0.5 0 10:55 16.07.2019
5086 Clouds 19 1018 68 10000 1 0 10:37 16.07.2019
5087 Clouds 19 1018 68 10000 1 0 10:18 16.07.2019
5088 Clouds 19 1018 68 10000 1 0 10:18 16.07.2019
5089 Clouds 18 1018 72 10000 1.5 280 09:42 16.07.2019
5090 Clouds 15 1018 72 10000 1.5 280 09:19 16.07.2019
5091 Clouds 14 1019 82 10000 1 0 08:43 16.07.2019
5092 Clouds 13 1019 82 10000 1 0 08:22 16.07.2019
5093 Clouds 13 1019 82 10000 2.1 260 07:48 16.07.2019
5094 Clouds 12 1019 87 10000 1.5 270 07:30 16.07.2019
5095 Clouds 12 1019 93 10000 1.5 260 06:49 16.07.2019
5096 Clouds 11 1018 87 10000 1 260 06:31 16.07.2019
5097 Clouds 11 1018 87 10000 1 0 05:39 16.07.2019
5098 Clouds 11 1018 87 10000 1 0 05:21 16.07.2019
5099 Clouds 11 1018 87 10000 1.5 270 04:23 16.07.2019
5100 Clear 12 1018 87 10000 1.5 250 03:21 16.07.2019
5101 Clouds 13 1018 82 10000 0.5 0 02:31 16.07.2019
5102 Clouds 14 1018 76 10000 0.5 0 01:49 16.07.2019
5103 Clouds 14 1017 77 10000 1 0 00:49 16.07.2019
5104 Clouds 14 1017 77 10000 0.5 0 00:22 16.07.2019
5105 Clouds 14 1017 72 10000 0.5 0 23:53 15.07.2019
5106 Clouds 14 1017 72 10000 1 0 23:34 15.07.2019
5107 Clouds 14 1016 63 10000 0.5 0 22:55 15.07.2019
5108 Clouds 14 1016 59 10000 1 0 22:36 15.07.2019
5109 Clouds 14 1016 67 10000 1 0 22:18 15.07.2019
5110 Clouds 14 1016 59 10000 1 0 22:18 15.07.2019
5111 Clouds 18 1015 59 10000 0.5 0 21:42 15.07.2019
5112 Clouds 18 1015 63 10000 1 0 21:20 15.07.2019
5113 Clouds 19 1015 63 10000 1 0 20:57 15.07.2019
5114 Clouds 19 1015 63 10000 1 0 20:57 15.07.2019
5115 Clouds 18 1015 60 10000 1 0 20:38 15.07.2019
5116 Clouds 19 1015 60 10000 1 0 20:20 15.07.2019
5117 Clouds 18 1014 52 10000 1.5 300 19:43 15.07.2019
5118 Clouds 19 1014 52 10000 1.5 300 19:21 15.07.2019
5119 Clouds 22 1014 53 10000 2.1 290 18:57 15.07.2019
5120 Clouds 23 1014 49 10000 3.1 90 18:37 15.07.2019
5121 Clouds 21 1014 49 10000 3.1 50 18:18 15.07.2019
5122 Clouds 21 1014 49 10000 3.1 50 18:18 15.07.2019
5123 Clouds 21 1014 49 10000 3.1 50 18:18 15.07.2019
5124 Clouds 21 1013 43 10000 3.1 340 17:44 15.07.2019
5125 Clouds 20 1013 43 10000 3.1 340 17:26 15.07.2019
5126 Clouds 21 1013 49 10000 5.1 270 16:59 15.07.2019
5127 Clouds 21 1013 40 10000 6.7 250 16:38 15.07.2019
5128 Clouds 21 1013 40 10000 6.7 250 16:20 15.07.2019
5129 Clouds 20 1013 46 10000 7.2 250 15:55 15.07.2019
5130 Clouds 21 1013 53 10000 6.2 260 15:37 15.07.2019
5131 Clouds 21 1013 46 10000 2.1 0 15:19 15.07.2019
5132 Clouds 21 1013 49 10000 1.5 340 14:43 15.07.2019
5133 Clouds 21 1013 49 10000 1.5 340 14:23 15.07.2019
5134 Clouds 21 1014 53 10000 2.1 330 13:51 15.07.2019
5135 Clouds 21 1014 52 10000 3.6 90 13:22 15.07.2019
5136 Clouds 20 1014 52 10000 1.5 0 12:58 15.07.2019
5137 Clouds 20 1014 60 10000 1.5 0 12:40 15.07.2019
5138 Clouds 19 1014 60 10000 1.5 0 12:20 15.07.2019
5139 Clouds 18 1015 59 10000 1.5 0 11:41 15.07.2019
5140 Clouds 17 1015 59 10000 1.5 0 11:22 15.07.2019
5141 Clouds 18 1015 67 10000 2.6 90 10:45 15.07.2019
5142 Clouds 17 1015 67 10000 2.6 90 10:27 15.07.2019
5143 Clouds 16 1015 72 10000 1 0 09:48 15.07.2019
5144 Clouds 14 1015 77 10000 1.5 110 09:28 15.07.2019
5145 Clouds 13 1015 76 10000 2.1 120 08:59 15.07.2019
5146 Clouds 13 1015 76 10000 2.6 100 08:41 15.07.2019
5147 Clouds 12 1015 82 10000 2.1 100 08:23 15.07.2019
5148 Clouds 11 1015 87 10000 2.1 100 07:38 15.07.2019
5149 Clouds 10 1015 87 10000 2.1 70 06:59 15.07.2019
5150 Clouds 10 1015 87 10000 1.5 90 06:38 15.07.2019
5151 Clouds 11 1015 87 10000 3.1 70 05:44 15.07.2019
5152 Clouds 10 1015 87 10000 3.1 70 05:22 15.07.2019
5153 Clouds 11 1015 87 10000 2.1 80 04:41 15.07.2019
5154 Clouds 11 1015 82 10000 2.1 120 03:35 15.07.2019
5155 Clouds 11 1015 76 10000 2.6 80 02:32 15.07.2019
5156 Clouds 12 1015 82 10000 1.5 120 01:41 15.07.2019
5157 Clouds 13 1015 82 10000 1.5 120 01:20 15.07.2019
5158 Clouds 12 1015 72 10000 1 0 00:46 15.07.2019
5159 Clouds 13 1015 72 10000 1 0 00:19 15.07.2019
5160 Clouds 13 1015 72 10000 2.1 80 23:42 14.07.2019
5161 Clouds 13 1015 72 10000 2.1 80 23:22 14.07.2019
5162 Clouds 14 1015 67 10000 2.6 90 22:59 14.07.2019
5163 Clouds 14 1015 72 10000 1.5 40 22:40 14.07.2019
5164 Clouds 14 1015 72 10000 1.5 40 22:21 14.07.2019
5165 Clouds 18 1015 68 10000 1.5 0 21:57 14.07.2019
5166 Clouds 18 1015 68 10000 1.5 0 21:57 14.07.2019
5167 Clouds 18 1014 63 10000 1.5 60 21:39 14.07.2019
5168 Clouds 16 1014 55 10000 1.5 120 21:18 14.07.2019
5169 Clouds 17 1014 49 10000 3.1 80 20:39 14.07.2019
5170 Clouds 18 1014 52 10000 2.6 40 20:21 14.07.2019
5171 Clouds 20 1014 52 10000 2.6 40 19:59 14.07.2019
5172 Clouds 20 1014 56 10000 3.1 50 19:39 14.07.2019
5173 Clouds 19 1014 56 10000 3.1 50 19:21 14.07.2019
5174 Clouds 19 1014 49 10000 5.1 70 18:43 14.07.2019
5175 Clouds 19 1014 49 10000 5.1 70 18:25 14.07.2019
5176 Clouds 19 1013 49 10000 5.7 80 17:58 14.07.2019
5177 Clouds 20 1014 49 10000 6.2 90 17:39 14.07.2019
5178 Clouds 20 1014 53 10000 5.7 80 17:18 14.07.2019
5179 Clouds 20 1014 46 10000 3.6 60 16:44 14.07.2019
5180 Clouds 19 1014 46 10000 3.6 60 16:21 14.07.2019
5181 Clouds 19 1014 49 10000 3.1 80 15:43 14.07.2019
5182 Rain 18 1012 58 0 1.79 276 15:24 14.07.2019
5183 Clouds 18 1015 56 10000 3.1 100 14:47 14.07.2019
5184 Clouds 17 1015 63 10000 3.6 60 14:21 14.07.2019
5185 Clouds 18 1016 63 10000 3.1 80 13:47 14.07.2019
5186 Clouds 17 1016 63 10000 3.1 80 13:25 14.07.2019
5187 Clouds 17 1016 63 10000 2.6 80 12:58 14.07.2019
5188 Clouds 16 1016 67 10000 2.1 80 12:40 14.07.2019
5189 Clouds 16 1016 67 10000 2.1 80 12:19 14.07.2019
5190 Clouds 16 1017 72 10000 2.6 70 11:50 14.07.2019
5191 Clouds 14 1017 72 10000 2.6 70 11:22 14.07.2019
5192 Clouds 15 1017 77 10000 0.5 0 10:46 14.07.2019
5193 Clouds 15 1017 77 10000 0.5 0 10:21 14.07.2019
5194 Clouds 15 1017 82 10000 1 0 09:48 14.07.2019
5195 Clouds 14 1017 82 10000 1 0 09:30 14.07.2019
5196 Drizzle 13 1017 87 10000 1 0 08:48 14.07.2019
5197 Drizzle 12 1017 93 10000 1.5 250 08:30 14.07.2019
5198 Drizzle 13 1017 93 10000 2.1 270 07:43 14.07.2019
5199 Drizzle 13 1017 93 10000 1.5 240 07:21 14.07.2019
5200 Clouds 11 1018 93 10000 0.5 0 05:46 14.07.2019
5201 Clouds 12 1018 93 10000 1.84 194.827 03:58 14.07.2019
5202 Clouds 12 1019 93 10000 0.5 0 03:39 14.07.2019
5203 Rain 12 1019 93 10000 0.5 0 03:21 14.07.2019
5204 Clouds 12 1019 93 10000 0.5 0 02:23 14.07.2019
5205 Rain 12 1019 87 10000 0.5 0 01:54 14.07.2019
5206 Rain 12 1019 87 10000 1 0 01:30 14.07.2019
5207 Clouds 13 1019 82 10000 2.1 70 00:41 14.07.2019
5208 Clouds 13 1019 82 10000 1 0 00:20 14.07.2019
5209 Clouds 13 1019 82 10000 1 0 23:58 13.07.2019
5210 Clouds 13 1019 77 10000 0.5 0 23:40 13.07.2019
5211 Clouds 13 1019 77 10000 0.5 0 23:20 13.07.2019
5212 Clouds 15 1018 77 10000 2.1 80 22:42 13.07.2019
5213 Clouds 15 1018 77 10000 2.1 80 22:22 13.07.2019
5214 Clouds 15 1018 77 10000 1 20 21:48 13.07.2019
5215 Clouds 13 1018 82 10000 1 0 21:21 13.07.2019
5216 Clouds 14 1018 77 10000 1 0 20:52 13.07.2019
5217 Clouds 14 1018 67 10000 1 0 20:33 13.07.2019
5218 Clouds 14 1018 63 10000 1.5 70 19:51 13.07.2019
5219 Clouds 14 1017 67 10000 2.1 90 19:30 13.07.2019
5220 Clouds 15 1017 67 10000 2.1 70 18:56 13.07.2019
5221 Clouds 15 1017 59 10000 2.6 100 18:38 13.07.2019
5222 Clouds 15 1017 59 10000 2.6 100 18:18 13.07.2019
5223 Rain 14 1015 67 0 0.89 344 17:37 13.07.2019
5224 Rain 14 1015 69 0 0.89 300 17:19 13.07.2019
5225 Clouds 16 1016 59 10000 2.1 50 16:43 13.07.2019
5226 Clouds 16 1016 59 10000 2.1 50 16:24 13.07.2019
5227 Clouds 15 1016 59 10000 2.1 110 15:46 13.07.2019
5228 Clouds 16 1016 59 10000 2.1 110 15:24 13.07.2019
5229 Clouds 16 1017 59 10000 2.6 0 14:47 13.07.2019
5230 Clouds 16 1017 59 10000 2.6 0 14:28 13.07.2019
5231 Clouds 16 1017 68 10000 2.1 0 13:58 13.07.2019
5232 Clouds 16 1017 77 10000 1 0 13:40 13.07.2019
5233 Clouds 16 1017 77 10000 1 0 13:19 13.07.2019
5234 Clouds 15 1017 77 10000 1 0 12:40 13.07.2019
5235 Clouds 15 1017 77 10000 1 0 12:22 13.07.2019
5236 Rain 15 1017 82 10000 2.6 40 11:57 13.07.2019
5237 Rain 15 1017 82 10000 3.1 40 11:20 13.07.2019
5238 Clouds 14 1017 82 10000 2.6 80 10:57 13.07.2019
5239 Clouds 14 1017 82 10000 1.5 350 10:39 13.07.2019
5240 Clouds 14 1017 82 10000 1.5 350 10:20 13.07.2019
5241 Rain 13 1017 87 10000 2.1 240 09:41 13.07.2019
5242 Rain 13 1017 87 10000 2.1 240 09:22 13.07.2019
5243 Clouds 13 1016 87 10000 2.1 20 08:46 13.07.2019
5244 -273 0 0 0 0 0 08:26 13.07.2019
5245 Rain 12 1016 93 10000 1.5 260 07:31 13.07.2019
5246 Clouds 12 1017 100 9000 1 0 06:54 13.07.2019
5247 Drizzle 12 1016 93 10000 1 0 06:27 13.07.2019
5248 Rain 12 1016 100 10000 0.5 0 05:37 13.07.2019
5249 Rain 12 1016 93 10000 0.5 0 04:25 13.07.2019
5250 Rain 12 1016 93 10000 1.85 257.86 03:59 13.07.2019
5251 Rain 12 1016 93 3400 1 0 03:39 13.07.2019
5252 Rain 12 1017 93 10000 2.6 80 02:28 13.07.2019
5253 Rain 13 1017 100 10000 1.5 20 01:44 13.07.2019
5254 Rain 13 1017 93 9000 1.5 120 01:20 13.07.2019
5255 Rain 13 1017 93 9000 1.5 120 00:57 13.07.2019
5256 Rain 13 1016 100 10000 1.5 110 00:20 13.07.2019
5257 Rain 13 1016 100 10000 1.5 110 23:49 12.07.2019
5258 Rain 13 1016 100 10000 1.5 100 23:30 12.07.2019
5259 Rain 13 1017 93 8000 1 0 22:56 12.07.2019
5260 Rain 13 1017 93 8000 2.1 300 22:37 12.07.2019
5261 Rain 13 1017 93 8000 2.1 300 22:18 12.07.2019
5262 Rain 14 1015 93 10000 2.1 80 21:41 12.07.2019
5263 Rain 15 1015 93 10000 2.1 80 21:19 12.07.2019
5264 Rain 16 1015 82 10000 4.1 240 20:43 12.07.2019
5265 Rain 16 1015 82 10000 4.1 240 20:21 12.07.2019
5266 Clouds 17 1014 77 10000 1.5 300 19:42 12.07.2019
5267 Clouds 17 1014 77 10000 1.5 300 19:24 12.07.2019
5268 Rain 16 1015 72 10000 1.5 300 18:46 12.07.2019
5269 Rain 17 1015 72 10000 1.5 300 18:22 12.07.2019
5270 Clouds 17 1015 77 10000 1 0 17:55 12.07.2019
5271 Clouds 17 1016 77 10000 2.1 290 17:30 12.07.2019
5272 Clouds 17 1016 82 10000 2.6 270 16:59 12.07.2019
5273 Clouds 16 1017 77 10000 2.1 310 16:27 12.07.2019
5274 Rain 16 1017 87 10000 2.6 330 15:57 12.07.2019
5275 Rain 16 1017 93 10000 3.1 280 15:37 12.07.2019
5276 Rain 15 1017 93 10000 3.1 280 15:18 12.07.2019
5277 Rain 15 1017 93 10000 5.7 250 14:44 12.07.2019
5278 Rain 15 1017 93 10000 5.7 250 14:21 12.07.2019
5279 Rain 16 1017 87 10000 3.6 270 13:46 12.07.2019
5280 Rain 16 1017 87 10000 3.6 270 13:23 12.07.2019
5281 Rain 16 1017 87 10000 2.6 250 12:42 12.07.2019
5282 Rain 16 1017 87 10000 2.6 250 12:23 12.07.2019
5283 Rain 16 1017 87 10000 2.1 280 11:47 12.07.2019
5284 Rain 15 1017 87 10000 2.1 280 11:24 12.07.2019
5285 Clouds 15 1017 87 10000 1.5 260 10:58 12.07.2019
5286 Clouds 15 1017 87 10000 1.5 260 10:58 12.07.2019
5287 Drizzle 14 1017 87 10000 1 0 10:40 12.07.2019
5288 Drizzle 14 1017 87 10000 1 0 10:22 12.07.2019
5289 Drizzle 14 1017 93 10000 1 0 09:51 12.07.2019
5290 Rain 14 1017 93 10000 1 0 09:25 12.07.2019
5291 Rain 14 1017 93 10000 2.1 260 08:47 12.07.2019
5292 Rain 13 1017 100 10000 1 0 08:23 12.07.2019
5293 Drizzle 13 1017 100 10000 0.5 0 07:47 12.07.2019
5294 Drizzle 13 1017 100 10000 0.5 0 07:29 12.07.2019
5295 Rain 13 1017 93 10000 2.1 250 06:30 12.07.2019
5296 Rain 13 1016 93 10000 1.5 250 05:51 12.07.2019
5297 Clouds 12 1016 93 10000 0.5 0 04:52 12.07.2019
5298 Clouds 13 1017 93 10000 1 0 01:52 12.07.2019
5299 Clouds 11 1017 93 10000 0.5 0 01:34 12.07.2019
5300 Rain 11 1017 93 3400 1 270 00:36 12.07.2019
5301 Rain 13 1017 93 3400 1 270 00:18 12.07.2019
5302 Clouds 13 1017 93 10000 0.5 0 23:41 11.07.2019
5303 Clouds 13 1017 93 10000 0.5 0 23:21 11.07.2019
5304 Clouds 13 1017 93 10000 0.5 0 22:45 11.07.2019
5305 Clouds 13 1017 93 10000 0.5 0 22:24 11.07.2019
5306 Clouds 14 1017 93 10000 0.5 0 21:44 11.07.2019
5307 Clouds 14 1017 93 10000 0.5 0 21:20 11.07.2019
5308 Rain 14 1017 93 10000 2.1 260 20:59 11.07.2019
5309 Rain 14 1017 87 10000 0.5 0 20:41 11.07.2019
5310 Rain 14 1017 87 10000 0.5 0 20:22 11.07.2019
5311 Rain 15 1017 82 10000 2.01 186.419 19:55 11.07.2019
5312 Rain 15 1016 87 10000 1 0 19:37 11.07.2019
5313 Rain 15 1016 87 10000 1 0 19:19 11.07.2019
5314 Rain 15 1016 87 10000 1.5 210 18:40 11.07.2019
5315 Rain 15 1016 87 10000 1.5 210 18:21 11.07.2019
5316 Rain 16 1016 68 10000 0.5 0 17:47 11.07.2019
5317 Rain 17 1016 68 10000 0.5 0 17:28 11.07.2019
5318 Rain 18 1016 72 10000 0.5 0 16:52 11.07.2019
5319 Rain 18 1016 68 10000 0.5 0 16:24 11.07.2019
5320 Rain 19 1016 67 10000 1.5 140 15:57 11.07.2019
5321 Rain 19 1016 67 10000 1.5 290 15:38 11.07.2019
5322 Rain 19 1016 67 10000 1.5 290 15:19 11.07.2019
5323 Rain 19 1016 67 10000 7.2 260 14:43 11.07.2019
5324 Rain 19 1016 67 10000 7.2 260 14:23 11.07.2019
5325 Clouds 20 1016 52 10000 1.5 260 13:47 11.07.2019
5326 Clouds 20 1016 52 10000 1.5 260 13:29 11.07.2019
5327 Clouds 19 1016 52 10000 1 0 12:56 11.07.2019
5328 Clouds 19 1016 52 10000 0.5 0 12:37 11.07.2019
5329 Clouds 18 1016 52 10000 0.5 0 12:18 11.07.2019
5330 Clouds 18 1016 52 10000 0.5 0 12:18 11.07.2019
5331 Clouds 17 1016 59 10000 1 0 11:41 11.07.2019
5332 Clouds 17 1016 59 10000 1 0 11:22 11.07.2019
5333 Clouds 17 1017 67 10000 1.5 310 10:46 11.07.2019
5334 Clouds 15 1017 67 10000 1.5 310 10:19 11.07.2019
5335 Clouds 14 1017 67 10000 0.5 0 09:49 11.07.2019
5336 Clouds 13 1018 76 10000 1.5 270 09:30 11.07.2019
5337 Clouds 12 1018 81 10000 1.5 270 08:54 11.07.2019
5338 Clouds 11 1018 81 10000 1.5 270 08:28 11.07.2019
5339 Clouds 12 1018 76 10000 2.6 250 07:57 11.07.2019
5340 Clear 12 1018 87 10000 2.1 270 07:38 11.07.2019
5341 Clear 11 1018 81 10000 1.5 280 06:41 11.07.2019
5342 Clouds 8 1018 81 10000 1 0 05:53 11.07.2019
5343 Clouds 8 1018 81 10000 1 0 05:30 11.07.2019
5344 Clouds 8 1018 81 10000 0.5 0 04:55 11.07.2019
5345 Clear 10 1019 76 10000 0.5 0 02:41 11.07.2019
5346 Clear 9 1019 71 10000 0.5 0 01:43 11.07.2019
5347 Clouds 10 1019 67 10000 0.5 0 00:31 11.07.2019
5348 Clouds 12 1018 62 10000 0.5 0 23:49 10.07.2019
5349 Clouds 13 1018 55 10000 0.5 0 23:20 10.07.2019
5350 Clouds 14 1018 55 10000 0.5 0 22:52 10.07.2019
5351 Clouds 17 1018 55 10000 1 0 22:22 10.07.2019
5352 Clouds 17 1017 48 10000 1.5 70 21:48 10.07.2019
5353 Clouds 16 1017 45 10000 4.1 60 21:28 10.07.2019
5354 Clouds 18 1017 42 10000 4.6 90 20:58 10.07.2019
5355 Clouds 18 1016 40 10000 4.6 80 20:40 10.07.2019
5356 Clouds 19 1016 40 10000 4.6 80 20:19 10.07.2019
5357 Clouds 22 1016 37 10000 6.2 70 19:54 10.07.2019
5358 Clouds 22 1016 37 10000 5.7 70 19:22 10.07.2019
5359 Clouds 20 1016 35 10000 5.1 80 18:59 10.07.2019
5360 Clouds 20 1016 35 10000 4.6 80 18:41 10.07.2019
5361 Clouds 20 1016 35 10000 4.6 80 18:22 10.07.2019
5362 Clouds 20 1016 33 10000 4.6 50 17:42 10.07.2019
5363 Clouds 21 1016 33 10000 4.6 50 17:22 10.07.2019
5364 Clouds 21 1016 35 10000 3.6 80 16:38 10.07.2019
5365 Clouds 21 1016 35 10000 4.6 60 16:19 10.07.2019
5366 Clouds 20 1016 38 10000 5.7 40 15:46 10.07.2019
5367 Clouds 20 1016 38 10000 5.7 40 15:22 10.07.2019
5368 Clouds 20 1016 37 10000 5.1 60 14:41 10.07.2019
5369 Clouds 20 1016 37 10000 5.1 60 14:23 10.07.2019
5370 Clouds 20 1017 37 10000 2.6 100 13:52 10.07.2019
5371 Clouds 20 1017 46 10000 2.6 50 13:19 10.07.2019
5372 Clouds 19 1017 42 10000 2.1 0 12:58 10.07.2019
5373 Clouds 19 1018 48 10000 3.1 80 12:38 10.07.2019
5374 Clouds 18 1018 48 10000 3.1 80 12:19 10.07.2019
5375 Clouds 18 1018 52 10000 1.5 0 11:47 10.07.2019
5376 Clouds 17 1018 52 10000 1.5 0 11:21 10.07.2019
5377 Clouds 17 1018 55 10000 1 0 10:50 10.07.2019
5378 Clouds 16 1018 55 10000 1 0 10:23 10.07.2019
5379 Clouds 15 1018 59 10000 1.5 80 09:44 10.07.2019
5380 Clouds 15 1018 59 10000 1.5 80 09:21 10.07.2019
5381 Clouds 13 1018 62 10000 2.6 90 08:55 10.07.2019
5382 -273 0 0 0 0 0 08:36 10.07.2019
5383 Clouds 12 1018 62 10000 2.6 90 08:18 10.07.2019
5384 Clouds 12 1019 66 10000 3.1 60 07:42 10.07.2019
5385 Clouds 11 1019 71 10000 1.5 40 07:20 10.07.2019
5386 Clouds 10 1018 67 10000 2.6 50 06:00 10.07.2019
5387 Clouds 11 1018 67 10000 2.1 100 05:39 10.07.2019
5388 Clouds 11 1018 72 10000 1 0 04:29 10.07.2019
5389 Clouds 14 1018 77 10000 1.5 180 00:49 10.07.2019
5390 Clouds 14 1018 67 10000 0.5 0 00:29 10.07.2019
5391 Clouds 14 1017 63 10000 0.5 0 23:42 09.07.2019
5392 Clouds 15 1017 63 10000 0.5 0 23:22 09.07.2019
5393 Clouds 14 1017 63 10000 0.5 0 22:43 09.07.2019
5394 Clouds 14 1017 63 10000 0.5 0 22:24 09.07.2019
5395 Clouds 11 1017 63 10000 1 0 21:59 09.07.2019
5396 Clouds 18 1016 55 10000 2.6 110 21:41 09.07.2019
5397 Clouds 15 1016 55 10000 2.6 110 21:23 09.07.2019
5398 Clouds 16 1016 55 10000 3.1 60 20:43 09.07.2019
5399 Clouds 16 1016 55 10000 3.1 60 20:25 09.07.2019
5400 Clouds 17 1015 55 10000 5.7 100 19:43 09.07.2019
5401 Clouds 18 1015 52 10000 4.1 90 19:24 09.07.2019
5402 Clouds 18 1015 52 10000 4.6 80 18:47 09.07.2019
5403 Clouds 18 1015 52 10000 4.6 80 18:26 09.07.2019
5404 Clouds 18 1015 52 10000 4.6 80 18:26 09.07.2019
5405 Clouds 18 1015 52 10000 4.6 90 17:57 09.07.2019
5406 Clouds 18 1016 52 10000 5.1 80 17:38 09.07.2019
5407 Clouds 18 1016 52 10000 5.1 80 17:19 09.07.2019
5408 Clouds 18 1015 52 10000 5.1 80 16:50 09.07.2019
5409 Clouds 18 1015 52 10000 4.1 70 16:25 09.07.2019
5410 Clouds 18 1015 56 10000 2.1 50 15:50 09.07.2019
5411 Clouds 18 1015 56 10000 2.6 50 15:32 09.07.2019
5412 Clouds 18 1016 56 10000 1.5 0 14:58 09.07.2019
5413 Clouds 18 1016 56 10000 2.6 70 14:39 09.07.2019
5414 Clouds 18 1016 56 10000 2.6 70 14:18 09.07.2019
5415 Clouds 18 1016 64 10000 3.1 70 13:44 09.07.2019
5416 Clouds 17 1016 64 10000 3.1 70 13:24 09.07.2019
5417 Clouds 17 1016 68 10000 1 0 12:41 09.07.2019
5418 Clouds 17 1016 68 10000 1 0 12:22 09.07.2019
5419 Clouds 17 1016 68 10000 1 0 12:22 09.07.2019
5420 Clouds 16 1017 72 10000 1 0 11:58 09.07.2019
5421 Clouds 15 1017 77 10000 1 0 11:39 09.07.2019
5422 Clouds 15 1017 77 10000 1 0 11:20 09.07.2019
5423 Clouds 14 1017 82 10000 1.5 290 10:50 09.07.2019
5424 Clouds 14 1017 82 10000 0.5 0 10:31 09.07.2019
5425 Clouds 13 1017 87 10000 2.1 90 09:42 09.07.2019
5426 Clouds 13 1017 87 10000 2.1 90 09:22 09.07.2019
5427 Clouds 13 1017 87 10000 2.1 90 09:22 09.07.2019
5428 Clouds 13 1017 87 10000 2.6 60 08:55 09.07.2019
5429 Clouds 13 1017 87 10000 1.5 100 08:35 09.07.2019
5430 Clouds 13 1020 77 10000 0.5 0 03:59 05.07.2019
5431 Clouds 13 1020 72 10000 1 260 03:38 05.07.2019
5432 Clear 15 1020 72 10000 1 260 03:19 05.07.2019
5433 Clear 15 1020 72 10000 0.5 0 02:45 05.07.2019
5434 Clear 15 1020 63 10000 0.5 0 01:42 05.07.2019
5435 Clear 15 1020 63 10000 0.5 0 01:23 05.07.2019
5436 Clear 16 1020 68 10000 0.5 0 00:46 05.07.2019
5437 Clear 18 1020 64 10000 0.5 0 23:56 04.07.2019
5438 Clouds 19 1020 60 10000 1 0 23:21 04.07.2019
5439 Clouds 19 1019 56 10000 1.5 280 22:57 04.07.2019
5440 Clouds 23 1019 49 10000 0.5 0 22:39 04.07.2019
5441 Clouds 23 1019 49 10000 0.5 0 22:18 04.07.2019
5442 Clouds 25 1018 44 10000 2.6 70 21:40 04.07.2019
5443 Clouds 22 1018 44 10000 2.6 70 21:22 04.07.2019
5444 Clouds 23 1018 41 10000 6.2 60 20:54 04.07.2019
5445 Clouds 23 1018 41 10000 6.2 60 20:36 04.07.2019
5446 Clouds 25 1017 42 10000 5.7 70 20:18 04.07.2019
5447 Clouds 26 1017 39 10000 6.7 70 19:41 04.07.2019
5448 Clouds 27 1017 39 10000 6.7 70 19:20 04.07.2019
5449 Clouds 28 1017 34 10000 6.7 80 18:44 04.07.2019
5450 Clouds 26 1017 34 10000 6.7 80 18:25 04.07.2019
5451 Clouds 26 1017 35 10000 4.1 80 17:47 04.07.2019
5452 Clouds 26 1017 35 10000 4.1 80 17:19 04.07.2019
5453 Clouds 27 1018 30 10000 3.1 40 15:59 04.07.2019
5454 Clouds 27 1018 30 10000 2.6 0 15:40 04.07.2019
5455 Clouds 27 1018 30 10000 2.6 0 15:22 04.07.2019
5456 Clouds 26 1018 37 10000 2.6 100 14:56 04.07.2019
5457 Clouds 26 1019 37 10000 3.1 60 14:37 04.07.2019
5458 Clouds 26 1019 37 10000 3.1 60 14:18 04.07.2019
5459 Clouds 26 1019 39 10000 2.6 70 14:18 04.07.2019
5460 Clouds 26 1019 37 10000 3.1 60 14:18 04.07.2019
5461 Clouds 26 1019 39 10000 2.6 70 13:54 04.07.2019
5462 Clouds 26 1019 39 10000 2.6 70 13:54 04.07.2019
5463 Clouds 25 1020 47 10000 2.1 150 13:36 04.07.2019
5464 Clouds 25 1020 47 10000 1.5 0 13:18 04.07.2019
5465 Clouds 24 1020 50 10000 2.1 50 12:37 04.07.2019
5466 Clouds 24 1020 50 10000 2.1 50 12:37 04.07.2019
5467 Clouds 24 1021 53 10000 2.1 0 12:19 04.07.2019
5468 Clouds 23 1021 57 10000 1.5 40 11:39 04.07.2019
5469 Clouds 22 1021 57 10000 1.5 40 11:19 04.07.2019
5470 Clouds 22 1021 57 10000 1.5 40 11:19 04.07.2019
5471 Clouds 22 1021 56 10000 1 0 10:40 04.07.2019
5472 Clouds 21 1021 56 10000 1 0 10:22 04.07.2019
5473 Clouds 20 1022 64 10000 1 0 09:45 04.07.2019
5474 Clouds 18 1022 64 10000 1 0 09:26 04.07.2019
5475 Clouds 17 1022 68 10000 1 0 08:56 04.07.2019
5476 Clouds 17 1022 68 10000 1 0 08:56 04.07.2019
5477 Clouds 16 1022 72 10000 1.5 100 08:25 04.07.2019
5478 Clouds 16 1021 77 10000 1.5 50 07:46 04.07.2019
5479 Clouds 15 1021 82 10000 1.5 30 07:23 04.07.2019
5480 Clouds 14 1021 82 10000 1.5 30 06:55 04.07.2019
5481 Clouds 14 1021 72 10000 2.6 80 05:52 04.07.2019
5482 Clouds 14 1021 77 10000 2.1 70 05:33 04.07.2019
5483 Clouds 15 1021 77 10000 1.5 0 02:43 04.07.2019
5484 Clouds 16 1021 72 10000 1 0 01:42 04.07.2019
5485 Clouds 16 1021 72 10000 1 0 01:42 04.07.2019
5486 Clouds 17 1021 72 10000 1 0 01:22 04.07.2019
5487 Clouds 17 1021 72 10000 1.5 30 23:59 03.07.2019
5488 Clouds 17 1021 68 10000 2.1 100 23:41 03.07.2019
5489 Clouds 17 1021 68 10000 2.1 100 23:20 03.07.2019
5490 Clouds 20 1020 68 10000 1.5 60 22:55 03.07.2019
5491 Clouds 20 1020 68 10000 1 0 22:36 03.07.2019
5492 Clouds 20 1020 68 10000 1 0 22:18 03.07.2019
5493 Clouds 21 1019 64 10000 1 0 21:45 03.07.2019
5494 Clouds 19 1019 64 10000 1 0 21:26 03.07.2019
5495 Clouds 21 1019 53 10000 3.6 60 20:46 03.07.2019
5496 Clouds 23 1019 53 10000 3.6 60 20:24 03.07.2019
5497 Clouds 24 1019 50 10000 3.1 60 19:51 03.07.2019
5498 Clouds 24 1019 50 10000 3.6 70 19:32 03.07.2019
5499 Clouds 25 1019 50 10000 3.6 50 18:50 03.07.2019
5500 Clouds 25 1019 50 10000 3.6 50 18:30 03.07.2019
5501 Clouds 25 1019 50 10000 2.1 0 17:58 03.07.2019
5502 Clouds 25 1020 50 10000 3.1 150 17:39 03.07.2019
5503 Clouds 25 1020 50 10000 3.1 150 17:18 03.07.2019
5504 Clouds 24 1020 56 10000 5.7 150 16:44 03.07.2019
5505 Clouds 23 1020 56 10000 5.7 150 16:22 03.07.2019
5506 Clouds 23 1020 64 10000 3.6 10 15:50 03.07.2019
5507 Rain 22 1021 60 10000 1.5 0 15:31 03.07.2019
5508 Rain 21 1020 68 10000 5.1 270 14:58 03.07.2019
5509 Thunderstorm 22 1020 73 10000 7.2 260 14:39 03.07.2019
5510 Thunderstorm 23 1019 53 10000 0.5 0 14:19 03.07.2019
5511 Clouds 23 1019 53 10000 0.5 0 13:42 03.07.2019
5512 Clouds 24 1019 53 10000 0.5 0 13:23 03.07.2019
5513 Clouds 23 1019 57 10000 2.6 90 12:45 03.07.2019
5514 Clouds 23 1019 57 10000 1.5 0 12:18 03.07.2019
5515 Clouds 23 1019 53 10000 2.6 100 11:43 03.07.2019
5516 Clouds 22 1019 53 10000 2.6 100 11:22 03.07.2019
5517 Clouds 21 1020 60 10000 2.1 80 10:43 03.07.2019
5518 Clouds 20 1020 60 10000 2.1 80 10:24 03.07.2019
5519 Clouds 20 1020 60 10000 3.1 70 09:56 03.07.2019
5520 Clouds 19 1020 60 10000 3.6 60 09:38 03.07.2019
5521 Clouds 19 1020 60 10000 3.6 60 09:19 03.07.2019
5522 Clouds 18 1020 72 10000 1.5 100 08:47 03.07.2019
5523 Clouds 17 1020 72 10000 1.5 100 08:25 03.07.2019
5524 Clouds 17 1020 77 10000 1.5 100 07:39 03.07.2019
5525 Clouds 17 1020 77 10000 1.5 100 07:18 03.07.2019
5526 Clouds 16 1020 82 10000 1.5 100 06:19 03.07.2019
5527 Clouds 16 1019 82 10000 1.05 181.306 05:29 03.07.2019
5528 Clouds 16 1019 82 10000 0.5 0 04:28 03.07.2019
5529 Clouds 16 1019 82 10000 1 0 03:22 03.07.2019
5530 Clouds 17 1020 77 10000 1 0 01:42 03.07.2019
5531 Clouds 18 1020 72 10000 1.5 10 01:21 03.07.2019
5532 Clouds 18 1020 77 10000 1 0 00:42 03.07.2019
5533 Clouds 18 1020 73 10000 1.5 30 23:58 02.07.2019
5534 Clouds 19 1019 68 10000 0.5 0 23:37 02.07.2019
5535 Clouds 19 1019 68 10000 1 0 23:19 02.07.2019
5536 Clouds 21 1019 68 10000 1 0 22:55 02.07.2019
5537 Clouds 22 1019 68 10000 1 0 22:36 02.07.2019
5538 Clouds 22 1018 68 10000 2.6 60 22:18 02.07.2019
5539 Clouds 22 1018 68 10000 2.6 60 21:41 02.07.2019
5540 Clouds 21 1018 60 10000 4.1 70 21:20 02.07.2019
5541 Clouds 22 1018 60 10000 4.1 70 20:57 02.07.2019
5542 Clouds 22 1018 60 10000 4.1 70 20:39 02.07.2019
5543 Clouds 23 1017 60 10000 4.1 80 20:19 02.07.2019
5544 Clouds 24 1017 60 10000 6.7 70 19:42 02.07.2019
5545 Clouds 24 1017 60 10000 7.7 60 19:23 02.07.2019
5546 Clouds 26 1017 54 10000 5.1 70 18:47 02.07.2019
5547 Clouds 24 1017 51 10000 4.6 60 18:18 02.07.2019
5548 Clouds 24 1017 51 10000 4.6 60 18:18 02.07.2019
5549 Clouds 24 1017 51 10000 4.6 70 17:41 02.07.2019
5550 Clouds 24 1017 51 10000 4.6 70 17:22 02.07.2019
5551 Clouds 23 1018 51 10000 4.6 60 16:52 02.07.2019
5552 Clouds 23 1018 51 10000 2.6 280 16:34 02.07.2019
5553 Thunderstorm 24 1018 44 10000 2.6 240 15:46 02.07.2019
5554 Thunderstorm 23 1018 44 10000 2.6 240 15:27 02.07.2019
5555 Thunderstorm 23 1017 34 10000 1.5 0 14:57 02.07.2019
5556 Thunderstorm 23 1017 34 10000 1.5 0 14:57 02.07.2019
5557 Clouds 25 1018 39 10000 2.6 0 14:38 02.07.2019
5558 Clouds 26 1018 42 10000 2.6 80 14:19 02.07.2019
5559 Clouds 25 1018 42 10000 2.6 80 13:38 02.07.2019
5560 Clouds 25 1018 57 10000 2.1 0 13:18 02.07.2019
5561 Clouds 24 1019 57 10000 1 0 12:44 02.07.2019
5562 Clouds 23 1019 53 10000 1 0 12:22 02.07.2019
5563 Clouds 21 1020 68 10000 1 0 11:44 02.07.2019
5564 Clouds 21 1020 68 10000 1 0 11:23 02.07.2019
5565 Clouds 21 1020 73 10000 1 0 10:54 02.07.2019
5566 Clouds 20 1021 77 10000 2.1 270 10:26 02.07.2019
5567 Clouds 19 1021 82 10000 1.5 260 09:49 02.07.2019
5568 Clouds 18 1021 82 10000 1.5 260 09:22 02.07.2019
5569 Clouds 18 1021 82 10000 3.1 290 08:56 02.07.2019
5570 Clouds 18 1021 88 10000 2.6 250 08:35 02.07.2019
5571 Clouds 18 1021 88 10000 1.5 270 07:57 02.07.2019
5572 Clouds 18 1021 88 10000 4.6 260 07:21 02.07.2019
5573 Rain 17 1021 88 10000 4.1 250 06:54 02.07.2019
5574 Rain 17 1021 88 10000 4.1 250 06:35 02.07.2019
5575 Rain 17 1021 88 10000 8.7 260 05:19 02.07.2019
5576 Clouds 17 1021 88 10000 1 0 02:30 02.07.2019
5577 Rain 17 1017 82 0 0.89 169 00:24 02.07.2019
5578 Clouds 17 1021 88 10000 2.1 340 23:26 01.07.2019
5579 Clouds 17 1021 77 10000 2.6 120 22:52 01.07.2019
5580 Clouds 18 1021 77 10000 4.1 90 22:28 01.07.2019
5581 Clouds 18 1021 77 10000 2.6 90 21:55 01.07.2019
5582 Clouds 18 1021 83 10000 3.1 50 21:36 01.07.2019
5583 Clouds 19 1022 83 10000 2.6 90 21:18 01.07.2019
5584 Clouds 19 1022 83 10000 2.6 310 20:42 01.07.2019
5585 Clouds 19 1022 83 10000 2.6 310 20:20 01.07.2019
5586 Clouds 20 1021 73 10000 3.6 130 19:43 01.07.2019
5587 Clouds 19 1021 73 10000 3.6 130 19:24 01.07.2019
5588 Clouds 21 1021 73 10000 3.6 80 18:56 01.07.2019
5589 Rain 20 1021 83 10000 3.6 50 18:37 01.07.2019
5590 Rain 20 1021 83 10000 3.6 50 18:37 01.07.2019
5591 Rain 21 1021 88 10000 1.5 110 18:19 01.07.2019
5592 Rain 20 1021 88 10000 4.1 260 17:42 01.07.2019
5593 Rain 20 1021 88 10000 4.1 260 17:23 01.07.2019
5594 Rain 20 1021 83 10000 5.1 280 16:48 01.07.2019
5595 Rain 21 1020 73 10000 5.7 250 16:27 01.07.2019
5596 Thunderstorm 20 1019 73 10000 4.1 310 15:57 01.07.2019
5597 Thunderstorm 20 1019 73 10000 4.1 310 15:38 01.07.2019
5598 Rain 22 1019 32 10000 1.5 0 15:20 01.07.2019
5599 Thunderstorm 21 1017 30 10000 6.7 230 14:43 01.07.2019
5600 Clouds 23 1017 33 10000 3.6 330 14:20 01.07.2019
5601 Clouds 22 1017 38 10000 2.1 0 13:44 01.07.2019
5602 Clouds 24 1017 38 10000 1 0 13:23 01.07.2019
5603 Clouds 27 1017 38 10000 1.5 100 12:55 01.07.2019
5604 Clouds 29 1018 37 10000 1 0 12:36 01.07.2019
5605 Clouds 30 1018 37 10000 1 0 12:18 01.07.2019
5606 Clouds 28 1019 42 10000 1.5 0 11:43 01.07.2019
5607 Clouds 28 1020 45 10000 0.5 0 11:20 01.07.2019
5608 Clouds 28 1020 47 10000 1 0 10:47 01.07.2019
5609 Clouds 28 1020 47 10000 0.5 0 10:23 01.07.2019
5610 Clear 26 1020 57 10000 2.1 270 09:58 01.07.2019
5611 Clear 26 1020 57 10000 2.1 270 09:39 01.07.2019
5612 Clear 24 1020 64 10000 1 0 09:20 01.07.2019
5613 Clear 21 1021 68 10000 2.1 280 08:37 01.07.2019
5614 Clear 20 1020 77 10000 2.6 230 07:40 01.07.2019
5615 Clear 20 1020 82 10000 2.1 310 07:20 01.07.2019
5616 Clouds 19 1020 88 10000 1 0 05:43 01.07.2019
5617 Clouds 20 1020 60 10000 4.1 40 01:29 01.07.2019
5618 Clouds 20 1020 69 10000 2.6 120 00:46 01.07.2019
5619 Clouds 21 1020 61 10000 3.6 60 00:24 01.07.2019
5620 Clouds 21 1020 57 10000 3.6 40 23:40 30.06.2019
5621 Clouds 21 1020 61 10000 2.1 0 23:20 30.06.2019
5622 Clouds 22 1020 78 10000 1 0 22:43 30.06.2019
5623 Clouds 22 1019 88 10000 1 0 22:20 30.06.2019
5624 Thunderstorm 23 1018 83 10000 1 0 21:42 30.06.2019
5625 Rain 24 1018 78 10000 2.6 290 21:20 30.06.2019
5626 Rain 27 1018 54 10000 4.6 30 20:55 30.06.2019
5627 Rain 27 1018 54 10000 4.6 30 20:55 30.06.2019
5628 Thunderstorm 29 1018 54 10000 4.6 30 20:37 30.06.2019
5629 Thunderstorm 33 1017 33 10000 5.1 40 20:18 30.06.2019
5630 Clouds 32 1017 38 10000 6.7 50 19:44 30.06.2019
5631 Clouds 34 1016 34 10000 4.1 90 19:24 30.06.2019
5632 Clouds 34 1015 22 10000 1.5 0 18:26 30.06.2019
5633 Clouds 35 1016 23 10000 1.5 250 17:59 30.06.2019
5634 Clouds 35 1016 23 10000 1.5 250 17:39 30.06.2019
5635 Clouds 35 1016 22 10000 1 0 17:18 30.06.2019
5636 Clouds 35 1016 23 10000 3.1 260 16:48 30.06.2019
5637 Clouds 35 1016 23 10000 2.6 270 16:26 30.06.2019
5638 Clouds 35 1017 22 10000 1.5 220 15:38 30.06.2019
5639 Clouds 34 1017 24 10000 2.1 270 15:19 30.06.2019
5640 Clouds 34 1017 28 10000 2.1 270 14:53 30.06.2019
5641 Clouds 34 1017 28 10000 2.1 270 14:35 30.06.2019
5642 Clouds 33 1018 31 10000 3.1 260 13:49 30.06.2019
5643 Clouds 33 1018 40 10000 2.1 280 13:29 30.06.2019
5644 Clouds 31 1019 43 10000 1.5 300 12:55 30.06.2019
5645 Clear 31 1019 40 10000 2.1 260 12:31 30.06.2019
5646 Clear 31 1019 42 10000 3.6 260 11:59 30.06.2019
5647 Clear 30 1019 42 10000 3.6 260 11:59 30.06.2019
5648 Clear 30 1019 42 10000 3.6 260 11:41 30.06.2019
5649 Clear 29 1020 42 10000 4.1 270 11:21 30.06.2019
5650 Clear 30 1020 47 10000 4.1 270 10:54 30.06.2019
5651 Clear 30 1020 47 10000 4.1 270 10:36 30.06.2019
5652 Clear 28 1020 50 10000 4.6 270 10:18 30.06.2019
5653 Clear 29 1020 57 10000 5.1 270 09:42 30.06.2019
5654 Clear 23 1020 60 10000 4.1 280 09:20 30.06.2019
5655 Clear 20 1021 68 10000 3.1 280 08:40 30.06.2019
5656 Clear 20 1021 68 10000 3.1 280 08:21 30.06.2019
5657 Clear 20 1021 72 10000 3.1 290 07:50 30.06.2019
5658 Clear 19 1021 68 10000 1 0 07:24 30.06.2019
5659 Clear 18 1021 72 10000 1.5 260 06:37 30.06.2019
5660 Clear 16 1020 72 10000 0.5 0 03:33 30.06.2019
5661 Clear 16 1020 68 10000 2.1 270 01:58 30.06.2019
5662 Clear 17 1020 64 10000 0.5 0 00:48 30.06.2019
5663 Clear 19 1020 60 10000 0.5 0 00:24 30.06.2019
5664 Clear 19 1020 60 10000 0.5 0 23:53 29.06.2019
5665 Clear 20 1019 56 10000 0.5 0 23:23 29.06.2019
5666 Clear 20 1019 53 10000 1 290 22:48 29.06.2019
5667 Clear 21 1019 50 10000 1 0 22:25 29.06.2019
5668 Clear 24 1018 50 10000 1.5 350 21:56 29.06.2019
5669 Clear 26 1018 39 10000 1.5 0 21:25 29.06.2019
5670 Clear 26 1018 39 10000 1.5 0 21:25 29.06.2019
5671 Clear 26 1018 37 10000 3.6 70 20:57 29.06.2019
5672 Clear 27 1018 37 10000 3.6 70 20:36 29.06.2019
5673 Clear 27 1017 35 10000 4.6 60 20:18 29.06.2019
5674 Clear 30 1017 28 10000 5.7 70 19:42 29.06.2019
5675 Clear 31 1017 29 10000 5.1 80 19:21 29.06.2019
5676 Clear 32 1017 27 10000 6.7 80 18:47 29.06.2019
5677 Clear 29 1017 22 10000 5.1 70 18:24 29.06.2019
5678 Clear 30 1017 21 10000 4.6 80 17:39 29.06.2019
5679 Clear 31 1017 21 10000 4.6 100 17:20 29.06.2019
5680 Clear 31 1017 19 10000 4.1 100 16:44 29.06.2019
5681 Clear 31 1017 21 10000 3.6 80 16:25 29.06.2019
5682 Clear 31 1018 22 10000 3.1 80 15:33 29.06.2019
5683 Clear 30 1018 23 10000 3.1 80 14:59 29.06.2019
5684 Clear 30 1018 23 10000 3.1 80 14:40 29.06.2019
5685 Clear 30 1019 27 10000 3.6 90 14:21 29.06.2019
5686 Clear 29 1019 30 10000 3.6 60 13:43 29.06.2019
5687 Clear 29 1019 32 10000 2.6 70 13:24 29.06.2019
5688 Clear 28 1020 39 10000 1.5 310 12:42 29.06.2019
5689 Clear 28 1020 39 10000 1.5 310 12:42 29.06.2019
5690 Clear 27 1020 39 10000 1 0 12:23 29.06.2019
5691 Clear 26 1020 41 10000 0.5 0 11:48 29.06.2019
5692 Clear 25 1021 44 10000 1 0 11:28 29.06.2019
5693 Clear 26 1021 47 10000 1.5 260 10:52 29.06.2019
5694 Clear 24 1021 53 10000 2.1 260 10:26 29.06.2019
5695 Clear 24 1022 53 10000 2.1 260 09:58 29.06.2019
5696 Clear 21 1022 56 10000 1.5 260 09:29 29.06.2019
5697 Clear 18 1022 59 10000 2.1 260 08:37 29.06.2019
5698 Clear 18 1023 68 10000 1 0 07:46 29.06.2019
5699 Clear 17 1023 68 10000 0.5 0 07:19 29.06.2019
5700 Clear 15 1023 77 10000 1 280 06:41 29.06.2019
5701 Clear 13 1023 82 10000 1 250 06:20 29.06.2019
5702 Clear 15 1023 72 10000 0.5 0 02:26 29.06.2019
5703 Clear 16 1023 59 10000 0.5 0 00:57 29.06.2019
5704 Clear 19 1022 52 10000 0.5 0 23:58 28.06.2019
5705 Clear 18 1022 49 10000 1 0 23:23 28.06.2019
5706 Clear 23 1022 46 10000 1.5 320 22:52 28.06.2019
5707 Clear 24 1021 41 10000 1 0 22:27 28.06.2019
5708 Clear 25 1021 41 10000 4.6 90 21:46 28.06.2019
5709 Clear 24 1020 36 10000 5.7 90 21:20 28.06.2019
5710 Clear 25 1020 34 10000 5.1 60 20:44 28.06.2019
5711 Clear 26 1020 30 10000 5.7 60 20:21 28.06.2019
5712 Clouds 29 1020 30 10000 5.1 40 19:45 28.06.2019
5713 Clouds 29 1019 30 10000 5.7 50 19:27 28.06.2019
5714 Clouds 30 1019 27 10000 7.7 70 18:44 28.06.2019
5715 Clouds 28 1019 25 10000 7.2 80 18:22 28.06.2019
5716 Clouds 29 1019 25 10000 6.7 80 17:58 28.06.2019
5717 Clouds 29 1019 25 10000 6.7 80 17:29 28.06.2019
5718 Clouds 31 1019 29 10000 7.2 60 16:49 28.06.2019
5719 Clouds 30 1019 29 10000 5.7 70 16:24 28.06.2019
5720 Clouds 29 1019 29 10000 5.1 70 15:48 28.06.2019
5721 Clouds 29 1019 31 10000 4.1 60 15:23 28.06.2019
5722 Clouds 29 1019 38 10000 3.6 50 14:43 28.06.2019
5723 Clouds 29 1020 35 10000 3.6 40 14:22 28.06.2019
5724 Clouds 28 1020 37 10000 3.6 50 13:55 28.06.2019
5725 Clouds 28 1020 37 10000 3.6 50 13:37 28.06.2019
5726 Clouds 28 1020 39 10000 3.1 70 13:19 28.06.2019
5727 Clouds 28 1020 42 10000 2.1 0 12:44 28.06.2019
5728 Clouds 26 1021 47 10000 2.6 70 11:54 28.06.2019
5729 Clouds 26 1021 44 10000 2.6 80 11:22 28.06.2019
5730 Clouds 25 1022 44 10000 2.1 40 10:45 28.06.2019
5731 Clouds 25 1022 44 10000 1 0 10:21 28.06.2019
5732 Clouds 25 1022 47 10000 2.1 110 09:48 28.06.2019
5733 Clouds 22 1022 44 10000 1.5 0 09:29 28.06.2019
5734 Clouds 21 1023 44 10000 1.5 60 08:47 28.06.2019
5735 Clouds 20 1023 49 10000 2.1 50 08:26 28.06.2019
5736 Clear 17 1016 63 0 0.19 208.321 07:47 28.06.2019
5737 Clouds 18 1022 49 10000 1.5 40 07:28 28.06.2019
5738 Clouds 17 1022 56 10000 2.1 80 06:21 28.06.2019
5739 Clouds 24 1022 73 10000 1.5 300 01:23 28.06.2019
5740 Clouds 24 1022 73 10000 1 0 00:39 28.06.2019
5741 Clouds 25 1022 69 10000 1 0 23:51 27.06.2019
5742 Clouds 25 1022 65 10000 2.1 260 23:26 27.06.2019
5743 Clouds 26 1022 65 10000 1 0 22:56 27.06.2019
5744 Clouds 26 1022 65 10000 1 0 22:37 27.06.2019
5745 Clouds 27 1021 61 10000 1.5 220 22:18 27.06.2019
5746 Clouds 27 1021 61 10000 1.5 220 22:18 27.06.2019
5747 Clouds 27 1021 61 10000 1.5 160 21:48 27.06.2019
5748 Clouds 26 1020 61 10000 3.6 280 21:29 27.06.2019
5749 Clouds 28 1020 43 10000 3.6 0 20:55 27.06.2019
5750 Thunderstorm 29 1020 40 10000 5.1 340 20:37 27.06.2019
5751 Thunderstorm 29 1020 40 10000 5.1 340 20:19 27.06.2019
5752 Clouds 33 1019 36 10000 5.7 350 19:44 27.06.2019
5753 Clouds 34 1019 34 10000 4.6 360 19:24 27.06.2019
5754 Clouds 34 1019 34 10000 5.7 340 18:42 27.06.2019
5755 Clouds 33 1019 32 10000 6.2 340 18:20 27.06.2019
5756 Clouds 34 1020 30 10000 5.1 330 17:43 27.06.2019
5757 Clouds 34 1020 28 10000 4.1 350 17:22 27.06.2019
5758 Clouds 35 1020 32 10000 4.6 330 16:40 27.06.2019
5759 Clouds 36 1020 28 10000 6.2 360 16:19 27.06.2019
5760 Clouds 36 1020 25 10000 2.6 0 15:55 27.06.2019
5761 Clouds 36 1020 25 10000 2.6 0 15:35 27.06.2019
5762 Clouds 32 1021 32 10000 1.5 0 14:58 27.06.2019
5763 Clouds 33 1021 32 10000 1.5 0 14:38 27.06.2019
5764 Clouds 33 1021 30 10000 1.5 0 14:18 27.06.2019
5765 Clouds 32 1021 34 10000 1 0 13:42 27.06.2019
5766 Clouds 32 1022 35 10000 1 0 13:24 27.06.2019
5767 Clouds 31 1023 38 10000 0.5 0 12:48 27.06.2019
5768 Clear 30 1023 35 10000 1.5 250 12:24 27.06.2019
5769 Clear 29 1023 37 10000 1 0 11:47 27.06.2019
5770 Clear 28 1024 45 10000 0.5 0 11:23 27.06.2019
5771 Clear 28 1024 45 10000 0.5 0 11:23 27.06.2019
5772 Clear 30 1024 51 10000 1.5 280 10:57 27.06.2019
5773 Clear 29 1024 51 10000 1.5 280 10:37 27.06.2019
5774 Clear 28 1025 47 10000 1 0 10:19 27.06.2019
5775 Clear 28 1025 50 10000 1 0 09:38 27.06.2019
5776 Clear 23 1025 60 10000 2.6 280 09:38 27.06.2019
5777 Clear 23 1025 60 10000 2.6 280 09:20 27.06.2019
5778 Clear 22 1026 64 10000 1.5 270 08:48 27.06.2019
5779 Clear 22 1026 64 10000 1.5 270 08:48 27.06.2019
5780 Clear 21 1026 68 10000 1.5 250 08:26 27.06.2019
5781 Clear 22 1026 72 10000 2.1 260 07:44 27.06.2019
5782 Clear 18 1026 77 10000 0.5 0 06:57 27.06.2019
5783 Clear 18 1026 77 10000 1.5 300 06:30 27.06.2019
5784 Clear 18 1026 77 10000 1 0 03:51 27.06.2019
5785 Clear 19 1026 68 10000 0.5 0 02:42 27.06.2019
5786 Clear 19 1025 68 10000 2.1 270 01:26 27.06.2019
5787 Clear 19 1025 68 10000 0.5 0 00:49 27.06.2019
5788 Clear 21 1025 64 10000 0.5 0 00:26 27.06.2019
5789 Clear 22 1025 56 10000 0.5 0 23:48 26.06.2019
5790 Clear 22 1025 57 10000 0.5 0 23:23 26.06.2019
5791 Clear 23 1024 50 10000 0.5 0 22:57 26.06.2019
5792 Clear 23 1024 50 10000 0.5 0 22:39 26.06.2019
5793 Clear 26 1024 50 10000 0.5 0 22:19 26.06.2019
5794 Clear 29 1024 50 10000 1.5 260 21:42 26.06.2019
5795 Clear 27 1023 45 10000 1 0 21:20 26.06.2019
5796 Clear 29 1023 42 10000 2.1 290 20:55 26.06.2019
5797 Clear 30 1023 42 10000 2.1 290 20:37 26.06.2019
5798 Clear 30 1023 35 10000 2.1 70 20:18 26.06.2019
5799 Clear 33 1023 31 10000 2.6 40 19:41 26.06.2019
5800 Clear 33 1022 29 10000 4.1 50 19:22 26.06.2019
5801 Clear 35 1022 28 10000 5.1 70 18:45 26.06.2019
5802 Clear 33 1022 26 10000 5.1 70 18:22 26.06.2019
5803 Clouds 34 1023 26 10000 5.1 80 17:57 26.06.2019
5804 Clouds 34 1023 26 10000 4.6 80 17:28 26.06.2019
5805 Clouds 35 1023 26 10000 4.1 70 16:57 26.06.2019
5806 Clouds 34 1023 26 10000 4.1 70 16:39 26.06.2019
5807 Clouds 35 1023 26 10000 3.6 90 16:19 26.06.2019
5808 Clear 34 1023 24 10000 2.6 100 15:30 26.06.2019
5809 Clear 33 1024 30 10000 2.6 50 14:58 26.06.2019
5810 Clear 33 1024 30 10000 2.6 50 14:38 26.06.2019
5811 -273 0 0 0 0 0 14:37 26.06.2019
5812 Clear 33 1024 26 10000 2.1 120 14:19 26.06.2019
5813 Clear 32 1024 31 10000 0.5 0 13:41 26.06.2019
5814 Clear 32 1024 29 10000 0.5 0 13:19 26.06.2019
5815 Clear 30 1025 35 10000 1 0 12:41 26.06.2019
5816 Clear 30 1025 35 10000 1 0 12:41 26.06.2019
5817 Clear 30 1025 37 10000 1.5 270 12:22 26.06.2019
5818 Clear 29 1025 42 10000 2.6 260 11:42 26.06.2019
5819 Clear 28 1026 39 10000 2.1 260 11:19 26.06.2019
5820 Clear 29 1026 47 10000 2.1 280 10:41 26.06.2019
5821 Clear 28 1026 47 10000 2.6 270 10:21 26.06.2019
5822 Clear 29 1027 50 10000 2.6 280 09:41 26.06.2019
5823 Clear 23 1027 53 10000 2.1 270 09:18 26.06.2019
5824 Clear 21 1027 60 10000 2.6 280 08:39 26.06.2019
5825 Clear 20 1027 72 10000 1.5 260 08:19 26.06.2019
5826 Clear 20 1027 72 10000 2.6 250 07:45 26.06.2019
5827 Clear 17 1026 82 10000 2.6 250 06:34 26.06.2019
5828 Clear 17 1026 82 10000 1.5 270 05:55 26.06.2019
5829 Clouds 18 1025 68 10000 1.5 240 00:57 26.06.2019
5830 Clouds 21 1024 68 10000 0.5 0 00:20 26.06.2019
5831 Clouds 22 1024 69 10000 0.5 0 23:43 25.06.2019
5832 Clear 22 1024 64 10000 1 0 23:24 25.06.2019
5833 Clear 22 1023 61 10000 1 0 22:56 25.06.2019
5834 Clear 22 1023 61 10000 1 0 22:37 25.06.2019
5835 Clear 23 1023 54 10000 0.5 0 22:19 25.06.2019
5836 Clear 26 1023 50 10000 1 0 21:40 25.06.2019
5837 Clear 27 1022 48 10000 1.5 310 21:21 25.06.2019
5838 Clear 29 1022 48 10000 2.6 60 20:43 25.06.2019
5839 Clear 28 1022 48 10000 2.6 60 20:43 25.06.2019
5840 Clear 29 1021 40 10000 3.1 70 20:20 25.06.2019
5841 Clear 29 1021 40 10000 3.1 70 20:20 25.06.2019
5842 Clear 33 1021 36 10000 4.6 90 19:45 25.06.2019
5843 Clear 33 1021 33 10000 5.1 70 19:23 25.06.2019
5844 Clear 34 1020 32 10000 5.1 60 18:44 25.06.2019
5845 Clear 31 1020 26 10000 5.7 70 18:26 25.06.2019
5846 -273 0 0 0 0 0 17:55 25.06.2019
5847 -273 0 0 0 0 0 17:29 25.06.2019
5848 -273 0 0 0 0 0 17:29 25.06.2019
5849 -273 0 0 0 0 0 17:29 25.06.2019
5850 -273 0 0 0 0 0 17:29 25.06.2019
5851 Clouds 32 1021 26 10000 3.6 60 16:57 25.06.2019
5852 Clouds 32 1021 26 10000 3.6 60 16:38 25.06.2019
5853 Clear 32 1020 24 10000 3.1 80 16:19 25.06.2019
5854 Clear 32 1021 21 10000 2.6 100 15:40 25.06.2019
5855 Clear 32 1021 26 10000 2.6 60 15:21 25.06.2019
5856 Clear 32 1021 29 10000 2.6 50 14:53 25.06.2019
5857 Clouds 31 1017 27 0 1.79 354 14:35 25.06.2019
5858 Clear 31 1021 35 10000 0.5 0 13:45 25.06.2019
5859 Clear 30 1021 40 10000 1 0 13:26 25.06.2019
5860 Clear 30 1021 42 10000 2.1 260 12:44 25.06.2019
5861 Clear 28 1021 45 10000 3.6 270 12:25 25.06.2019
5862 Clear 28 1022 48 10000 4.6 270 11:49 25.06.2019
5863 Clear 27 1022 51 10000 5.1 270 11:26 25.06.2019
5864 Clear 28 1022 47 10000 5.1 270 10:59 25.06.2019
5865 Clear 28 1022 57 10000 5.1 270 10:39 25.06.2019
5866 Clear 25 1022 57 10000 5.1 270 10:21 25.06.2019
5867 Clear 26 1022 64 10000 4.6 270 09:40 25.06.2019
5868 Clear 22 1023 64 10000 5.1 280 09:22 25.06.2019
5869 Clear 22 1023 68 10000 4.1 280 09:00 25.06.2019
5870 Clear 20 1023 72 10000 3.1 290 08:32 25.06.2019
5871 Clear 19 1023 77 10000 2.1 280 07:58 25.06.2019
5872 Clear 18 1023 82 10000 1.5 240 07:36 25.06.2019
5873 Clear 16 1023 88 10000 2.1 310 06:52 25.06.2019
5874 Clear 17 1023 87 10000 1 0 06:28 25.06.2019
5875 Clear 16 1022 82 10000 1 0 02:45 25.06.2019
5876 Clear 16 1022 82 10000 2.1 260 01:38 25.06.2019
5877 Clouds 17 1022 77 10000 1 0 00:35 25.06.2019
5878 Clouds 19 1022 73 10000 0.5 0 23:53 24.06.2019
5879 Clouds 18 1022 73 10000 0.5 0 23:34 24.06.2019
5880 Clear 20 1021 64 10000 1 0 22:59 24.06.2019
5881 Clear 20 1021 64 10000 1 0 22:39 24.06.2019
5882 Clear 23 1021 60 10000 1 0 22:18 24.06.2019
5883 Clear 24 1020 57 10000 1 0 21:39 24.06.2019
5884 Clear 24 1020 57 10000 1 0 21:19 24.06.2019
5885 Clear 25 1019 54 10000 2.1 50 20:55 24.06.2019
5886 Clear 25 1019 54 10000 2.1 50 20:37 24.06.2019
5887 Clouds 26 1019 51 10000 4.6 60 20:18 24.06.2019
5888 Clouds 28 1019 45 10000 5.7 70 19:41 24.06.2019
5889 Clouds 29 1019 39 10000 4.6 70 19:21 24.06.2019
5890 Clouds 30 1019 33 10000 5.7 70 18:44 24.06.2019
5891 Clouds 28 1018 31 10000 4.1 80 18:25 24.06.2019
5892 Clouds 28 1018 35 10000 4.1 70 17:46 24.06.2019
5893 Clouds 29 1018 37 10000 4.1 60 17:25 24.06.2019
5894 Clouds 29 1019 35 10000 3.6 70 16:46 24.06.2019
5895 Clouds 29 1019 40 10000 3.6 60 16:20 24.06.2019
5896 Clouds 28 1019 37 10000 4.6 70 15:47 24.06.2019
5897 Clouds 28 1019 39 10000 4.1 60 15:29 24.06.2019
5898 Clouds 28 1019 39 10000 3.1 80 14:43 24.06.2019
5899 Clouds 27 1020 44 10000 4.1 70 14:24 24.06.2019
5900 Clouds 27 1020 47 10000 4.1 80 13:46 24.06.2019
5901 Clouds 26 1020 47 10000 3.1 70 13:24 24.06.2019
5902 Clouds 26 1020 57 10000 1.5 0 12:43 24.06.2019
5903 Clouds 24 1021 50 10000 0.5 0 12:21 24.06.2019
5904 Clouds 23 1021 60 10000 1.5 310 11:46 24.06.2019
5905 Clouds 22 1021 60 10000 1 0 11:28 24.06.2019
5906 Clouds 22 1021 64 10000 2.1 270 10:57 24.06.2019
5907 Clouds 23 1021 64 10000 2.1 270 10:36 24.06.2019
5908 Clouds 21 1022 68 10000 2.1 260 10:18 24.06.2019
5909 Clouds 24 1022 68 10000 2.1 260 09:43 24.06.2019
5910 Clouds 18 1023 77 10000 2.1 280 09:19 24.06.2019
5911 Clear 17 1023 82 10000 1.5 260 08:50 24.06.2019
5912 Clear 16 1023 82 10000 2.1 270 08:20 24.06.2019
5913 Clear 16 1023 82 10000 1 0 07:41 24.06.2019
5914 Clear 15 1023 82 10000 0.5 0 07:23 24.06.2019
5915 Clear 11 1023 87 10000 1 0 06:24 24.06.2019
5916 Clear 11 1023 93 10000 1.5 230 05:45 24.06.2019
5917 Clear 12 1022 93 10000 1 0 04:46 24.06.2019
5918 Clear 12 1022 87 10000 1 0 03:54 24.06.2019
5919 Clear 13 1022 93 10000 2.1 270 02:48 24.06.2019
5920 Clear 14 1022 82 10000 1 0 01:55 24.06.2019
5921 Clear 14 1022 82 10000 1 0 01:34 24.06.2019
5922 Clear 14 1022 77 10000 1 0 00:55 24.06.2019
5923 Clear 15 1021 72 10000 1.5 0 00:23 24.06.2019
5924 Clear 15 1021 77 10000 1.5 60 23:58 23.06.2019
5925 Clear 15 1021 77 10000 1.5 60 23:40 23.06.2019
5926 Clear 15 1021 82 10000 0.5 0 23:20 23.06.2019
5927 Clear 16 1021 77 10000 0.5 0 22:41 23.06.2019
5928 Clouds 16 1020 77 10000 1 0 22:20 23.06.2019
5929 Clouds 19 1020 72 10000 1.5 10 21:42 23.06.2019
5930 Clouds 19 1020 68 10000 1 0 21:22 23.06.2019
5931 Clouds 20 1019 72 10000 2.1 20 20:52 23.06.2019
5932 Clouds 21 1019 64 10000 2.1 20 20:32 23.06.2019
5933 Clouds 24 1019 64 10000 2.1 40 19:56 23.06.2019
5934 Clouds 23 1019 64 10000 2.1 40 19:38 23.06.2019
5935 Clouds 22 1018 60 10000 2.1 50 19:19 23.06.2019
5936 Clouds 21 1018 64 10000 2.6 40 18:44 23.06.2019
5937 Clouds 21 1018 60 10000 2.1 70 18:20 23.06.2019
5938 Clouds 21 1018 60 10000 1.5 110 17:42 23.06.2019
5939 Clouds 21 1019 60 10000 2.6 120 17:22 23.06.2019
5940 Clouds 21 1019 60 10000 2.6 60 16:45 23.06.2019
5941 Clouds 21 1019 64 10000 3.1 90 16:25 23.06.2019
5942 Clouds 20 1019 68 10000 2.6 110 15:54 23.06.2019
5943 Clouds 20 1019 68 10000 2.6 110 15:36 23.06.2019
5944 Clouds 21 1019 64 10000 3.6 70 15:18 23.06.2019
5945 Clouds 21 1019 64 10000 3.6 60 14:38 23.06.2019
5946 Clouds 21 1019 64 10000 1.5 80 14:20 23.06.2019
5947 Clouds 19 1019 68 10000 2.1 60 13:42 23.06.2019
5948 Clouds 19 1019 68 10000 1.5 50 13:21 23.06.2019
5949 Clouds 18 1019 68 10000 2.6 70 12:58 23.06.2019
5950 Clouds 18 1019 68 10000 2.6 70 12:39 23.06.2019
5951 Clouds 18 1019 72 10000 2.1 70 12:19 23.06.2019
5952 Clouds 18 1019 68 10000 0.5 0 11:45 23.06.2019
5953 Rain 16 1016 82 0 1.34 291 11:25 23.06.2019
5954 Clouds 17 1019 77 10000 1 0 10:48 23.06.2019
5955 Clouds 17 1019 77 10000 0.5 0 10:21 23.06.2019
5956 Clouds 16 1019 82 10000 0.5 0 09:57 23.06.2019
5957 Clouds 15 1019 82 10000 1.5 260 09:22 23.06.2019
5958 Clouds 15 1019 87 10000 1.5 280 08:47 23.06.2019
5959 Clouds 15 1019 87 10000 1.5 280 08:28 23.06.2019
5960 Clouds 15 1019 87 10000 1.5 260 07:57 23.06.2019
5961 Clouds 15 1018 87 10000 1.5 250 07:39 23.06.2019
5962 Clouds 15 1018 87 10000 1.5 270 07:18 23.06.2019
5963 Clouds 14 1018 87 10000 1 270 06:46 23.06.2019
5964 Clouds 14 1018 93 10000 0.5 0 05:42 23.06.2019
5965 Clouds 14 1017 87 10000 1 50 02:51 23.06.2019
5966 Clouds 14 1017 87 10000 1 0 01:39 23.06.2019
5967 Clouds 15 1017 82 10000 3.1 60 00:58 23.06.2019
5968 Clouds 15 1017 82 10000 2.1 70 00:27 23.06.2019
5969 Clouds 15 1017 82 10000 0.5 0 23:44 22.06.2019
5970 Clouds 15 1017 82 10000 0.5 0 23:25 22.06.2019
5971 Clouds 17 1016 82 10000 1 0 22:47 22.06.2019
5972 Clouds 17 1016 82 10000 1 0 22:26 22.06.2019
5973 Clouds 18 1015 77 10000 1 0 21:43 22.06.2019
5974 Clouds 17 1015 72 10000 1.5 10 21:20 22.06.2019
5975 Clouds 18 1014 77 10000 1 0 20:57 22.06.2019
5976 Clouds 18 1014 77 10000 1 0 20:38 22.06.2019
5977 Clouds 17 1015 64 10000 1 0 20:20 22.06.2019
5978 Clouds 18 1015 64 10000 2.1 280 19:40 22.06.2019
5979 Clouds 17 1015 64 10000 3.6 310 19:20 22.06.2019
5980 Clouds 16 1015 72 10000 4.1 290 18:42 22.06.2019
5981 Clouds 18 1015 68 10000 4.1 300 18:22 22.06.2019
5982 Clouds 18 1015 68 10000 4.6 290 17:44 22.06.2019
5983 Clouds 18 1016 64 10000 5.7 270 17:25 22.06.2019
5984 Rain 17 1016 68 10000 7.2 240 16:42 22.06.2019
5985 Rain 17 1016 63 10000 9.8 240 16:22 22.06.2019
5986 Clouds 17 1016 68 10000 8.7 240 15:43 22.06.2019
5987 Clouds 21 1016 64 10000 6.7 260 15:25 22.06.2019
5988 Clouds 20 1016 68 10000 1 0 14:51 22.06.2019
5989 Clouds 20 1016 68 10000 0.5 0 14:31 22.06.2019
5990 Clouds 20 1017 72 10000 1.5 30 13:57 22.06.2019
5991 Clouds 20 1017 72 10000 1.5 30 13:38 22.06.2019
5992 Clouds 20 1017 72 10000 1.5 30 13:38 22.06.2019
5993 Clouds 19 1017 72 10000 1 0 13:18 22.06.2019
5994 Clouds 19 1017 77 10000 1 0 12:42 22.06.2019
5995 Clouds 19 1017 82 10000 0.5 0 12:18 22.06.2019
5996 Clouds 18 1017 77 10000 1 0 11:41 22.06.2019
5997 Clouds 18 1018 82 10000 0.5 0 10:58 22.06.2019
5998 Clouds 16 1018 82 10000 1 0 10:22 22.06.2019
5999 Clouds 16 1018 82 10000 1 0 09:56 22.06.2019
6000 Clouds 16 1018 82 10000 1 0 09:29 22.06.2019
6001 Clouds 15 1019 87 10000 1 0 08:47 22.06.2019
6002 Clouds 15 1018 93 10000 1 0 08:28 22.06.2019
6003 Clouds 15 1019 93 10000 0.5 0 07:44 22.06.2019
6004 Clouds 15 1019 93 10000 1 0 07:18 22.06.2019
6005 Clouds 14 1019 100 10000 1 180 06:33 22.06.2019
6006 Clouds 14 1019 93 10000 1 0 03:42 22.06.2019
6007 Clouds 14 1020 93 10000 0.5 0 02:21 22.06.2019
6008 Rain 15 1021 93 10000 1 0 00:48 22.06.2019
6009 Rain 14 1021 87 10000 2.1 50 00:24 22.06.2019
6010 Rain 14 1021 93 10000 1.5 120 23:49 21.06.2019
6011 Clouds 14 1021 87 10000 0.5 0 23:23 21.06.2019
6012 Clouds 15 1021 93 10000 1 0 22:54 21.06.2019
6013 Clouds 15 1021 93 10000 1 0 22:27 21.06.2019
6014 Rain 15 1020 93 10000 1.5 160 21:57 21.06.2019
6015 Rain 15 1020 93 10000 1.5 160 21:38 21.06.2019
6016 Rain 15 1020 93 10000 1.5 160 21:38 21.06.2019
6017 Rain 15 1020 93 10000 1.5 160 21:38 21.06.2019
6018 Rain 15 1020 93 10000 1.5 160 21:38 21.06.2019
6019 Rain 16 1020 88 10000 2.1 110 21:19 21.06.2019
6020 Rain 16 1019 82 10000 2.1 240 20:47 21.06.2019
6021 Rain 16 1019 77 10000 2.6 270 20:24 21.06.2019
6022 Rain 16 1018 77 10000 1.5 140 19:38 21.06.2019
6023 Clouds 16 1018 77 10000 4.1 260 18:56 21.06.2019
6024 Clouds 16 1018 77 10000 4.1 260 18:35 21.06.2019
6025 Rain 16 1016 77 10000 5.7 30 17:56 21.06.2019
6026 Rain 19 1015 50 10000 2.6 210 17:30 21.06.2019
6027 Clouds 21 1015 50 10000 1.5 280 16:43 21.06.2019
6028 Clouds 23 1015 53 10000 1.5 300 16:23 21.06.2019
6029 Clouds 25 1015 50 10000 1.5 0 15:53 21.06.2019
6030 Clouds 25 1015 50 10000 1.5 0 15:33 21.06.2019
6031 Clouds 23 1016 53 10000 2.6 120 14:53 21.06.2019
6032 Clouds 23 1017 60 10000 2.6 70 14:31 21.06.2019
6033 Clouds 23 1017 53 10000 1 0 13:59 21.06.2019
6034 Clouds 22 1017 53 10000 1 0 13:37 21.06.2019
6035 Clouds 23 1018 56 10000 0.5 0 13:19 21.06.2019
6036 Clouds 22 1018 60 10000 0.5 0 12:42 21.06.2019
6037 Clouds 21 1018 64 10000 1.5 0 12:22 21.06.2019
6038 Clouds 20 1018 68 10000 1.5 0 11:48 21.06.2019
6039 Clouds 19 1019 64 10000 2.1 180 11:28 21.06.2019
6040 Clouds 20 1019 72 10000 1 0 10:56 21.06.2019
6041 Clouds 19 1019 72 10000 1 0 10:38 21.06.2019
6042 Clouds 17 1019 77 10000 1 0 10:20 21.06.2019
6043 Clouds 16 1019 82 10000 1 0 09:42 21.06.2019
6044 Clouds 16 1019 87 10000 2.1 270 09:21 21.06.2019
6045 Clouds 15 1019 87 10000 2.6 280 08:45 21.06.2019
6046 Clouds 14 1019 87 10000 2.1 260 08:27 21.06.2019
6047 Clouds 14 1019 93 10000 1 270 07:56 21.06.2019
6048 Clouds 14 1019 93 10000 1 270 07:38 21.06.2019
6049 Clouds 14 1019 93 10000 2.1 260 06:58 21.06.2019
6050 Clouds 12 1019 93 10000 1.5 280 06:24 21.06.2019
6051 Clouds 12 1019 93 10000 2.6 260 05:32 21.06.2019
6052 Clouds 12 1019 87 10000 1 0 04:31 21.06.2019
6053 Clouds 13 1019 87 10000 1 0 03:35 21.06.2019
6054 Clouds 13 1019 87 10000 0.5 0 02:53 21.06.2019
6055 Clouds 14 1019 93 10000 0.5 0 01:56 21.06.2019
6056 Clouds 14 1019 93 10000 2.1 260 00:58 21.06.2019
6057 Clouds 14 1018 87 10000 1 0 00:27 21.06.2019
6058 Clouds 14 1018 87 10000 0.5 0 23:53 20.06.2019
6059 Clouds 15 1018 87 10000 1 0 23:24 20.06.2019
6060 Clouds 14 1018 93 10000 2.1 110 22:58 20.06.2019
6061 Clouds 15 1018 93 10000 2.1 110 22:39 20.06.2019
6062 Rain 15 1018 87 10000 2.1 110 22:21 20.06.2019
6063 Rain 15 1018 87 10000 1 0 21:49 20.06.2019
6064 Rain 15 1018 87 10000 1 0 21:19 20.06.2019
6065 Rain 15 1017 87 10000 2.6 90 20:58 20.06.2019
6066 Rain 16 1017 87 10000 2.6 90 20:39 20.06.2019
6067 Rain 16 1017 82 10000 3.1 90 20:19 20.06.2019
6068 Clouds 16 1016 82 10000 3.1 120 19:39 20.06.2019
6069 Clouds 16 1016 77 10000 4.6 80 19:18 20.06.2019
6070 Clouds 17 1016 77 10000 3.6 90 18:43 20.06.2019
6071 Rain 17 1015 82 10000 4.6 90 18:23 20.06.2019
6072 Rain 16 1010 100 0 2.24 113 17:57 20.06.2019
6073 Rain 16 1010 81 0 1.67 339.098 17:39 20.06.2019
6074 Clouds 17 1013 52 10000 11.3 260 16:58 20.06.2019
6075 Clouds 17 1013 52 10000 11.3 260 16:39 20.06.2019
6076 Clouds 18 1012 64 10000 8.7 250 16:19 20.06.2019
6077 Thunderstorm 18 1012 56 10000 12.3 260 15:43 20.06.2019
6078 Thunderstorm 21 1011 44 10000 3.6 60 15:23 20.06.2019
6079 Clouds 24 1011 39 10000 4.6 60 14:54 20.06.2019
6080 Clouds 26 1012 39 10000 4.1 70 14:24 20.06.2019
6081 Clouds 26 1012 44 10000 3.6 70 13:59 20.06.2019
6082 Clouds 26 1012 44 10000 3.6 70 13:37 20.06.2019
6083 Clouds 26 1013 47 10000 3.1 70 13:18 20.06.2019
6084 Clouds 26 1013 44 10000 3.6 90 12:41 20.06.2019
6085 Clouds 25 1013 44 10000 4.1 60 12:19 20.06.2019
6086 Clouds 25 1013 44 10000 2.1 110 11:40 20.06.2019
6087 Clouds 23 1014 46 10000 0.5 0 11:22 20.06.2019
6088 Clouds 22 1014 53 10000 1 0 10:43 20.06.2019
6089 Clouds 22 1014 52 10000 1.5 270 10:23 20.06.2019
6090 Clouds 20 1015 60 10000 3.1 280 09:46 20.06.2019
6091 Clouds 19 1015 63 10000 3.1 290 09:24 20.06.2019
6092 Clear 19 1015 63 10000 3.6 270 08:58 20.06.2019
6093 Clear 18 1015 63 10000 3.6 270 08:40 20.06.2019
6094 Clouds 17 1015 68 10000 3.1 270 08:19 20.06.2019
6095 Clouds 17 1015 72 10000 2.1 260 07:42 20.06.2019
6096 Clear 17 1016 77 10000 1.5 290 07:23 20.06.2019
6097 Clear 14 1015 77 10000 1 260 06:19 20.06.2019
6098 Clouds 16 1015 67 10000 1.5 220 03:40 20.06.2019
6099 Clouds 18 1014 56 10000 2.6 0 00:59 20.06.2019
6100 Clouds 17 1014 52 10000 8.7 140 00:33 20.06.2019
6101 Rain 17 1014 46 10000 4.6 250 23:43 19.06.2019
6102 Rain 18 1013 60 10000 2.1 260 23:25 19.06.2019
6103 Clouds 22 1012 56 10000 3.1 250 22:48 19.06.2019
6104 Clouds 19 1012 56 10000 1.5 0 22:24 19.06.2019
6105 Clouds 23 1011 53 10000 1.5 330 21:57 19.06.2019
6106 Clouds 23 1011 53 10000 1.5 330 21:37 19.06.2019
6107 Clouds 22 1011 47 10000 1.5 360 21:18 19.06.2019
6108 Clouds 22 1011 47 10000 2.1 30 20:40 19.06.2019
6109 Clouds 26 1011 41 10000 2.6 70 20:21 19.06.2019
6110 Clouds 27 1011 44 10000 3.1 30 19:45 19.06.2019
6111 Clouds 27 1010 42 10000 3.1 40 19:26 19.06.2019
6112 Clouds 28 1010 39 10000 4.1 40 18:56 19.06.2019
6113 Clouds 27 1010 37 10000 4.1 50 18:24 19.06.2019
6114 Clouds 27 1011 35 10000 4.1 60 17:44 19.06.2019
6115 Clouds 26 1011 37 10000 5.1 50 17:25 19.06.2019
6116 Clouds 27 1011 32 10000 2.1 0 16:56 19.06.2019
6117 Clouds 28 1011 30 10000 2.1 230 16:36 19.06.2019
6118 Clouds 28 1011 30 10000 2.1 230 16:18 19.06.2019
6119 Clouds 27 1012 32 10000 1.5 0 15:42 19.06.2019
6120 Clouds 27 1012 34 10000 1.5 280 15:22 19.06.2019
6121 Clouds 26 1013 42 10000 1.5 0 14:43 19.06.2019
6122 Clouds 26 1013 44 10000 1.5 30 14:24 19.06.2019
6123 Clouds 25 1013 41 10000 1 0 13:44 19.06.2019
6124 Clouds 25 1014 44 10000 1 0 13:25 19.06.2019
6125 Clouds 24 1014 56 10000 1.5 290 12:57 19.06.2019
6126 Clouds 24 1014 56 10000 1.5 290 12:39 19.06.2019
6127 Clouds 23 1014 64 10000 2.6 260 12:18 19.06.2019
6128 Clouds 22 1015 64 10000 2.6 270 11:40 19.06.2019
6129 Clouds 22 1015 77 10000 3.1 280 11:20 19.06.2019
6130 Clouds 21 1016 77 10000 3.6 270 10:49 19.06.2019
6131 Clouds 20 1016 77 10000 4.6 280 10:28 19.06.2019
6132 Clouds 19 1016 82 10000 1 0 09:56 19.06.2019
6133 Clouds 17 1016 88 10000 2.1 310 09:37 19.06.2019
6134 Clouds 17 1016 88 10000 2.1 310 09:18 19.06.2019
6135 Clouds 16 1017 93 10000 3.1 270 08:43 19.06.2019
6136 Clouds 16 1017 93 10000 3.1 280 08:24 19.06.2019
6137 Clouds 17 1017 87 10000 2.1 180 07:43 19.06.2019
6138 Clouds 16 1017 93 10000 1.5 280 07:23 19.06.2019
6139 Clouds 15 1017 93 10000 1.5 210 06:37 19.06.2019
6140 Rain 15 1018 93 10000 3.6 290 06:18 19.06.2019
6141 Clouds 15 1018 93 10000 2.6 270 05:27 19.06.2019
6142 Rain 15 1018 100 10000 2.6 280 03:53 19.06.2019
6143 Clouds 15 1019 93 10000 0.5 0 02:40 19.06.2019
6144 Clouds 15 1019 93 10000 0.5 0 01:41 19.06.2019
6145 Rain 15 1019 93 10000 3.1 260 00:55 19.06.2019
6146 Rain 15 1019 93 10000 4.1 290 00:36 19.06.2019
6147 Rain 17 1019 93 10000 4.1 290 00:18 19.06.2019
6148 Rain 17 1018 88 6000 8.7 240 23:42 18.06.2019
6149 Rain 18 1016 77 8000 9.8 260 23:23 18.06.2019
6150 Thunderstorm 20 1015 53 10000 2.1 0 22:41 18.06.2019
6151 Clouds 21 1014 47 10000 3.1 110 22:22 18.06.2019
6152 Clouds 24 1014 47 10000 2.6 70 21:44 18.06.2019
6153 Thunderstorm 22 1014 41 10000 3.6 20 21:23 18.06.2019
6154 Clouds 24 1013 41 10000 3.1 80 20:59 18.06.2019
6155 Clouds 25 1013 41 10000 3.1 80 20:40 18.06.2019
6156 Clouds 25 1013 44 10000 3.6 40 20:21 18.06.2019
6157 Clouds 26 1013 42 10000 4.6 50 19:39 18.06.2019
6158 Clouds 27 1012 37 10000 6.2 80 19:21 18.06.2019
6159 Clouds 28 1012 35 10000 6.2 80 18:51 18.06.2019
6160 Clouds 27 1012 37 10000 6.2 80 18:25 18.06.2019
6161 Clouds 28 1012 28 10000 4.6 90 17:48 18.06.2019
6162 Clouds 28 1012 29 10000 3.1 90 17:23 18.06.2019
6163 Clouds 29 1012 29 10000 1 0 16:58 18.06.2019
6164 Clouds 28 1012 29 10000 1 0 16:40 18.06.2019
6165 Clouds 28 1013 23 10000 1.5 0 16:21 18.06.2019
6166 Clouds 30 1013 25 10000 1.5 0 15:41 18.06.2019
6167 Clouds 30 1013 22 10000 0.5 0 15:22 18.06.2019
6168 Clouds 29 1014 26 10000 1.5 300 14:56 18.06.2019
6169 Clouds 28 1014 26 10000 1.5 300 14:37 18.06.2019
6170 Clouds 28 1014 32 10000 0.5 0 14:18 18.06.2019
6171 Clouds 28 1015 34 10000 1 0 13:46 18.06.2019
6172 Clouds 27 1015 37 10000 1 0 13:28 18.06.2019
6173 Clouds 26 1016 41 10000 1 0 12:46 18.06.2019
6174 Clouds 25 1016 41 10000 1 0 12:46 18.06.2019
6175 Clouds 25 1016 47 10000 1 0 12:27 18.06.2019
6176 Clouds 25 1016 53 10000 1 0 11:50 18.06.2019
6177 Clouds 23 1017 50 10000 1 0 11:23 18.06.2019
6178 Clouds 23 1017 53 10000 1 0 10:58 18.06.2019
6179 Clouds 22 1017 53 10000 1 0 10:39 18.06.2019
6180 Clouds 22 1017 60 10000 1 0 10:20 18.06.2019
6181 Clouds 21 1018 60 10000 1.5 260 09:51 18.06.2019
6182 Clouds 20 1018 64 10000 2.1 260 09:24 18.06.2019
6183 Clear 19 1018 72 10000 3.6 270 08:48 18.06.2019
6184 Clear 17 1018 77 10000 1.5 280 08:22 18.06.2019
6185 Clear 16 1018 82 10000 2.1 250 07:46 18.06.2019
6186 Clear 15 1018 87 10000 1.5 260 07:24 18.06.2019
6187 Clear 14 1018 93 10000 1.5 270 06:48 18.06.2019
6188 Clouds 13 1018 87 10000 0.5 0 05:24 18.06.2019
6189 Clouds 13 1018 87 10000 1.5 240 04:21 18.06.2019
6190 Clouds 14 1018 82 10000 1 240 02:45 18.06.2019
6191 Clouds 15 1019 93 10000 1 0 01:26 18.06.2019
6192 Clouds 18 1019 88 10000 1.5 0 00:57 18.06.2019
6193 Clouds 18 1018 88 10000 1 0 00:30 18.06.2019
6194 Clouds 18 1019 88 10000 1.5 210 23:42 17.06.2019
6195 Rain 18 1019 88 10000 1 0 23:23 17.06.2019
6196 Clouds 19 1018 82 10000 1.5 140 22:58 17.06.2019
6197 Clouds 19 1018 82 10000 1.5 140 22:38 17.06.2019
6198 Clouds 19 1018 88 10000 2.6 170 22:20 17.06.2019
6199 Clouds 19 1018 82 10000 2.1 0 21:44 17.06.2019
6200 Rain 20 1017 77 10000 1 0 21:23 17.06.2019
6201 Rain 20 1017 77 10000 1 0 21:23 17.06.2019
6202 Thunderstorm 23 1016 56 10000 5.7 80 20:40 17.06.2019
6203 Clouds 24 1016 53 10000 5.1 70 20:21 17.06.2019
6204 Clouds 25 1016 53 10000 6.7 60 19:56 17.06.2019
6205 Clouds 25 1016 53 10000 6.7 60 19:38 17.06.2019
6206 Clouds 26 1015 47 10000 5.1 80 19:19 17.06.2019
6207 Clouds 26 1015 44 10000 6.2 70 18:39 17.06.2019
6208 Clouds 25 1015 44 10000 6.2 70 18:18 17.06.2019
6209 Clouds 25 1015 42 10000 5.1 70 17:48 17.06.2019
6210 Clouds 25 1015 42 10000 5.1 70 17:48 17.06.2019
6211 Clouds 25 1015 42 10000 5.1 70 17:29 17.06.2019
6212 Clouds 25 1015 39 10000 4.1 80 16:56 17.06.2019
6213 Clouds 26 1015 42 10000 4.1 60 16:38 17.06.2019
6214 Clouds 26 1015 42 10000 4.1 60 16:20 17.06.2019
6215 Clouds 26 1016 41 10000 3.1 60 15:43 17.06.2019
6216 Clouds 26 1016 41 10000 3.1 60 15:20 17.06.2019
6217 Clouds 24 1017 47 10000 2.6 70 14:56 17.06.2019
6218 Clouds 24 1017 50 10000 2.6 120 14:36 17.06.2019
6219 Clouds 24 1017 50 10000 2.6 120 14:36 17.06.2019
6220 Clouds 24 1018 50 10000 2.1 0 14:18 17.06.2019
6221 Clouds 24 1018 49 10000 1.5 0 13:40 17.06.2019
6222 Clouds 24 1018 49 10000 1.5 0 13:20 17.06.2019
6223 Clouds 22 1019 56 10000 2.1 280 12:40 17.06.2019
6224 Clouds 22 1019 56 10000 2.1 280 12:19 17.06.2019
6225 Clouds 22 1019 56 10000 2.1 280 12:19 17.06.2019
6226 Clouds 21 1020 56 10000 1 0 11:43 17.06.2019
6227 Clouds 20 1020 56 10000 1 0 11:25 17.06.2019
6228 Clouds 20 1021 63 10000 2.1 130 10:48 17.06.2019
6229 Clouds 20 1021 63 10000 2.1 130 10:29 17.06.2019
6230 Clouds 19 1021 63 10000 1 0 09:56 17.06.2019
6231 Clouds 17 1022 63 10000 1.5 80 09:34 17.06.2019
6232 Clouds 16 1022 72 10000 0.5 0 08:58 17.06.2019
6233 Clouds 15 1022 82 10000 0.5 0 08:38 17.06.2019
6234 Clouds 14 1022 82 10000 0.5 0 08:20 17.06.2019
6235 Clouds 13 1022 87 10000 0.5 0 07:39 17.06.2019
6236 Clouds 13 1022 87 10000 1 0 07:19 17.06.2019
6237 Clouds 12 1022 87 10000 0.5 0 06:23 17.06.2019
6238 Clouds 12 1022 93 10000 1 0 05:31 17.06.2019
6239 Clouds 13 1022 87 10000 0.5 0 04:33 17.06.2019
6240 Clouds 14 1022 82 10000 1 0 03:33 17.06.2019
6241 Clouds 13 1022 87 10000 2.1 120 02:50 17.06.2019
6242 Clouds 13 1022 82 10000 1 150 02:32 17.06.2019
6243 Clouds 13 1022 82 10000 1 150 02:32 17.06.2019
6244 Clouds 16 1022 77 10000 1 0 01:39 17.06.2019
6245 Clouds 16 1023 82 10000 1 0 00:59 17.06.2019
6246 Clouds 16 1023 77 10000 1 0 00:40 17.06.2019
6247 Clouds 15 1023 77 10000 1 0 00:20 17.06.2019
6248 Clouds 16 1023 72 10000 1 0 23:40 16.06.2019
6249 Clouds 16 1023 72 10000 1 0 23:20 16.06.2019
6250 Clouds 17 1022 72 10000 1 0 22:47 16.06.2019
6251 Clouds 17 1022 72 10000 1 0 22:21 16.06.2019
6252 Clouds 17 1022 72 10000 1.5 190 21:59 16.06.2019
6253 Clouds 17 1022 77 10000 1.5 20 21:40 16.06.2019
6254 Clouds 15 1022 77 10000 1.5 20 21:21 16.06.2019
6255 Clouds 16 1022 72 10000 1.5 180 20:55 16.06.2019
6256 Clouds 16 1022 68 10000 2.1 260 20:37 16.06.2019
6257 Clouds 16 1022 68 10000 1.5 330 20:18 16.06.2019
6258 Clouds 17 1022 68 10000 1 0 19:39 16.06.2019
6259 Clouds 17 1022 68 10000 1 0 19:21 16.06.2019
6260 Clouds 17 1022 68 10000 1 0 18:57 16.06.2019
6261 Clouds 17 1022 68 10000 1 0 18:57 16.06.2019
6262 Clouds 17 1021 59 10000 2.1 70 18:38 16.06.2019
6263 Clouds 17 1021 59 10000 2.1 70 18:19 16.06.2019
6264 Clouds 17 1021 59 10000 2.6 60 17:42 16.06.2019
6265 Clouds 17 1021 59 10000 2.6 60 17:22 16.06.2019
6266 Clouds 18 1021 59 10000 4.1 50 16:56 16.06.2019
6267 Clouds 18 1021 56 10000 2.6 70 16:38 16.06.2019
6268 Clouds 18 1021 56 10000 2.6 70 16:19 16.06.2019
6269 Clouds 18 1021 56 10000 3.6 80 15:41 16.06.2019
6270 Clouds 18 1021 56 10000 3.6 80 15:23 16.06.2019
6271 Clouds 18 1021 64 10000 2.6 100 14:43 16.06.2019
6272 Clouds 19 1021 64 10000 2.6 100 14:23 16.06.2019
6273 Clouds 18 1021 60 10000 3.1 90 13:52 16.06.2019
6274 Clouds 18 1021 63 10000 2.6 130 13:26 16.06.2019
6275 Clouds 18 1021 68 10000 2.6 80 12:57 16.06.2019
6276 Clouds 18 1021 68 10000 2.6 80 12:57 16.06.2019
6277 Clouds 18 1021 72 10000 2.6 100 12:38 16.06.2019
6278 Clouds 18 1021 72 10000 3.1 120 12:18 16.06.2019
6279 Clouds 17 1021 72 10000 2.1 90 11:44 16.06.2019
6280 Clouds 17 1021 72 10000 2.6 60 11:19 16.06.2019
6281 Clouds 17 1021 72 10000 3.1 60 10:45 16.06.2019
6282 Clouds 17 1021 72 10000 3.1 60 10:21 16.06.2019
6283 Clouds 16 1021 87 10000 1 0 09:48 16.06.2019
6284 Clouds 15 1021 87 10000 1 0 09:26 16.06.2019
6285 Clouds 15 1021 87 10000 0.5 0 08:57 16.06.2019
6286 Clouds 15 1021 93 10000 0.5 0 08:38 16.06.2019
6287 Clouds 14 1021 87 10000 0.5 0 08:18 16.06.2019
6288 Clouds 14 1020 93 10000 0.5 0 07:43 16.06.2019
6289 Rain 13 1020 93 10000 0.5 0 06:57 16.06.2019
6290 Rain 13 1020 93 10000 1.5 140 06:30 16.06.2019
6291 Rain 14 1019 93 10000 1.5 30 05:40 16.06.2019
6292 Clouds 14 1018 87 10000 1.5 0 04:36 16.06.2019
6293 Clouds 14 1018 82 10000 1.5 0 03:54 16.06.2019
6294 Thunderstorm 14 1018 87 10000 3.1 80 03:31 16.06.2019
6295 Thunderstorm 15 1016 82 10000 1 0 02:18 16.06.2019
6296 Clouds 15 1016 77 10000 0.5 0 01:41 16.06.2019
6297 Clouds 15 1016 77 10000 0.5 0 01:23 16.06.2019
6298 Clouds 16 1016 77 10000 1 0 00:40 16.06.2019
6299 Clouds 16 1016 77 10000 1 0 00:19 16.06.2019
6300 Clouds 20 1015 72 10000 1.5 250 23:42 15.06.2019
6301 Clouds 20 1015 72 10000 1.5 250 23:23 15.06.2019
6302 Clouds 20 1015 72 10000 1.5 300 22:49 15.06.2019
6303 Rain 21 1014 68 10000 1 0 22:26 15.06.2019
6304 Clouds 21 1014 77 10000 3.1 250 21:47 15.06.2019
6305 Clouds 21 1014 77 10000 3.1 250 21:29 15.06.2019
6306 Clouds 21 1014 77 10000 3.6 270 20:57 15.06.2019
6307 Clouds 22 1014 73 10000 2.1 300 20:39 15.06.2019
6308 Clouds 22 1014 73 10000 1.5 230 20:18 15.06.2019
6309 Thunderstorm 23 1014 60 10000 5.7 80 19:41 15.06.2019
6310 Thunderstorm 23 1014 60 10000 5.7 80 19:23 15.06.2019
6311 Clouds 17 1013 50 10000 6.2 70 18:39 15.06.2019
6312 Clouds 23 1013 50 10000 6.2 70 18:20 15.06.2019
6313 Clouds 23 1013 50 10000 8.7 80 17:43 15.06.2019
6314 Clouds 23 1013 50 10000 8.7 80 17:22 15.06.2019
6315 Clouds 24 1013 47 10000 8.2 70 16:48 15.06.2019
6316 Clouds 23 1013 47 10000 8.2 70 16:20 15.06.2019
6317 Clouds 29 1013 39 10000 7.2 70 15:44 15.06.2019
6318 Clouds 25 1013 39 10000 7.2 70 15:23 15.06.2019
6319 Clouds 25 1013 27 10000 4.1 120 14:43 15.06.2019
6320 Clouds 25 1013 28 10000 5.1 130 14:19 15.06.2019
6321 Clouds 25 1013 28 10000 5.1 130 13:58 15.06.2019
6322 Clouds 26 1013 30 10000 6.2 90 13:39 15.06.2019
6323 Clouds 26 1013 30 10000 6.2 90 13:18 15.06.2019
6324 Clouds 25 1013 32 10000 7.2 120 12:47 15.06.2019
6325 Clouds 25 1013 32 10000 7.2 120 12:25 15.06.2019
6326 Clouds 25 1013 32 10000 7.2 120 11:51 15.06.2019
6327 Clouds 26 1014 30 10000 7.7 120 11:32 15.06.2019
6328 Clouds 25 1013 34 10000 6.2 130 10:47 15.06.2019
6329 Clouds 24 1013 34 10000 6.2 130 10:26 15.06.2019
6330 Clear 23 1009 42 0 4.02 167 09:58 15.06.2019
6331 Clouds 22 1014 50 10000 3.1 260 09:39 15.06.2019
6332 Clouds 21 1014 46 10000 2.6 250 09:19 15.06.2019
6333 Clouds 20 1014 52 10000 4.1 260 08:43 15.06.2019
6334 Clouds 20 1014 52 10000 4.1 260 08:24 15.06.2019
6335 Clouds 20 1013 36 10000 4.6 120 07:27 15.06.2019
6336 Clouds 18 1008 47 0 2.24 166 06:50 15.06.2019
6337 Clouds 18 1008 48 0 3.13 141 06:30 15.06.2019
6338 Clouds 19 1013 38 10000 3.6 90 05:41 15.06.2019
6339 Clouds 19 1013 41 10000 5.1 100 05:18 15.06.2019
6340 Clouds 20 1013 43 10000 5.1 90 04:30 15.06.2019
6341 Clouds 19 1015 49 10000 4.1 70 03:33 15.06.2019
6342 Clouds 19 1015 49 10000 4.1 70 03:33 15.06.2019
6343 Clouds 21 1015 36 10000 2.1 0 02:47 15.06.2019
6344 Clouds 20 1014 36 10000 4.1 50 01:59 15.06.2019
6345 Clouds 20 1014 30 10000 5.1 130 01:25 15.06.2019
6346 Clouds 21 1014 28 10000 4.6 100 00:43 15.06.2019
6347 Rain 21 1014 28 10000 4.6 100 00:25 15.06.2019
6348 Clouds 22 1015 38 10000 1.5 80 23:51 14.06.2019
6349 Clear 22 1014 33 10000 1 0 23:23 14.06.2019
6350 Clear 23 1013 24 10000 3.6 70 22:42 14.06.2019
6351 Clear 24 1013 24 10000 3.6 70 22:21 14.06.2019
6352 Clear 24 1013 33 10000 3.6 50 21:49 14.06.2019
6353 Clouds 26 1013 28 10000 2.6 70 21:30 14.06.2019
6354 Clouds 26 1013 32 10000 2.1 80 20:58 14.06.2019
6355 Clouds 27 1013 32 10000 2.6 50 20:39 14.06.2019
6356 Clouds 27 1013 22 10000 2.6 90 20:18 14.06.2019
6357 Clouds 29 1014 19 10000 1 0 19:42 14.06.2019
6358 Clouds 28 1013 22 10000 3.1 0 19:22 14.06.2019
6359 Clouds 32 1013 22 10000 3.1 0 18:55 14.06.2019
6360 Clouds 30 1014 18 10000 2.6 0 18:37 14.06.2019
6361 Clouds 30 1014 19 10000 4.1 250 18:19 14.06.2019
6362 Clouds 30 1014 16 10000 2.6 0 17:46 14.06.2019
6363 Clouds 30 1014 16 10000 2.6 0 17:24 14.06.2019
6364 Clouds 31 1014 16 10000 4.6 140 16:53 14.06.2019
6365 Clouds 31 1014 18 10000 5.7 140 16:27 14.06.2019
6366 Clouds 31 1012 37 0 2.68 62 15:59 14.06.2019
6367 Clouds 31 1015 16 10000 6.2 120 15:39 14.06.2019
6368 Clouds 31 1015 16 10000 6.2 120 15:20 14.06.2019
6369 Clouds 31 1015 16 10000 6.2 120 15:20 14.06.2019
6370 Clouds 31 1015 16 10000 6.2 120 15:20 14.06.2019
6371 Clouds 30 1016 19 10000 6.2 100 14:48 14.06.2019
6372 Clouds 30 1016 19 10000 6.2 100 14:48 14.06.2019
6373 Clouds 29 1015 35 0 3.64 348.162 14:29 14.06.2019
6374 Clouds 29 1015 35 0 3.64 348.162 14:29 14.06.2019
6375 Clear 29 1017 39 10000 1 0 13:47 14.06.2019
6376 Clear 29 1017 39 10000 1 0 13:29 14.06.2019
6377 Clear 29 1017 33 10000 2.1 250 12:59 14.06.2019
6378 Clear 29 1017 33 10000 2.1 250 12:59 14.06.2019
6379 Clear 28 1018 44 10000 3.1 280 12:39 14.06.2019
6380 Clear 28 1018 44 10000 3.1 280 12:39 14.06.2019
6381 Clear 26 1018 44 10000 3.1 280 12:21 14.06.2019
6382 Clear 26 1018 44 10000 3.1 280 12:21 14.06.2019
6383 Clear 23 1018 40 10000 1 0 11:42 14.06.2019
6384 Clear 22 1018 40 10000 1 0 11:23 14.06.2019
6385 Clear 23 1019 52 10000 2.6 270 10:48 14.06.2019
6386 Clear 24 1019 52 10000 3.1 270 10:22 14.06.2019
6387 Clear 23 1020 59 10000 3.1 280 09:55 14.06.2019
6388 Clear 20 1020 63 10000 3.1 270 09:34 14.06.2019
6389 Clear 16 1020 77 10000 3.6 270 08:49 14.06.2019
6390 Clear 15 1020 77 10000 1.5 250 08:21 14.06.2019
6391 Clear 15 1020 77 10000 1.5 250 08:21 14.06.2019
6392 Clear 15 1020 77 10000 1.5 250 07:58 14.06.2019
6393 Clear 15 1020 82 10000 0.5 0 07:39 14.06.2019
6394 Clear 14 1020 76 10000 1 0 07:18 14.06.2019
6395 Clear 13 1020 81 10000 2.38 174.958 06:27 14.06.2019
6396 Clear 13 1020 81 10000 1.5 260 05:49 14.06.2019
6397 Clear 9 1019 81 10000 1 0 04:55 14.06.2019
6398 Clear 10 1019 82 10000 1 0 04:28 14.06.2019
6399 Clear 10 1019 82 10000 1 0 03:41 14.06.2019
6400 Clouds 13 1019 82 10000 1 0 03:23 14.06.2019
6401 Clouds 14 1019 82 10000 0.5 0 02:41 14.06.2019
6402 Clouds 12 1019 72 10000 1.5 0 01:53 14.06.2019
6403 Clouds 14 1018 67 10000 1.5 280 00:41 14.06.2019
6404 Clouds 16 1018 67 10000 1.5 280 00:22 14.06.2019
6405 Clouds 15 1017 63 10000 1.5 270 23:51 13.06.2019
6406 Clouds 15 1017 63 10000 1.5 270 23:26 13.06.2019
6407 Clear 16 1017 56 10000 1.5 20 22:57 13.06.2019
6408 Clear 20 1016 60 10000 1.5 40 22:37 13.06.2019
6409 Clear 20 1016 60 10000 1.5 40 22:18 13.06.2019
6410 Clear 22 1015 53 10000 6.7 70 21:38 13.06.2019
6411 Clear 20 1015 53 10000 6.7 70 21:19 13.06.2019
6412 Clouds 21 1013 47 10000 7.2 40 20:45 13.06.2019
6413 Clouds 22 1013 47 10000 7.2 40 20:20 13.06.2019
6414 Clouds 26 1012 39 10000 7.2 40 19:55 13.06.2019
6415 Clouds 28 1012 17 10000 3.6 130 19:36 13.06.2019
6416 Clouds 24 1012 20 10000 2.1 0 19:18 13.06.2019
6417 Clouds 29 1011 90 10000 5.1 150 18:42 13.06.2019
6418 Clouds 24 1011 74 10000 5.1 150 18:23 13.06.2019
6419 Clouds 24 1011 74 10000 5.1 200 17:56 13.06.2019
6420 Clouds 29 1011 17 10000 5.7 170 17:36 13.06.2019
6421 Clouds 29 1011 74 10000 6.2 160 17:18 13.06.2019
6422 Clouds 29 1011 16 10000 7.2 160 16:41 13.06.2019
6423 Clouds 25 1011 16 10000 5.7 150 16:20 13.06.2019
6424 Clouds 25 1011 18 10000 6.7 140 15:43 13.06.2019
6425 Clouds 26 1011 18 10000 6.7 140 15:24 13.06.2019
6426 Clouds 25 1011 17 10000 5.1 160 14:54 13.06.2019
6427 Clouds 24 1011 18 10000 5.1 0 14:31 13.06.2019
6428 Clouds 24 1011 28 10000 3.6 0 13:59 13.06.2019
6429 Clouds 24 1012 41 10000 1.5 0 13:39 13.06.2019
6430 Clouds 24 1012 41 10000 1.5 0 13:21 13.06.2019
6431 Clouds 23 1013 53 10000 1.5 0 12:42 13.06.2019
6432 Clouds 22 1013 56 10000 3.1 100 12:22 13.06.2019
6433 Clouds 21 1014 56 10000 2.6 100 11:47 13.06.2019
6434 Clouds 21 1014 56 10000 2.6 100 11:29 13.06.2019
6435 Clouds 20 1014 64 10000 1 0 10:55 13.06.2019
6436 Clouds 20 1014 64 10000 1 0 10:55 13.06.2019
6437 Clouds 19 1015 60 10000 1.5 80 10:37 13.06.2019
6438 Clouds 18 1015 63 10000 3.6 90 10:18 13.06.2019
6439 Clouds 17 1015 68 10000 3.6 90 09:42 13.06.2019
6440 Clouds 16 1015 72 10000 2.1 50 09:22 13.06.2019
6441 Clouds 15 1016 77 10000 2.6 60 08:44 13.06.2019
6442 Clouds 14 1016 77 10000 2.6 70 08:23 13.06.2019
6443 Clouds 14 1016 77 10000 2.1 60 07:52 13.06.2019
6444 Clouds 14 1016 77 10000 2.1 60 07:25 13.06.2019
6445 Clouds 14 1015 77 10000 2.6 80 06:47 13.06.2019
6446 Clouds 15 1015 77 10000 2.6 80 06:23 13.06.2019
6447 Clouds 15 1015 77 10000 2.6 70 05:55 13.06.2019
6448 Clouds 15 1014 77 10000 2.6 50 05:36 13.06.2019
6449 Clouds 15 1014 82 10000 1 0 04:57 13.06.2019
6450 Clouds 15 1014 87 10000 1 0 02:33 13.06.2019
6451 Clouds 16 1014 82 10000 1 0 00:55 13.06.2019
6452 Rain 16 1014 87 10000 1 0 00:22 13.06.2019
6453 Clouds 16 1013 82 10000 2.6 300 23:24 12.06.2019
6454 Clouds 17 1012 77 10000 2.6 50 22:45 12.06.2019
6455 Clouds 17 1012 77 10000 2.6 50 22:26 12.06.2019
6456 Clouds 18 1012 72 10000 2.1 100 21:57 12.06.2019
6457 Clouds 19 1012 68 10000 2.6 70 21:38 12.06.2019
6458 Clouds 18 1012 68 10000 2.6 70 21:18 12.06.2019
6459 Rain 18 1011 68 10000 4.6 50 20:38 12.06.2019
6460 Rain 18 1011 68 10000 4.6 50 20:20 12.06.2019
6461 Clouds 18 1011 64 10000 4.6 90 19:42 12.06.2019
6462 Clouds 18 1010 64 10000 3.1 50 19:23 12.06.2019
6463 Clouds 19 1010 64 10000 3.1 50 18:57 12.06.2019
6464 Clouds 19 1010 60 10000 4.1 90 18:39 12.06.2019
6465 Clouds 20 1010 60 10000 4.1 90 18:19 12.06.2019
6466 Clouds 20 1009 56 10000 8.2 70 17:44 12.06.2019
6467 Clouds 21 1008 53 10000 7.7 70 17:21 12.06.2019
6468 Clouds 21 1008 32 10000 2.6 0 16:42 12.06.2019
6469 Clouds 21 1008 32 10000 2.6 0 16:23 12.06.2019
6470 Clouds 22 1008 34 10000 3.1 230 15:54 12.06.2019
6471 Rain 22 1007 32 10000 1.5 80 15:32 12.06.2019
6472 Clouds 22 1006 26 10000 3.1 0 14:50 12.06.2019
6473 Clouds 22 1006 26 10000 3.1 0 14:29 12.06.2019
6474 Clouds 22 1006 30 10000 3.1 0 13:55 12.06.2019
6475 Clouds 23 1006 28 10000 3.1 0 13:36 12.06.2019
6476 Clouds 23 1006 34 10000 2.1 0 13:18 12.06.2019
6477 Clouds 22 1006 50 10000 3.1 0 12:39 12.06.2019
6478 Clouds 22 1006 50 10000 3.1 0 12:19 12.06.2019
6479 Clouds 21 1006 77 10000 3.6 240 11:47 12.06.2019
6480 Clouds 21 1006 77 10000 3.6 240 11:47 12.06.2019
6481 Clouds 21 1006 77 10000 3.6 240 11:29 12.06.2019
6482 Clouds 21 1006 72 10000 2.6 270 10:54 12.06.2019
6483 Clouds 20 1006 77 10000 5.1 270 10:35 12.06.2019
6484 -273 0 0 0 0 0 09:58 12.06.2019
6485 Clouds 20 1006 82 10000 6.2 260 09:40 12.06.2019
6486 Clouds 16 1006 82 10000 6.2 250 09:18 12.06.2019
6487 Clouds 16 1007 87 10000 3.1 0 08:26 12.06.2019
6488 Clouds 16 1007 93 10000 1.5 0 07:52 12.06.2019
6489 Rain 15 1008 93 10000 2.6 0 06:57 12.06.2019
6490 Rain 14 1008 93 10000 2.1 0 06:29 12.06.2019
6491 Rain 15 1009 93 10000 2.1 0 05:25 12.06.2019
6492 Clouds 16 1010 82 10000 4.1 270 02:20 12.06.2019
6493 Rain 17 1010 67 10000 3.1 280 00:46 12.06.2019
6494 Clouds 19 1010 59 10000 4.1 270 23:54 11.06.2019
6495 Clouds 18 1010 52 10000 7.7 250 23:35 11.06.2019
6496 Clouds 20 1010 49 10000 8.2 240 22:57 11.06.2019
6497 Clouds 20 1010 46 10000 8.2 240 22:38 11.06.2019
6498 Clouds 20 1009 40 10000 9.8 240 22:18 11.06.2019
6499 Clouds 20 1009 40 10000 9.8 240 22:18 11.06.2019
6500 Clouds 20 1010 40 10000 6.2 240 21:41 11.06.2019
6501 Clouds 21 1010 40 10000 6.2 240 21:23 11.06.2019
6502 Clouds 21 1009 35 10000 6.2 240 20:58 11.06.2019
6503 Clouds 21 1009 35 10000 6.2 240 20:58 11.06.2019
6504 Clouds 22 1009 35 10000 6.2 240 20:39 11.06.2019
6505 Clouds 23 1009 35 10000 6.2 240 20:21 11.06.2019
6506 Clouds 22 1008 27 10000 3.6 0 19:51 11.06.2019
6507 Clouds 22 1008 27 10000 3.6 0 19:28 11.06.2019
6508 Clouds 23 1008 30 10000 3.1 280 18:49 11.06.2019
6509 Rain 24 1007 32 10000 2.6 0 18:20 11.06.2019
6510 Rain 24 1007 32 10000 2.6 0 18:20 11.06.2019
6511 Rain 24 1006 32 10000 3.6 0 17:41 11.06.2019
6512 Clouds 24 1005 55 0 4.02 225 17:20 11.06.2019
6513 Clouds 24 1003 48 0 0.89 204 16:43 11.06.2019
6514 Clouds 24 1003 46 0 1.79 177 16:24 11.06.2019
6515 Clouds 25 1007 25 10000 4.1 0 15:44 11.06.2019
6516 Clouds 25 1007 25 10000 4.1 0 15:25 11.06.2019
6517 Clouds 25 1006 35 10000 5.7 40 14:58 11.06.2019
6518 Clouds 25 1006 47 10000 4.1 60 14:39 11.06.2019
6519 Clouds 25 1007 50 10000 4.6 100 14:19 11.06.2019
6520 Clouds 25 1007 57 10000 6.7 60 13:43 11.06.2019
6521 Clouds 25 1007 57 10000 6.7 60 13:21 11.06.2019
6522 Clouds 23 1008 56 10000 6.2 90 12:42 11.06.2019
6523 Clouds 20 1008 60 10000 6.7 100 12:22 11.06.2019
6524 Clouds 20 1008 60 10000 6.7 100 11:57 11.06.2019
6525 Clouds 19 1009 60 10000 7.2 80 11:33 11.06.2019
6526 -273 0 0 0 0 0 10:57 11.06.2019
6527 Clouds 20 1009 68 10000 6.2 90 10:39 11.06.2019
6528 Clouds 18 1009 68 10000 6.2 90 10:19 11.06.2019
6529 Clouds 19 1010 68 10000 5.1 80 09:43 11.06.2019
6530 Clouds 16 1010 68 10000 5.1 80 09:23 11.06.2019
6531 Clouds 15 1012 87 10000 2.6 130 08:41 11.06.2019
6532 Clouds 15 1012 82 10000 1.5 100 08:22 11.06.2019
6533 Clouds 15 1012 87 10000 1.5 110 07:34 11.06.2019
6534 Thunderstorm 15 1011 93 10000 2.1 260 06:54 11.06.2019
6535 Clouds 14 1011 93 10000 1.5 250 05:56 11.06.2019
6536 Clouds 15 1010 87 10000 3.1 80 04:40 11.06.2019
6537 Clouds 16 1009 82 10000 6.2 90 02:27 11.06.2019
6538 -273 0 0 0 0 0 02:27 11.06.2019
6539 Clouds 17 1009 77 10000 3.1 130 00:54 11.06.2019
6540 Clouds 17 1010 77 10000 3.6 110 00:31 11.06.2019
6541 Clouds 17 1010 72 10000 5.7 100 23:46 10.06.2019
6542 Clouds 17 1011 72 10000 5.1 90 23:21 10.06.2019
6543 Clouds 17 1011 72 10000 5.1 90 22:46 10.06.2019
6544 Clouds 17 1011 72 10000 5.1 90 22:46 10.06.2019
6545 Clouds 17 1011 72 10000 5.1 90 22:27 10.06.2019
6546 Clouds 18 1011 68 10000 3.1 70 21:58 10.06.2019
6547 Clouds 18 1011 68 10000 4.1 70 21:38 10.06.2019
6548 Clouds 19 1011 68 10000 4.1 70 21:20 10.06.2019
6549 Clouds 19 1010 60 10000 4.1 110 20:44 10.06.2019
6550 Clouds 19 1010 60 10000 4.1 110 20:21 10.06.2019
6551 Clouds 19 1011 60 10000 4.1 100 19:48 10.06.2019
6552 Clouds 19 1011 60 10000 4.1 100 19:23 10.06.2019
6553 Clouds 19 1012 64 10000 3.6 50 18:58 10.06.2019
6554 Rain 21 1012 56 10000 3.6 10 18:40 10.06.2019
6555 Rain 22 1012 56 10000 3.6 10 18:20 10.06.2019
6556 Clouds 24 1010 57 10000 4.1 80 17:44 10.06.2019
6557 Clouds 24 1010 57 10000 4.1 80 17:24 10.06.2019
6558 Clouds 25 1010 53 10000 3.6 110 16:56 10.06.2019
6559 Clouds 25 1010 53 10000 4.1 100 16:37 10.06.2019
6560 Clouds 25 1010 53 10000 4.1 100 16:18 10.06.2019
6561 Clouds 24 1011 60 10000 6.2 80 15:41 10.06.2019
6562 Clouds 24 1011 60 10000 6.2 80 15:23 10.06.2019
6563 Clouds 23 1012 60 10000 4.1 100 14:46 10.06.2019
6564 Clouds 24 1012 60 10000 4.1 100 14:28 10.06.2019
6565 Clouds 23 1013 64 10000 4.6 100 13:56 10.06.2019
6566 Clouds 22 1014 73 10000 5.7 90 13:38 10.06.2019
6567 Clouds 23 1014 68 10000 5.7 80 13:19 10.06.2019
6568 Clouds 22 1014 68 10000 5.1 100 12:40 10.06.2019
6569 Clouds 21 1014 68 10000 5.1 100 12:22 10.06.2019
6570 Clouds 21 1015 68 10000 2.1 0 11:43 10.06.2019
6571 Clouds 20 1016 68 10000 0.5 0 11:19 10.06.2019
6572 Clouds 20 1016 68 10000 0.5 0 11:19 10.06.2019
6573 Clouds 20 1016 72 10000 2.1 280 10:42 10.06.2019
6574 Clouds 20 1016 72 10000 2.1 280 10:20 10.06.2019
6575 Clouds 19 1017 82 10000 1.5 260 09:55 10.06.2019
6576 Clouds 18 1017 82 10000 1.5 260 09:32 10.06.2019
6577 Rain 16 1017 82 10000 0.5 0 08:50 10.06.2019
6578 Rain 16 1017 82 10000 0.5 0 08:27 10.06.2019
6579 Rain 15 1017 87 10000 1 0 07:46 10.06.2019
6580 Clouds 15 1017 87 10000 1.5 200 06:26 10.06.2019
6581 Clouds 16 1018 87 10000 1 0 03:46 10.06.2019
6582 Clouds 15 1019 88 10000 1.5 40 01:56 10.06.2019
6583 Clouds 15 1019 88 10000 3.6 140 01:23 10.06.2019
6584 Clouds 16 1020 77 10000 6.2 50 00:48 10.06.2019
6585 Rain 17 1021 82 10000 3.6 70 23:58 09.06.2019
6586 Rain 18 1020 64 10000 5.1 240 23:38 09.06.2019
6587 Rain 17 1020 56 10000 5.7 260 23:18 09.06.2019
6588 Clouds 18 1019 56 10000 2.1 0 22:41 09.06.2019
6589 Clouds 22 1019 56 10000 2.1 0 22:21 09.06.2019
6590 Clouds 23 1018 53 10000 4.1 70 21:40 09.06.2019
6591 Clouds 22 1018 50 10000 2.6 80 21:22 09.06.2019
6592 Clouds 22 1018 50 10000 3.1 70 20:42 09.06.2019
6593 Clouds 22 1018 50 10000 3.1 70 20:22 09.06.2019
6594 Clouds 21 1018 53 10000 3.1 80 19:46 09.06.2019
6595 Clouds 21 1018 53 10000 3.1 80 19:46 09.06.2019
6596 Clouds 23 1018 50 10000 3.1 60 19:19 09.06.2019
6597 Clouds 23 1018 50 10000 3.1 60 18:56 09.06.2019
6598 Clouds 23 1018 47 10000 2.6 250 18:37 09.06.2019
6599 Clouds 24 1018 47 10000 2.6 250 18:19 09.06.2019
6600 Clouds 24 1018 44 10000 3.6 60 17:43 09.06.2019
6601 Clouds 25 1018 44 10000 3.6 60 17:24 09.06.2019
6602 Clouds 24 1019 41 10000 1.5 360 16:41 09.06.2019
6603 Clouds 24 1017 39 0 1.79 135 16:21 09.06.2019
6604 Clouds 24 1019 50 10000 2.6 290 15:56 09.06.2019
6605 Clouds 24 1020 53 10000 3.1 270 15:38 09.06.2019
6606 Clouds 24 1020 53 10000 4.1 260 15:20 09.06.2019
6607 Clear 23 1020 49 10000 4.6 260 14:42 09.06.2019
6608 Clear 23 1020 49 10000 4.6 260 14:21 09.06.2019
6609 Clear 24 1021 49 10000 4.6 260 13:50 09.06.2019
6610 Clear 24 1021 49 10000 4.1 280 13:22 09.06.2019
6611 Clear 23 1022 49 10000 5.7 260 12:41 09.06.2019
6612 Clear 22 1023 52 10000 5.7 270 12:22 09.06.2019
6613 Clear 20 1023 55 10000 4.1 270 11:39 09.06.2019
6614 Clear 20 1023 55 10000 4.1 270 11:21 09.06.2019
6615 Clear 21 1023 63 10000 3.1 280 10:45 09.06.2019
6616 Clear 21 1023 63 10000 3.1 280 10:23 09.06.2019
6617 Clear 20 1024 71 10000 2.6 260 09:41 09.06.2019
6618 Clear 20 1024 71 10000 2.6 260 09:41 09.06.2019
6619 Clear 20 1024 71 10000 2.6 260 09:41 09.06.2019
6620 Clear 20 1024 71 10000 2.6 260 09:41 09.06.2019
6621 Clear 14 1024 71 10000 2.6 260 09:22 09.06.2019
6622 Clear 12 1025 81 10000 2.1 280 08:47 09.06.2019
6623 Clear 12 1025 81 10000 2.1 280 08:28 09.06.2019
6624 Clear 10 1025 81 10000 1.5 250 07:21 09.06.2019
6625 Clear 9 1026 93 10000 2.1 250 06:30 09.06.2019
6626 Clouds 9 1026 87 10000 0.5 0 04:59 09.06.2019
6627 Clear 11 1026 76 10000 0.5 0 01:39 09.06.2019
6628 Clear 9 1026 76 10000 0.5 0 01:21 09.06.2019
6629 Clear 9 1026 76 10000 0.5 0 01:21 09.06.2019
6630 Clear 10 1026 76 10000 0.5 0 00:59 09.06.2019
6631 Clouds 12 1025 76 10000 0.5 0 23:45 08.06.2019
6632 Clouds 12 1025 76 10000 0.5 0 23:25 08.06.2019
6633 Clouds 12 1025 71 10000 0.5 0 22:58 08.06.2019
6634 Clouds 15 1025 67 10000 1 20 22:40 08.06.2019
6635 Clouds 12 1025 67 10000 1 20 22:19 08.06.2019
6636 Clouds 15 1025 67 10000 1 0 21:51 08.06.2019
6637 Clouds 15 1025 67 10000 1 0 21:51 08.06.2019
6638 Clouds 16 1024 63 10000 1 0 21:27 08.06.2019
6639 Clouds 16 1025 63 10000 1.5 20 20:58 08.06.2019
6640 Clouds 16 1025 59 10000 2.1 40 20:40 08.06.2019
6641 Clouds 17 1025 59 10000 2.1 40 20:19 08.06.2019
6642 Clouds 17 1025 52 10000 0.5 0 19:40 08.06.2019
6643 Clouds 17 1025 48 10000 1.64 39.112 19:20 08.06.2019
6644 Clouds 17 1025 48 10000 1.64 39.112 18:56 08.06.2019
6645 Clouds 17 1025 52 10000 1 0 18:35 08.06.2019
6646 Clouds 18 1025 52 10000 0.5 0 17:57 08.06.2019
6647 Clouds 18 1025 52 10000 0.5 0 17:38 08.06.2019
6648 Clouds 18 1025 48 10000 1 0 17:18 08.06.2019
6649 Clouds 18 1025 48 10000 2.1 0 16:38 08.06.2019
6650 Clouds 18 1025 48 10000 1.5 200 16:18 08.06.2019
6651 Clouds 17 1026 55 10000 0.5 0 15:37 08.06.2019
6652 Clouds 17 1026 51 10000 1 0 14:53 08.06.2019
6653 Clouds 17 1026 55 10000 1.5 270 14:32 08.06.2019
6654 Clouds 17 1026 59 10000 2.6 280 13:59 08.06.2019
6655 Clouds 16 1026 59 10000 2.6 300 13:24 08.06.2019
6656 Clouds 16 1025 59 10000 2.6 40 12:45 08.06.2019
6657 Clouds 14 1025 59 10000 2.6 40 12:20 08.06.2019
6658 Clouds 13 1025 58 10000 4.6 50 11:43 08.06.2019
6659 Clouds 12 1025 58 10000 3.6 60 11:22 08.06.2019
6660 Clouds 14 1025 58 10000 5.1 60 10:44 08.06.2019
6661 Clouds 14 1025 58 10000 5.1 60 10:22 08.06.2019
6662 Clouds 14 1024 51 10000 5.1 70 09:48 08.06.2019
6663 Clouds 14 1023 51 10000 4.1 70 09:21 08.06.2019
6664 Clouds 14 1023 59 10000 1.5 40 08:29 08.06.2019
6665 Clouds 14 1022 63 10000 1 0 07:47 08.06.2019
6666 Clouds 14 1021 63 10000 2.1 110 06:50 08.06.2019
6667 Clouds 16 1020 67 10000 2.6 80 05:47 08.06.2019
6668 Clouds 16 1017 55 10000 1 0 03:30 08.06.2019
6669 Rain 22 1016 35 10000 4.6 100 01:25 08.06.2019
6670 Clouds 20 1016 35 10000 3.1 0 00:25 08.06.2019
6671 Clouds 20 1015 35 10000 4.1 0 23:41 07.06.2019
6672 Clouds 20 1015 35 10000 6.7 50 23:20 07.06.2019
6673 Clouds 24 1014 31 10000 7.7 130 22:39 07.06.2019
6674 Clouds 24 1013 33 10000 5.1 0 22:19 07.06.2019
6675 Clouds 24 1013 33 10000 5.1 0 21:49 07.06.2019
6676 Clouds 25 1013 31 10000 5.1 140 21:28 07.06.2019
6677 Clouds 24 1012 31 10000 9.3 130 20:55 07.06.2019
6678 Clouds 25 1011 29 10000 7.7 130 20:35 07.06.2019
6679 Clouds 27 1011 29 10000 7.7 140 19:48 07.06.2019
6680 Clouds 27 1011 28 10000 6.7 110 19:21 07.06.2019
6681 Clouds 27 1011 28 10000 6.7 110 18:52 07.06.2019
6682 Clouds 27 1010 28 10000 7.7 130 18:28 07.06.2019
6683 Clouds 28 1010 28 10000 7.2 130 17:48 07.06.2019
6684 Clouds 28 1010 28 10000 7.2 130 17:27 07.06.2019
6685 Clouds 28 1010 26 10000 8.2 160 16:52 07.06.2019
6686 Clear 29 1010 28 10000 8.7 120 16:33 07.06.2019
6687 Clear 28 1011 26 10000 5.7 0 15:50 07.06.2019
6688 Clear 27 1011 28 10000 7.7 130 15:21 07.06.2019
6689 Clouds 26 1011 27 10000 8.7 130 14:47 07.06.2019
6690 Clouds 26 1011 27 10000 8.7 130 14:25 07.06.2019
6691 Clouds 25 1012 31 10000 9.3 120 13:45 07.06.2019
6692 Clouds 25 1012 31 10000 9.3 120 13:25 07.06.2019
6693 Clouds 25 1012 33 10000 7.2 130 12:48 07.06.2019
6694 Clouds 23 1012 33 10000 7.2 130 12:22 07.06.2019
6695 Clouds 22 1013 43 10000 6.7 30 11:49 07.06.2019
6696 Clouds 22 1013 43 10000 6.7 30 11:29 07.06.2019
6697 Clouds 23 1013 60 10000 2.6 240 10:49 07.06.2019
6698 Clouds 20 1014 63 10000 4.6 280 10:28 07.06.2019
6699 Clouds 19 1014 72 10000 4.6 270 09:53 07.06.2019
6700 Clouds 19 1014 72 10000 4.6 270 09:53 07.06.2019
6701 Clouds 17 1015 72 10000 5.7 270 09:30 07.06.2019
6702 Clouds 15 1015 77 10000 5.1 270 08:56 07.06.2019
6703 Clouds 14 1016 77 10000 3.6 260 08:33 07.06.2019
6704 Clouds 13 1016 82 10000 3.1 290 07:57 07.06.2019
6705 Clouds 12 1016 87 10000 2.1 280 07:38 07.06.2019
6706 Clouds 12 1016 87 10000 0.5 0 07:20 07.06.2019
6707 Clouds 11 1016 87 10000 0.5 0 06:41 07.06.2019
6708 Clouds 11 1016 87 10000 1 0 06:18 07.06.2019
6709 Clouds 11 1016 82 10000 2.6 80 04:27 07.06.2019
6710 Clouds 12 1016 77 10000 3.6 80 01:46 07.06.2019
6711 Clouds 12 1016 77 10000 3.6 80 01:27 07.06.2019
6712 Clouds 13 1016 72 10000 4.1 70 00:26 07.06.2019
6713 Clouds 14 1015 67 10000 4.1 70 23:43 06.06.2019
6714 Clouds 14 1015 67 10000 4.1 70 23:22 06.06.2019
6715 Clouds 13 1014 67 10000 3.6 280 22:40 06.06.2019
6716 Clouds 13 1014 67 10000 3.6 280 22:21 06.06.2019
6717 Clouds 13 1014 68 10000 5.7 260 21:57 06.